<?xml version='1.0' encoding='UTF-8'?><gpx version="1.1" creator="JPX - https://github.com/jenetics/jpx" xmlns="http://www.topografix.com/GPX/1/1"><trk><trkseg><trkpt lat="45.45593818660011" lon="9.154557813336286"><ele>126.0</ele><time>2026-04-10T09:47:49.001Z</time></trkpt><trkpt lat="45.45580148018016" lon="9.154579029013425"><ele>126.0</ele><time>2026-04-10T09:47:51Z</time></trkpt><trkpt lat="45.45570950231174" lon="9.154567873962936"><ele>126.0</ele><time>2026-04-10T09:47:52Z</time></trkpt><trkpt lat="45.45560471247988" lon="9.154559367876328"><ele>126.0</ele><time>2026-04-10T09:47:53Z</time></trkpt><trkpt lat="45.4554928973553" lon="9.154533628461182"><ele>126.0</ele><time>2026-04-10T09:47:54Z</time></trkpt><trkpt lat="45.45539232212826" lon="9.154548072532567"><ele>125.6</ele><time>2026-04-10T09:47:55Z</time></trkpt><trkpt lat="45.45529843242686" lon="9.154539233468752"><ele>125.19999999999999</ele><time>2026-04-10T09:47:56Z</time></trkpt><trkpt lat="45.45519168871569" lon="9.1545359411469"><ele>124.80000000000001</ele><time>2026-04-10T09:47:57Z</time></trkpt><trkpt lat="45.455079609375986" lon="9.15453255264917"><ele>124.4</ele><time>2026-04-10T09:47:58Z</time></trkpt><trkpt lat="45.45496889707387" lon="9.154524905184706"><ele>124.0</ele><time>2026-04-10T09:47:59Z</time></trkpt><trkpt lat="45.45486829219645" lon="9.154512997545808"><ele>124.00000000000001</ele><time>2026-04-10T09:48:00Z</time></trkpt><trkpt lat="45.454780321387226" lon="9.154509975964052"><ele>124.0</ele><time>2026-04-10T09:48:01Z</time></trkpt><trkpt lat="45.454701318160225" lon="9.154505914841177"><ele>124.0</ele><time>2026-04-10T09:48:02Z</time></trkpt><trkpt lat="45.454628209724554" lon="9.154489735917185"><ele>124.0</ele><time>2026-04-10T09:48:03Z</time></trkpt><trkpt lat="45.454560835088024" lon="9.154483009746611"><ele>124.00000000000001</ele><time>2026-04-10T09:48:04Z</time></trkpt><trkpt lat="45.45444935276932" lon="9.154441521897327"><ele>124.0</ele><time>2026-04-10T09:48:06Z</time></trkpt><trkpt lat="45.45435617160902" lon="9.154348337272795"><ele>123.80000000000001</ele><time>2026-04-10T09:48:08Z</time></trkpt><trkpt lat="45.45424051375784" lon="9.15434242759751"><ele>123.60000000000001</ele><time>2026-04-10T09:48:10Z</time></trkpt><trkpt lat="45.454172953269435" lon="9.154401740148941"><ele>123.4</ele><time>2026-04-10T09:48:11Z</time></trkpt><trkpt lat="45.454095748831286" lon="9.15445470695228"><ele>123.2</ele><time>2026-04-10T09:48:12Z</time></trkpt><trkpt lat="45.45398637864264" lon="9.154515245772684"><ele>123.0</ele><time>2026-04-10T09:48:13Z</time></trkpt><trkpt lat="45.453900425766314" lon="9.154614661480778"><ele>122.60000000000001</ele><time>2026-04-10T09:48:14Z</time></trkpt><trkpt lat="45.45378066798129" lon="9.154614491363605"><ele>122.20000000000002</ele><time>2026-04-10T09:48:15Z</time></trkpt><trkpt lat="45.45368602943492" lon="9.15467153459074"><ele>121.8</ele><time>2026-04-10T09:48:16Z</time></trkpt><trkpt lat="45.45359479013538" lon="9.154725370336301"><ele>121.4</ele><time>2026-04-10T09:48:17Z</time></trkpt><trkpt lat="45.45351637579335" lon="9.154773345289616"><ele>121.0</ele><time>2026-04-10T09:48:18Z</time></trkpt><trkpt lat="45.45344700791915" lon="9.154818586855894"><ele>121.00000000000001</ele><time>2026-04-10T09:48:19Z</time></trkpt><trkpt lat="45.45337993271257" lon="9.154859784000381"><ele>121.0</ele><time>2026-04-10T09:48:20Z</time></trkpt><trkpt lat="45.45331531193213" lon="9.154895171035989"><ele>121.0</ele><time>2026-04-10T09:48:21Z</time></trkpt><trkpt lat="45.45323254885729" lon="9.154936382953611"><ele>121.0</ele><time>2026-04-10T09:48:22Z</time></trkpt><trkpt lat="45.45315234075737" lon="9.154980204236788"><ele>121.00000000000001</ele><time>2026-04-10T09:48:23Z</time></trkpt><trkpt lat="45.45308749181124" lon="9.155026464314615"><ele>121.0</ele><time>2026-04-10T09:48:24Z</time></trkpt><trkpt lat="45.45298721094443" lon="9.155093053665714"><ele>120.66666666666667</ele><time>2026-04-10T09:48:26Z</time></trkpt><trkpt lat="45.45292772462495" lon="9.155153166822934"><ele>120.33333333333334</ele><time>2026-04-10T09:48:28Z</time></trkpt><trkpt lat="45.452860569688156" lon="9.155157502410903"><ele>120.0</ele><time>2026-04-10T09:48:32Z</time></trkpt><trkpt lat="45.45279621566726" lon="9.155150235194247"><ele>119.66666666666666</ele><time>2026-04-10T09:48:39Z</time></trkpt><trkpt lat="45.452746240361115" lon="9.154936796648238"><ele>119.33333333333333</ele><time>2026-04-10T09:48:43Z</time></trkpt><trkpt lat="45.45271876049529" lon="9.15484350712226"><ele>119.0</ele><time>2026-04-10T09:48:43.999Z</time></trkpt><trkpt lat="45.45268479219523" lon="9.154728000797185"><ele>118.99999999999999</ele><time>2026-04-10T09:48:44.999Z</time></trkpt><trkpt lat="45.452657254184665" lon="9.154633954673018"><ele>119.0</ele><time>2026-04-10T09:48:45.999Z</time></trkpt><trkpt lat="45.45262312866299" lon="9.154517411460708"><ele>119.0</ele><time>2026-04-10T09:48:47.999Z</time></trkpt><trkpt lat="45.45258509189765" lon="9.154397255594764"><ele>119.0</ele><time>2026-04-10T09:49:39Z</time></trkpt><trkpt lat="45.452548417399996" lon="9.154303346489304"><ele>118.99999999999999</ele><time>2026-04-10T09:49:42Z</time></trkpt><trkpt lat="45.45251952837303" lon="9.154221473648"><ele>119.0</ele><time>2026-04-10T09:49:45Z</time></trkpt><trkpt lat="45.452486247493965" lon="9.154130297547555"><ele>118.99999999999999</ele><time>2026-04-10T09:49:49Z</time></trkpt><trkpt lat="45.45239335096575" lon="9.154231755807384"><ele>119.0</ele><time>2026-04-10T09:49:51Z</time></trkpt><trkpt lat="45.452331628153594" lon="9.154191499010945"><ele>119.0</ele><time>2026-04-10T09:49:52Z</time></trkpt><trkpt lat="45.45227563989341" lon="9.154235819145706"><ele>119.0</ele><time>2026-04-10T09:49:53Z</time></trkpt><trkpt lat="45.45221152326384" lon="9.154279900524807"><ele>118.99999999999999</ele><time>2026-04-10T09:49:54Z</time></trkpt><trkpt lat="45.45210546087643" lon="9.154334798576729"><ele>119.0</ele><time>2026-04-10T09:49:56Z</time></trkpt><trkpt lat="45.45200589453343" lon="9.154388894155742"><ele>119.66666666666666</ele><time>2026-04-10T09:49:58Z</time></trkpt><trkpt lat="45.4519117342715" lon="9.15443259987341"><ele>120.33333333333333</ele><time>2026-04-10T09:50:00Z</time></trkpt><trkpt lat="45.451832845361416" lon="9.154461603757513"><ele>121.0</ele><time>2026-04-10T09:50:02Z</time></trkpt><trkpt lat="45.45176386749941" lon="9.15450371623414"><ele>121.66666666666666</ele><time>2026-04-10T09:50:05Z</time></trkpt><trkpt lat="45.4517075755524" lon="9.154544292771273"><ele>122.33333333333333</ele><time>2026-04-10T09:50:09Z</time></trkpt><trkpt lat="45.45161860656274" lon="9.15459954530047"><ele>123.0</ele><time>2026-04-10T09:50:15Z</time></trkpt><trkpt lat="45.4515049874821" lon="9.15465431608247"><ele>123.0</ele><time>2026-04-10T09:50:17Z</time></trkpt><trkpt lat="45.451421041459426" lon="9.154707371909728"><ele>123.00000000000001</ele><time>2026-04-10T09:50:18Z</time></trkpt><trkpt lat="45.45133198977637" lon="9.15476972726677"><ele>123.00000000000001</ele><time>2026-04-10T09:50:19Z</time></trkpt><trkpt lat="45.451243840019146" lon="9.15482274118443"><ele>123.0</ele><time>2026-04-10T09:50:20Z</time></trkpt><trkpt lat="45.45114697713884" lon="9.15486965043686"><ele>123.0</ele><time>2026-04-10T09:50:21Z</time></trkpt><trkpt lat="45.45105751614165" lon="9.154920921878597"><ele>122.80000000000001</ele><time>2026-04-10T09:50:22Z</time></trkpt><trkpt lat="45.45096932347031" lon="9.154967882693024"><ele>122.60000000000001</ele><time>2026-04-10T09:50:23Z</time></trkpt><trkpt lat="45.450899695570236" lon="9.155012815989451"><ele>122.39999999999999</ele><time>2026-04-10T09:50:24Z</time></trkpt><trkpt lat="45.45082607114887" lon="9.155056457871424"><ele>122.19999999999999</ele><time>2026-04-10T09:50:25Z</time></trkpt><trkpt lat="45.45073544022037" lon="9.155112453475956"><ele>122.0</ele><time>2026-04-10T09:50:26Z</time></trkpt><trkpt lat="45.450640392063605" lon="9.155178331877718"><ele>122.0</ele><time>2026-04-10T09:50:27Z</time></trkpt><trkpt lat="45.450544757844845" lon="9.15522545309137"><ele>121.99999999999999</ele><time>2026-04-10T09:50:28Z</time></trkpt><trkpt lat="45.450447710657826" lon="9.15527614520617"><ele>121.99999999999999</ele><time>2026-04-10T09:50:29Z</time></trkpt><trkpt lat="45.45035228673592" lon="9.155332784862164"><ele>122.0</ele><time>2026-04-10T09:50:30Z</time></trkpt><trkpt lat="45.45026264743385" lon="9.155425640393043"><ele>122.0</ele><time>2026-04-10T09:50:31Z</time></trkpt><trkpt lat="45.450189238999" lon="9.155598585315074"><ele>121.25</ele><time>2026-04-10T09:50:32Z</time></trkpt><trkpt lat="45.45005840226856" lon="9.155685265381349"><ele>120.5</ele><time>2026-04-10T09:50:33Z</time></trkpt><trkpt lat="45.449968723014095" lon="9.15581635759234"><ele>119.75</ele><time>2026-04-10T09:50:34Z</time></trkpt><trkpt lat="45.449878965819984" lon="9.155955746677703"><ele>119.0</ele><time>2026-04-10T09:50:35Z</time></trkpt><trkpt lat="45.44978757992882" lon="9.156112645322706"><ele>119.0</ele><time>2026-04-10T09:50:36Z</time></trkpt><trkpt lat="45.44969327012228" lon="9.156280472001546"><ele>119.0</ele><time>2026-04-10T09:50:37Z</time></trkpt><trkpt lat="45.449595664857604" lon="9.156450846588564"><ele>119.0</ele><time>2026-04-10T09:50:38Z</time></trkpt><trkpt lat="45.449497674439485" lon="9.156619919827202"><ele>118.5</ele><time>2026-04-10T09:50:39Z</time></trkpt><trkpt lat="45.449404758391864" lon="9.156778581837628"><ele>118.0</ele><time>2026-04-10T09:50:40Z</time></trkpt><trkpt lat="45.44930684703811" lon="9.156925895164651"><ele>117.5</ele><time>2026-04-10T09:50:41Z</time></trkpt><trkpt lat="45.449206286478535" lon="9.157049761798081"><ele>117.0</ele><time>2026-04-10T09:50:42Z</time></trkpt><trkpt lat="45.44909941693692" lon="9.15715369008829"><ele>117.0</ele><time>2026-04-10T09:50:43Z</time></trkpt><trkpt lat="45.44898988197677" lon="9.157246035181748"><ele>117.0</ele><time>2026-04-10T09:50:44Z</time></trkpt><trkpt lat="45.448878164110795" lon="9.157325305062017"><ele>117.0</ele><time>2026-04-10T09:50:44.999Z</time></trkpt><trkpt lat="45.448764355809686" lon="9.157398189831426"><ele>117.0</ele><time>2026-04-10T09:50:45.999Z</time></trkpt><trkpt lat="45.44865918277489" lon="9.15745626743718"><ele>117.19999999999999</ele><time>2026-04-10T09:50:46.999Z</time></trkpt><trkpt lat="45.448558212343585" lon="9.157498004904284"><ele>117.39999999999999</ele><time>2026-04-10T09:50:47.999Z</time></trkpt><trkpt lat="45.44846390110173" lon="9.157532710706874"><ele>117.60000000000001</ele><time>2026-04-10T09:50:48.999Z</time></trkpt><trkpt lat="45.448377142811765" lon="9.157568055488813"><ele>117.80000000000001</ele><time>2026-04-10T09:50:49.999Z</time></trkpt><trkpt lat="45.448300260717744" lon="9.157602055011843"><ele>118.0</ele><time>2026-04-10T09:50:50.999Z</time></trkpt><trkpt lat="45.448225084690435" lon="9.157632673488868"><ele>118.0</ele><time>2026-04-10T09:50:51.999Z</time></trkpt><trkpt lat="45.44815602747965" lon="9.157663088398417"><ele>118.0</ele><time>2026-04-10T09:50:52.999Z</time></trkpt><trkpt lat="45.44808820777434" lon="9.157694325772606"><ele>118.0</ele><time>2026-04-10T09:50:53.999Z</time></trkpt><trkpt lat="45.4480197944965" lon="9.157724284882459"><ele>118.0</ele><time>2026-04-10T09:50:54.999Z</time></trkpt><trkpt lat="45.4479527320679" lon="9.157753161619608"><ele>118.0</ele><time>2026-04-10T09:50:55.999Z</time></trkpt><trkpt lat="45.44788319703171" lon="9.157772154023101"><ele>118.0</ele><time>2026-04-10T09:50:56.999Z</time></trkpt><trkpt lat="45.44781161195522" lon="9.157791098192185"><ele>118.0</ele><time>2026-04-10T09:50:57.999Z</time></trkpt><trkpt lat="45.44774596057402" lon="9.157810008419617"><ele>117.50000000000001</ele><time>2026-04-10T09:50:58.999Z</time></trkpt><trkpt lat="45.44765753461455" lon="9.15784882059626"><ele>117.0</ele><time>2026-04-10T09:51:00.999Z</time></trkpt><trkpt lat="45.44758411237383" lon="9.157888174925246"><ele>116.5</ele><time>2026-04-10T09:51:02.999Z</time></trkpt><trkpt lat="45.44752778944447" lon="9.157932107095611"><ele>116.0</ele><time>2026-04-10T09:51:03.999Z</time></trkpt><trkpt lat="45.44746576395597" lon="9.157993630716938"><ele>115.50000000000001</ele><time>2026-04-10T09:51:04.999Z</time></trkpt><trkpt lat="45.447376278840764" lon="9.158055210364287"><ele>115.0</ele><time>2026-04-10T09:51:05.999Z</time></trkpt><trkpt lat="45.44726986841509" lon="9.158121956847383"><ele>115.25</ele><time>2026-04-10T09:51:06.999Z</time></trkpt><trkpt lat="45.447142318820624" lon="9.158216718914172"><ele>115.5</ele><time>2026-04-10T09:51:07.999Z</time></trkpt><trkpt lat="45.447027036429056" lon="9.158323663809426"><ele>115.75</ele><time>2026-04-10T09:51:08.999Z</time></trkpt><trkpt lat="45.446918203968075" lon="9.158441594235336"><ele>116.0</ele><time>2026-04-10T09:51:09.999Z</time></trkpt><trkpt lat="45.44681845854455" lon="9.158564318875703"><ele>116.0</ele><time>2026-04-10T09:51:10.999Z</time></trkpt><trkpt lat="45.44673132289296" lon="9.158680123199229"><ele>116.0</ele><time>2026-04-10T09:51:11.999Z</time></trkpt><trkpt lat="45.44663639696456" lon="9.158800541952754"><ele>116.0</ele><time>2026-04-10T09:51:12.999Z</time></trkpt><trkpt lat="45.44653451771129" lon="9.158933339616922"><ele>116.0</ele><time>2026-04-10T09:51:13.999Z</time></trkpt><trkpt lat="45.44644294147545" lon="9.15907335558016"><ele>116.0</ele><time>2026-04-10T09:51:14.999Z</time></trkpt><trkpt lat="45.44636622070401" lon="9.159217898563805"><ele>116.0</ele><time>2026-04-10T09:51:15.999Z</time></trkpt><trkpt lat="45.44629343334874" lon="9.159360550814792"><ele>116.0</ele><time>2026-04-10T09:51:16.999Z</time></trkpt><trkpt lat="45.44621621268508" lon="9.159509204809735"><ele>116.0</ele><time>2026-04-10T09:51:17.999Z</time></trkpt><trkpt lat="45.44617906400148" lon="9.159706244079668"><ele>116.0</ele><time>2026-04-10T09:51:18.999Z</time></trkpt><trkpt lat="45.44605158059077" lon="9.159818438496465"><ele>116.0</ele><time>2026-04-10T09:51:19.999Z</time></trkpt><trkpt lat="45.44596476240231" lon="9.159985614601847"><ele>116.0</ele><time>2026-04-10T09:51:20.999Z</time></trkpt><trkpt lat="45.44587844601887" lon="9.160160503758306"><ele>116.0</ele><time>2026-04-10T09:51:21.999Z</time></trkpt><trkpt lat="45.445790537286825" lon="9.160341148676796"><ele>116.33333333333333</ele><time>2026-04-10T09:51:22.999Z</time></trkpt><trkpt lat="45.44569987339387" lon="9.160529334737618"><ele>116.66666666666666</ele><time>2026-04-10T09:51:23.999Z</time></trkpt><trkpt lat="45.4456090960725" lon="9.160719537247843"><ele>117.0</ele><time>2026-04-10T09:51:24.999Z</time></trkpt><trkpt lat="45.44552308666412" lon="9.160905188102248"><ele>116.5</ele><time>2026-04-10T09:51:25.999Z</time></trkpt><trkpt lat="45.44545515958309" lon="9.161061765508572"><ele>116.0</ele><time>2026-04-10T09:51:26.999Z</time></trkpt><trkpt lat="45.44539248911342" lon="9.161198806453"><ele>115.5</ele><time>2026-04-10T09:51:27.999Z</time></trkpt><trkpt lat="45.44532972205202" lon="9.1613334287131"><ele>115.0</ele><time>2026-04-10T09:51:28.999Z</time></trkpt><trkpt lat="45.445274021985924" lon="9.161456657775489"><ele>115.00000000000001</ele><time>2026-04-10T09:51:29.999Z</time></trkpt><trkpt lat="45.44522374790522" lon="9.161574347388925"><ele>115.0</ele><time>2026-04-10T09:51:30.999Z</time></trkpt><trkpt lat="45.44517703607363" lon="9.161683719165183"><ele>115.0</ele><time>2026-04-10T09:51:31.999Z</time></trkpt><trkpt lat="45.44513152435993" lon="9.161783879280707"><ele>115.0</ele><time>2026-04-10T09:51:32.999Z</time></trkpt><trkpt lat="45.445090201127535" lon="9.161874999996295"><ele>115.00000000000001</ele><time>2026-04-10T09:51:33.999Z</time></trkpt><trkpt lat="45.445055771082565" lon="9.161963267046923"><ele>115.0</ele><time>2026-04-10T09:51:34.999Z</time></trkpt><trkpt lat="45.44502366729981" lon="9.162042889847687"><ele>115.0</ele><time>2026-04-10T09:51:35.999Z</time></trkpt><trkpt lat="45.44498017376319" lon="9.162151260166674"><ele>115.0</ele><time>2026-04-10T09:51:37.999Z</time></trkpt><trkpt lat="45.44493692148725" lon="9.162234276408192"><ele>115.0</ele><time>2026-04-10T09:51:41.998Z</time></trkpt><trkpt lat="45.44490962347376" lon="9.16231941890948"><ele>115.0</ele><time>2026-04-10T09:51:55Z</time></trkpt><trkpt lat="45.444865351182976" lon="9.162454011025918"><ele>115.0</ele><time>2026-04-10T09:51:57Z</time></trkpt><trkpt lat="45.44481568880054" lon="9.16262051163859"><ele>115.00000000000001</ele><time>2026-04-10T09:51:59Z</time></trkpt><trkpt lat="45.44478697438236" lon="9.162711090632465"><ele>115.0</ele><time>2026-04-10T09:52:00Z</time></trkpt><trkpt lat="45.444744090810296" lon="9.16280251144602"><ele>115.0</ele><time>2026-04-10T09:52:01Z</time></trkpt><trkpt lat="45.444706334789394" lon="9.162915498148312"><ele>115.0</ele><time>2026-04-10T09:52:02Z</time></trkpt><trkpt lat="45.44466667741619" lon="9.163046881039257"><ele>115.00000000000001</ele><time>2026-04-10T09:52:03Z</time></trkpt><trkpt lat="45.444639384571396" lon="9.163159407981368"><ele>115.0</ele><time>2026-04-10T09:52:04Z</time></trkpt><trkpt lat="45.44462027309846" lon="9.16334367269713"><ele>115.0</ele><time>2026-04-10T09:52:06Z</time></trkpt><trkpt lat="45.44459780510845" lon="9.16344416595702"><ele>115.0</ele><time>2026-04-10T09:52:07Z</time></trkpt><trkpt lat="45.444581067646304" lon="9.163558290241717"><ele>115.0</ele><time>2026-04-10T09:52:08Z</time></trkpt><trkpt lat="45.44455582566165" lon="9.163712762880865"><ele>115.0</ele><time>2026-04-10T09:52:09Z</time></trkpt><trkpt lat="45.44451025902649" lon="9.16390310575949"><ele>115.0</ele><time>2026-04-10T09:52:10Z</time></trkpt><trkpt lat="45.44445737073704" lon="9.164109208816697"><ele>115.33333333333334</ele><time>2026-04-10T09:52:11Z</time></trkpt><trkpt lat="45.444408899918585" lon="9.164313546901502"><ele>115.66666666666666</ele><time>2026-04-10T09:52:12Z</time></trkpt><trkpt lat="45.44436411563206" lon="9.164530172374915"><ele>116.0</ele><time>2026-04-10T09:52:13Z</time></trkpt><trkpt lat="45.44432066691826" lon="9.164737946724415"><ele>116.33333333333333</ele><time>2026-04-10T09:52:14Z</time></trkpt><trkpt lat="45.44428205335896" lon="9.164945210720644"><ele>116.66666666666666</ele><time>2026-04-10T09:52:15Z</time></trkpt><trkpt lat="45.44423473476144" lon="9.165154929418067"><ele>117.0</ele><time>2026-04-10T09:52:16Z</time></trkpt><trkpt lat="45.44420300753705" lon="9.16538294864047"><ele>117.0</ele><time>2026-04-10T09:52:17Z</time></trkpt><trkpt lat="45.444173671317365" lon="9.165627886382614"><ele>117.0</ele><time>2026-04-10T09:52:18Z</time></trkpt><trkpt lat="45.44414350044214" lon="9.165868433619705"><ele>117.0</ele><time>2026-04-10T09:52:19Z</time></trkpt><trkpt lat="45.44410906890682" lon="9.16610693385694"><ele>117.0</ele><time>2026-04-10T09:52:20Z</time></trkpt><trkpt lat="45.444077568498024" lon="9.16633716724087"><ele>117.0</ele><time>2026-04-10T09:52:21Z</time></trkpt><trkpt lat="45.4440517253968" lon="9.166550810738856"><ele>117.0</ele><time>2026-04-10T09:52:22Z</time></trkpt><trkpt lat="45.44404046867099" lon="9.166746053309126"><ele>117.0</ele><time>2026-04-10T09:52:23Z</time></trkpt><trkpt lat="45.44402811966023" lon="9.166942545982105"><ele>117.0</ele><time>2026-04-10T09:52:24Z</time></trkpt><trkpt lat="45.44400997632214" lon="9.167155239152097"><ele>117.0</ele><time>2026-04-10T09:52:25Z</time></trkpt><trkpt lat="45.44399280688565" lon="9.167378625203291"><ele>117.0</ele><time>2026-04-10T09:52:26Z</time></trkpt><trkpt lat="45.44397609706179" lon="9.167612663567356"><ele>116.66666666666666</ele><time>2026-04-10T09:52:27Z</time></trkpt><trkpt lat="45.443962967643515" lon="9.167852019105686"><ele>116.33333333333333</ele><time>2026-04-10T09:52:28Z</time></trkpt><trkpt lat="45.443951908454814" lon="9.168094526403346"><ele>116.0</ele><time>2026-04-10T09:52:29Z</time></trkpt><trkpt lat="45.443939503606614" lon="9.168335540398648"><ele>116.0</ele><time>2026-04-10T09:52:30Z</time></trkpt><trkpt lat="45.443925200016615" lon="9.168565976380147"><ele>116.0</ele><time>2026-04-10T09:52:31Z</time></trkpt><trkpt lat="45.44391084937963" lon="9.168795153140152"><ele>116.0</ele><time>2026-04-10T09:52:32Z</time></trkpt><trkpt lat="45.443896121594975" lon="9.1690310295792"><ele>115.66666666666666</ele><time>2026-04-10T09:52:33Z</time></trkpt><trkpt lat="45.44388822886559" lon="9.169267967247631"><ele>115.33333333333334</ele><time>2026-04-10T09:52:34Z</time></trkpt><trkpt lat="45.44388112619219" lon="9.169490930540244"><ele>115.0</ele><time>2026-04-10T09:52:35Z</time></trkpt><trkpt lat="45.443872378626786" lon="9.16970061283647"><ele>115.25</ele><time>2026-04-10T09:52:36Z</time></trkpt><trkpt lat="45.44386477263317" lon="9.169896665484403"><ele>115.5</ele><time>2026-04-10T09:52:37Z</time></trkpt><trkpt lat="45.4438547695187" lon="9.170075095237227"><ele>115.75</ele><time>2026-04-10T09:52:38Z</time></trkpt><trkpt lat="45.44384832651356" lon="9.170252316645247"><ele>116.0</ele><time>2026-04-10T09:52:39Z</time></trkpt><trkpt lat="45.4438433488313" lon="9.170439726838888"><ele>116.0</ele><time>2026-04-10T09:52:40Z</time></trkpt><trkpt lat="45.443842975940846" lon="9.17061319421803"><ele>116.0</ele><time>2026-04-10T09:52:41Z</time></trkpt><trkpt lat="45.44384143550426" lon="9.170777211885314"><ele>116.0</ele><time>2026-04-10T09:52:42Z</time></trkpt><trkpt lat="45.44383656293151" lon="9.170931057104228"><ele>116.0</ele><time>2026-04-10T09:52:43Z</time></trkpt><trkpt lat="45.44382815782158" lon="9.171084131645049"><ele>115.83333333333333</ele><time>2026-04-10T09:52:44Z</time></trkpt><trkpt lat="45.443813966840345" lon="9.171235468898537"><ele>115.66666666666666</ele><time>2026-04-10T09:52:45Z</time></trkpt><trkpt lat="45.44380578925209" lon="9.17137427897207"><ele>115.5</ele><time>2026-04-10T09:52:46Z</time></trkpt><trkpt lat="45.44379833225433" lon="9.17149158183153"><ele>115.33333333333334</ele><time>2026-04-10T09:52:47Z</time></trkpt><trkpt lat="45.44379073648331" lon="9.171605974538545"><ele>115.16666666666667</ele><time>2026-04-10T09:52:47.999Z</time></trkpt><trkpt lat="45.443783692980034" lon="9.171696585105503"><ele>115.0</ele><time>2026-04-10T09:52:48.999Z</time></trkpt><trkpt lat="45.443777353438044" lon="9.171793008515724"><ele>115.00000000000001</ele><time>2026-04-10T09:52:49.999Z</time></trkpt><trkpt lat="45.44376385756252" lon="9.171923740602901"><ele>115.0</ele><time>2026-04-10T09:52:51.999Z</time></trkpt><trkpt lat="45.44375424289758" lon="9.172038910577658"><ele>115.0</ele><time>2026-04-10T09:52:54.999Z</time></trkpt><trkpt lat="45.44369902814656" lon="9.172102303669282"><ele>115.0</ele><time>2026-04-10T09:52:58.999Z</time></trkpt><trkpt lat="45.44361871019608" lon="9.172138662828544"><ele>115.00000000000001</ele><time>2026-04-10T09:53:00.999Z</time></trkpt><trkpt lat="45.44355673001708" lon="9.172187114708647"><ele>115.0</ele><time>2026-04-10T09:53:02.999Z</time></trkpt><trkpt lat="45.44344308328439" lon="9.172269555464446"><ele>115.0</ele><time>2026-04-10T09:53:04.999Z</time></trkpt><trkpt lat="45.44340726079117" lon="9.17236958550444"><ele>115.0</ele><time>2026-04-10T09:53:05.999Z</time></trkpt><trkpt lat="45.44332510386881" lon="9.17242209224805"><ele>115.0</ele><time>2026-04-10T09:53:07.999Z</time></trkpt><trkpt lat="45.443258193433344" lon="9.172519896862372"><ele>115.0</ele><time>2026-04-10T09:53:17.999Z</time></trkpt><trkpt lat="45.44316309742279" lon="9.172605060382743"><ele>115.0</ele><time>2026-04-10T09:53:19.999Z</time></trkpt><trkpt lat="45.44305713854862" lon="9.172605946588586"><ele>115.0</ele><time>2026-04-10T09:53:20.999Z</time></trkpt><trkpt lat="45.442940879120904" lon="9.172600416770536"><ele>115.0</ele><time>2026-04-10T09:53:21.999Z</time></trkpt><trkpt lat="45.4428271194597" lon="9.17259474839215"><ele>115.0</ele><time>2026-04-10T09:53:22.999Z</time></trkpt><trkpt lat="45.44271695419704" lon="9.17259078123013"><ele>115.0</ele><time>2026-04-10T09:53:23.999Z</time></trkpt><trkpt lat="45.44260584359491" lon="9.172591936460632"><ele>115.0</ele><time>2026-04-10T09:53:24.999Z</time></trkpt><trkpt lat="45.44249383766199" lon="9.172586515834304"><ele>115.0</ele><time>2026-04-10T09:53:25.999Z</time></trkpt><trkpt lat="45.44237936010877" lon="9.172579723450745"><ele>115.0</ele><time>2026-04-10T09:53:26.999Z</time></trkpt><trkpt lat="45.44226643611847" lon="9.172570853465444"><ele>115.0</ele><time>2026-04-10T09:53:27.999Z</time></trkpt><trkpt lat="45.442153278310315" lon="9.172560813393655"><ele>114.75</ele><time>2026-04-10T09:53:28.999Z</time></trkpt><trkpt lat="45.442034315670135" lon="9.172550390512445"><ele>114.5</ele><time>2026-04-10T09:53:29.999Z</time></trkpt><trkpt lat="45.441907510717726" lon="9.17254301491406"><ele>114.25</ele><time>2026-04-10T09:53:30.999Z</time></trkpt><trkpt lat="45.4417778911422" lon="9.172531619128415"><ele>114.0</ele><time>2026-04-10T09:53:31.999Z</time></trkpt><trkpt lat="45.44165821473341" lon="9.172522100403596"><ele>114.0</ele><time>2026-04-10T09:53:32.999Z</time></trkpt><trkpt lat="45.441538174995884" lon="9.172511434423953"><ele>114.0</ele><time>2026-04-10T09:53:33.999Z</time></trkpt><trkpt lat="45.441413087582056" lon="9.172501143418108"><ele>114.0</ele><time>2026-04-10T09:53:34.999Z</time></trkpt><trkpt lat="45.44129879001992" lon="9.172494068768389"><ele>114.0</ele><time>2026-04-10T09:53:35.999Z</time></trkpt><trkpt lat="45.44119284951854" lon="9.172483681120411"><ele>114.0</ele><time>2026-04-10T09:53:36.999Z</time></trkpt><trkpt lat="45.44109248046377" lon="9.172477538224074"><ele>114.0</ele><time>2026-04-10T09:53:37.999Z</time></trkpt><trkpt lat="45.440990784526626" lon="9.17247748136342"><ele>114.0</ele><time>2026-04-10T09:53:38.999Z</time></trkpt><trkpt lat="45.44088107975528" lon="9.172471197168917"><ele>114.0</ele><time>2026-04-10T09:53:39.999Z</time></trkpt><trkpt lat="45.440764165158896" lon="9.172463417334253"><ele>114.0</ele><time>2026-04-10T09:53:40.999Z</time></trkpt><trkpt lat="45.44063673090829" lon="9.172454158551362"><ele>114.0</ele><time>2026-04-10T09:53:41.999Z</time></trkpt><trkpt lat="45.440505577408594" lon="9.172448248008783"><ele>114.0</ele><time>2026-04-10T09:53:42.999Z</time></trkpt><trkpt lat="45.44036291152049" lon="9.17243797708096"><ele>114.0</ele><time>2026-04-10T09:53:43.998Z</time></trkpt><trkpt lat="45.44021656161383" lon="9.172424663567046"><ele>114.0</ele><time>2026-04-10T09:53:44.998Z</time></trkpt><trkpt lat="45.44006456170131" lon="9.172401131288266"><ele>114.33333333333334</ele><time>2026-04-10T09:53:45.998Z</time></trkpt><trkpt lat="45.43991186220876" lon="9.17236119627848"><ele>114.66666666666667</ele><time>2026-04-10T09:53:46.998Z</time></trkpt><trkpt lat="45.43975224032566" lon="9.172311873951031"><ele>115.0</ele><time>2026-04-10T09:53:47.998Z</time></trkpt><trkpt lat="45.43958854846646" lon="9.172256905763499"><ele>115.0</ele><time>2026-04-10T09:53:48.998Z</time></trkpt><trkpt lat="45.43942985872532" lon="9.172194696514941"><ele>115.0</ele><time>2026-04-10T09:53:50Z</time></trkpt><trkpt lat="45.4392749242125" lon="9.172114909929947"><ele>115.0</ele><time>2026-04-10T09:53:51Z</time></trkpt><trkpt lat="45.43912026780821" lon="9.17201935016459"><ele>115.0</ele><time>2026-04-10T09:53:52Z</time></trkpt><trkpt lat="45.438970724009785" lon="9.171922231229267"><ele>115.0</ele><time>2026-04-10T09:53:53Z</time></trkpt><trkpt lat="45.43882574773639" lon="9.171824471817137"><ele>115.0</ele><time>2026-04-10T09:53:54Z</time></trkpt><trkpt lat="45.43867686241866" lon="9.17172248002643"><ele>115.0</ele><time>2026-04-10T09:53:55Z</time></trkpt><trkpt lat="45.43853019803646" lon="9.171622173033102"><ele>115.0</ele><time>2026-04-10T09:53:56Z</time></trkpt><trkpt lat="45.43837902695425" lon="9.171522484317373"><ele>115.0</ele><time>2026-04-10T09:53:57Z</time></trkpt><trkpt lat="45.438230687279415" lon="9.171425286169768"><ele>114.66666666666667</ele><time>2026-04-10T09:53:58Z</time></trkpt><trkpt lat="45.43807642714076" lon="9.171325054545111"><ele>114.33333333333334</ele><time>2026-04-10T09:53:59Z</time></trkpt><trkpt lat="45.437917767260664" lon="9.171225324004105"><ele>114.0</ele><time>2026-04-10T09:54:00Z</time></trkpt><trkpt lat="45.437754925662574" lon="9.171129431036238"><ele>114.66666666666666</ele><time>2026-04-10T09:54:01Z</time></trkpt><trkpt lat="45.43758759160544" lon="9.17103663734427"><ele>115.33333333333333</ele><time>2026-04-10T09:54:02Z</time></trkpt><trkpt lat="45.43741825802956" lon="9.170951369979997"><ele>116.0</ele><time>2026-04-10T09:54:03Z</time></trkpt><trkpt lat="45.43724232457263" lon="9.170869351101679"><ele>116.0</ele><time>2026-04-10T09:54:04Z</time></trkpt><trkpt lat="45.437065081004896" lon="9.170791082681944"><ele>116.0</ele><time>2026-04-10T09:54:05Z</time></trkpt><trkpt lat="45.436875543899745" lon="9.170710477678366"><ele>116.0</ele><time>2026-04-10T09:54:06Z</time></trkpt><trkpt lat="45.436680618668106" lon="9.170629475149493"><ele>116.0</ele><time>2026-04-10T09:54:07Z</time></trkpt><trkpt lat="45.436478804519965" lon="9.170541749604991"><ele>116.0</ele><time>2026-04-10T09:54:08Z</time></trkpt><trkpt lat="45.43627526906994" lon="9.17045120978027"><ele>116.0</ele><time>2026-04-10T09:54:09Z</time></trkpt><trkpt lat="45.43607104642233" lon="9.170358816530975"><ele>115.66666666666666</ele><time>2026-04-10T09:54:10Z</time></trkpt><trkpt lat="45.43587289093652" lon="9.170267722221903"><ele>115.33333333333334</ele><time>2026-04-10T09:54:11Z</time></trkpt><trkpt lat="45.435677960935664" lon="9.170178742040987"><ele>115.0</ele><time>2026-04-10T09:54:12Z</time></trkpt><trkpt lat="45.43548068074788" lon="9.170084258100013"><ele>115.0</ele><time>2026-04-10T09:54:13Z</time></trkpt><trkpt lat="45.43528543292008" lon="9.169978885718487"><ele>115.0</ele><time>2026-04-10T09:54:14Z</time></trkpt><trkpt lat="45.43509280851199" lon="9.169867722228824"><ele>115.0</ele><time>2026-04-10T09:54:15Z</time></trkpt><trkpt lat="45.4349026851044" lon="9.169742476880765"><ele>114.66666666666667</ele><time>2026-04-10T09:54:16Z</time></trkpt><trkpt lat="45.43471704142701" lon="9.169601793569319"><ele>114.33333333333334</ele><time>2026-04-10T09:54:17Z</time></trkpt><trkpt lat="45.43453089178708" lon="9.16945473169111"><ele>114.0</ele><time>2026-04-10T09:54:18Z</time></trkpt><trkpt lat="45.434343021951165" lon="9.169301542026297"><ele>114.0</ele><time>2026-04-10T09:54:19Z</time></trkpt><trkpt lat="45.43415691288818" lon="9.169146531493263"><ele>114.0</ele><time>2026-04-10T09:54:20Z</time></trkpt><trkpt lat="45.433968881485264" lon="9.168983894140938"><ele>114.0</ele><time>2026-04-10T09:54:21Z</time></trkpt><trkpt lat="45.4337795598466" lon="9.168820186107666"><ele>113.5</ele><time>2026-04-10T09:54:22Z</time></trkpt><trkpt lat="45.43358936719831" lon="9.16864947140876"><ele>113.0</ele><time>2026-04-10T09:54:23Z</time></trkpt><trkpt lat="45.43340001810862" lon="9.168466910671704"><ele>113.0</ele><time>2026-04-10T09:54:24Z</time></trkpt><trkpt lat="45.43321387615293" lon="9.168274070053128"><ele>113.0</ele><time>2026-04-10T09:54:25Z</time></trkpt><trkpt lat="45.433030751145694" lon="9.16806776088459"><ele>113.5</ele><time>2026-04-10T09:54:26Z</time></trkpt><trkpt lat="45.43284803692411" lon="9.16785572314279"><ele>114.0</ele><time>2026-04-10T09:54:27Z</time></trkpt><trkpt lat="45.43266513906517" lon="9.16763284619705"><ele>114.0</ele><time>2026-04-10T09:54:28Z</time></trkpt><trkpt lat="45.43248450049256" lon="9.167406436158302"><ele>114.0</ele><time>2026-04-10T09:54:29Z</time></trkpt><trkpt lat="45.43230982817348" lon="9.167174399425306"><ele>112.0</ele><time>2026-04-10T09:54:30Z</time></trkpt><trkpt lat="45.43213324188185" lon="9.166934217842561"><ele>110.0</ele><time>2026-04-10T09:54:31Z</time></trkpt><trkpt lat="45.43195807424356" lon="9.166691466372686"><ele>109.5</ele><time>2026-04-10T09:54:32Z</time></trkpt><trkpt lat="45.43178253778897" lon="9.166449095753684"><ele>109.0</ele><time>2026-04-10T09:54:33Z</time></trkpt><trkpt lat="45.43160628798018" lon="9.166211997964668"><ele>109.0</ele><time>2026-04-10T09:54:34Z</time></trkpt><trkpt lat="45.4314273552063" lon="9.165983008768057"><ele>109.0</ele><time>2026-04-10T09:54:35Z</time></trkpt><trkpt lat="45.43124747894731" lon="9.165757308411044"><ele>111.0</ele><time>2026-04-10T09:54:36Z</time></trkpt><trkpt lat="45.43106694849074" lon="9.16553399002833"><ele>113.0</ele><time>2026-04-10T09:54:37Z</time></trkpt><trkpt lat="45.43088748566091" lon="9.165311222086366"><ele>113.0</ele><time>2026-04-10T09:54:38Z</time></trkpt><trkpt lat="45.43069967955549" lon="9.165083634346468"><ele>113.0</ele><time>2026-04-10T09:54:39Z</time></trkpt><trkpt lat="45.430514279966545" lon="9.164849428718078"><ele>113.0</ele><time>2026-04-10T09:54:40Z</time></trkpt><trkpt lat="45.430333672852335" lon="9.164605040281034"><ele>113.0</ele><time>2026-04-10T09:54:41Z</time></trkpt><trkpt lat="45.43015227036491" lon="9.164353278780702"><ele>113.0</ele><time>2026-04-10T09:54:42Z</time></trkpt><trkpt lat="45.42996809567869" lon="9.164108924890064"><ele>113.0</ele><time>2026-04-10T09:54:43Z</time></trkpt><trkpt lat="45.429779423047734" lon="9.16387851805939"><ele>111.0</ele><time>2026-04-10T09:54:44Z</time></trkpt><trkpt lat="45.42958588801501" lon="9.163658961881438"><ele>109.0</ele><time>2026-04-10T09:54:45Z</time></trkpt><trkpt lat="45.429385490925654" lon="9.163447309148097"><ele>109.0</ele><time>2026-04-10T09:54:46Z</time></trkpt><trkpt lat="45.429179328616776" lon="9.163245324896605"><ele>109.0</ele><time>2026-04-10T09:54:47Z</time></trkpt><trkpt lat="45.428971601734425" lon="9.163051353069266"><ele>108.5</ele><time>2026-04-10T09:54:48Z</time></trkpt><trkpt lat="45.42875688851157" lon="9.162864681819322"><ele>108.0</ele><time>2026-04-10T09:54:48.999Z</time></trkpt><trkpt lat="45.428538993141935" lon="9.16269295858913"><ele>108.0</ele><time>2026-04-10T09:54:49.999Z</time></trkpt><trkpt lat="45.42831441688858" lon="9.16252218371461"><ele>108.0</ele><time>2026-04-10T09:54:50.999Z</time></trkpt><trkpt lat="45.428091025272984" lon="9.162356445419674"><ele>109.0</ele><time>2026-04-10T09:54:51.999Z</time></trkpt><trkpt lat="45.42786609095013" lon="9.162206560248956"><ele>110.0</ele><time>2026-04-10T09:54:52.999Z</time></trkpt><trkpt lat="45.42763781869349" lon="9.162063280399321"><ele>110.0</ele><time>2026-04-10T09:54:53.999Z</time></trkpt><trkpt lat="45.427412767187484" lon="9.161929029640989"><ele>110.0</ele><time>2026-04-10T09:54:54.999Z</time></trkpt><trkpt lat="45.427185645845974" lon="9.16179568240953"><ele>108.5</ele><time>2026-04-10T09:54:55.999Z</time></trkpt><trkpt lat="45.426960358938295" lon="9.161667357521406"><ele>107.0</ele><time>2026-04-10T09:54:56.999Z</time></trkpt><trkpt lat="45.42673385681639" lon="9.161541616467206"><ele>108.0</ele><time>2026-04-10T09:54:57.999Z</time></trkpt><trkpt lat="45.42650452756662" lon="9.16141539174956"><ele>109.0</ele><time>2026-04-10T09:54:58.999Z</time></trkpt><trkpt lat="45.426271854535365" lon="9.161288800881042"><ele>109.0</ele><time>2026-04-10T09:54:59.999Z</time></trkpt><trkpt lat="45.426031158699274" lon="9.1611605793175"><ele>109.0</ele><time>2026-04-10T09:55:00.999Z</time></trkpt><trkpt lat="45.42578847738181" lon="9.161027230858183"><ele>109.0</ele><time>2026-04-10T09:55:01.999Z</time></trkpt><trkpt lat="45.425547141163925" lon="9.160877194620555"><ele>109.0</ele><time>2026-04-10T09:55:02.999Z</time></trkpt><trkpt lat="45.425295592902145" lon="9.160742338119755"><ele>108.0</ele><time>2026-04-10T09:55:03.999Z</time></trkpt><trkpt lat="45.42504858781477" lon="9.160605211896687"><ele>107.0</ele><time>2026-04-10T09:55:04.999Z</time></trkpt><trkpt lat="45.42480646191523" lon="9.160465325246047"><ele>105.5</ele><time>2026-04-10T09:55:05.999Z</time></trkpt><trkpt lat="45.42456718408196" lon="9.160323696713393"><ele>104.0</ele><time>2026-04-10T09:55:06.999Z</time></trkpt><trkpt lat="45.424327189662804" lon="9.160182286151997"><ele>104.0</ele><time>2026-04-10T09:55:07.999Z</time></trkpt><trkpt lat="45.42408520684792" lon="9.160043871220806"><ele>104.0</ele><time>2026-04-10T09:55:08.999Z</time></trkpt><trkpt lat="45.42384307509187" lon="9.159906556483934"><ele>106.0</ele><time>2026-04-10T09:55:09.999Z</time></trkpt><trkpt lat="45.42360076632731" lon="9.159767901619098"><ele>108.0</ele><time>2026-04-10T09:55:10.999Z</time></trkpt><trkpt lat="45.423358982450154" lon="9.159629442646017"><ele>108.0</ele><time>2026-04-10T09:55:11.999Z</time></trkpt><trkpt lat="45.42311792471854" lon="9.159490489475901"><ele>108.0</ele><time>2026-04-10T09:55:12.999Z</time></trkpt><trkpt lat="45.422873042097365" lon="9.159348970384777"><ele>108.0</ele><time>2026-04-10T09:55:13.999Z</time></trkpt><trkpt lat="45.422632054980085" lon="9.15920089743594"><ele>108.0</ele><time>2026-04-10T09:55:14.999Z</time></trkpt><trkpt lat="45.422389784357165" lon="9.15904872446417"><ele>108.5</ele><time>2026-04-10T09:55:15.999Z</time></trkpt><trkpt lat="45.42215424263617" lon="9.158870081530852"><ele>109.0</ele><time>2026-04-10T09:55:16.999Z</time></trkpt><trkpt lat="45.42192845030829" lon="9.15867580860766"><ele>109.0</ele><time>2026-04-10T09:55:17.999Z</time></trkpt><trkpt lat="45.42170584456956" lon="9.158460537382297"><ele>109.0</ele><time>2026-04-10T09:55:18.999Z</time></trkpt><trkpt lat="45.42148672991647" lon="9.15824089652533"><ele>110.5</ele><time>2026-04-10T09:55:19.999Z</time></trkpt><trkpt lat="45.421254145597985" lon="9.158016853718706"><ele>112.0</ele><time>2026-04-10T09:55:20.999Z</time></trkpt><trkpt lat="45.421016374917876" lon="9.157788521593345"><ele>112.0</ele><time>2026-04-10T09:55:21.999Z</time></trkpt><trkpt lat="45.42078281204904" lon="9.157564065131337"><ele>112.0</ele><time>2026-04-10T09:55:22.999Z</time></trkpt><trkpt lat="45.42054776016578" lon="9.157337225591984"><ele>110.0</ele><time>2026-04-10T09:55:23.999Z</time></trkpt><trkpt lat="45.42031443082538" lon="9.15710828390386"><ele>108.0</ele><time>2026-04-10T09:55:24.999Z</time></trkpt><trkpt lat="45.420081406631304" lon="9.156874760573704"><ele>108.0</ele><time>2026-04-10T09:55:25.999Z</time></trkpt><trkpt lat="45.41984978679934" lon="9.156642670995353"><ele>108.0</ele><time>2026-04-10T09:55:26.999Z</time></trkpt><trkpt lat="45.41961944357188" lon="9.156416272179463"><ele>108.0</ele><time>2026-04-10T09:55:27.999Z</time></trkpt><trkpt lat="45.41939019857423" lon="9.156192362128879"><ele>108.0</ele><time>2026-04-10T09:55:28.999Z</time></trkpt><trkpt lat="45.41916228445308" lon="9.155969769265075"><ele>108.0</ele><time>2026-04-10T09:55:29.999Z</time></trkpt><trkpt lat="45.41893768051054" lon="9.15574660316637"><ele>108.0</ele><time>2026-04-10T09:55:30.999Z</time></trkpt><trkpt lat="45.41871439474023" lon="9.155523873015918"><ele>108.0</ele><time>2026-04-10T09:55:31.999Z</time></trkpt><trkpt lat="45.418492319492415" lon="9.155301292940933"><ele>108.0</ele><time>2026-04-10T09:55:32.999Z</time></trkpt><trkpt lat="45.418270827447444" lon="9.155079848172909"><ele>109.0</ele><time>2026-04-10T09:55:33.999Z</time></trkpt><trkpt lat="45.41804321138709" lon="9.154858884438779"><ele>110.0</ele><time>2026-04-10T09:55:34.999Z</time></trkpt><trkpt lat="45.41781712536954" lon="9.15463777096085"><ele>108.0</ele><time>2026-04-10T09:55:35.999Z</time></trkpt><trkpt lat="45.41759097349212" lon="9.154414402824475"><ele>106.0</ele><time>2026-04-10T09:55:36.999Z</time></trkpt><trkpt lat="45.41736597759077" lon="9.154197584834025"><ele>106.5</ele><time>2026-04-10T09:55:37.999Z</time></trkpt><trkpt lat="45.41713569263024" lon="9.153990254218288"><ele>107.0</ele><time>2026-04-10T09:55:38.999Z</time></trkpt><trkpt lat="45.41690405209929" lon="9.1537939830692"><ele>107.0</ele><time>2026-04-10T09:55:39.999Z</time></trkpt><trkpt lat="45.416669667814965" lon="9.15360579764957"><ele>107.0</ele><time>2026-04-10T09:55:40.999Z</time></trkpt><trkpt lat="45.41643341911721" lon="9.15342449338633"><ele>106.5</ele><time>2026-04-10T09:55:41.999Z</time></trkpt><trkpt lat="45.416196485928076" lon="9.153248951780757"><ele>106.0</ele><time>2026-04-10T09:55:42.999Z</time></trkpt><trkpt lat="45.415953944787155" lon="9.153079064644759"><ele>106.0</ele><time>2026-04-10T09:55:43.999Z</time></trkpt><trkpt lat="45.415711581126686" lon="9.152917454943838"><ele>106.0</ele><time>2026-04-10T09:55:44.999Z</time></trkpt><trkpt lat="45.41546600902061" lon="9.15276297457951"><ele>106.5</ele><time>2026-04-10T09:55:45.999Z</time></trkpt><trkpt lat="45.41521428434227" lon="9.152616903527617"><ele>107.0</ele><time>2026-04-10T09:55:46.998Z</time></trkpt><trkpt lat="45.414960394487096" lon="9.152477586957868"><ele>107.0</ele><time>2026-04-10T09:55:47.998Z</time></trkpt><trkpt lat="45.41470230203049" lon="9.152335026226513"><ele>107.0</ele><time>2026-04-10T09:55:48.998Z</time></trkpt><trkpt lat="45.4144455435303" lon="9.152183704746006"><ele>106.0</ele><time>2026-04-10T09:55:49.998Z</time></trkpt><trkpt lat="45.414190030306074" lon="9.152036272135142"><ele>105.0</ele><time>2026-04-10T09:55:50.998Z</time></trkpt><trkpt lat="45.41393815090492" lon="9.151888574415732"><ele>106.0</ele><time>2026-04-10T09:55:51.998Z</time></trkpt><trkpt lat="45.413687364290276" lon="9.151743044211718"><ele>107.0</ele><time>2026-04-10T09:55:52.998Z</time></trkpt><trkpt lat="45.41344318244951" lon="9.151599217465794"><ele>107.5</ele><time>2026-04-10T09:55:53.998Z</time></trkpt><trkpt lat="45.413201656885576" lon="9.151457925179646"><ele>108.0</ele><time>2026-04-10T09:55:54.998Z</time></trkpt><trkpt lat="45.41296473022942" lon="9.151319193142989"><ele>108.5</ele><time>2026-04-10T09:55:56Z</time></trkpt><trkpt lat="45.41272436689991" lon="9.15117736725553"><ele>109.0</ele><time>2026-04-10T09:55:57Z</time></trkpt><trkpt lat="45.41247735738153" lon="9.151030941731474"><ele>109.0</ele><time>2026-04-10T09:55:58Z</time></trkpt><trkpt lat="45.41221892286958" lon="9.15087851037353"><ele>109.0</ele><time>2026-04-10T09:55:59Z</time></trkpt><trkpt lat="45.41195485879151" lon="9.150723867893962"><ele>109.0</ele><time>2026-04-10T09:56:00Z</time></trkpt><trkpt lat="45.41169141731581" lon="9.150571117903953"><ele>109.0</ele><time>2026-04-10T09:56:01Z</time></trkpt><trkpt lat="45.41142935655316" lon="9.15041621557132"><ele>109.0</ele><time>2026-04-10T09:56:02Z</time></trkpt><trkpt lat="45.41116309147534" lon="9.150259631873924"><ele>109.0</ele><time>2026-04-10T09:56:03Z</time></trkpt><trkpt lat="45.41089738619525" lon="9.150104630721763"><ele>109.0</ele><time>2026-04-10T09:56:04Z</time></trkpt><trkpt lat="45.410633036392596" lon="9.149950999680351"><ele>109.0</ele><time>2026-04-10T09:56:05Z</time></trkpt><trkpt lat="45.410363332265696" lon="9.149794437697444"><ele>108.5</ele><time>2026-04-10T09:56:06Z</time></trkpt><trkpt lat="45.41009597406457" lon="9.149637034503497"><ele>108.0</ele><time>2026-04-10T09:56:07Z</time></trkpt><trkpt lat="45.409830922731324" lon="9.149478100709329"><ele>108.5</ele><time>2026-04-10T09:56:08Z</time></trkpt><trkpt lat="45.409564493894294" lon="9.14931412807123"><ele>109.0</ele><time>2026-04-10T09:56:09Z</time></trkpt><trkpt lat="45.40930322529029" lon="9.149156498974754"><ele>108.0</ele><time>2026-04-10T09:56:10Z</time></trkpt><trkpt lat="45.40904227159088" lon="9.149001196443956"><ele>107.0</ele><time>2026-04-10T09:56:11Z</time></trkpt><trkpt lat="45.40878848743892" lon="9.148853898340265"><ele>107.0</ele><time>2026-04-10T09:56:12Z</time></trkpt><trkpt lat="45.408535759139866" lon="9.148706044410407"><ele>107.0</ele><time>2026-04-10T09:56:13Z</time></trkpt><trkpt lat="45.408279832178756" lon="9.14855868525192"><ele>107.0</ele><time>2026-04-10T09:56:14Z</time></trkpt><trkpt lat="45.40802659458812" lon="9.148411034544456"><ele>107.0</ele><time>2026-04-10T09:56:15Z</time></trkpt><trkpt lat="45.407771943889045" lon="9.148265311852695"><ele>107.0</ele><time>2026-04-10T09:56:16Z</time></trkpt><trkpt lat="45.40751847081607" lon="9.148117750924603"><ele>107.0</ele><time>2026-04-10T09:56:17Z</time></trkpt><trkpt lat="45.40726545444899" lon="9.147970485818092"><ele>107.0</ele><time>2026-04-10T09:56:18Z</time></trkpt><trkpt lat="45.407013512656874" lon="9.147824644569098"><ele>107.0</ele><time>2026-04-10T09:56:19Z</time></trkpt><trkpt lat="45.40675736851161" lon="9.147678441693092"><ele>107.0</ele><time>2026-04-10T09:56:20Z</time></trkpt><trkpt lat="45.40650380231283" lon="9.147532605109012"><ele>107.0</ele><time>2026-04-10T09:56:21Z</time></trkpt><trkpt lat="45.40624730677809" lon="9.147381849341432"><ele>107.5</ele><time>2026-04-10T09:56:22Z</time></trkpt><trkpt lat="45.4059902214788" lon="9.147229541764258"><ele>108.0</ele><time>2026-04-10T09:56:23Z</time></trkpt><trkpt lat="45.40573294961377" lon="9.147078133985005"><ele>106.5</ele><time>2026-04-10T09:56:24Z</time></trkpt><trkpt lat="45.40547700766986" lon="9.146927962143206"><ele>105.0</ele><time>2026-04-10T09:56:25Z</time></trkpt><trkpt lat="45.40522238409742" lon="9.146780481614215"><ele>105.0</ele><time>2026-04-10T09:56:26Z</time></trkpt><trkpt lat="45.404968046652144" lon="9.146633653605772"><ele>105.0</ele><time>2026-04-10T09:56:27Z</time></trkpt><trkpt lat="45.404718176111345" lon="9.146488324730885"><ele>106.0</ele><time>2026-04-10T09:56:28Z</time></trkpt><trkpt lat="45.40446767316122" lon="9.146339549534886"><ele>107.0</ele><time>2026-04-10T09:56:29Z</time></trkpt><trkpt lat="45.404220433384204" lon="9.146191246216338"><ele>107.0</ele><time>2026-04-10T09:56:30Z</time></trkpt><trkpt lat="45.40397737546424" lon="9.146043198752748"><ele>107.0</ele><time>2026-04-10T09:56:31Z</time></trkpt><trkpt lat="45.40373673953322" lon="9.145896891660596"><ele>107.5</ele><time>2026-04-10T09:56:32Z</time></trkpt><trkpt lat="45.4034975139024" lon="9.145752668325985"><ele>108.0</ele><time>2026-04-10T09:56:33Z</time></trkpt><trkpt lat="45.40326355473857" lon="9.145611350341719"><ele>108.0</ele><time>2026-04-10T09:56:34Z</time></trkpt><trkpt lat="45.40303486215864" lon="9.145475360621932"><ele>108.0</ele><time>2026-04-10T09:56:35Z</time></trkpt><trkpt lat="45.40280770632432" lon="9.145342881721588"><ele>107.0</ele><time>2026-04-10T09:56:36Z</time></trkpt><trkpt lat="45.40259263009204" lon="9.145217871176246"><ele>106.0</ele><time>2026-04-10T09:56:37Z</time></trkpt><trkpt lat="45.40238585012942" lon="9.145095479948"><ele>106.0</ele><time>2026-04-10T09:56:38Z</time></trkpt><trkpt lat="45.40219950631647" lon="9.144981753234907"><ele>106.0</ele><time>2026-04-10T09:56:39Z</time></trkpt><trkpt lat="45.402009597930835" lon="9.144865496777426"><ele>106.0</ele><time>2026-04-10T09:56:40Z</time></trkpt><trkpt lat="45.40183015445279" lon="9.144760760221487"><ele>106.0</ele><time>2026-04-10T09:56:41Z</time></trkpt><trkpt lat="45.401657737419576" lon="9.144658516583968"><ele>106.0</ele><time>2026-04-10T09:56:42Z</time></trkpt><trkpt lat="45.40149581506051" lon="9.144555150287387"><ele>106.0</ele><time>2026-04-10T09:56:43Z</time></trkpt><trkpt lat="45.401327731650746" lon="9.14444256829621"><ele>106.33333333333334</ele><time>2026-04-10T09:56:44Z</time></trkpt><trkpt lat="45.40115824807231" lon="9.144340772440144"><ele>106.66666666666666</ele><time>2026-04-10T09:56:45Z</time></trkpt><trkpt lat="45.40098582788775" lon="9.144240755673966"><ele>107.0</ele><time>2026-04-10T09:56:46Z</time></trkpt><trkpt lat="45.400813217038554" lon="9.14414204238861"><ele>108.0</ele><time>2026-04-10T09:56:47Z</time></trkpt><trkpt lat="45.400649337169185" lon="9.144043356306137"><ele>109.0</ele><time>2026-04-10T09:56:48Z</time></trkpt><trkpt lat="45.40048572497785" lon="9.143942825136923"><ele>110.0</ele><time>2026-04-10T09:56:49Z</time></trkpt><trkpt lat="45.40032926039425" lon="9.143844589287367"><ele>108.0</ele><time>2026-04-10T09:56:50Z</time></trkpt><trkpt lat="45.40016951379384" lon="9.14374493996635"><ele>106.0</ele><time>2026-04-10T09:56:51Z</time></trkpt><trkpt lat="45.400007125668225" lon="9.143644692124036"><ele>104.0</ele><time>2026-04-10T09:56:52Z</time></trkpt><trkpt lat="45.39983992290899" lon="9.143544823390485"><ele>104.0</ele><time>2026-04-10T09:56:53Z</time></trkpt><trkpt lat="45.39966598321444" lon="9.143443472312892"><ele>104.0</ele><time>2026-04-10T09:56:54Z</time></trkpt><trkpt lat="45.399496562190805" lon="9.143344050762192"><ele>104.0</ele><time>2026-04-10T09:56:55Z</time></trkpt><trkpt lat="45.3993286071057" lon="9.143242588507777"><ele>105.33333333333333</ele><time>2026-04-10T09:56:56Z</time></trkpt><trkpt lat="45.3991655602065" lon="9.143138971944165"><ele>106.66666666666666</ele><time>2026-04-10T09:56:57Z</time></trkpt><trkpt lat="45.39900347256518" lon="9.143030996168449"><ele>108.0</ele><time>2026-04-10T09:56:57.999Z</time></trkpt><trkpt lat="45.39884239412224" lon="9.142927413367666"><ele>107.33333333333334</ele><time>2026-04-10T09:56:58.999Z</time></trkpt><trkpt lat="45.39867830937386" lon="9.142829149248566"><ele>106.66666666666667</ele><time>2026-04-10T09:56:59.999Z</time></trkpt><trkpt lat="45.39851768339412" lon="9.142733818244748"><ele>106.0</ele><time>2026-04-10T09:57:00.999Z</time></trkpt><trkpt lat="45.39835127920583" lon="9.142636665441023"><ele>106.0</ele><time>2026-04-10T09:57:01.999Z</time></trkpt><trkpt lat="45.39818474685931" lon="9.142537519283234"><ele>106.0</ele><time>2026-04-10T09:57:02.999Z</time></trkpt><trkpt lat="45.39801206818858" lon="9.14244063113764"><ele>106.0</ele><time>2026-04-10T09:57:03.999Z</time></trkpt><trkpt lat="45.39783428217284" lon="9.142343483007824"><ele>106.0</ele><time>2026-04-10T09:57:04.999Z</time></trkpt><trkpt lat="45.39764909750563" lon="9.142244719450831"><ele>106.0</ele><time>2026-04-10T09:57:05.999Z</time></trkpt><trkpt lat="45.39745870251726" lon="9.14214810687472"><ele>106.0</ele><time>2026-04-10T09:57:06.999Z</time></trkpt><trkpt lat="45.39726116333128" lon="9.14204734843052"><ele>106.0</ele><time>2026-04-10T09:57:07.999Z</time></trkpt><trkpt lat="45.39705826950631" lon="9.141950911089664"><ele>106.0</ele><time>2026-04-10T09:57:08.999Z</time></trkpt><trkpt lat="45.396863884102345" lon="9.141861898394891"><ele>106.0</ele><time>2026-04-10T09:57:09.999Z</time></trkpt><trkpt lat="45.396680988599826" lon="9.141780854696703"><ele>106.0</ele><time>2026-04-10T09:57:10.999Z</time></trkpt><trkpt lat="45.396508050647064" lon="9.141710750039394"><ele>106.0</ele><time>2026-04-10T09:57:11.999Z</time></trkpt><trkpt lat="45.39633777797934" lon="9.141635095937362"><ele>106.0</ele><time>2026-04-10T09:57:12.999Z</time></trkpt><trkpt lat="45.39617769996234" lon="9.141564530185528"><ele>106.33333333333334</ele><time>2026-04-10T09:57:13.999Z</time></trkpt><trkpt lat="45.39601603263375" lon="9.141494335803095"><ele>106.66666666666666</ele><time>2026-04-10T09:57:14.999Z</time></trkpt><trkpt lat="45.395855647988114" lon="9.141419529098375"><ele>107.0</ele><time>2026-04-10T09:57:15.999Z</time></trkpt><trkpt lat="45.395694761641934" lon="9.141346334169556"><ele>107.0</ele><time>2026-04-10T09:57:16.999Z</time></trkpt><trkpt lat="45.39553644227231" lon="9.14127537741748"><ele>107.0</ele><time>2026-04-10T09:57:17.999Z</time></trkpt><trkpt lat="45.39538947327203" lon="9.141205775398985"><ele>107.0</ele><time>2026-04-10T09:57:18.999Z</time></trkpt><trkpt lat="45.395244387972134" lon="9.141134441031149"><ele>106.5</ele><time>2026-04-10T09:57:19.999Z</time></trkpt><trkpt lat="45.39512503030103" lon="9.141054260728174"><ele>106.0</ele><time>2026-04-10T09:57:20.999Z</time></trkpt><trkpt lat="45.395001171528655" lon="9.14100947184737"><ele>105.5</ele><time>2026-04-10T09:57:21.999Z</time></trkpt><trkpt lat="45.394896091505196" lon="9.140940639416343"><ele>105.0</ele><time>2026-04-10T09:57:22.999Z</time></trkpt><trkpt lat="45.39480083991564" lon="9.14085029216269"><ele>105.0</ele><time>2026-04-10T09:57:23.999Z</time></trkpt><trkpt lat="45.39471631268165" lon="9.140737144859118"><ele>105.0</ele><time>2026-04-10T09:57:24.999Z</time></trkpt><trkpt lat="45.394641155994655" lon="9.140609896741903"><ele>105.0</ele><time>2026-04-10T09:57:25.999Z</time></trkpt><trkpt lat="45.394576587365236" lon="9.140476148547009"><ele>105.0</ele><time>2026-04-10T09:57:26.999Z</time></trkpt><trkpt lat="45.39453144571914" lon="9.140335971211774"><ele>104.8</ele><time>2026-04-10T09:57:27.999Z</time></trkpt><trkpt lat="45.39450649482625" lon="9.140198101884957"><ele>104.6</ele><time>2026-04-10T09:57:28.999Z</time></trkpt><trkpt lat="45.39450155708549" lon="9.140056550855855"><ele>104.4</ele><time>2026-04-10T09:57:29.999Z</time></trkpt><trkpt lat="45.39451971859024" lon="9.139914537179804"><ele>104.2</ele><time>2026-04-10T09:57:30.999Z</time></trkpt><trkpt lat="45.39456152000371" lon="9.139781450958083"><ele>104.0</ele><time>2026-04-10T09:57:31.999Z</time></trkpt><trkpt lat="45.39462349484766" lon="9.139667829254757"><ele>104.2</ele><time>2026-04-10T09:57:32.999Z</time></trkpt><trkpt lat="45.39471372293208" lon="9.139578604249973"><ele>104.4</ele><time>2026-04-10T09:57:33.999Z</time></trkpt><trkpt lat="45.39479947130423" lon="9.139516369509357"><ele>104.6</ele><time>2026-04-10T09:57:34.999Z</time></trkpt><trkpt lat="45.39488946561969" lon="9.13947560793693"><ele>104.8</ele><time>2026-04-10T09:57:35.999Z</time></trkpt><trkpt lat="45.39497888546582" lon="9.139466060836618"><ele>105.0</ele><time>2026-04-10T09:57:36.999Z</time></trkpt><trkpt lat="45.395064465772165" lon="9.13947975208604"><ele>105.0</ele><time>2026-04-10T09:57:37.999Z</time></trkpt><trkpt lat="45.39514139729897" lon="9.139513346909888"><ele>105.0</ele><time>2026-04-10T09:57:38.999Z</time></trkpt><trkpt lat="45.395212040084104" lon="9.139563086537294"><ele>105.0</ele><time>2026-04-10T09:57:39.999Z</time></trkpt><trkpt lat="45.395276429422516" lon="9.13963601520884"><ele>105.0</ele><time>2026-04-10T09:57:40.999Z</time></trkpt><trkpt lat="45.395329689018205" lon="9.13973126241172"><ele>105.0</ele><time>2026-04-10T09:57:41.999Z</time></trkpt><trkpt lat="45.39537559909578" lon="9.139836835324665"><ele>105.0</ele><time>2026-04-10T09:57:42.999Z</time></trkpt><trkpt lat="45.395412065961196" lon="9.139944029733122"><ele>105.16666666666667</ele><time>2026-04-10T09:57:43.999Z</time></trkpt><trkpt lat="45.39543332273119" lon="9.140036798141171"><ele>105.33333333333334</ele><time>2026-04-10T09:57:44.999Z</time></trkpt><trkpt lat="45.39545357774516" lon="9.140184814320413"><ele>105.5</ele><time>2026-04-10T09:57:46.999Z</time></trkpt><trkpt lat="45.395458898151944" lon="9.140283355751352"><ele>105.66666666666667</ele><time>2026-04-10T09:57:48.999Z</time></trkpt><trkpt lat="45.39545762803172" lon="9.14038462012756"><ele>105.83333333333334</ele><time>2026-04-10T09:57:50.999Z</time></trkpt><trkpt lat="45.395431399675225" lon="9.1405615795527"><ele>106.0</ele><time>2026-04-10T09:57:53.999Z</time></trkpt><trkpt lat="45.39540277745855" lon="9.14068565458814"><ele>105.8</ele><time>2026-04-10T09:57:55.998Z</time></trkpt><trkpt lat="45.39540256810996" lon="9.140784518438505"><ele>105.6</ele><time>2026-04-10T09:57:56.998Z</time></trkpt><trkpt lat="45.395348661372736" lon="9.14089930376542"><ele>105.4</ele><time>2026-04-10T09:57:57.998Z</time></trkpt><trkpt lat="45.395302913047026" lon="9.141040935414713"><ele>105.2</ele><time>2026-04-10T09:57:58.998Z</time></trkpt><trkpt lat="45.3952595541989" lon="9.141176365308498"><ele>105.0</ele><time>2026-04-10T09:57:59.998Z</time></trkpt><trkpt lat="45.395215992386674" lon="9.14131819526689"><ele>105.0</ele><time>2026-04-10T09:58:01Z</time></trkpt><trkpt lat="45.39517141356312" lon="9.141450943052268"><ele>105.0</ele><time>2026-04-10T09:58:02Z</time></trkpt><trkpt lat="45.39512818810222" lon="9.141577794194108"><ele>105.0</ele><time>2026-04-10T09:58:03Z</time></trkpt><trkpt lat="45.39508532559069" lon="9.141708870232735"><ele>105.0</ele><time>2026-04-10T09:58:04Z</time></trkpt><trkpt lat="45.39503723999359" lon="9.141851723888719"><ele>105.0</ele><time>2026-04-10T09:58:05Z</time></trkpt><trkpt lat="45.394985105589235" lon="9.142002968641464"><ele>105.0</ele><time>2026-04-10T09:58:06Z</time></trkpt><trkpt lat="45.39493348872833" lon="9.142152495206549"><ele>105.0</ele><time>2026-04-10T09:58:07Z</time></trkpt><trkpt lat="45.3948815156104" lon="9.142299485139175"><ele>105.0</ele><time>2026-04-10T09:58:08Z</time></trkpt><trkpt lat="45.3948262548357" lon="9.142445927987573"><ele>105.0</ele><time>2026-04-10T09:58:09Z</time></trkpt><trkpt lat="45.394767054864744" lon="9.142595504999766"><ele>105.25</ele><time>2026-04-10T09:58:10Z</time></trkpt><trkpt lat="45.39471008920064" lon="9.14274330885375"><ele>105.5</ele><time>2026-04-10T09:58:11Z</time></trkpt><trkpt lat="45.39465715589825" lon="9.142889401203677"><ele>105.75</ele><time>2026-04-10T09:58:12Z</time></trkpt><trkpt lat="45.394603107292696" lon="9.143041824963733"><ele>106.0</ele><time>2026-04-10T09:58:13Z</time></trkpt><trkpt lat="45.39454852387447" lon="9.14320441736555"><ele>106.25</ele><time>2026-04-10T09:58:14Z</time></trkpt><trkpt lat="45.39449026298824" lon="9.143371370250154"><ele>106.5</ele><time>2026-04-10T09:58:15Z</time></trkpt><trkpt lat="45.39443071246198" lon="9.143536446321116"><ele>106.75</ele><time>2026-04-10T09:58:16Z</time></trkpt><trkpt lat="45.39437382722094" lon="9.143691209754216"><ele>107.0</ele><time>2026-04-10T09:58:17Z</time></trkpt><trkpt lat="45.394319244391426" lon="9.143839999462271"><ele>107.0</ele><time>2026-04-10T09:58:18Z</time></trkpt><trkpt lat="45.394267110707176" lon="9.143992524092177"><ele>107.0</ele><time>2026-04-10T09:58:19Z</time></trkpt><trkpt lat="45.394214330246044" lon="9.144150001720924"><ele>107.0</ele><time>2026-04-10T09:58:20Z</time></trkpt><trkpt lat="45.39416221259464" lon="9.144313456818523"><ele>107.0</ele><time>2026-04-10T09:58:21Z</time></trkpt><trkpt lat="45.394110537627405" lon="9.144472036129885"><ele>107.0</ele><time>2026-04-10T09:58:22Z</time></trkpt><trkpt lat="45.39406032272353" lon="9.144622006652385"><ele>107.0</ele><time>2026-04-10T09:58:23Z</time></trkpt><trkpt lat="45.39400402668966" lon="9.144770122804179"><ele>107.0</ele><time>2026-04-10T09:58:24Z</time></trkpt><trkpt lat="45.39394955686628" lon="9.144925190086324"><ele>107.0</ele><time>2026-04-10T09:58:25Z</time></trkpt><trkpt lat="45.39389544586674" lon="9.145075920894389"><ele>106.5</ele><time>2026-04-10T09:58:26Z</time></trkpt><trkpt lat="45.39383936847908" lon="9.14522876355933"><ele>106.0</ele><time>2026-04-10T09:58:27Z</time></trkpt><trkpt lat="45.39378299830122" lon="9.145385808607907"><ele>105.5</ele><time>2026-04-10T09:58:28Z</time></trkpt><trkpt lat="45.39372527229321" lon="9.145548883074838"><ele>105.0</ele><time>2026-04-10T09:58:29Z</time></trkpt><trkpt lat="45.393662593685065" lon="9.145730034780012"><ele>105.0</ele><time>2026-04-10T09:58:30Z</time></trkpt><trkpt lat="45.393619574695485" lon="9.1459416699756"><ele>105.0</ele><time>2026-04-10T09:58:31Z</time></trkpt><trkpt lat="45.39354143694758" lon="9.146153870131066"><ele>105.0</ele><time>2026-04-10T09:58:32Z</time></trkpt><trkpt lat="45.39345035453141" lon="9.14639944616643"><ele>106.5</ele><time>2026-04-10T09:58:33Z</time></trkpt><trkpt lat="45.39334144861718" lon="9.146667072692232"><ele>108.0</ele><time>2026-04-10T09:58:34Z</time></trkpt><trkpt lat="45.39324220746778" lon="9.146972654680544"><ele>108.0</ele><time>2026-04-10T09:58:35Z</time></trkpt><trkpt lat="45.39313894777216" lon="9.147295565746873"><ele>108.0</ele><time>2026-04-10T09:58:36Z</time></trkpt><trkpt lat="45.393039114905875" lon="9.147601522345889"><ele>108.66666666666666</ele><time>2026-04-10T09:58:37Z</time></trkpt><trkpt lat="45.392938781104085" lon="9.147891800213554"><ele>109.33333333333333</ele><time>2026-04-10T09:58:38Z</time></trkpt><trkpt lat="45.39284649607475" lon="9.148164187921786"><ele>110.0</ele><time>2026-04-10T09:58:39Z</time></trkpt><trkpt lat="45.39276393830016" lon="9.148420723784593"><ele>110.0</ele><time>2026-04-10T09:58:40Z</time></trkpt><trkpt lat="45.392683474473564" lon="9.14867044965379"><ele>110.0</ele><time>2026-04-10T09:58:41Z</time></trkpt><trkpt lat="45.39260700709411" lon="9.148899441116496"><ele>110.0</ele><time>2026-04-10T09:58:42Z</time></trkpt><trkpt lat="45.3925321224146" lon="9.149121937151675"><ele>108.66666666666666</ele><time>2026-04-10T09:58:43Z</time></trkpt><trkpt lat="45.39244909362586" lon="9.14935358287373"><ele>107.33333333333334</ele><time>2026-04-10T09:58:44Z</time></trkpt><trkpt lat="45.39236591265957" lon="9.14958210248304"><ele>106.0</ele><time>2026-04-10T09:58:45Z</time></trkpt><trkpt lat="45.39228313490118" lon="9.149831937368184"><ele>106.33333333333334</ele><time>2026-04-10T09:58:46Z</time></trkpt><trkpt lat="45.392202626384744" lon="9.15009545693876"><ele>106.66666666666666</ele><time>2026-04-10T09:58:47Z</time></trkpt><trkpt lat="45.39211651069797" lon="9.150375002158665"><ele>107.0</ele><time>2026-04-10T09:58:48Z</time></trkpt><trkpt lat="45.392020554637774" lon="9.150662263961472"><ele>107.5</ele><time>2026-04-10T09:58:49Z</time></trkpt><trkpt lat="45.39191922927051" lon="9.150953943970988"><ele>108.0</ele><time>2026-04-10T09:58:50Z</time></trkpt><trkpt lat="45.39181573415611" lon="9.15124658212138"><ele>108.0</ele><time>2026-04-10T09:58:51Z</time></trkpt><trkpt lat="45.391711606623915" lon="9.151540221595024"><ele>108.0</ele><time>2026-04-10T09:58:52Z</time></trkpt><trkpt lat="45.39160633051002" lon="9.151833321383403"><ele>107.33333333333334</ele><time>2026-04-10T09:58:53Z</time></trkpt><trkpt lat="45.39150323796375" lon="9.15212326955275"><ele>106.66666666666667</ele><time>2026-04-10T09:58:54Z</time></trkpt><trkpt lat="45.39140367126073" lon="9.152399557208497"><ele>106.0</ele><time>2026-04-10T09:58:55Z</time></trkpt><trkpt lat="45.39130942135338" lon="9.152664462434341"><ele>105.66666666666667</ele><time>2026-04-10T09:58:56Z</time></trkpt><trkpt lat="45.39121732992964" lon="9.15292379256428"><ele>105.33333333333334</ele><time>2026-04-10T09:58:57Z</time></trkpt><trkpt lat="45.39113147119788" lon="9.153172755981766"><ele>105.0</ele><time>2026-04-10T09:58:58Z</time></trkpt><trkpt lat="45.39104604543732" lon="9.153413840849993"><ele>105.0</ele><time>2026-04-10T09:58:59Z</time></trkpt><trkpt lat="45.39096112463002" lon="9.153654098261972"><ele>105.0</ele><time>2026-04-10T09:59:00Z</time></trkpt><trkpt lat="45.39087675012849" lon="9.153894971415758"><ele>105.0</ele><time>2026-04-10T09:59:01Z</time></trkpt><trkpt lat="45.39078951905075" lon="9.154147582016073"><ele>105.33333333333334</ele><time>2026-04-10T09:59:02Z</time></trkpt><trkpt lat="45.39069981825319" lon="9.154407687751787"><ele>105.66666666666667</ele><time>2026-04-10T09:59:03Z</time></trkpt><trkpt lat="45.390607040100896" lon="9.154672523521283"><ele>106.0</ele><time>2026-04-10T09:59:04Z</time></trkpt><trkpt lat="45.39051303254572" lon="9.154939167419744"><ele>105.66666666666667</ele><time>2026-04-10T09:59:04.999Z</time></trkpt><trkpt lat="45.390415835233966" lon="9.155217880361311"><ele>105.33333333333334</ele><time>2026-04-10T09:59:05.999Z</time></trkpt><trkpt lat="45.39031756095431" lon="9.155498605000144"><ele>105.0</ele><time>2026-04-10T09:59:06.999Z</time></trkpt><trkpt lat="45.390218379299505" lon="9.155787451872232"><ele>104.5</ele><time>2026-04-10T09:59:07.999Z</time></trkpt><trkpt lat="45.390116496543094" lon="9.15607918544048"><ele>104.0</ele><time>2026-04-10T09:59:08.999Z</time></trkpt><trkpt lat="45.390011446150965" lon="9.156375239181996"><ele>103.5</ele><time>2026-04-10T09:59:09.999Z</time></trkpt><trkpt lat="45.389905733958514" lon="9.156678844038113"><ele>103.0</ele><time>2026-04-10T09:59:10.999Z</time></trkpt><trkpt lat="45.38980085217521" lon="9.156992135472791"><ele>103.0</ele><time>2026-04-10T09:59:11.999Z</time></trkpt><trkpt lat="45.38969826635183" lon="9.15730549724931"><ele>103.0</ele><time>2026-04-10T09:59:12.999Z</time></trkpt><trkpt lat="45.38959069205794" lon="9.157622229790618"><ele>103.5</ele><time>2026-04-10T09:59:13.999Z</time></trkpt><trkpt lat="45.389475487585464" lon="9.15794381918756"><ele>104.0</ele><time>2026-04-10T09:59:14.999Z</time></trkpt><trkpt lat="45.38935709963972" lon="9.158268146862246"><ele>104.0</ele><time>2026-04-10T09:59:15.999Z</time></trkpt><trkpt lat="45.38923853733509" lon="9.158597513824235"><ele>104.0</ele><time>2026-04-10T09:59:16.999Z</time></trkpt><trkpt lat="45.3891207452757" lon="9.158931084740008"><ele>103.0</ele><time>2026-04-10T09:59:17.999Z</time></trkpt><trkpt lat="45.38900575953534" lon="9.159276082720533"><ele>102.0</ele><time>2026-04-10T09:59:18.999Z</time></trkpt><trkpt lat="45.388890157218356" lon="9.159609724838727"><ele>102.0</ele><time>2026-04-10T09:59:19.999Z</time></trkpt><trkpt lat="45.38877284394859" lon="9.159950713762095"><ele>102.0</ele><time>2026-04-10T09:59:20.999Z</time></trkpt><trkpt lat="45.38865525618525" lon="9.160289560492014"><ele>102.0</ele><time>2026-04-10T09:59:21.999Z</time></trkpt><trkpt lat="45.38853415222998" lon="9.160634006916379"><ele>102.0</ele><time>2026-04-10T09:59:22.999Z</time></trkpt><trkpt lat="45.3884120821271" lon="9.160978496257966"><ele>101.5</ele><time>2026-04-10T09:59:23.999Z</time></trkpt><trkpt lat="45.38828932925047" lon="9.161322850267522"><ele>101.0</ele><time>2026-04-10T09:59:24.999Z</time></trkpt><trkpt lat="45.38816905073204" lon="9.161665758018923"><ele>101.0</ele><time>2026-04-10T09:59:25.999Z</time></trkpt><trkpt lat="45.388045885887365" lon="9.16200881332731"><ele>101.0</ele><time>2026-04-10T09:59:26.999Z</time></trkpt><trkpt lat="45.38792409328093" lon="9.162352508446244"><ele>101.5</ele><time>2026-04-10T09:59:27.999Z</time></trkpt><trkpt lat="45.38780382591599" lon="9.162693017700468"><ele>102.0</ele><time>2026-04-10T09:59:28.999Z</time></trkpt><trkpt lat="45.38768421049629" lon="9.163036509594422"><ele>101.5</ele><time>2026-04-10T09:59:29.999Z</time></trkpt><trkpt lat="45.387563572519525" lon="9.163381331423148"><ele>101.0</ele><time>2026-04-10T09:59:30.999Z</time></trkpt><trkpt lat="45.3874444948412" lon="9.163723984901583"><ele>101.5</ele><time>2026-04-10T09:59:31.999Z</time></trkpt><trkpt lat="45.38732515877817" lon="9.164066169151836"><ele>102.0</ele><time>2026-04-10T09:59:32.999Z</time></trkpt><trkpt lat="45.38720783151321" lon="9.164408781700413"><ele>101.5</ele><time>2026-04-10T09:59:33.999Z</time></trkpt><trkpt lat="45.38709090002111" lon="9.164746309869724"><ele>101.0</ele><time>2026-04-10T09:59:34.999Z</time></trkpt><trkpt lat="45.38697427285799" lon="9.16509122502453"><ele>101.0</ele><time>2026-04-10T09:59:35.999Z</time></trkpt><trkpt lat="45.38686616281252" lon="9.165439267981766"><ele>101.0</ele><time>2026-04-10T09:59:36.999Z</time></trkpt><trkpt lat="45.386760664113545" lon="9.165796824256214"><ele>100.0</ele><time>2026-04-10T09:59:37.999Z</time></trkpt><trkpt lat="45.38666304270994" lon="9.166151427336676"><ele>99.0</ele><time>2026-04-10T09:59:38.999Z</time></trkpt><trkpt lat="45.386572320700544" lon="9.166510500897141"><ele>98.5</ele><time>2026-04-10T09:59:39.999Z</time></trkpt><trkpt lat="45.38648693024174" lon="9.166872426896283"><ele>98.0</ele><time>2026-04-10T09:59:40.999Z</time></trkpt><trkpt lat="45.38640910609026" lon="9.167234445624558"><ele>101.5</ele><time>2026-04-10T09:59:41.999Z</time></trkpt><trkpt lat="45.38633971169636" lon="9.167597423537634"><ele>105.0</ele><time>2026-04-10T09:59:42.999Z</time></trkpt><trkpt lat="45.38628010996998" lon="9.167961829350853"><ele>103.0</ele><time>2026-04-10T09:59:43.999Z</time></trkpt><trkpt lat="45.38622720861358" lon="9.168333089464676"><ele>101.0</ele><time>2026-04-10T09:59:44.999Z</time></trkpt><trkpt lat="45.38618399064196" lon="9.168704181482942"><ele>102.5</ele><time>2026-04-10T09:59:45.999Z</time></trkpt><trkpt lat="45.38614890120883" lon="9.169075941514286"><ele>104.0</ele><time>2026-04-10T09:59:46.999Z</time></trkpt><trkpt lat="45.386121398426475" lon="9.16944439501935"><ele>104.0</ele><time>2026-04-10T09:59:47.999Z</time></trkpt><trkpt lat="45.38610277513481" lon="9.1698104386398"><ele>104.0</ele><time>2026-04-10T09:59:48.999Z</time></trkpt><trkpt lat="45.38609192125107" lon="9.17018204310262"><ele>104.0</ele><time>2026-04-10T09:59:49.999Z</time></trkpt><trkpt lat="45.386087991059874" lon="9.170548670374878"><ele>104.0</ele><time>2026-04-10T09:59:50.999Z</time></trkpt><trkpt lat="45.38609368562275" lon="9.170919444415116"><ele>104.0</ele><time>2026-04-10T09:59:51.999Z</time></trkpt><trkpt lat="45.38610412552668" lon="9.171290577466099"><ele>104.0</ele><time>2026-04-10T09:59:52.999Z</time></trkpt><trkpt lat="45.3861234965391" lon="9.171663785215623"><ele>102.5</ele><time>2026-04-10T09:59:53.999Z</time></trkpt><trkpt lat="45.38614994403835" lon="9.172040488186957"><ele>101.0</ele><time>2026-04-10T09:59:54.999Z</time></trkpt><trkpt lat="45.38618535086353" lon="9.172406087432506"><ele>100.5</ele><time>2026-04-10T09:59:55.999Z</time></trkpt><trkpt lat="45.386229813206576" lon="9.172779078046437"><ele>100.0</ele><time>2026-04-10T09:59:56.999Z</time></trkpt><trkpt lat="45.386280119301" lon="9.17314595694692"><ele>100.5</ele><time>2026-04-10T09:59:57.999Z</time></trkpt><trkpt lat="45.38633715688328" lon="9.173512471390971"><ele>101.0</ele><time>2026-04-10T09:59:58.999Z</time></trkpt><trkpt lat="45.38640112603239" lon="9.173879430195381"><ele>101.0</ele><time>2026-04-10T09:59:59.999Z</time></trkpt><trkpt lat="45.386468835599516" lon="9.174243956202554"><ele>101.0</ele><time>2026-04-10T10:00:00.999Z</time></trkpt><trkpt lat="45.386546503594595" lon="9.174610601530855"><ele>100.5</ele><time>2026-04-10T10:00:01.999Z</time></trkpt><trkpt lat="45.386631638898564" lon="9.174968474180368"><ele>100.0</ele><time>2026-04-10T10:00:02.998Z</time></trkpt><trkpt lat="45.38672845898258" lon="9.175326115468321"><ele>100.0</ele><time>2026-04-10T10:00:03.998Z</time></trkpt><trkpt lat="45.386834486026714" lon="9.175675538860377"><ele>100.0</ele><time>2026-04-10T10:00:04.998Z</time></trkpt><trkpt lat="45.38694854701011" lon="9.176025876743974"><ele>100.5</ele><time>2026-04-10T10:00:06Z</time></trkpt><trkpt lat="45.38706946731712" lon="9.176366897242366"><ele>101.0</ele><time>2026-04-10T10:00:07Z</time></trkpt><trkpt lat="45.387196360352036" lon="9.176701377925244"><ele>102.0</ele><time>2026-04-10T10:00:08Z</time></trkpt><trkpt lat="45.3873313593829" lon="9.177040061758639"><ele>103.0</ele><time>2026-04-10T10:00:09Z</time></trkpt><trkpt lat="45.38746538357801" lon="9.177369473409335"><ele>103.0</ele><time>2026-04-10T10:00:10Z</time></trkpt><trkpt lat="45.387600797268725" lon="9.17769873597483"><ele>103.0</ele><time>2026-04-10T10:00:11Z</time></trkpt><trkpt lat="45.387732356290805" lon="9.178025492559215"><ele>102.0</ele><time>2026-04-10T10:00:12Z</time></trkpt><trkpt lat="45.387861973985416" lon="9.178357166063133"><ele>101.0</ele><time>2026-04-10T10:00:13Z</time></trkpt><trkpt lat="45.387987866989334" lon="9.178685688843471"><ele>101.5</ele><time>2026-04-10T10:00:14Z</time></trkpt><trkpt lat="45.3881124191469" lon="9.17902354067129"><ele>102.0</ele><time>2026-04-10T10:00:15Z</time></trkpt><trkpt lat="45.388231334144706" lon="9.179355497621513"><ele>102.0</ele><time>2026-04-10T10:00:16Z</time></trkpt><trkpt lat="45.38835108340632" lon="9.179694502634959"><ele>102.0</ele><time>2026-04-10T10:00:17Z</time></trkpt><trkpt lat="45.38846967760684" lon="9.180041209826426"><ele>101.5</ele><time>2026-04-10T10:00:18Z</time></trkpt><trkpt lat="45.38858550771144" lon="9.180389266306591"><ele>101.0</ele><time>2026-04-10T10:00:19Z</time></trkpt><trkpt lat="45.38870082767313" lon="9.180736094276687"><ele>100.5</ele><time>2026-04-10T10:00:20Z</time></trkpt><trkpt lat="45.38881538872081" lon="9.181084467558748"><ele>100.0</ele><time>2026-04-10T10:00:21Z</time></trkpt><trkpt lat="45.38892640658642" lon="9.18142980959793"><ele>102.0</ele><time>2026-04-10T10:00:22Z</time></trkpt><trkpt lat="45.389034617902446" lon="9.18177983910253"><ele>104.0</ele><time>2026-04-10T10:00:23Z</time></trkpt><trkpt lat="45.38913978399593" lon="9.182132751385808"><ele>103.5</ele><time>2026-04-10T10:00:24Z</time></trkpt><trkpt lat="45.38924053580852" lon="9.182478641285902"><ele>103.0</ele><time>2026-04-10T10:00:25Z</time></trkpt><trkpt lat="45.389342188151446" lon="9.182830021564818"><ele>103.0</ele><time>2026-04-10T10:00:26Z</time></trkpt><trkpt lat="45.38944173183366" lon="9.183175511048972"><ele>103.0</ele><time>2026-04-10T10:00:27Z</time></trkpt><trkpt lat="45.38953838328553" lon="9.183521102194437"><ele>102.5</ele><time>2026-04-10T10:00:28Z</time></trkpt><trkpt lat="45.3896316631403" lon="9.18386415161774"><ele>102.0</ele><time>2026-04-10T10:00:29Z</time></trkpt><trkpt lat="45.38972161360747" lon="9.184211078575478"><ele>101.5</ele><time>2026-04-10T10:00:30Z</time></trkpt><trkpt lat="45.389806194876755" lon="9.184554284254194"><ele>101.0</ele><time>2026-04-10T10:00:31Z</time></trkpt><trkpt lat="45.3898891637545" lon="9.184902768654986"><ele>100.5</ele><time>2026-04-10T10:00:32Z</time></trkpt><trkpt lat="45.38996846829969" lon="9.185252689779258"><ele>100.0</ele><time>2026-04-10T10:00:33Z</time></trkpt><trkpt lat="45.390047368575694" lon="9.185602619393917"><ele>100.5</ele><time>2026-04-10T10:00:34Z</time></trkpt><trkpt lat="45.390126154707495" lon="9.185955485760019"><ele>101.0</ele><time>2026-04-10T10:00:35Z</time></trkpt><trkpt lat="45.39020318843498" lon="9.18631280095839"><ele>100.0</ele><time>2026-04-10T10:00:36Z</time></trkpt><trkpt lat="45.39027471268721" lon="9.186667406780604"><ele>99.0</ele><time>2026-04-10T10:00:37Z</time></trkpt><trkpt lat="45.39034608529657" lon="9.187031783192419"><ele>99.5</ele><time>2026-04-10T10:00:38Z</time></trkpt><trkpt lat="45.39041894113864" lon="9.187388753593037"><ele>100.0</ele><time>2026-04-10T10:00:39Z</time></trkpt><trkpt lat="45.39049075312636" lon="9.187747323368999"><ele>100.5</ele><time>2026-04-10T10:00:40Z</time></trkpt><trkpt lat="45.39055883020586" lon="9.188108544121118"><ele>101.0</ele><time>2026-04-10T10:00:41Z</time></trkpt><trkpt lat="45.39062243730773" lon="9.188474822229644"><ele>102.0</ele><time>2026-04-10T10:00:42Z</time></trkpt><trkpt lat="45.390682457145154" lon="9.188841409222746"><ele>103.0</ele><time>2026-04-10T10:00:43Z</time></trkpt><trkpt lat="45.39074053423171" lon="9.18920597533612"><ele>103.0</ele><time>2026-04-10T10:00:44Z</time></trkpt><trkpt lat="45.390797098513296" lon="9.18957333942094"><ele>103.0</ele><time>2026-04-10T10:00:45Z</time></trkpt><trkpt lat="45.390850837867475" lon="9.189939129922356"><ele>101.5</ele><time>2026-04-10T10:00:46Z</time></trkpt><trkpt lat="45.39090234455872" lon="9.190301416377242"><ele>100.0</ele><time>2026-04-10T10:00:47Z</time></trkpt><trkpt lat="45.390951619843875" lon="9.190663547387064"><ele>100.0</ele><time>2026-04-10T10:00:48Z</time></trkpt><trkpt lat="45.39099751300608" lon="9.191022281437458"><ele>100.0</ele><time>2026-04-10T10:00:49Z</time></trkpt><trkpt lat="45.391038919313665" lon="9.191380240984877"><ele>99.5</ele><time>2026-04-10T10:00:50Z</time></trkpt><trkpt lat="45.39107960992772" lon="9.191735090461938"><ele>99.0</ele><time>2026-04-10T10:00:51Z</time></trkpt><trkpt lat="45.39111842133252" lon="9.192075484960442"><ele>99.5</ele><time>2026-04-10T10:00:52Z</time></trkpt><trkpt lat="45.39115556956956" lon="9.19240969325882"><ele>100.0</ele><time>2026-04-10T10:00:53Z</time></trkpt><trkpt lat="45.391188599547526" lon="9.192745373009833"><ele>100.0</ele><time>2026-04-10T10:00:54Z</time></trkpt><trkpt lat="45.391221645753475" lon="9.193089647775343"><ele>100.0</ele><time>2026-04-10T10:00:55Z</time></trkpt><trkpt lat="45.39125312801106" lon="9.193438110503942"><ele>100.0</ele><time>2026-04-10T10:00:56Z</time></trkpt><trkpt lat="45.391282830397934" lon="9.193793842962332"><ele>100.0</ele><time>2026-04-10T10:00:57Z</time></trkpt><trkpt lat="45.39130948303773" lon="9.194155555902194"><ele>100.0</ele><time>2026-04-10T10:00:58Z</time></trkpt><trkpt lat="45.39133156517896" lon="9.194519010520617"><ele>100.0</ele><time>2026-04-10T10:00:59Z</time></trkpt><trkpt lat="45.39135114017753" lon="9.194881832935687"><ele>100.0</ele><time>2026-04-10T10:01:00Z</time></trkpt><trkpt lat="45.3913695304132" lon="9.195239432324687"><ele>100.0</ele><time>2026-04-10T10:01:01Z</time></trkpt><trkpt lat="45.391386893938844" lon="9.195584658466911"><ele>100.0</ele><time>2026-04-10T10:01:02Z</time></trkpt><trkpt lat="45.391401370087976" lon="9.195918354728539"><ele>100.0</ele><time>2026-04-10T10:01:03Z</time></trkpt><trkpt lat="45.3914136713496" lon="9.196248030080492"><ele>100.0</ele><time>2026-04-10T10:01:04Z</time></trkpt><trkpt lat="45.39142465496023" lon="9.196578749428276"><ele>100.0</ele><time>2026-04-10T10:01:05Z</time></trkpt><trkpt lat="45.39143447883997" lon="9.196906910292196"><ele>100.0</ele><time>2026-04-10T10:01:06Z</time></trkpt><trkpt lat="45.39144413437906" lon="9.197233323198514"><ele>100.0</ele><time>2026-04-10T10:01:07Z</time></trkpt><trkpt lat="45.39145156469357" lon="9.197559588401182"><ele>101.5</ele><time>2026-04-10T10:01:08Z</time></trkpt><trkpt lat="45.39145477144442" lon="9.197883720465782"><ele>103.0</ele><time>2026-04-10T10:01:08.999Z</time></trkpt><trkpt lat="45.3914564649818" lon="9.198211286790341"><ele>104.0</ele><time>2026-04-10T10:01:09.999Z</time></trkpt><trkpt lat="45.391456037677436" lon="9.198534209237467"><ele>105.0</ele><time>2026-04-10T10:01:10.999Z</time></trkpt><trkpt lat="45.39145183060404" lon="9.198861412556253"><ele>103.0</ele><time>2026-04-10T10:01:11.999Z</time></trkpt><trkpt lat="45.39144675167607" lon="9.199188740543862"><ele>101.0</ele><time>2026-04-10T10:01:12.999Z</time></trkpt><trkpt lat="45.39143902219131" lon="9.199511854061397"><ele>101.0</ele><time>2026-04-10T10:01:13.999Z</time></trkpt><trkpt lat="45.39143144170752" lon="9.199829856118704"><ele>101.0</ele><time>2026-04-10T10:01:14.999Z</time></trkpt><trkpt lat="45.391419311615316" lon="9.200147688538406"><ele>101.0</ele><time>2026-04-10T10:01:15.999Z</time></trkpt><trkpt lat="45.391409582781336" lon="9.200469779106795"><ele>102.0</ele><time>2026-04-10T10:01:16.999Z</time></trkpt><trkpt lat="45.391398210426225" lon="9.200788012458199"><ele>103.0</ele><time>2026-04-10T10:01:17.999Z</time></trkpt><trkpt lat="45.39138483730106" lon="9.201102075458062"><ele>104.0</ele><time>2026-04-10T10:01:18.999Z</time></trkpt><trkpt lat="45.39137266540641" lon="9.201396989813603"><ele>103.33333333333333</ele><time>2026-04-10T10:01:19.999Z</time></trkpt><trkpt lat="45.39136183591176" lon="9.201681587840564"><ele>102.66666666666666</ele><time>2026-04-10T10:01:20.999Z</time></trkpt><trkpt lat="45.391348425846516" lon="9.201955914505973"><ele>102.0</ele><time>2026-04-10T10:01:21.999Z</time></trkpt><trkpt lat="45.39133192648211" lon="9.202229125853126"><ele>101.0</ele><time>2026-04-10T10:01:22.999Z</time></trkpt><trkpt lat="45.39131475468249" lon="9.202511492324367"><ele>100.0</ele><time>2026-04-10T10:01:23.999Z</time></trkpt><trkpt lat="45.391299708658586" lon="9.20279654848181"><ele>99.0</ele><time>2026-04-10T10:01:24.999Z</time></trkpt><trkpt lat="45.39128384836421" lon="9.203084027948734"><ele>99.0</ele><time>2026-04-10T10:01:25.999Z</time></trkpt><trkpt lat="45.39126766691906" lon="9.20336585071114"><ele>99.0</ele><time>2026-04-10T10:01:26.999Z</time></trkpt><trkpt lat="45.39124994415468" lon="9.203639076331108"><ele>99.0</ele><time>2026-04-10T10:01:27.999Z</time></trkpt><trkpt lat="45.391230555811255" lon="9.203908848099369"><ele>100.0</ele><time>2026-04-10T10:01:28.999Z</time></trkpt><trkpt lat="45.39120837078318" lon="9.204177606854545"><ele>101.0</ele><time>2026-04-10T10:01:29.999Z</time></trkpt><trkpt lat="45.391185455454895" lon="9.204450836802202"><ele>102.0</ele><time>2026-04-10T10:01:30.999Z</time></trkpt><trkpt lat="45.391161990594675" lon="9.204732628768106"><ele>101.66666666666666</ele><time>2026-04-10T10:01:31.999Z</time></trkpt><trkpt lat="45.391133324472676" lon="9.205023978326404"><ele>101.33333333333333</ele><time>2026-04-10T10:01:32.999Z</time></trkpt><trkpt lat="45.391100882917335" lon="9.205321061603705"><ele>101.0</ele><time>2026-04-10T10:01:33.999Z</time></trkpt><trkpt lat="45.39106827115501" lon="9.205620607861055"><ele>101.66666666666666</ele><time>2026-04-10T10:01:34.999Z</time></trkpt><trkpt lat="45.39103732557004" lon="9.205921575634088"><ele>102.33333333333334</ele><time>2026-04-10T10:01:35.999Z</time></trkpt><trkpt lat="45.39100649878914" lon="9.206224242146071"><ele>103.0</ele><time>2026-04-10T10:01:36.999Z</time></trkpt><trkpt lat="45.390973689226705" lon="9.206526955648473"><ele>103.0</ele><time>2026-04-10T10:01:37.999Z</time></trkpt><trkpt lat="45.39093642724827" lon="9.206829721506264"><ele>103.0</ele><time>2026-04-10T10:01:38.999Z</time></trkpt><trkpt lat="45.390906265807395" lon="9.207123358425289"><ele>103.0</ele><time>2026-04-10T10:01:39.999Z</time></trkpt><trkpt lat="45.39087456235234" lon="9.207420214599408"><ele>102.0</ele><time>2026-04-10T10:01:40.999Z</time></trkpt><trkpt lat="45.39084224752027" lon="9.20771370052156"><ele>101.0</ele><time>2026-04-10T10:01:41.999Z</time></trkpt><trkpt lat="45.390808738145815" lon="9.208005842355607"><ele>100.0</ele><time>2026-04-10T10:01:42.999Z</time></trkpt><trkpt lat="45.39076624318337" lon="9.208285069004397"><ele>100.0</ele><time>2026-04-10T10:01:43.999Z</time></trkpt><trkpt lat="45.39071553850837" lon="9.208544849823676"><ele>100.0</ele><time>2026-04-10T10:01:44.999Z</time></trkpt><trkpt lat="45.390655552094415" lon="9.20878588247673"><ele>100.0</ele><time>2026-04-10T10:01:45.999Z</time></trkpt><trkpt lat="45.39058679235077" lon="9.20902517417971"><ele>100.33333333333334</ele><time>2026-04-10T10:01:46.999Z</time></trkpt><trkpt lat="45.39050751255511" lon="9.20926970168642"><ele>100.66666666666666</ele><time>2026-04-10T10:01:47.999Z</time></trkpt><trkpt lat="45.390420302950204" lon="9.209519293621824"><ele>101.0</ele><time>2026-04-10T10:01:48.999Z</time></trkpt><trkpt lat="45.39032379851084" lon="9.20976032633789"><ele>100.5</ele><time>2026-04-10T10:01:49.999Z</time></trkpt><trkpt lat="45.39022786695716" lon="9.20998346337678"><ele>100.0</ele><time>2026-04-10T10:01:50.999Z</time></trkpt><trkpt lat="45.39003212522587" lon="9.210432591204261"><ele>100.0</ele><time>2026-04-10T10:01:52.999Z</time></trkpt><trkpt lat="45.38993699159845" lon="9.210652452869564"><ele>100.0</ele><time>2026-04-10T10:01:53.999Z</time></trkpt><trkpt lat="45.3898412739192" lon="9.210876266413193"><ele>100.0</ele><time>2026-04-10T10:01:54.999Z</time></trkpt><trkpt lat="45.389750345907906" lon="9.21109379157833"><ele>101.0</ele><time>2026-04-10T10:01:55.999Z</time></trkpt><trkpt lat="45.389665319463305" lon="9.211302917424034"><ele>102.0</ele><time>2026-04-10T10:01:56.999Z</time></trkpt><trkpt lat="45.389584960007355" lon="9.211502316354432"><ele>103.0</ele><time>2026-04-10T10:01:57.999Z</time></trkpt><trkpt lat="45.38950952938884" lon="9.211687128653505"><ele>103.0</ele><time>2026-04-10T10:01:58.999Z</time></trkpt><trkpt lat="45.389431402264094" lon="9.21185077350054"><ele>103.0</ele><time>2026-04-10T10:01:59.999Z</time></trkpt><trkpt lat="45.389348664001794" lon="9.21199627488309"><ele>103.0</ele><time>2026-04-10T10:02:00.999Z</time></trkpt><trkpt lat="45.389257535310904" lon="9.212110848724429"><ele>103.0</ele><time>2026-04-10T10:02:01.999Z</time></trkpt><trkpt lat="45.38915656937936" lon="9.212206521142472"><ele>103.0</ele><time>2026-04-10T10:02:02.999Z</time></trkpt><trkpt lat="45.38903979845717" lon="9.212275185588807"><ele>103.0</ele><time>2026-04-10T10:02:03.999Z</time></trkpt><trkpt lat="45.388906685638155" lon="9.21233385669291"><ele>103.0</ele><time>2026-04-10T10:02:04.999Z</time></trkpt><trkpt lat="45.38875747340365" lon="9.21238391587385"><ele>103.0</ele><time>2026-04-10T10:02:05.999Z</time></trkpt><trkpt lat="45.38859394232094" lon="9.212425959644108"><ele>102.66666666666667</ele><time>2026-04-10T10:02:06.998Z</time></trkpt><trkpt lat="45.38841946684592" lon="9.212474772774398"><ele>102.33333333333334</ele><time>2026-04-10T10:02:07.998Z</time></trkpt><trkpt lat="45.388239036575975" lon="9.212521953772134"><ele>102.0</ele><time>2026-04-10T10:02:08.998Z</time></trkpt><trkpt lat="45.388063153260134" lon="9.212572921669612"><ele>101.66666666666666</ele><time>2026-04-10T10:02:09.998Z</time></trkpt><trkpt lat="45.38788706490086" lon="9.212619860214339"><ele>101.33333333333333</ele><time>2026-04-10T10:02:10.998Z</time></trkpt><trkpt lat="45.38771648294623" lon="9.21266443707357"><ele>101.0</ele><time>2026-04-10T10:02:12Z</time></trkpt><trkpt lat="45.387547682112846" lon="9.212706290157518"><ele>101.0</ele><time>2026-04-10T10:02:13Z</time></trkpt><trkpt lat="45.38737342713618" lon="9.212747675830702"><ele>101.0</ele><time>2026-04-10T10:02:14Z</time></trkpt><trkpt lat="45.38719994209923" lon="9.212800536348507"><ele>101.0</ele><time>2026-04-10T10:02:15Z</time></trkpt><trkpt lat="45.3870177366311" lon="9.212857931434858"><ele>100.0</ele><time>2026-04-10T10:02:16Z</time></trkpt><trkpt lat="45.38683693703283" lon="9.212922882374887"><ele>99.0</ele><time>2026-04-10T10:02:17Z</time></trkpt><trkpt lat="45.38665121989441" lon="9.21300172589829"><ele>98.0</ele><time>2026-04-10T10:02:18Z</time></trkpt><trkpt lat="45.38646953016544" lon="9.213094461773952"><ele>98.0</ele><time>2026-04-10T10:02:19Z</time></trkpt><trkpt lat="45.386283482007386" lon="9.213194640426021"><ele>98.0</ele><time>2026-04-10T10:02:20Z</time></trkpt><trkpt lat="45.38609708685787" lon="9.21331241958115"><ele>98.0</ele><time>2026-04-10T10:02:21Z</time></trkpt><trkpt lat="45.38590756005182" lon="9.213446217164321"><ele>98.0</ele><time>2026-04-10T10:02:22Z</time></trkpt><trkpt lat="45.385719324819" lon="9.213593797984966"><ele>98.0</ele><time>2026-04-10T10:02:23Z</time></trkpt><trkpt lat="45.38554028298366" lon="9.213753164245148"><ele>98.0</ele><time>2026-04-10T10:02:24Z</time></trkpt><trkpt lat="45.38538353955019" lon="9.213912795633497"><ele>98.0</ele><time>2026-04-10T10:02:25Z</time></trkpt><trkpt lat="45.385238904700174" lon="9.21407006020514"><ele>98.0</ele><time>2026-04-10T10:02:26Z</time></trkpt><trkpt lat="45.385100565824594" lon="9.214223604636535"><ele>98.0</ele><time>2026-04-10T10:02:27Z</time></trkpt><trkpt lat="45.3849714913868" lon="9.214369410909137"><ele>98.0</ele><time>2026-04-10T10:02:28Z</time></trkpt><trkpt lat="45.38485156728465" lon="9.214520853867079"><ele>98.0</ele><time>2026-04-10T10:02:29Z</time></trkpt><trkpt lat="45.384734802167046" lon="9.214683997686231"><ele>98.0</ele><time>2026-04-10T10:02:30Z</time></trkpt><trkpt lat="45.38462284960842" lon="9.21484355363623"><ele>98.66666666666666</ele><time>2026-04-10T10:02:31Z</time></trkpt><trkpt lat="45.3845124515705" lon="9.215005065370189"><ele>99.33333333333334</ele><time>2026-04-10T10:02:32Z</time></trkpt><trkpt lat="45.3844053553272" lon="9.2151694745257"><ele>100.0</ele><time>2026-04-10T10:02:33Z</time></trkpt><trkpt lat="45.38430758231219" lon="9.215342922089768"><ele>100.0</ele><time>2026-04-10T10:02:34Z</time></trkpt><trkpt lat="45.384207274654834" lon="9.215517713644788"><ele>100.0</ele><time>2026-04-10T10:02:35Z</time></trkpt><trkpt lat="45.384105555311535" lon="9.215705031022592"><ele>100.0</ele><time>2026-04-10T10:02:36Z</time></trkpt><trkpt lat="45.38401035581836" lon="9.215886184375846"><ele>100.33333333333334</ele><time>2026-04-10T10:02:37Z</time></trkpt><trkpt lat="45.383920073380196" lon="9.216068565084727"><ele>100.66666666666666</ele><time>2026-04-10T10:02:38Z</time></trkpt><trkpt lat="45.38382820533494" lon="9.216263554381559"><ele>101.0</ele><time>2026-04-10T10:02:39Z</time></trkpt><trkpt lat="45.383738233520766" lon="9.21645183590401"><ele>100.0</ele><time>2026-04-10T10:02:40Z</time></trkpt><trkpt lat="45.38364862057544" lon="9.216650266683484"><ele>99.0</ele><time>2026-04-10T10:02:41Z</time></trkpt><trkpt lat="45.38356058481878" lon="9.21685134141004"><ele>98.0</ele><time>2026-04-10T10:02:42Z</time></trkpt><trkpt lat="45.38347026057278" lon="9.217060663079307"><ele>98.0</ele><time>2026-04-10T10:02:43Z</time></trkpt><trkpt lat="45.3833807253166" lon="9.21726810390802"><ele>98.0</ele><time>2026-04-10T10:02:44Z</time></trkpt><trkpt lat="45.383291362061314" lon="9.217471362129308"><ele>98.0</ele><time>2026-04-10T10:02:45Z</time></trkpt><trkpt lat="45.383203297434676" lon="9.217673368884094"><ele>98.0</ele><time>2026-04-10T10:02:46Z</time></trkpt><trkpt lat="45.383115776043745" lon="9.217879261097877"><ele>98.0</ele><time>2026-04-10T10:02:47Z</time></trkpt><trkpt lat="45.38302812616233" lon="9.21807917298023"><ele>98.0</ele><time>2026-04-10T10:02:48Z</time></trkpt><trkpt lat="45.38294190457202" lon="9.21827789023205"><ele>98.0</ele><time>2026-04-10T10:02:49Z</time></trkpt><trkpt lat="45.38285613860554" lon="9.218478074904235"><ele>98.0</ele><time>2026-04-10T10:02:50Z</time></trkpt><trkpt lat="45.3827721144681" lon="9.218670199183187"><ele>98.0</ele><time>2026-04-10T10:02:51Z</time></trkpt><trkpt lat="45.38268375983164" lon="9.218873761172967"><ele>98.0</ele><time>2026-04-10T10:02:52Z</time></trkpt><trkpt lat="45.382602482108744" lon="9.219059874548144"><ele>98.0</ele><time>2026-04-10T10:02:53Z</time></trkpt><trkpt lat="45.38251639470034" lon="9.219258902453536"><ele>98.0</ele><time>2026-04-10T10:02:54Z</time></trkpt><trkpt lat="45.38243075101512" lon="9.219449233230378"><ele>98.0</ele><time>2026-04-10T10:02:55Z</time></trkpt><trkpt lat="45.38234286654331" lon="9.21964512081248"><ele>98.0</ele><time>2026-04-10T10:02:56Z</time></trkpt><trkpt lat="45.38225190170836" lon="9.219845165275954"><ele>98.0</ele><time>2026-04-10T10:02:57Z</time></trkpt><trkpt lat="45.38216569071178" lon="9.220048351746897"><ele>98.0</ele><time>2026-04-10T10:02:58Z</time></trkpt><trkpt lat="45.382081370176174" lon="9.220247590200637"><ele>98.0</ele><time>2026-04-10T10:02:59Z</time></trkpt><trkpt lat="45.38199214632945" lon="9.220454566014201"><ele>98.0</ele><time>2026-04-10T10:03:00Z</time></trkpt><trkpt lat="45.38190760667209" lon="9.220651110876416"><ele>97.66666666666666</ele><time>2026-04-10T10:03:01Z</time></trkpt><trkpt lat="45.38182049350842" lon="9.22085101458811"><ele>97.33333333333334</ele><time>2026-04-10T10:03:02Z</time></trkpt><trkpt lat="45.38173179506649" lon="9.22105692961761"><ele>97.0</ele><time>2026-04-10T10:03:03Z</time></trkpt><trkpt lat="45.38164662568246" lon="9.22125345549914"><ele>97.0</ele><time>2026-04-10T10:03:04Z</time></trkpt><trkpt lat="45.38155884403077" lon="9.22145666047816"><ele>97.0</ele><time>2026-04-10T10:03:05Z</time></trkpt><trkpt lat="45.38146977300625" lon="9.221668770865262"><ele>97.0</ele><time>2026-04-10T10:03:06Z</time></trkpt><trkpt lat="45.38137773176069" lon="9.221879404629872"><ele>97.33333333333334</ele><time>2026-04-10T10:03:07Z</time></trkpt><trkpt lat="45.381289758686925" lon="9.222085019502922"><ele>97.66666666666666</ele><time>2026-04-10T10:03:08Z</time></trkpt><trkpt lat="45.38119427589796" lon="9.222290818272375"><ele>98.0</ele><time>2026-04-10T10:03:09Z</time></trkpt><trkpt lat="45.38110287773358" lon="9.222496111948626"><ele>98.0</ele><time>2026-04-10T10:03:10Z</time></trkpt><trkpt lat="45.38100796785815" lon="9.222696885099694"><ele>98.0</ele><time>2026-04-10T10:03:11Z</time></trkpt><trkpt lat="45.38091377040279" lon="9.222901272686336"><ele>98.0</ele><time>2026-04-10T10:03:12Z</time></trkpt><trkpt lat="45.38082199244334" lon="9.223106831651688"><ele>98.66666666666666</ele><time>2026-04-10T10:03:13Z</time></trkpt><trkpt lat="45.38072800888798" lon="9.223317185568026"><ele>99.33333333333334</ele><time>2026-04-10T10:03:14Z</time></trkpt><trkpt lat="45.3806363975481" lon="9.223535525638487"><ele>100.0</ele><time>2026-04-10T10:03:15Z</time></trkpt><trkpt lat="45.38054093034922" lon="9.22374702900503"><ele>99.66666666666667</ele><time>2026-04-10T10:03:16Z</time></trkpt><trkpt lat="45.38044678993808" lon="9.223958623854074"><ele>99.33333333333334</ele><time>2026-04-10T10:03:16.999Z</time></trkpt><trkpt lat="45.380343043799485" lon="9.224160220882151"><ele>99.0</ele><time>2026-04-10T10:03:17.999Z</time></trkpt><trkpt lat="45.380231931260404" lon="9.224359657320491"><ele>99.0</ele><time>2026-04-10T10:03:18.999Z</time></trkpt><trkpt lat="45.380116420951786" lon="9.224546450105628"><ele>99.0</ele><time>2026-04-10T10:03:19.999Z</time></trkpt><trkpt lat="45.38000080369985" lon="9.224725318900555"><ele>99.0</ele><time>2026-04-10T10:03:20.999Z</time></trkpt><trkpt lat="45.37988915267496" lon="9.224889101572806"><ele>99.0</ele><time>2026-04-10T10:03:21.999Z</time></trkpt><trkpt lat="45.37977143027948" lon="9.225052199428953"><ele>99.0</ele><time>2026-04-10T10:03:22.999Z</time></trkpt><trkpt lat="45.379643862020636" lon="9.225210450601365"><ele>99.0</ele><time>2026-04-10T10:03:23.999Z</time></trkpt><trkpt lat="45.379511470833506" lon="9.225360578334085"><ele>99.0</ele><time>2026-04-10T10:03:24.999Z</time></trkpt><trkpt lat="45.3793705877288" lon="9.225504673303671"><ele>99.0</ele><time>2026-04-10T10:03:25.999Z</time></trkpt><trkpt lat="45.37922714643452" lon="9.225642143225073"><ele>99.0</ele><time>2026-04-10T10:03:26.999Z</time></trkpt><trkpt lat="45.37908134595137" lon="9.225767193336068"><ele>99.0</ele><time>2026-04-10T10:03:27.999Z</time></trkpt><trkpt lat="45.37892629348435" lon="9.225893860358777"><ele>99.0</ele><time>2026-04-10T10:03:28.999Z</time></trkpt><trkpt lat="45.378777376507195" lon="9.226012962775114"><ele>99.0</ele><time>2026-04-10T10:03:29.999Z</time></trkpt><trkpt lat="45.378634296477074" lon="9.226126253105935"><ele>99.25</ele><time>2026-04-10T10:03:30.999Z</time></trkpt><trkpt lat="45.3784956174046" lon="9.226207588608426"><ele>99.5</ele><time>2026-04-10T10:03:31.999Z</time></trkpt><trkpt lat="45.37836265822054" lon="9.226308781783416"><ele>99.75</ele><time>2026-04-10T10:03:32.999Z</time></trkpt><trkpt lat="45.37823316789374" lon="9.226389916984214"><ele>100.0</ele><time>2026-04-10T10:03:33.999Z</time></trkpt><trkpt lat="45.378097653279234" lon="9.226463934589088"><ele>99.66666666666667</ele><time>2026-04-10T10:03:34.999Z</time></trkpt><trkpt lat="45.37795141533009" lon="9.226545906407521"><ele>99.33333333333334</ele><time>2026-04-10T10:03:35.999Z</time></trkpt><trkpt lat="45.37780049014148" lon="9.226622095771837"><ele>99.0</ele><time>2026-04-10T10:03:36.999Z</time></trkpt><trkpt lat="45.37764660193603" lon="9.226695561532845"><ele>99.0</ele><time>2026-04-10T10:03:37.999Z</time></trkpt><trkpt lat="45.37748670330099" lon="9.226763860072456"><ele>99.0</ele><time>2026-04-10T10:03:38.999Z</time></trkpt><trkpt lat="45.37731294461254" lon="9.226813492885324"><ele>99.0</ele><time>2026-04-10T10:03:39.999Z</time></trkpt><trkpt lat="45.37714264954385" lon="9.226863961279513"><ele>99.33333333333334</ele><time>2026-04-10T10:03:40.999Z</time></trkpt><trkpt lat="45.37696884886707" lon="9.226909350233495"><ele>99.66666666666667</ele><time>2026-04-10T10:03:41.999Z</time></trkpt><trkpt lat="45.376791731056706" lon="9.226938475806632"><ele>100.0</ele><time>2026-04-10T10:03:42.999Z</time></trkpt><trkpt lat="45.37660728050039" lon="9.226958157764141"><ele>100.0</ele><time>2026-04-10T10:03:43.999Z</time></trkpt><trkpt lat="45.37641990204357" lon="9.226972588383502"><ele>100.0</ele><time>2026-04-10T10:03:44.999Z</time></trkpt><trkpt lat="45.37623040955279" lon="9.226978467146617"><ele>100.0</ele><time>2026-04-10T10:03:45.999Z</time></trkpt><trkpt lat="45.376039816761256" lon="9.22698638993178"><ele>100.0</ele><time>2026-04-10T10:03:46.999Z</time></trkpt><trkpt lat="45.375848482615964" lon="9.227001438318904"><ele>100.0</ele><time>2026-04-10T10:03:47.999Z</time></trkpt><trkpt lat="45.37566052535568" lon="9.22701637622728"><ele>100.0</ele><time>2026-04-10T10:03:48.999Z</time></trkpt><trkpt lat="45.37546694286294" lon="9.227030629588699"><ele>100.0</ele><time>2026-04-10T10:03:49.999Z</time></trkpt><trkpt lat="45.375274672784485" lon="9.227043965192166"><ele>100.0</ele><time>2026-04-10T10:03:50.999Z</time></trkpt><trkpt lat="45.37508300695387" lon="9.227059754045753"><ele>100.0</ele><time>2026-04-10T10:03:51.999Z</time></trkpt><trkpt lat="45.37488835786136" lon="9.227075298533418"><ele>100.0</ele><time>2026-04-10T10:03:52.999Z</time></trkpt><trkpt lat="45.37469109444051" lon="9.227091906535675"><ele>100.0</ele><time>2026-04-10T10:03:53.999Z</time></trkpt><trkpt lat="45.374492996977686" lon="9.227111329968436"><ele>100.0</ele><time>2026-04-10T10:03:54.999Z</time></trkpt><trkpt lat="45.374293839598515" lon="9.227121399102073"><ele>99.66666666666667</ele><time>2026-04-10T10:03:55.999Z</time></trkpt><trkpt lat="45.374098506765826" lon="9.22713929686085"><ele>99.33333333333334</ele><time>2026-04-10T10:03:56.999Z</time></trkpt><trkpt lat="45.37390295854284" lon="9.227153007039957"><ele>99.0</ele><time>2026-04-10T10:03:57.999Z</time></trkpt><trkpt lat="45.3737084663334" lon="9.227165458397845"><ele>99.66666666666666</ele><time>2026-04-10T10:03:58.999Z</time></trkpt><trkpt lat="45.37351111785874" lon="9.227173826875003"><ele>100.33333333333333</ele><time>2026-04-10T10:03:59.999Z</time></trkpt><trkpt lat="45.373317302771014" lon="9.227182166700343"><ele>101.0</ele><time>2026-04-10T10:04:00.999Z</time></trkpt><trkpt lat="45.37312662737557" lon="9.227189647136418"><ele>100.0</ele><time>2026-04-10T10:04:01.999Z</time></trkpt><trkpt lat="45.372937763706396" lon="9.227200464744627"><ele>99.0</ele><time>2026-04-10T10:04:02.999Z</time></trkpt><trkpt lat="45.37274944271264" lon="9.227212955627795"><ele>98.0</ele><time>2026-04-10T10:04:03.999Z</time></trkpt><trkpt lat="45.37255967711391" lon="9.227225886347204"><ele>98.0</ele><time>2026-04-10T10:04:04.999Z</time></trkpt><trkpt lat="45.37237246281714" lon="9.227242192748756"><ele>98.0</ele><time>2026-04-10T10:04:05.999Z</time></trkpt><trkpt lat="45.37218475918343" lon="9.227261593107027"><ele>98.0</ele><time>2026-04-10T10:04:06.999Z</time></trkpt><trkpt lat="45.37199652462235" lon="9.227277855617789"><ele>97.66666666666666</ele><time>2026-04-10T10:04:07.999Z</time></trkpt><trkpt lat="45.371811169000296" lon="9.227290479652126"><ele>97.33333333333334</ele><time>2026-04-10T10:04:08.999Z</time></trkpt><trkpt lat="45.37162134804215" lon="9.227308896450067"><ele>97.0</ele><time>2026-04-10T10:04:09.999Z</time></trkpt><trkpt lat="45.371438104990986" lon="9.227317969145389"><ele>97.33333333333334</ele><time>2026-04-10T10:04:10.999Z</time></trkpt><trkpt lat="45.37124608998651" lon="9.22733540437383"><ele>97.66666666666666</ele><time>2026-04-10T10:04:11.999Z</time></trkpt><trkpt lat="45.37104219465803" lon="9.227351282653128"><ele>98.0</ele><time>2026-04-10T10:04:12.999Z</time></trkpt><trkpt lat="45.370821185987396" lon="9.227370451599105"><ele>98.0</ele><time>2026-04-10T10:04:13.998Z</time></trkpt><trkpt lat="45.37059891614184" lon="9.227381086425492"><ele>98.0</ele><time>2026-04-10T10:04:14.998Z</time></trkpt><trkpt lat="45.37038081577913" lon="9.22739215380829"><ele>98.0</ele><time>2026-04-10T10:04:15.998Z</time></trkpt><trkpt lat="45.37016905678121" lon="9.227401174079217"><ele>98.33333333333333</ele><time>2026-04-10T10:04:17Z</time></trkpt><trkpt lat="45.3699673380672" lon="9.227412656739963"><ele>98.66666666666666</ele><time>2026-04-10T10:04:18Z</time></trkpt><trkpt lat="45.36976847268706" lon="9.227426482686113"><ele>99.0</ele><time>2026-04-10T10:04:19Z</time></trkpt><trkpt lat="45.3695737756397" lon="9.227445397892831"><ele>99.0</ele><time>2026-04-10T10:04:20Z</time></trkpt><trkpt lat="45.36938212716648" lon="9.22747345945622"><ele>99.0</ele><time>2026-04-10T10:04:21Z</time></trkpt><trkpt lat="45.36919410518259" lon="9.227516316770322"><ele>99.0</ele><time>2026-04-10T10:04:22Z</time></trkpt><trkpt lat="45.36901024747795" lon="9.227572064397911"><ele>99.0</ele><time>2026-04-10T10:04:23Z</time></trkpt><trkpt lat="45.36882179202819" lon="9.227640085771698"><ele>99.0</ele><time>2026-04-10T10:04:24Z</time></trkpt><trkpt lat="45.36863386915299" lon="9.227715118610785"><ele>99.0</ele><time>2026-04-10T10:04:25Z</time></trkpt><trkpt lat="45.368443652503395" lon="9.227797911259225"><ele>99.0</ele><time>2026-04-10T10:04:26Z</time></trkpt><trkpt lat="45.36825260981935" lon="9.227883179393984"><ele>99.0</ele><time>2026-04-10T10:04:27Z</time></trkpt><trkpt lat="45.36805955368437" lon="9.227975191112089"><ele>99.0</ele><time>2026-04-10T10:04:28Z</time></trkpt><trkpt lat="45.36786360091843" lon="9.2280758886828"><ele>98.66666666666666</ele><time>2026-04-10T10:04:29Z</time></trkpt><trkpt lat="45.36766717399883" lon="9.228172735488409"><ele>98.33333333333333</ele><time>2026-04-10T10:04:30Z</time></trkpt><trkpt lat="45.36746541374896" lon="9.228265320955726"><ele>98.0</ele><time>2026-04-10T10:04:31Z</time></trkpt><trkpt lat="45.36726566541856" lon="9.228351529496827"><ele>98.33333333333333</ele><time>2026-04-10T10:04:32Z</time></trkpt><trkpt lat="45.36706090623222" lon="9.228448167300078"><ele>98.66666666666666</ele><time>2026-04-10T10:04:33Z</time></trkpt><trkpt lat="45.36686280459219" lon="9.228547207217087"><ele>99.0</ele><time>2026-04-10T10:04:34Z</time></trkpt><trkpt lat="45.366664773982365" lon="9.228646165887556"><ele>99.0</ele><time>2026-04-10T10:04:35Z</time></trkpt><trkpt lat="45.36646565374093" lon="9.228741129533212"><ele>99.0</ele><time>2026-04-10T10:04:36Z</time></trkpt><trkpt lat="45.366268096441665" lon="9.228839185027388"><ele>99.0</ele><time>2026-04-10T10:04:37Z</time></trkpt><trkpt lat="45.3660669394117" lon="9.22893742429494"><ele>98.66666666666666</ele><time>2026-04-10T10:04:38Z</time></trkpt><trkpt lat="45.36586557290617" lon="9.229035118232616"><ele>98.33333333333333</ele><time>2026-04-10T10:04:39Z</time></trkpt><trkpt lat="45.36566127407921" lon="9.229129435598326"><ele>98.0</ele><time>2026-04-10T10:04:40Z</time></trkpt><trkpt lat="45.365457827142315" lon="9.229227364085034"><ele>97.33333333333333</ele><time>2026-04-10T10:04:41Z</time></trkpt><trkpt lat="45.36525019084821" lon="9.229323425519393"><ele>96.66666666666666</ele><time>2026-04-10T10:04:42Z</time></trkpt><trkpt lat="45.36504552151096" lon="9.229415492740953"><ele>96.0</ele><time>2026-04-10T10:04:43Z</time></trkpt><trkpt lat="45.36483734505665" lon="9.229518086498288"><ele>96.0</ele><time>2026-04-10T10:04:44Z</time></trkpt><trkpt lat="45.36463614909787" lon="9.229617624770244"><ele>96.0</ele><time>2026-04-10T10:04:45Z</time></trkpt><trkpt lat="45.36444251063294" lon="9.229720967973241"><ele>96.0</ele><time>2026-04-10T10:04:46Z</time></trkpt><trkpt lat="45.36424077845637" lon="9.229821116149438"><ele>96.33333333333334</ele><time>2026-04-10T10:04:47Z</time></trkpt><trkpt lat="45.36403751154522" lon="9.229916521546285"><ele>96.66666666666667</ele><time>2026-04-10T10:04:48Z</time></trkpt><trkpt lat="45.3638368519141" lon="9.230011370006896"><ele>97.0</ele><time>2026-04-10T10:04:49Z</time></trkpt><trkpt lat="45.36363371344167" lon="9.230105076836534"><ele>96.33333333333334</ele><time>2026-04-10T10:04:50Z</time></trkpt><trkpt lat="45.36342396535195" lon="9.23020076593355"><ele>95.66666666666667</ele><time>2026-04-10T10:04:51Z</time></trkpt><trkpt lat="45.36321554729364" lon="9.23029560825881"><ele>95.0</ele><time>2026-04-10T10:04:52Z</time></trkpt><trkpt lat="45.363004394623864" lon="9.230395541250898"><ele>94.5</ele><time>2026-04-10T10:04:53Z</time></trkpt><trkpt lat="45.36279113653103" lon="9.230500622411485"><ele>94.0</ele><time>2026-04-10T10:04:54Z</time></trkpt><trkpt lat="45.362577615507675" lon="9.230607642344596"><ele>94.0</ele><time>2026-04-10T10:04:55Z</time></trkpt><trkpt lat="45.3623634586194" lon="9.230711086626643"><ele>94.0</ele><time>2026-04-10T10:04:56Z</time></trkpt><trkpt lat="45.362147903502645" lon="9.23081011900147"><ele>94.33333333333333</ele><time>2026-04-10T10:04:57Z</time></trkpt><trkpt lat="45.36193246706609" lon="9.23090987037888"><ele>94.66666666666667</ele><time>2026-04-10T10:04:58Z</time></trkpt><trkpt lat="45.36172126354683" lon="9.231009440142746"><ele>95.0</ele><time>2026-04-10T10:04:59Z</time></trkpt><trkpt lat="45.361509259288006" lon="9.231111229650956"><ele>95.0</ele><time>2026-04-10T10:05:00Z</time></trkpt><trkpt lat="45.36129799484665" lon="9.231209490149373"><ele>95.0</ele><time>2026-04-10T10:05:01Z</time></trkpt><trkpt lat="45.36108572874642" lon="9.231312563408125"><ele>95.0</ele><time>2026-04-10T10:05:02Z</time></trkpt><trkpt lat="45.36087637392398" lon="9.231414371895212"><ele>95.0</ele><time>2026-04-10T10:05:03Z</time></trkpt><trkpt lat="45.36066992196726" lon="9.231516589894557"><ele>95.0</ele><time>2026-04-10T10:05:04Z</time></trkpt><trkpt lat="45.36046095483637" lon="9.231617109016833"><ele>95.0</ele><time>2026-04-10T10:05:05Z</time></trkpt><trkpt lat="45.36024900546517" lon="9.23171969458657"><ele>95.33333333333334</ele><time>2026-04-10T10:05:06Z</time></trkpt><trkpt lat="45.36004281086152" lon="9.231819360711768"><ele>95.66666666666667</ele><time>2026-04-10T10:05:07Z</time></trkpt><trkpt lat="45.35983343626853" lon="9.231920021537896"><ele>96.0</ele><time>2026-04-10T10:05:08Z</time></trkpt><trkpt lat="45.35962700810655" lon="9.232018630165403"><ele>96.0</ele><time>2026-04-10T10:05:09Z</time></trkpt><trkpt lat="45.35941990495735" lon="9.232115598623494"><ele>96.0</ele><time>2026-04-10T10:05:10Z</time></trkpt><trkpt lat="45.35920975685838" lon="9.232217903462827"><ele>96.0</ele><time>2026-04-10T10:05:11Z</time></trkpt><trkpt lat="45.359002405648695" lon="9.232315431659035"><ele>96.33333333333334</ele><time>2026-04-10T10:05:12Z</time></trkpt><trkpt lat="45.358799332391186" lon="9.232408904559707"><ele>96.66666666666667</ele><time>2026-04-10T10:05:13Z</time></trkpt><trkpt lat="45.358594222034306" lon="9.232508752650496"><ele>97.0</ele><time>2026-04-10T10:05:14Z</time></trkpt><trkpt lat="45.35839249228564" lon="9.232606910524893"><ele>97.0</ele><time>2026-04-10T10:05:15Z</time></trkpt><trkpt lat="45.358191813804744" lon="9.232702922218103"><ele>97.0</ele><time>2026-04-10T10:05:16Z</time></trkpt><trkpt lat="45.35799161534221" lon="9.23279890066464"><ele>97.0</ele><time>2026-04-10T10:05:17Z</time></trkpt><trkpt lat="45.357796700257325" lon="9.23289039090985"><ele>97.0</ele><time>2026-04-10T10:05:18Z</time></trkpt><trkpt lat="45.35761019829069" lon="9.232978026575461"><ele>97.0</ele><time>2026-04-10T10:05:19Z</time></trkpt><trkpt lat="45.35743202646215" lon="9.233063950810218"><ele>97.0</ele><time>2026-04-10T10:05:20Z</time></trkpt><trkpt lat="45.35725958203266" lon="9.233148627117497"><ele>96.33333333333334</ele><time>2026-04-10T10:05:20.999Z</time></trkpt><trkpt lat="45.3570912531397" lon="9.23323041742008"><ele>95.66666666666667</ele><time>2026-04-10T10:05:21.999Z</time></trkpt><trkpt lat="45.35692081623405" lon="9.233314068572092"><ele>95.0</ele><time>2026-04-10T10:05:22.999Z</time></trkpt><trkpt lat="45.356753479116115" lon="9.23339691221419"><ele>95.0</ele><time>2026-04-10T10:05:23.999Z</time></trkpt><trkpt lat="45.35658030851844" lon="9.23348254051457"><ele>95.0</ele><time>2026-04-10T10:05:24.999Z</time></trkpt><trkpt lat="45.35641085791262" lon="9.233564235717008"><ele>95.0</ele><time>2026-04-10T10:05:25.999Z</time></trkpt><trkpt lat="45.35623827174494" lon="9.233644314782914"><ele>95.0</ele><time>2026-04-10T10:05:26.999Z</time></trkpt><trkpt lat="45.356060020038285" lon="9.233727071492517"><ele>95.0</ele><time>2026-04-10T10:05:27.999Z</time></trkpt><trkpt lat="45.355880723351476" lon="9.23381175074501"><ele>95.0</ele><time>2026-04-10T10:05:28.999Z</time></trkpt><trkpt lat="45.35569953724957" lon="9.233897523318626"><ele>94.66666666666667</ele><time>2026-04-10T10:05:29.999Z</time></trkpt><trkpt lat="45.3555140418904" lon="9.233986499037952"><ele>94.33333333333333</ele><time>2026-04-10T10:05:30.999Z</time></trkpt><trkpt lat="45.355321981738655" lon="9.234077652315301"><ele>94.0</ele><time>2026-04-10T10:05:31.999Z</time></trkpt><trkpt lat="45.3551315493439" lon="9.23416835637159"><ele>94.0</ele><time>2026-04-10T10:05:32.999Z</time></trkpt><trkpt lat="45.35494100573124" lon="9.234259661823922"><ele>94.0</ele><time>2026-04-10T10:05:33.999Z</time></trkpt><trkpt lat="45.35474846956528" lon="9.23435502581763"><ele>94.0</ele><time>2026-04-10T10:05:34.999Z</time></trkpt><trkpt lat="45.35455784127505" lon="9.234449154353884"><ele>94.0</ele><time>2026-04-10T10:05:35.999Z</time></trkpt><trkpt lat="45.354368718710646" lon="9.234543492543175"><ele>94.0</ele><time>2026-04-10T10:05:36.999Z</time></trkpt><trkpt lat="45.35417697414178" lon="9.234636712287257"><ele>94.0</ele><time>2026-04-10T10:05:37.999Z</time></trkpt><trkpt lat="45.3539849539225" lon="9.234732451880811"><ele>93.33333333333333</ele><time>2026-04-10T10:05:38.999Z</time></trkpt><trkpt lat="45.353794319689634" lon="9.234824957978315"><ele>92.66666666666667</ele><time>2026-04-10T10:05:39.999Z</time></trkpt><trkpt lat="45.35360044263948" lon="9.23492042062884"><ele>92.0</ele><time>2026-04-10T10:05:40.999Z</time></trkpt><trkpt lat="45.35340908872478" lon="9.235012369701481"><ele>92.0</ele><time>2026-04-10T10:05:41.999Z</time></trkpt><trkpt lat="45.35321572392876" lon="9.235102270315716"><ele>92.0</ele><time>2026-04-10T10:05:42.999Z</time></trkpt><trkpt lat="45.353023111557135" lon="9.235192859729725"><ele>92.0</ele><time>2026-04-10T10:05:43.999Z</time></trkpt><trkpt lat="45.35282985751284" lon="9.235282668745757"><ele>93.0</ele><time>2026-04-10T10:05:44.999Z</time></trkpt><trkpt lat="45.35263771752673" lon="9.235371643771282"><ele>94.0</ele><time>2026-04-10T10:05:45.999Z</time></trkpt><trkpt lat="45.35244250599315" lon="9.235468021802074"><ele>95.0</ele><time>2026-04-10T10:05:46.999Z</time></trkpt><trkpt lat="45.35225336149954" lon="9.235560341375377"><ele>94.0</ele><time>2026-04-10T10:05:47.999Z</time></trkpt><trkpt lat="45.35207421626967" lon="9.235647876937362"><ele>93.0</ele><time>2026-04-10T10:05:48.999Z</time></trkpt><trkpt lat="45.35190170526187" lon="9.235730444111594"><ele>92.0</ele><time>2026-04-10T10:05:49.999Z</time></trkpt><trkpt lat="45.35173900350403" lon="9.2358073836022"><ele>92.0</ele><time>2026-04-10T10:05:50.999Z</time></trkpt><trkpt lat="45.3515810486019" lon="9.235887530754603"><ele>92.0</ele><time>2026-04-10T10:05:51.999Z</time></trkpt><trkpt lat="45.351425791951684" lon="9.235967651037992"><ele>92.0</ele><time>2026-04-10T10:05:52.999Z</time></trkpt><trkpt lat="45.35127548712723" lon="9.236048184786789"><ele>92.33333333333334</ele><time>2026-04-10T10:05:53.999Z</time></trkpt><trkpt lat="45.35111289252312" lon="9.23613243406908"><ele>92.66666666666667</ele><time>2026-04-10T10:05:54.999Z</time></trkpt><trkpt lat="45.35094493474562" lon="9.236208238950798"><ele>93.0</ele><time>2026-04-10T10:05:55.999Z</time></trkpt><trkpt lat="45.35077980359049" lon="9.236278389811766"><ele>93.0</ele><time>2026-04-10T10:05:56.999Z</time></trkpt><trkpt lat="45.3506117653113" lon="9.236353496859685"><ele>93.0</ele><time>2026-04-10T10:05:57.999Z</time></trkpt><trkpt lat="45.350448472849244" lon="9.236429751691034"><ele>93.0</ele><time>2026-04-10T10:05:58.999Z</time></trkpt><trkpt lat="45.35028797624974" lon="9.236508927224566"><ele>92.66666666666667</ele><time>2026-04-10T10:05:59.999Z</time></trkpt><trkpt lat="45.35012669089917" lon="9.236589216395961"><ele>92.33333333333334</ele><time>2026-04-10T10:06:00.999Z</time></trkpt><trkpt lat="45.349967842641" lon="9.236666007166248"><ele>92.0</ele><time>2026-04-10T10:06:01.999Z</time></trkpt><trkpt lat="45.34981000409054" lon="9.23674201810554"><ele>92.0</ele><time>2026-04-10T10:06:02.999Z</time></trkpt><trkpt lat="45.349653230936056" lon="9.236815546122097"><ele>92.0</ele><time>2026-04-10T10:06:03.999Z</time></trkpt><trkpt lat="45.34949627449273" lon="9.23688779062926"><ele>92.0</ele><time>2026-04-10T10:06:04.999Z</time></trkpt><trkpt lat="45.34933950057167" lon="9.236960503221766"><ele>92.0</ele><time>2026-04-10T10:06:05.999Z</time></trkpt><trkpt lat="45.349183779246324" lon="9.237032238980674"><ele>92.0</ele><time>2026-04-10T10:06:06.999Z</time></trkpt><trkpt lat="45.34902379881034" lon="9.237106601644086"><ele>92.0</ele><time>2026-04-10T10:06:07.999Z</time></trkpt><trkpt lat="45.34887099894287" lon="9.237177169699544"><ele>92.0</ele><time>2026-04-10T10:06:08.999Z</time></trkpt><trkpt lat="45.34871397780259" lon="9.237254148187752"><ele>92.0</ele><time>2026-04-10T10:06:09.999Z</time></trkpt><trkpt lat="45.34855970243291" lon="9.237331105820244"><ele>92.0</ele><time>2026-04-10T10:06:10.999Z</time></trkpt><trkpt lat="45.348400522623415" lon="9.23741066217081"><ele>92.0</ele><time>2026-04-10T10:06:11.999Z</time></trkpt><trkpt lat="45.34823151028" lon="9.23749264413282"><ele>92.0</ele><time>2026-04-10T10:06:12.999Z</time></trkpt><trkpt lat="45.34806319979927" lon="9.237576519704835"><ele>92.0</ele><time>2026-04-10T10:06:13.999Z</time></trkpt><trkpt lat="45.34788977664479" lon="9.237664694200756"><ele>91.66666666666667</ele><time>2026-04-10T10:06:14.999Z</time></trkpt><trkpt lat="45.34771316711904" lon="9.23775207643979"><ele>91.33333333333333</ele><time>2026-04-10T10:06:15.998Z</time></trkpt><trkpt lat="45.34753699562229" lon="9.237836876666291"><ele>91.0</ele><time>2026-04-10T10:06:16.998Z</time></trkpt><trkpt lat="45.34735787020564" lon="9.237923577237634"><ele>91.0</ele><time>2026-04-10T10:06:17.998Z</time></trkpt><trkpt lat="45.347177406383885" lon="9.238012163031721"><ele>91.0</ele><time>2026-04-10T10:06:18.998Z</time></trkpt><trkpt lat="45.346997948698146" lon="9.238096946028204"><ele>91.0</ele><time>2026-04-10T10:06:19.998Z</time></trkpt><trkpt lat="45.34682293608834" lon="9.238180818967109"><ele>91.0</ele><time>2026-04-10T10:06:20.998Z</time></trkpt><trkpt lat="45.34665671140978" lon="9.23826911607734"><ele>91.0</ele><time>2026-04-10T10:06:22Z</time></trkpt><trkpt lat="45.34649205702881" lon="9.238368243510088"><ele>91.0</ele><time>2026-04-10T10:06:23Z</time></trkpt><trkpt lat="45.34633359143962" lon="9.238470657610273"><ele>91.33333333333333</ele><time>2026-04-10T10:06:24Z</time></trkpt><trkpt lat="45.34617959870062" lon="9.238574502110838"><ele>91.66666666666667</ele><time>2026-04-10T10:06:25Z</time></trkpt><trkpt lat="45.34602818325777" lon="9.238676089469603"><ele>92.0</ele><time>2026-04-10T10:06:26Z</time></trkpt><trkpt lat="45.345881734053755" lon="9.238778051624"><ele>92.0</ele><time>2026-04-10T10:06:27Z</time></trkpt><trkpt lat="45.345744822289184" lon="9.238880083268143"><ele>92.0</ele><time>2026-04-10T10:06:28Z</time></trkpt><trkpt lat="45.34561522233204" lon="9.23898133404074"><ele>92.0</ele><time>2026-04-10T10:06:29Z</time></trkpt><trkpt lat="45.34548499436637" lon="9.239086493196949"><ele>92.0</ele><time>2026-04-10T10:06:30Z</time></trkpt><trkpt lat="45.34535566633208" lon="9.239195689832455"><ele>92.0</ele><time>2026-04-10T10:06:31Z</time></trkpt><trkpt lat="45.345221386171936" lon="9.239312997301424"><ele>92.0</ele><time>2026-04-10T10:06:32Z</time></trkpt><trkpt lat="45.34508518610026" lon="9.23943283845282"><ele>92.0</ele><time>2026-04-10T10:06:33Z</time></trkpt><trkpt lat="45.34494625718219" lon="9.239562472362296"><ele>92.0</ele><time>2026-04-10T10:06:34Z</time></trkpt><trkpt lat="45.34480844060479" lon="9.239693997981403"><ele>92.0</ele><time>2026-04-10T10:06:35Z</time></trkpt><trkpt lat="45.34466608188377" lon="9.239841520170833"><ele>91.66666666666667</ele><time>2026-04-10T10:06:36Z</time></trkpt><trkpt lat="45.344526271028776" lon="9.239994056290373"><ele>91.33333333333333</ele><time>2026-04-10T10:06:37Z</time></trkpt><trkpt lat="45.34438802082468" lon="9.240150962372379"><ele>91.0</ele><time>2026-04-10T10:06:38Z</time></trkpt><trkpt lat="45.344250671914764" lon="9.24031237753605"><ele>91.0</ele><time>2026-04-10T10:06:39Z</time></trkpt><trkpt lat="45.344114052405686" lon="9.240475180676961"><ele>91.0</ele><time>2026-04-10T10:06:40Z</time></trkpt><trkpt lat="45.34398424722748" lon="9.240632392952946"><ele>91.0</ele><time>2026-04-10T10:06:41Z</time></trkpt><trkpt lat="45.34386221370407" lon="9.240775521638136"><ele>90.66666666666666</ele><time>2026-04-10T10:06:42Z</time></trkpt><trkpt lat="45.343736816342606" lon="9.240919575895969"><ele>90.33333333333333</ele><time>2026-04-10T10:06:43Z</time></trkpt><trkpt lat="45.343604380413794" lon="9.24106707343079"><ele>90.0</ele><time>2026-04-10T10:06:44Z</time></trkpt><trkpt lat="45.34347544069963" lon="9.241208010828117"><ele>90.0</ele><time>2026-04-10T10:06:45Z</time></trkpt><trkpt lat="45.343341651538005" lon="9.241365855186038"><ele>90.0</ele><time>2026-04-10T10:06:46Z</time></trkpt><trkpt lat="45.34320934031649" lon="9.241524209036253"><ele>90.0</ele><time>2026-04-10T10:06:47Z</time></trkpt><trkpt lat="45.34307571725655" lon="9.241681301059087"><ele>90.33333333333333</ele><time>2026-04-10T10:06:48Z</time></trkpt><trkpt lat="45.34293989198177" lon="9.241834032424071"><ele>90.66666666666666</ele><time>2026-04-10T10:06:49Z</time></trkpt><trkpt lat="45.34280240750659" lon="9.2419920456525"><ele>91.0</ele><time>2026-04-10T10:06:50Z</time></trkpt><trkpt lat="45.34266706275925" lon="9.242148474413183"><ele>91.33333333333333</ele><time>2026-04-10T10:06:51Z</time></trkpt><trkpt lat="45.3425291498432" lon="9.242306734621414"><ele>91.66666666666667</ele><time>2026-04-10T10:06:52Z</time></trkpt><trkpt lat="45.34239375218109" lon="9.2424655406645"><ele>92.0</ele><time>2026-04-10T10:06:53Z</time></trkpt><trkpt lat="45.34225704880306" lon="9.242621981837733"><ele>91.66666666666667</ele><time>2026-04-10T10:06:54Z</time></trkpt><trkpt lat="45.342118481643304" lon="9.242776916708655"><ele>91.33333333333333</ele><time>2026-04-10T10:06:55Z</time></trkpt><trkpt lat="45.34198367960902" lon="9.242930412242737"><ele>91.0</ele><time>2026-04-10T10:06:56Z</time></trkpt><trkpt lat="45.34184859333696" lon="9.243086476895224"><ele>91.0</ele><time>2026-04-10T10:06:57Z</time></trkpt><trkpt lat="45.34171595752706" lon="9.243242014688853"><ele>91.0</ele><time>2026-04-10T10:06:58Z</time></trkpt><trkpt lat="45.34158035903886" lon="9.243396966025262"><ele>91.0</ele><time>2026-04-10T10:06:59Z</time></trkpt><trkpt lat="45.341445871826686" lon="9.24355175577528"><ele>91.0</ele><time>2026-04-10T10:07:00Z</time></trkpt><trkpt lat="45.341311956938554" lon="9.243705310652539"><ele>91.0</ele><time>2026-04-10T10:07:01Z</time></trkpt><trkpt lat="45.341181036741844" lon="9.243857041382718"><ele>91.0</ele><time>2026-04-10T10:07:02Z</time></trkpt><trkpt lat="45.34105042309679" lon="9.244009246157784"><ele>91.0</ele><time>2026-04-10T10:07:03Z</time></trkpt><trkpt lat="45.34092154898117" lon="9.244156576924953"><ele>91.0</ele><time>2026-04-10T10:07:04Z</time></trkpt><trkpt lat="45.34079043487792" lon="9.244306738372492"><ele>91.0</ele><time>2026-04-10T10:07:05Z</time></trkpt><trkpt lat="45.34066004141247" lon="9.24445765594719"><ele>91.0</ele><time>2026-04-10T10:07:06Z</time></trkpt><trkpt lat="45.34052734526166" lon="9.244609103340997"><ele>91.0</ele><time>2026-04-10T10:07:07Z</time></trkpt><trkpt lat="45.340400523701064" lon="9.244754423817193"><ele>91.0</ele><time>2026-04-10T10:07:08Z</time></trkpt><trkpt lat="45.34027323195363" lon="9.244899963567121"><ele>91.0</ele><time>2026-04-10T10:07:09Z</time></trkpt><trkpt lat="45.34014213137301" lon="9.24504970495798"><ele>91.0</ele><time>2026-04-10T10:07:10Z</time></trkpt><trkpt lat="45.340019676273585" lon="9.24519334414619"><ele>91.0</ele><time>2026-04-10T10:07:11Z</time></trkpt><trkpt lat="45.339890650946174" lon="9.245343233452346"><ele>91.0</ele><time>2026-04-10T10:07:12Z</time></trkpt><trkpt lat="45.33976405772343" lon="9.245489894950854"><ele>91.0</ele><time>2026-04-10T10:07:13Z</time></trkpt><trkpt lat="45.33963635455412" lon="9.245638577659568"><ele>91.0</ele><time>2026-04-10T10:07:14Z</time></trkpt><trkpt lat="45.339508010993306" lon="9.245789738867929"><ele>92.0</ele><time>2026-04-10T10:07:15Z</time></trkpt><trkpt lat="45.33938247473402" lon="9.245933374028136"><ele>93.0</ele><time>2026-04-10T10:07:16Z</time></trkpt><trkpt lat="45.33925053306948" lon="9.246084718109845"><ele>94.0</ele><time>2026-04-10T10:07:17Z</time></trkpt><trkpt lat="45.33912575209837" lon="9.246228286642086"><ele>94.0</ele><time>2026-04-10T10:07:18Z</time></trkpt><trkpt lat="45.33899860458669" lon="9.246375979610619"><ele>94.0</ele><time>2026-04-10T10:07:19Z</time></trkpt><trkpt lat="45.33887075758723" lon="9.24652092654701"><ele>94.0</ele><time>2026-04-10T10:07:20Z</time></trkpt><trkpt lat="45.33874261613657" lon="9.246669650219399"><ele>93.66666666666666</ele><time>2026-04-10T10:07:21Z</time></trkpt><trkpt lat="45.33860990477158" lon="9.246823670797264"><ele>93.33333333333333</ele><time>2026-04-10T10:07:22Z</time></trkpt><trkpt lat="45.33847932427379" lon="9.246980176444463"><ele>93.0</ele><time>2026-04-10T10:07:23Z</time></trkpt><trkpt lat="45.33835178825102" lon="9.247131269130831"><ele>93.0</ele><time>2026-04-10T10:07:23.999Z</time></trkpt><trkpt lat="45.33822585370737" lon="9.247276354938133"><ele>93.0</ele><time>2026-04-10T10:07:24.999Z</time></trkpt><trkpt lat="45.33809154661129" lon="9.247417408083962"><ele>93.0</ele><time>2026-04-10T10:07:25.999Z</time></trkpt><trkpt lat="45.337964170337166" lon="9.247540778230277"><ele>93.0</ele><time>2026-04-10T10:07:26.999Z</time></trkpt><trkpt lat="45.33784419765597" lon="9.247660481522331"><ele>93.0</ele><time>2026-04-10T10:07:27.999Z</time></trkpt><trkpt lat="45.33773511172521" lon="9.247778464766036"><ele>93.0</ele><time>2026-04-10T10:07:28.999Z</time></trkpt><trkpt lat="45.33762974348104" lon="9.247893454625416"><ele>93.0</ele><time>2026-04-10T10:07:29.999Z</time></trkpt><trkpt lat="45.337531380650844" lon="9.247991611557394"><ele>93.0</ele><time>2026-04-10T10:07:30.999Z</time></trkpt><trkpt lat="45.337435466896416" lon="9.248085181644361"><ele>93.0</ele><time>2026-04-10T10:07:31.999Z</time></trkpt><trkpt lat="45.33735078421239" lon="9.248172126882197"><ele>93.0</ele><time>2026-04-10T10:07:32.999Z</time></trkpt><trkpt lat="45.337269427727875" lon="9.24826276069072"><ele>93.0</ele><time>2026-04-10T10:07:33.999Z</time></trkpt><trkpt lat="45.33718465318694" lon="9.248354622003113"><ele>93.0</ele><time>2026-04-10T10:07:34.999Z</time></trkpt><trkpt lat="45.33709549200987" lon="9.248437518963616"><ele>93.0</ele><time>2026-04-10T10:07:35.999Z</time></trkpt><trkpt lat="45.33700751293065" lon="9.24851567216225"><ele>93.0</ele><time>2026-04-10T10:07:36.999Z</time></trkpt><trkpt lat="45.33691982655341" lon="9.248586276603154"><ele>93.0</ele><time>2026-04-10T10:07:37.999Z</time></trkpt><trkpt lat="45.33683573379096" lon="9.248650255546362"><ele>93.0</ele><time>2026-04-10T10:07:38.999Z</time></trkpt><trkpt lat="45.33675577819784" lon="9.248707991281597"><ele>93.0</ele><time>2026-04-10T10:07:39.999Z</time></trkpt><trkpt lat="45.33668465952089" lon="9.248760783838005"><ele>93.0</ele><time>2026-04-10T10:07:40.999Z</time></trkpt><trkpt lat="45.33662244233675" lon="9.248801104579663"><ele>93.0</ele><time>2026-04-10T10:07:41.999Z</time></trkpt><trkpt lat="45.3365326944087" lon="9.248843127644665"><ele>93.0</ele><time>2026-04-10T10:07:43.999Z</time></trkpt><trkpt lat="45.33646622472783" lon="9.248856202563083"><ele>93.0</ele><time>2026-04-10T10:07:45.999Z</time></trkpt><trkpt lat="45.336391422432264" lon="9.248859768683998"><ele>93.0</ele><time>2026-04-10T10:07:47.999Z</time></trkpt><trkpt lat="45.33631324450944" lon="9.248830135974933"><ele>93.0</ele><time>2026-04-10T10:07:49.999Z</time></trkpt><trkpt lat="45.33619716960407" lon="9.248791679970502"><ele>92.85714285714286</ele><time>2026-04-10T10:07:51.999Z</time></trkpt><trkpt lat="45.33615207137913" lon="9.24870323736106"><ele>92.71428571428572</ele><time>2026-04-10T10:07:52.999Z</time></trkpt><trkpt lat="45.33610618336841" lon="9.248635884243521"><ele>92.57142857142858</ele><time>2026-04-10T10:07:53.999Z</time></trkpt><trkpt lat="45.336061813325855" lon="9.248569076726872"><ele>92.42857142857143</ele><time>2026-04-10T10:07:54.999Z</time></trkpt><trkpt lat="45.33601711601806" lon="9.248495418908794"><ele>92.28571428571428</ele><time>2026-04-10T10:07:55.999Z</time></trkpt><trkpt lat="45.33597760834052" lon="9.24841483715102"><ele>92.14285714285715</ele><time>2026-04-10T10:07:56.999Z</time></trkpt><trkpt lat="45.335940258235794" lon="9.248328561774235"><ele>92.0</ele><time>2026-04-10T10:07:57.999Z</time></trkpt><trkpt lat="45.33590127245449" lon="9.248230400096046"><ele>92.16666666666667</ele><time>2026-04-10T10:07:58.999Z</time></trkpt><trkpt lat="45.335862101199254" lon="9.248118639596708"><ele>92.33333333333334</ele><time>2026-04-10T10:07:59.999Z</time></trkpt><trkpt lat="45.3358213919148" lon="9.248006252331669"><ele>92.5</ele><time>2026-04-10T10:08:00.999Z</time></trkpt><trkpt lat="45.335783527812666" lon="9.24790171462138"><ele>92.66666666666667</ele><time>2026-04-10T10:08:01.999Z</time></trkpt><trkpt lat="45.335745692517435" lon="9.247797520275086"><ele>92.83333333333333</ele><time>2026-04-10T10:08:02.999Z</time></trkpt><trkpt lat="45.33571055637708" lon="9.247692319968484"><ele>93.0</ele><time>2026-04-10T10:08:03.999Z</time></trkpt><trkpt lat="45.33567525215052" lon="9.247583480333187"><ele>93.0</ele><time>2026-04-10T10:08:04.999Z</time></trkpt><trkpt lat="45.33563714468876" lon="9.247472127110159"><ele>93.0</ele><time>2026-04-10T10:08:05.999Z</time></trkpt><trkpt lat="45.335598087007526" lon="9.247358611039678"><ele>93.0</ele><time>2026-04-10T10:08:06.999Z</time></trkpt><trkpt lat="45.33555852997119" lon="9.247244238858489"><ele>93.0</ele><time>2026-04-10T10:08:07.999Z</time></trkpt><trkpt lat="45.335517533412855" lon="9.24713035399257"><ele>93.0</ele><time>2026-04-10T10:08:08.999Z</time></trkpt><trkpt lat="45.33547929688982" lon="9.247026777409866"><ele>93.0</ele><time>2026-04-10T10:08:09.999Z</time></trkpt><trkpt lat="45.33544304170384" lon="9.246925884792493"><ele>92.66666666666667</ele><time>2026-04-10T10:08:10.999Z</time></trkpt><trkpt lat="45.335407479565404" lon="9.246825420011065"><ele>92.33333333333333</ele><time>2026-04-10T10:08:11.999Z</time></trkpt><trkpt lat="45.33537412417466" lon="9.246724837440093"><ele>92.0</ele><time>2026-04-10T10:08:12.999Z</time></trkpt><trkpt lat="45.335340173668904" lon="9.246619971620646"><ele>91.66666666666666</ele><time>2026-04-10T10:08:13.999Z</time></trkpt><trkpt lat="45.33530200671441" lon="9.246508955196507"><ele>91.33333333333333</ele><time>2026-04-10T10:08:14.999Z</time></trkpt><trkpt lat="45.335260699947646" lon="9.246392181883472"><ele>91.0</ele><time>2026-04-10T10:08:15.999Z</time></trkpt><trkpt lat="45.33521410316002" lon="9.246269607844553"><ele>91.0</ele><time>2026-04-10T10:08:16.999Z</time></trkpt><trkpt lat="45.33516338713542" lon="9.246145109879919"><ele>91.0</ele><time>2026-04-10T10:08:17.999Z</time></trkpt><trkpt lat="45.335116408240104" lon="9.246013948096781"><ele>91.0</ele><time>2026-04-10T10:08:18.998Z</time></trkpt><trkpt lat="45.335070865625205" lon="9.245887541711138"><ele>91.0</ele><time>2026-04-10T10:08:19.998Z</time></trkpt><trkpt lat="45.33503181483699" lon="9.24577416541085"><ele>91.0</ele><time>2026-04-10T10:08:20.998Z</time></trkpt><trkpt lat="45.33500044847937" lon="9.245681420151808"><ele>91.0</ele><time>2026-04-10T10:08:21.998Z</time></trkpt><trkpt lat="45.334973485257706" lon="9.245597460591872"><ele>92.0</ele><time>2026-04-10T10:08:22.998Z</time></trkpt><trkpt lat="45.33495565617409" lon="9.24543979931818"><ele>92.0</ele><time>2026-04-10T10:08:24.998Z</time></trkpt><trkpt lat="45.334986475995684" lon="9.245311183172626"><ele>92.0</ele><time>2026-04-10T10:08:26.998Z</time></trkpt><trkpt lat="45.33505461281932" lon="9.245261272820382"><ele>92.0</ele><time>2026-04-10T10:08:29Z</time></trkpt><trkpt lat="45.335100510345185" lon="9.245192136053223"><ele>92.0</ele><time>2026-04-10T10:08:32Z</time></trkpt></trkseg><trkseg><trkpt lat="45.334962288396305" lon="9.24484238900637"><ele>92.0</ele><time>2026-04-10T10:32:48.999Z</time></trkpt><trkpt lat="45.33487990609925" lon="9.24486382610596"><ele>92.0</ele><time>2026-04-10T10:32:50.999Z</time></trkpt><trkpt lat="45.33479744073196" lon="9.244867770179626"><ele>92.0</ele><time>2026-04-10T10:32:52.999Z</time></trkpt><trkpt lat="45.33472981954453" lon="9.244812073871206"><ele>92.0</ele><time>2026-04-10T10:32:54.999Z</time></trkpt><trkpt lat="45.33468833786195" lon="9.244736006600641"><ele>92.0</ele><time>2026-04-10T10:32:55.999Z</time></trkpt><trkpt lat="45.3346418857959" lon="9.24461966111864"><ele>92.0</ele><time>2026-04-10T10:32:56.999Z</time></trkpt><trkpt lat="45.334590259073295" lon="9.244474864036468"><ele>91.75</ele><time>2026-04-10T10:32:57.998Z</time></trkpt><trkpt lat="45.3345380298125" lon="9.24432969470854"><ele>91.5</ele><time>2026-04-10T10:32:58.998Z</time></trkpt><trkpt lat="45.3344858248731" lon="9.244170945481201"><ele>91.25</ele><time>2026-04-10T10:32:59.998Z</time></trkpt><trkpt lat="45.33442966039903" lon="9.244016672705838"><ele>91.0</ele><time>2026-04-10T10:33:00.998Z</time></trkpt><trkpt lat="45.334376019941466" lon="9.243870751906012"><ele>91.5</ele><time>2026-04-10T10:33:01.998Z</time></trkpt><trkpt lat="45.3343256592611" lon="9.243720943499836"><ele>92.0</ele><time>2026-04-10T10:33:02.998Z</time></trkpt><trkpt lat="45.33427446437593" lon="9.243568771433903"><ele>92.5</ele><time>2026-04-10T10:33:03.998Z</time></trkpt><trkpt lat="45.33422185629919" lon="9.243413117098083"><ele>93.0</ele><time>2026-04-10T10:33:04.998Z</time></trkpt><trkpt lat="45.33416715430632" lon="9.243244575622764"><ele>92.75</ele><time>2026-04-10T10:33:05.998Z</time></trkpt><trkpt lat="45.334109075098034" lon="9.243069243346367"><ele>92.5</ele><time>2026-04-10T10:33:06.998Z</time></trkpt><trkpt lat="45.334043485222125" lon="9.242895392032672"><ele>92.25</ele><time>2026-04-10T10:33:07.998Z</time></trkpt><trkpt lat="45.333976490081085" lon="9.242715812627301"><ele>92.0</ele><time>2026-04-10T10:33:08.998Z</time></trkpt><trkpt lat="45.33391422617187" lon="9.242539454999266"><ele>92.0</ele><time>2026-04-10T10:33:09.998Z</time></trkpt><trkpt lat="45.33384607726054" lon="9.242357416891382"><ele>92.0</ele><time>2026-04-10T10:33:10.998Z</time></trkpt><trkpt lat="45.33378632361874" lon="9.242170179678888"><ele>92.0</ele><time>2026-04-10T10:33:11.998Z</time></trkpt><trkpt lat="45.333724109831884" lon="9.241979685308635"><ele>92.0</ele><time>2026-04-10T10:33:12.998Z</time></trkpt><trkpt lat="45.333655222141225" lon="9.24178781491207"><ele>91.66666666666667</ele><time>2026-04-10T10:33:13.998Z</time></trkpt><trkpt lat="45.333582458397856" lon="9.241590473058269"><ele>91.33333333333333</ele><time>2026-04-10T10:33:14.998Z</time></trkpt><trkpt lat="45.333512771852995" lon="9.241395168154243"><ele>91.0</ele><time>2026-04-10T10:33:15.998Z</time></trkpt><trkpt lat="45.33344341517815" lon="9.241187716720258"><ele>91.0</ele><time>2026-04-10T10:33:16.998Z</time></trkpt><trkpt lat="45.33336801399148" lon="9.240975076972893"><ele>91.0</ele><time>2026-04-10T10:33:17.998Z</time></trkpt><trkpt lat="45.33329669378786" lon="9.240769664749342"><ele>91.0</ele><time>2026-04-10T10:33:18.998Z</time></trkpt><trkpt lat="45.333229942633196" lon="9.240579688848722"><ele>91.25</ele><time>2026-04-10T10:33:19.998Z</time></trkpt><trkpt lat="45.33317300209997" lon="9.240407733545604"><ele>91.5</ele><time>2026-04-10T10:33:20.998Z</time></trkpt><trkpt lat="45.33311778689853" lon="9.240246874803798"><ele>91.75</ele><time>2026-04-10T10:33:21.998Z</time></trkpt><trkpt lat="45.333062706319005" lon="9.24009373497184"><ele>92.0</ele><time>2026-04-10T10:33:22.998Z</time></trkpt><trkpt lat="45.333005359513834" lon="9.239931348572142"><ele>91.0</ele><time>2026-04-10T10:33:23.998Z</time></trkpt><trkpt lat="45.332946677272524" lon="9.239760201422381"><ele>90.0</ele><time>2026-04-10T10:33:24.998Z</time></trkpt><trkpt lat="45.332884741398004" lon="9.239580787296838"><ele>89.0</ele><time>2026-04-10T10:33:25.998Z</time></trkpt><trkpt lat="45.332823495068766" lon="9.239396153053445"><ele>88.0</ele><time>2026-04-10T10:33:26.998Z</time></trkpt><trkpt lat="45.332758101298396" lon="9.239201218031615"><ele>88.0</ele><time>2026-04-10T10:33:27.998Z</time></trkpt><trkpt lat="45.33268947065795" lon="9.239005639189354"><ele>88.0</ele><time>2026-04-10T10:33:28.998Z</time></trkpt><trkpt lat="45.332616689494316" lon="9.238807188418198"><ele>88.0</ele><time>2026-04-10T10:33:29.998Z</time></trkpt><trkpt lat="45.33253761572462" lon="9.238598556090063"><ele>88.25</ele><time>2026-04-10T10:33:30.998Z</time></trkpt><trkpt lat="45.332461766485224" lon="9.238397589593545"><ele>88.5</ele><time>2026-04-10T10:33:31.998Z</time></trkpt><trkpt lat="45.332397268424465" lon="9.238212578031716"><ele>88.75</ele><time>2026-04-10T10:33:32.998Z</time></trkpt><trkpt lat="45.33233773843739" lon="9.23803620943044"><ele>89.0</ele><time>2026-04-10T10:33:33.998Z</time></trkpt><trkpt lat="45.332278166992936" lon="9.237862493141694"><ele>89.0</ele><time>2026-04-10T10:33:35Z</time></trkpt><trkpt lat="45.33221864972483" lon="9.237689904126562"><ele>89.0</ele><time>2026-04-10T10:33:36Z</time></trkpt><trkpt lat="45.33215637510829" lon="9.237516988251151"><ele>89.0</ele><time>2026-04-10T10:33:37Z</time></trkpt><trkpt lat="45.33209784520148" lon="9.23735050506695"><ele>89.0</ele><time>2026-04-10T10:33:38Z</time></trkpt><trkpt lat="45.33204804146778" lon="9.237207425120383"><ele>89.0</ele><time>2026-04-10T10:33:39Z</time></trkpt><trkpt lat="45.332010896955275" lon="9.237099633019561"><ele>89.0</ele><time>2026-04-10T10:33:40Z</time></trkpt><trkpt lat="45.33197731338938" lon="9.23696178134931"><ele>89.0</ele><time>2026-04-10T10:33:42Z</time></trkpt><trkpt lat="45.331824776213885" lon="9.237039536879578"><ele>89.0</ele><time>2026-04-10T10:33:47Z</time></trkpt><trkpt lat="45.331777286463826" lon="9.237102025422704"><ele>89.0</ele><time>2026-04-10T10:33:48Z</time></trkpt><trkpt lat="45.33168618979442" lon="9.237226781444337"><ele>89.0</ele><time>2026-04-10T10:33:50Z</time></trkpt><trkpt lat="45.33164003376608" lon="9.237293103452805"><ele>89.0</ele><time>2026-04-10T10:33:51Z</time></trkpt><trkpt lat="45.33159473039233" lon="9.237358794695478"><ele>89.0</ele><time>2026-04-10T10:33:52Z</time></trkpt><trkpt lat="45.33151592532365" lon="9.237471885433925"><ele>89.0</ele><time>2026-04-10T10:33:54Z</time></trkpt><trkpt lat="45.33144761445244" lon="9.23756859260672"><ele>89.0</ele><time>2026-04-10T10:33:55.999Z</time></trkpt><trkpt lat="45.33138530749149" lon="9.23766657291789"><ele>89.0</ele><time>2026-04-10T10:33:57.999Z</time></trkpt><trkpt lat="45.33133639482226" lon="9.237751874350346"><ele>89.0</ele><time>2026-04-10T10:33:58.999Z</time></trkpt><trkpt lat="45.33127818156733" lon="9.23783060837721"><ele>89.0</ele><time>2026-04-10T10:33:59.999Z</time></trkpt><trkpt lat="45.331220647873394" lon="9.237906920923718"><ele>89.0</ele><time>2026-04-10T10:34:00.999Z</time></trkpt><trkpt lat="45.33116765505218" lon="9.237993510998052"><ele>89.0</ele><time>2026-04-10T10:34:01.999Z</time></trkpt><trkpt lat="45.331118574410134" lon="9.23806698481443"><ele>89.0</ele><time>2026-04-10T10:34:02.999Z</time></trkpt><trkpt lat="45.33103244003456" lon="9.238200586609647"><ele>89.0</ele><time>2026-04-10T10:34:04.999Z</time></trkpt><trkpt lat="45.330981376368904" lon="9.238279501525327"><ele>89.0</ele><time>2026-04-10T10:34:05.999Z</time></trkpt><trkpt lat="45.33092719491823" lon="9.238362838130541"><ele>89.0</ele><time>2026-04-10T10:34:06.999Z</time></trkpt><trkpt lat="45.33087044750714" lon="9.23844786515976"><ele>89.0</ele><time>2026-04-10T10:34:07.999Z</time></trkpt><trkpt lat="45.3308115437461" lon="9.23854059268382"><ele>89.0</ele><time>2026-04-10T10:34:08.999Z</time></trkpt><trkpt lat="45.33075555543239" lon="9.238626157641324"><ele>89.0</ele><time>2026-04-10T10:34:09.999Z</time></trkpt><trkpt lat="45.33070029706777" lon="9.238707206160377"><ele>89.0</ele><time>2026-04-10T10:34:10.999Z</time></trkpt><trkpt lat="45.33065144940839" lon="9.238777270767072"><ele>89.0</ele><time>2026-04-10T10:34:11.999Z</time></trkpt><trkpt lat="45.330607464509306" lon="9.238848104502166"><ele>89.0</ele><time>2026-04-10T10:34:12.999Z</time></trkpt><trkpt lat="45.330519358420574" lon="9.23898333707931"><ele>89.0</ele><time>2026-04-10T10:34:14.999Z</time></trkpt><trkpt lat="45.33047215905297" lon="9.239053843976713"><ele>89.0</ele><time>2026-04-10T10:34:15.999Z</time></trkpt><trkpt lat="45.33042750470232" lon="9.239121533046575"><ele>89.0</ele><time>2026-04-10T10:34:16.999Z</time></trkpt><trkpt lat="45.33034256398497" lon="9.23925103262874"><ele>88.83333333333334</ele><time>2026-04-10T10:34:18.999Z</time></trkpt><trkpt lat="45.33029484764514" lon="9.23931919873866"><ele>88.66666666666667</ele><time>2026-04-10T10:34:19.999Z</time></trkpt><trkpt lat="45.33024216333956" lon="9.239394864633818"><ele>88.5</ele><time>2026-04-10T10:34:20.999Z</time></trkpt><trkpt lat="45.33018967991753" lon="9.2394691688704"><ele>88.33333333333333</ele><time>2026-04-10T10:34:21.999Z</time></trkpt><trkpt lat="45.330137057133214" lon="9.239540773523967"><ele>88.16666666666666</ele><time>2026-04-10T10:34:22.999Z</time></trkpt><trkpt lat="45.330078951950895" lon="9.239604170302785"><ele>88.0</ele><time>2026-04-10T10:34:23.999Z</time></trkpt><trkpt lat="45.330025314179636" lon="9.239731501601197"><ele>88.16666666666666</ele><time>2026-04-10T10:34:25.999Z</time></trkpt><trkpt lat="45.32995448568714" lon="9.239845229694124"><ele>88.33333333333333</ele><time>2026-04-10T10:34:27.999Z</time></trkpt><trkpt lat="45.32988440376311" lon="9.239967397952471"><ele>88.5</ele><time>2026-04-10T10:34:29.999Z</time></trkpt><trkpt lat="45.329823809146944" lon="9.24004347760783"><ele>88.66666666666667</ele><time>2026-04-10T10:34:31.999Z</time></trkpt><trkpt lat="45.32978220117267" lon="9.240129632147168"><ele>88.83333333333334</ele><time>2026-04-10T10:34:34.999Z</time></trkpt><trkpt lat="45.329731940429916" lon="9.240191777060032"><ele>89.0</ele><time>2026-04-10T10:34:38.999Z</time></trkpt><trkpt lat="45.3296885912602" lon="9.240270239101267"><ele>89.0</ele><time>2026-04-10T10:34:41.999Z</time></trkpt><trkpt lat="45.3296361116883" lon="9.240362621202465"><ele>89.0</ele><time>2026-04-10T10:34:44.999Z</time></trkpt><trkpt lat="45.32956961871543" lon="9.240441165950308"><ele>89.0</ele><time>2026-04-10T10:34:47.999Z</time></trkpt><trkpt lat="45.32951016224676" lon="9.240521169867169"><ele>89.0</ele><time>2026-04-10T10:41:30.998Z</time></trkpt><trkpt lat="45.329460780284094" lon="9.240619567126767"><ele>89.0</ele><time>2026-04-10T10:41:33.998Z</time></trkpt><trkpt lat="45.3293903090929" lon="9.240663852377311"><ele>89.0</ele><time>2026-04-10T10:41:35.998Z</time></trkpt><trkpt lat="45.32927178091839" lon="9.240652739005181"><ele>89.0</ele><time>2026-04-10T10:41:37.998Z</time></trkpt><trkpt lat="45.329206272789705" lon="9.240637411445446"><ele>89.0</ele><time>2026-04-10T10:41:38.998Z</time></trkpt><trkpt lat="45.32913194846625" lon="9.240613218158373"><ele>89.0</ele><time>2026-04-10T10:41:39.998Z</time></trkpt><trkpt lat="45.32905285724145" lon="9.240580074454748"><ele>89.0</ele><time>2026-04-10T10:41:40.998Z</time></trkpt><trkpt lat="45.32895312160223" lon="9.24053029151236"><ele>89.0</ele><time>2026-04-10T10:41:41.998Z</time></trkpt><trkpt lat="45.3288751197663" lon="9.240489435204298"><ele>89.0</ele><time>2026-04-10T10:41:42.998Z</time></trkpt><trkpt lat="45.32881411122217" lon="9.240453320116611"><ele>88.0</ele><time>2026-04-10T10:41:44.998Z</time></trkpt><trkpt lat="45.328776038649956" lon="9.240689346821888"><ele>87.0</ele><time>2026-04-10T10:41:46.998Z</time></trkpt><trkpt lat="45.32879352977209" lon="9.240805063704993"><ele>86.0</ele><time>2026-04-10T10:41:47.998Z</time></trkpt><trkpt lat="45.32879524377519" lon="9.240939614410959"><ele>85.0</ele><time>2026-04-10T10:41:48.998Z</time></trkpt><trkpt lat="45.328798083609215" lon="9.241109173619446"><ele>85.0</ele><time>2026-04-10T10:41:49.998Z</time></trkpt><trkpt lat="45.32881425222028" lon="9.241299336603554"><ele>85.0</ele><time>2026-04-10T10:41:50.998Z</time></trkpt><trkpt lat="45.328831129506085" lon="9.24143661077518"><ele>85.0</ele><time>2026-04-10T10:41:51.998Z</time></trkpt><trkpt lat="45.32884603735307" lon="9.241557302886072"><ele>85.0</ele><time>2026-04-10T10:41:52.998Z</time></trkpt><trkpt lat="45.32886914618072" lon="9.241687737430642"><ele>85.0</ele><time>2026-04-10T10:41:53.998Z</time></trkpt><trkpt lat="45.32889846466056" lon="9.24180148522891"><ele>85.8</ele><time>2026-04-10T10:41:54.998Z</time></trkpt><trkpt lat="45.328920824682065" lon="9.24191983528968"><ele>86.6</ele><time>2026-04-10T10:41:55.998Z</time></trkpt><trkpt lat="45.328953439240486" lon="9.24204861005339"><ele>87.4</ele><time>2026-04-10T10:41:56.998Z</time></trkpt><trkpt lat="45.32899028967577" lon="9.242197080775352"><ele>88.2</ele><time>2026-04-10T10:41:58Z</time></trkpt><trkpt lat="45.329036463781705" lon="9.242362293854727"><ele>89.0</ele><time>2026-04-10T10:41:59Z</time></trkpt><trkpt lat="45.32908810612791" lon="9.242540885883194"><ele>89.25</ele><time>2026-04-10T10:42:00Z</time></trkpt><trkpt lat="45.32914013921225" lon="9.242704353864786"><ele>89.5</ele><time>2026-04-10T10:42:01Z</time></trkpt><trkpt lat="45.32918595330814" lon="9.242848036552212"><ele>89.75</ele><time>2026-04-10T10:42:02Z</time></trkpt><trkpt lat="45.32922925288249" lon="9.242983030727759"><ele>90.0</ele><time>2026-04-10T10:42:03Z</time></trkpt><trkpt lat="45.329285201083785" lon="9.243120144607742"><ele>90.4</ele><time>2026-04-10T10:42:04Z</time></trkpt><trkpt lat="45.329348385177276" lon="9.24326741896448"><ele>90.8</ele><time>2026-04-10T10:42:05Z</time></trkpt><trkpt lat="45.32940229843473" lon="9.243404684964421"><ele>91.19999999999999</ele><time>2026-04-10T10:42:06Z</time></trkpt><trkpt lat="45.329447614730555" lon="9.243523089928471"><ele>91.6</ele><time>2026-04-10T10:42:07Z</time></trkpt><trkpt lat="45.32948984021163" lon="9.24363138470994"><ele>92.0</ele><time>2026-04-10T10:42:08Z</time></trkpt><trkpt lat="45.32953052639917" lon="9.243732477876828"><ele>92.0</ele><time>2026-04-10T10:42:09Z</time></trkpt><trkpt lat="45.32956382606982" lon="9.243815891318288"><ele>92.0</ele><time>2026-04-10T10:42:10Z</time></trkpt><trkpt lat="45.329607363056475" lon="9.243911684730215"><ele>92.0</ele><time>2026-04-10T10:42:12Z</time></trkpt><trkpt lat="45.32963086122854" lon="9.244002905125503"><ele>92.0</ele><time>2026-04-10T10:42:14Z</time></trkpt><trkpt lat="45.329649572307666" lon="9.244089181246991"><ele>92.0</ele><time>2026-04-10T10:42:17.999Z</time></trkpt><trkpt lat="45.32969018183318" lon="9.244176480045741"><ele>92.0</ele><time>2026-04-10T10:42:32.999Z</time></trkpt><trkpt lat="45.329727806662746" lon="9.244251928036341"><ele>92.0</ele><time>2026-04-10T10:42:33.999Z</time></trkpt><trkpt lat="45.329762873404" lon="9.244348714212581"><ele>91.66666666666667</ele><time>2026-04-10T10:42:34.999Z</time></trkpt><trkpt lat="45.32980149638397" lon="9.244457021732172"><ele>91.33333333333334</ele><time>2026-04-10T10:42:35.999Z</time></trkpt><trkpt lat="45.32984570644692" lon="9.244573082481015"><ele>91.0</ele><time>2026-04-10T10:42:36.999Z</time></trkpt><trkpt lat="45.32988978708543" lon="9.244687480370677"><ele>90.66666666666667</ele><time>2026-04-10T10:42:37.999Z</time></trkpt><trkpt lat="45.32993326072784" lon="9.24479266935466"><ele>90.33333333333333</ele><time>2026-04-10T10:42:38.999Z</time></trkpt><trkpt lat="45.32996934793041" lon="9.244890356102987"><ele>90.0</ele><time>2026-04-10T10:42:39.999Z</time></trkpt><trkpt lat="45.33000163833262" lon="9.244976643779852"><ele>90.0</ele><time>2026-04-10T10:42:40.999Z</time></trkpt><trkpt lat="45.330049019383964" lon="9.245121987416898"><ele>90.0</ele><time>2026-04-10T10:42:42.999Z</time></trkpt><trkpt lat="45.330063180216236" lon="9.245212539795881"><ele>90.0</ele><time>2026-04-10T10:42:43.999Z</time></trkpt><trkpt lat="45.33005803485119" lon="9.245409935381874"><ele>90.0</ele><time>2026-04-10T10:42:45.999Z</time></trkpt><trkpt lat="45.330038475776" lon="9.24552985702183"><ele>90.0</ele><time>2026-04-10T10:42:46.999Z</time></trkpt><trkpt lat="45.32999303794758" lon="9.24563849560242"><ele>90.0</ele><time>2026-04-10T10:42:47.998Z</time></trkpt><trkpt lat="45.32991367841378" lon="9.245729421775977"><ele>90.0</ele><time>2026-04-10T10:42:48.998Z</time></trkpt><trkpt lat="45.329813268438905" lon="9.245792051896741"><ele>90.0</ele><time>2026-04-10T10:42:49.998Z</time></trkpt><trkpt lat="45.32970874092753" lon="9.24585415260712"><ele>90.0</ele><time>2026-04-10T10:42:50.998Z</time></trkpt><trkpt lat="45.329605397288255" lon="9.245935755887839"><ele>90.0</ele><time>2026-04-10T10:42:51.998Z</time></trkpt><trkpt lat="45.32949875053312" lon="9.246018003430729"><ele>90.0</ele><time>2026-04-10T10:42:52.998Z</time></trkpt><trkpt lat="45.32938982367334" lon="9.246098187983618"><ele>90.0</ele><time>2026-04-10T10:42:53.998Z</time></trkpt><trkpt lat="45.32928934112582" lon="9.24619088213161"><ele>90.0</ele><time>2026-04-10T10:42:54.998Z</time></trkpt><trkpt lat="45.3291768643844" lon="9.246286270970927"><ele>90.0</ele><time>2026-04-10T10:42:55.998Z</time></trkpt><trkpt lat="45.32906242722452" lon="9.24638006880783"><ele>90.25</ele><time>2026-04-10T10:42:56.998Z</time></trkpt><trkpt lat="45.32895242405919" lon="9.2464741821648"><ele>90.5</ele><time>2026-04-10T10:42:57.998Z</time></trkpt><trkpt lat="45.328848096982746" lon="9.2465598886567"><ele>90.75</ele><time>2026-04-10T10:42:58.998Z</time></trkpt><trkpt lat="45.32874192879067" lon="9.246642147996925"><ele>91.0</ele><time>2026-04-10T10:42:59.998Z</time></trkpt><trkpt lat="45.32863211005566" lon="9.246730873099217"><ele>90.33333333333333</ele><time>2026-04-10T10:43:00.998Z</time></trkpt><trkpt lat="45.32851324216629" lon="9.246838221161976"><ele>89.66666666666667</ele><time>2026-04-10T10:43:01.998Z</time></trkpt><trkpt lat="45.32838188432301" lon="9.24695942207732"><ele>89.0</ele><time>2026-04-10T10:43:02.998Z</time></trkpt><trkpt lat="45.32824425997271" lon="9.247082915178977"><ele>89.0</ele><time>2026-04-10T10:43:03.998Z</time></trkpt><trkpt lat="45.32812344862846" lon="9.24718576265988"><ele>89.0</ele><time>2026-04-10T10:43:04.998Z</time></trkpt><trkpt lat="45.328002324534665" lon="9.247291486151887"><ele>89.0</ele><time>2026-04-10T10:43:05.998Z</time></trkpt><trkpt lat="45.32787722804942" lon="9.247400408669872"><ele>89.0</ele><time>2026-04-10T10:43:06.998Z</time></trkpt><trkpt lat="45.32776002937857" lon="9.247501832784206"><ele>88.75</ele><time>2026-04-10T10:43:07.998Z</time></trkpt><trkpt lat="45.32764029287194" lon="9.247603263834062"><ele>88.5</ele><time>2026-04-10T10:43:08.998Z</time></trkpt><trkpt lat="45.32752328034223" lon="9.247702732047609"><ele>88.25</ele><time>2026-04-10T10:43:09.998Z</time></trkpt><trkpt lat="45.32741146011442" lon="9.247797821787154"><ele>88.0</ele><time>2026-04-10T10:43:10.998Z</time></trkpt><trkpt lat="45.32731237715557" lon="9.247885355865712"><ele>88.2</ele><time>2026-04-10T10:43:11.998Z</time></trkpt><trkpt lat="45.327217752288284" lon="9.247970571870157"><ele>88.4</ele><time>2026-04-10T10:43:12.998Z</time></trkpt><trkpt lat="45.327129185640544" lon="9.248049278686628"><ele>88.60000000000001</ele><time>2026-04-10T10:43:13.998Z</time></trkpt><trkpt lat="45.327046802229795" lon="9.248118995457435"><ele>88.80000000000001</ele><time>2026-04-10T10:43:14.998Z</time></trkpt><trkpt lat="45.32695931314694" lon="9.248201150391735"><ele>89.0</ele><time>2026-04-10T10:43:15.998Z</time></trkpt><trkpt lat="45.32687110202238" lon="9.248284713115762"><ele>89.0</ele><time>2026-04-10T10:43:16.998Z</time></trkpt><trkpt lat="45.32677754657763" lon="9.248362429800636"><ele>89.0</ele><time>2026-04-10T10:43:17.998Z</time></trkpt><trkpt lat="45.326676479143664" lon="9.248444104852918"><ele>89.0</ele><time>2026-04-10T10:43:18.998Z</time></trkpt><trkpt lat="45.3265726121863" lon="9.248535456372899"><ele>89.0</ele><time>2026-04-10T10:43:19.998Z</time></trkpt><trkpt lat="45.326462609950056" lon="9.248632744184869"><ele>88.75</ele><time>2026-04-10T10:43:20.998Z</time></trkpt><trkpt lat="45.32634877717348" lon="9.248721158568936"><ele>88.5</ele><time>2026-04-10T10:43:21.998Z</time></trkpt><trkpt lat="45.32622796218562" lon="9.248810198305456"><ele>88.25</ele><time>2026-04-10T10:43:22.998Z</time></trkpt><trkpt lat="45.326111601178816" lon="9.248900611528272"><ele>88.0</ele><time>2026-04-10T10:43:23.998Z</time></trkpt><trkpt lat="45.32599634592437" lon="9.248999733061837"><ele>88.0</ele><time>2026-04-10T10:43:24.998Z</time></trkpt><trkpt lat="45.325880620733805" lon="9.249094264713152"><ele>88.0</ele><time>2026-04-10T10:43:25.998Z</time></trkpt><trkpt lat="45.32576100414434" lon="9.249186662540081"><ele>88.0</ele><time>2026-04-10T10:43:26.998Z</time></trkpt><trkpt lat="45.325644666201164" lon="9.249284351811024"><ele>88.0</ele><time>2026-04-10T10:43:27.998Z</time></trkpt><trkpt lat="45.3255278827693" lon="9.249381032593185"><ele>88.25</ele><time>2026-04-10T10:43:28.998Z</time></trkpt><trkpt lat="45.32541034433692" lon="9.24947670359929"><ele>88.5</ele><time>2026-04-10T10:43:29.998Z</time></trkpt><trkpt lat="45.32529384670328" lon="9.249573993925413"><ele>88.75</ele><time>2026-04-10T10:43:30.998Z</time></trkpt><trkpt lat="45.32518462315216" lon="9.249665748918309"><ele>89.0</ele><time>2026-04-10T10:43:31.998Z</time></trkpt><trkpt lat="45.32508090567221" lon="9.24975185533178"><ele>88.80000000000001</ele><time>2026-04-10T10:43:32.998Z</time></trkpt><trkpt lat="45.32498145388437" lon="9.24982842777714"><ele>88.60000000000001</ele><time>2026-04-10T10:43:33.998Z</time></trkpt><trkpt lat="45.324883981784275" lon="9.249904487160025"><ele>88.4</ele><time>2026-04-10T10:43:34.998Z</time></trkpt><trkpt lat="45.32479075644737" lon="9.249986955673899"><ele>88.2</ele><time>2026-04-10T10:43:35.998Z</time></trkpt><trkpt lat="45.324694249590884" lon="9.250071477794982"><ele>88.0</ele><time>2026-04-10T10:43:36.998Z</time></trkpt><trkpt lat="45.32459322045315" lon="9.250158820857802"><ele>88.0</ele><time>2026-04-10T10:43:37.998Z</time></trkpt><trkpt lat="45.324489329062025" lon="9.250247331744394"><ele>88.0</ele><time>2026-04-10T10:43:38.998Z</time></trkpt><trkpt lat="45.32438333065338" lon="9.25033760012335"><ele>88.0</ele><time>2026-04-10T10:43:39.998Z</time></trkpt><trkpt lat="45.32427616427789" lon="9.250427417611217"><ele>88.0</ele><time>2026-04-10T10:43:40.998Z</time></trkpt><trkpt lat="45.3241673306999" lon="9.250517575668194"><ele>88.0</ele><time>2026-04-10T10:43:41.998Z</time></trkpt><trkpt lat="45.324056420638826" lon="9.25061183729727"><ele>88.0</ele><time>2026-04-10T10:43:42.997Z</time></trkpt><trkpt lat="45.323944977949985" lon="9.250706577342239"><ele>88.0</ele><time>2026-04-10T10:43:43.997Z</time></trkpt><trkpt lat="45.323837125823076" lon="9.250794638107845"><ele>88.0</ele><time>2026-04-10T10:43:44.997Z</time></trkpt><trkpt lat="45.32372893931914" lon="9.250877362523182"><ele>88.25</ele><time>2026-04-10T10:43:45.997Z</time></trkpt><trkpt lat="45.3236269660459" lon="9.250972075482899"><ele>88.5</ele><time>2026-04-10T10:43:46.997Z</time></trkpt><trkpt lat="45.32352213900457" lon="9.251059496133205"><ele>88.75</ele><time>2026-04-10T10:43:47.997Z</time></trkpt><trkpt lat="45.32342023407369" lon="9.251151332730549"><ele>89.0</ele><time>2026-04-10T10:43:48.997Z</time></trkpt><trkpt lat="45.32331335688448" lon="9.251239470451804"><ele>89.0</ele><time>2026-04-10T10:43:49.997Z</time></trkpt><trkpt lat="45.32320754408348" lon="9.251326449999269"><ele>89.0</ele><time>2026-04-10T10:43:50.997Z</time></trkpt><trkpt lat="45.32310055244197" lon="9.251419296806594"><ele>89.0</ele><time>2026-04-10T10:43:51.997Z</time></trkpt><trkpt lat="45.32298874418762" lon="9.251509383069061"><ele>89.0</ele><time>2026-04-10T10:43:52.997Z</time></trkpt><trkpt lat="45.32286651443348" lon="9.251615787309815"><ele>88.33333333333334</ele><time>2026-04-10T10:43:53.997Z</time></trkpt><trkpt lat="45.32272811199284" lon="9.25173342230512"><ele>87.66666666666667</ele><time>2026-04-10T10:43:54.997Z</time></trkpt><trkpt lat="45.32258166496407" lon="9.251861023169388"><ele>87.0</ele><time>2026-04-10T10:43:55.997Z</time></trkpt><trkpt lat="45.32243144279044" lon="9.251993558406584"><ele>87.0</ele><time>2026-04-10T10:43:56.997Z</time></trkpt><trkpt lat="45.32228795098539" lon="9.252112562920612"><ele>87.0</ele><time>2026-04-10T10:43:57.997Z</time></trkpt><trkpt lat="45.322157041265065" lon="9.252217411711213"><ele>87.0</ele><time>2026-04-10T10:43:58.997Z</time></trkpt><trkpt lat="45.32203667876308" lon="9.25232091282343"><ele>87.5</ele><time>2026-04-10T10:43:59.998Z</time></trkpt><trkpt lat="45.32192471965077" lon="9.25242128102286"><ele>88.0</ele><time>2026-04-10T10:44:00.998Z</time></trkpt><trkpt lat="45.32180188562365" lon="9.252520884971267"><ele>88.5</ele><time>2026-04-10T10:44:01.998Z</time></trkpt><trkpt lat="45.321669218617565" lon="9.252630069053216"><ele>89.0</ele><time>2026-04-10T10:44:02.998Z</time></trkpt><trkpt lat="45.32152424653155" lon="9.25275087875558"><ele>89.0</ele><time>2026-04-10T10:44:03.999Z</time></trkpt><trkpt lat="45.32137472600524" lon="9.25287251348958"><ele>89.0</ele><time>2026-04-10T10:44:04.999Z</time></trkpt><trkpt lat="45.32121194902198" lon="9.253007183545554"><ele>89.0</ele><time>2026-04-10T10:44:05.999Z</time></trkpt><trkpt lat="45.32105176340053" lon="9.253137925695578"><ele>89.0</ele><time>2026-04-10T10:44:06.999Z</time></trkpt><trkpt lat="45.32089691162906" lon="9.253267858165499"><ele>89.0</ele><time>2026-04-10T10:44:07.999Z</time></trkpt><trkpt lat="45.3207413893131" lon="9.25339486791716"><ele>89.0</ele><time>2026-04-10T10:44:08.999Z</time></trkpt><trkpt lat="45.32059117920376" lon="9.253523076093158"><ele>88.33333333333334</ele><time>2026-04-10T10:44:09.999Z</time></trkpt><trkpt lat="45.32044445409143" lon="9.25365360297302"><ele>87.66666666666667</ele><time>2026-04-10T10:44:10.999Z</time></trkpt><trkpt lat="45.320297955133256" lon="9.253783735986914"><ele>87.0</ele><time>2026-04-10T10:44:11.999Z</time></trkpt><trkpt lat="45.320153738338476" lon="9.253903693367524"><ele>87.33333333333333</ele><time>2026-04-10T10:44:12.999Z</time></trkpt><trkpt lat="45.320010692185065" lon="9.25402712149583"><ele>87.66666666666666</ele><time>2026-04-10T10:44:14Z</time></trkpt><trkpt lat="45.319867851880645" lon="9.254150654644528"><ele>88.0</ele><time>2026-04-10T10:44:15Z</time></trkpt><trkpt lat="45.319725390886624" lon="9.254269825745087"><ele>87.33333333333333</ele><time>2026-04-10T10:44:16Z</time></trkpt><trkpt lat="45.319589641373184" lon="9.254383374478945"><ele>86.66666666666667</ele><time>2026-04-10T10:44:17Z</time></trkpt><trkpt lat="45.319452195762615" lon="9.254497264110004"><ele>86.0</ele><time>2026-04-10T10:44:18Z</time></trkpt><trkpt lat="45.31931914730187" lon="9.254613905898205"><ele>86.0</ele><time>2026-04-10T10:44:19Z</time></trkpt><trkpt lat="45.31918730783653" lon="9.254728355321637"><ele>86.0</ele><time>2026-04-10T10:44:19.999Z</time></trkpt><trkpt lat="45.319054957827305" lon="9.254844208452191"><ele>86.0</ele><time>2026-04-10T10:44:20.999Z</time></trkpt><trkpt lat="45.31893129369503" lon="9.254954065676802"><ele>86.75</ele><time>2026-04-10T10:44:21.999Z</time></trkpt><trkpt lat="45.31881807578655" lon="9.255052430775036"><ele>87.5</ele><time>2026-04-10T10:44:22.999Z</time></trkpt><trkpt lat="45.3187112652877" lon="9.255141697592698"><ele>88.25</ele><time>2026-04-10T10:44:23.999Z</time></trkpt><trkpt lat="45.31860965220375" lon="9.2552259573813"><ele>89.0</ele><time>2026-04-10T10:44:24.999Z</time></trkpt><trkpt lat="45.3185158944572" lon="9.255304590814449"><ele>89.0</ele><time>2026-04-10T10:44:25.999Z</time></trkpt><trkpt lat="45.31842454002628" lon="9.255378074650123"><ele>89.0</ele><time>2026-04-10T10:44:26.999Z</time></trkpt><trkpt lat="45.31833353734742" lon="9.255452584842505"><ele>89.0</ele><time>2026-04-10T10:44:27.999Z</time></trkpt><trkpt lat="45.31823526288036" lon="9.255543274863994"><ele>89.0</ele><time>2026-04-10T10:44:28.999Z</time></trkpt><trkpt lat="45.3181283019158" lon="9.255636915727024"><ele>89.25</ele><time>2026-04-10T10:44:29.999Z</time></trkpt><trkpt lat="45.31800796271574" lon="9.255739278946727"><ele>89.5</ele><time>2026-04-10T10:44:30.999Z</time></trkpt><trkpt lat="45.31787917116119" lon="9.255851656037418"><ele>89.75</ele><time>2026-04-10T10:44:31.999Z</time></trkpt><trkpt lat="45.31774920066724" lon="9.255968683308371"><ele>90.0</ele><time>2026-04-10T10:44:32.999Z</time></trkpt><trkpt lat="45.31762982017714" lon="9.25607185797797"><ele>90.0</ele><time>2026-04-10T10:44:33.999Z</time></trkpt><trkpt lat="45.31752091409229" lon="9.256161309727343"><ele>90.0</ele><time>2026-04-10T10:44:34.999Z</time></trkpt><trkpt lat="45.31741071690173" lon="9.256255383656324"><ele>90.0</ele><time>2026-04-10T10:44:35.999Z</time></trkpt><trkpt lat="45.31729310560991" lon="9.256362019840447"><ele>90.0</ele><time>2026-04-10T10:44:36.999Z</time></trkpt><trkpt lat="45.31715496271822" lon="9.256470387968522"><ele>89.66666666666667</ele><time>2026-04-10T10:44:37.999Z</time></trkpt><trkpt lat="45.316998422685096" lon="9.25660742108322"><ele>89.33333333333334</ele><time>2026-04-10T10:44:38.999Z</time></trkpt><trkpt lat="45.31685727132728" lon="9.256733705431783"><ele>89.0</ele><time>2026-04-10T10:44:39.999Z</time></trkpt><trkpt lat="45.31673252292481" lon="9.256840744181918"><ele>89.0</ele><time>2026-04-10T10:44:40.999Z</time></trkpt><trkpt lat="45.31661636405648" lon="9.256940547548698"><ele>89.0</ele><time>2026-04-10T10:44:41.999Z</time></trkpt><trkpt lat="45.316507127519984" lon="9.257038103289858"><ele>89.0</ele><time>2026-04-10T10:44:42.999Z</time></trkpt><trkpt lat="45.31640302095999" lon="9.257131592164654"><ele>89.0</ele><time>2026-04-10T10:44:43.999Z</time></trkpt><trkpt lat="45.31630103490687" lon="9.257221738148521"><ele>88.75</ele><time>2026-04-10T10:44:44.999Z</time></trkpt><trkpt lat="45.31619444885471" lon="9.257309472854283"><ele>88.5</ele><time>2026-04-10T10:44:45.999Z</time></trkpt><trkpt lat="45.31608507684054" lon="9.257409868729154"><ele>88.25</ele><time>2026-04-10T10:44:46.999Z</time></trkpt><trkpt lat="45.31595847693845" lon="9.257525082383772"><ele>88.0</ele><time>2026-04-10T10:44:47.999Z</time></trkpt><trkpt lat="45.315827718532915" lon="9.257647413426344"><ele>88.0</ele><time>2026-04-10T10:44:48.999Z</time></trkpt><trkpt lat="45.315700686448054" lon="9.257761011542774"><ele>88.0</ele><time>2026-04-10T10:44:49.999Z</time></trkpt><trkpt lat="45.31558292624679" lon="9.257869091491584"><ele>88.0</ele><time>2026-04-10T10:44:50.999Z</time></trkpt><trkpt lat="45.315471439887745" lon="9.257978595717407"><ele>88.0</ele><time>2026-04-10T10:44:51.999Z</time></trkpt><trkpt lat="45.315358696437855" lon="9.258085661690032"><ele>88.25</ele><time>2026-04-10T10:44:52.999Z</time></trkpt><trkpt lat="45.31524174379523" lon="9.258190951638337"><ele>88.5</ele><time>2026-04-10T10:44:53.999Z</time></trkpt><trkpt lat="45.31512601911089" lon="9.258299469738333"><ele>88.75</ele><time>2026-04-10T10:44:54.999Z</time></trkpt><trkpt lat="45.31500880840671" lon="9.258410387400225"><ele>89.0</ele><time>2026-04-10T10:44:55.999Z</time></trkpt><trkpt lat="45.3148948679203" lon="9.258515527187992"><ele>89.0</ele><time>2026-04-10T10:44:56.999Z</time></trkpt><trkpt lat="45.31479523350823" lon="9.258609351904745"><ele>89.0</ele><time>2026-04-10T10:44:57.999Z</time></trkpt><trkpt lat="45.314699164847845" lon="9.258693443957412"><ele>89.0</ele><time>2026-04-10T10:44:58.999Z</time></trkpt><trkpt lat="45.31460829642164" lon="9.258768315428203"><ele>89.0</ele><time>2026-04-10T10:44:59.999Z</time></trkpt><trkpt lat="45.31452770289174" lon="9.258833205761428"><ele>89.0</ele><time>2026-04-10T10:45:00.999Z</time></trkpt><trkpt lat="45.314445005961055" lon="9.258905291804139"><ele>88.80000000000001</ele><time>2026-04-10T10:45:01.999Z</time></trkpt><trkpt lat="45.31436804121883" lon="9.258989028452858"><ele>88.60000000000001</ele><time>2026-04-10T10:45:02.999Z</time></trkpt><trkpt lat="45.314278146548155" lon="9.259080986334677"><ele>88.4</ele><time>2026-04-10T10:45:03.999Z</time></trkpt><trkpt lat="45.31417702465305" lon="9.25917878208922"><ele>88.2</ele><time>2026-04-10T10:45:04.999Z</time></trkpt><trkpt lat="45.31408246261227" lon="9.259276666067299"><ele>88.0</ele><time>2026-04-10T10:45:05.999Z</time></trkpt><trkpt lat="45.31399068940011" lon="9.259364053861662"><ele>88.0</ele><time>2026-04-10T10:45:06.999Z</time></trkpt><trkpt lat="45.31389363481142" lon="9.259443490335434"><ele>88.0</ele><time>2026-04-10T10:45:07.999Z</time></trkpt><trkpt lat="45.313797157844974" lon="9.259539081226038"><ele>88.0</ele><time>2026-04-10T10:45:08.999Z</time></trkpt><trkpt lat="45.31369458304362" lon="9.259637761007603"><ele>88.0</ele><time>2026-04-10T10:45:09.999Z</time></trkpt><trkpt lat="45.3135870906515" lon="9.259744250235332"><ele>87.80000000000001</ele><time>2026-04-10T10:45:10.999Z</time></trkpt><trkpt lat="45.313488925010155" lon="9.259838777788193"><ele>87.6</ele><time>2026-04-10T10:45:11.999Z</time></trkpt><trkpt lat="45.31339846400209" lon="9.259922178626464"><ele>87.4</ele><time>2026-04-10T10:45:12.999Z</time></trkpt><trkpt lat="45.31331838854164" lon="9.25999874489156"><ele>87.19999999999999</ele><time>2026-04-10T10:45:13.999Z</time></trkpt><trkpt lat="45.31324533910195" lon="9.260067967338511"><ele>87.0</ele><time>2026-04-10T10:45:14.999Z</time></trkpt><trkpt lat="45.31317796142013" lon="9.260132974982774"><ele>87.0</ele><time>2026-04-10T10:45:15.999Z</time></trkpt><trkpt lat="45.3131137842168" lon="9.260195323731022"><ele>87.0</ele><time>2026-04-10T10:45:16.999Z</time></trkpt><trkpt lat="45.3130467156757" lon="9.260259429376623"><ele>87.0</ele><time>2026-04-10T10:45:17.999Z</time></trkpt><trkpt lat="45.31297521154249" lon="9.26032736024472"><ele>87.0</ele><time>2026-04-10T10:45:18.999Z</time></trkpt><trkpt lat="45.31291125642191" lon="9.260387302759515"><ele>87.0</ele><time>2026-04-10T10:45:19.999Z</time></trkpt><trkpt lat="45.31284505819393" lon="9.260450011931521"><ele>87.0</ele><time>2026-04-10T10:45:20.999Z</time></trkpt><trkpt lat="45.312784822889554" lon="9.260508015104616"><ele>87.19999999999999</ele><time>2026-04-10T10:45:21.999Z</time></trkpt><trkpt lat="45.31268076312557" lon="9.260609597416412"><ele>87.4</ele><time>2026-04-10T10:45:23.998Z</time></trkpt><trkpt lat="45.31261189673285" lon="9.260671661283471"><ele>87.6</ele><time>2026-04-10T10:45:24.998Z</time></trkpt><trkpt lat="45.312541714449345" lon="9.260734925541094"><ele>87.80000000000001</ele><time>2026-04-10T10:45:25.998Z</time></trkpt><trkpt lat="45.31247344930768" lon="9.260805363056434"><ele>88.0</ele><time>2026-04-10T10:45:26.998Z</time></trkpt><trkpt lat="45.312412942558645" lon="9.260866878484437"><ele>88.0</ele><time>2026-04-10T10:45:27.998Z</time></trkpt><trkpt lat="45.312356910851754" lon="9.260922142055145"><ele>88.0</ele><time>2026-04-10T10:45:28.998Z</time></trkpt><trkpt lat="45.312269263620614" lon="9.261009852216448"><ele>88.0</ele><time>2026-04-10T10:45:30.998Z</time></trkpt><trkpt lat="45.312188576629005" lon="9.261092770385634"><ele>88.0</ele><time>2026-04-10T10:45:32.998Z</time></trkpt><trkpt lat="45.31210496583613" lon="9.26117320512744"><ele>88.0</ele><time>2026-04-10T10:45:34.998Z</time></trkpt><trkpt lat="45.3120278450695" lon="9.261267170012728"><ele>88.0</ele><time>2026-04-10T10:45:36.998Z</time></trkpt><trkpt lat="45.31193276615288" lon="9.261382670062272"><ele>88.0</ele><time>2026-04-10T10:45:38.998Z</time></trkpt><trkpt lat="45.31185625669094" lon="9.261440760781381"><ele>88.0</ele><time>2026-04-10T10:45:39.998Z</time></trkpt><trkpt lat="45.311756669178344" lon="9.261517320179115"><ele>88.0</ele><time>2026-04-10T10:45:40.998Z</time></trkpt><trkpt lat="45.311637829329406" lon="9.261617738938227"><ele>88.25</ele><time>2026-04-10T10:45:41.998Z</time></trkpt><trkpt lat="45.31151500068285" lon="9.26172137945155"><ele>88.5</ele><time>2026-04-10T10:45:42.998Z</time></trkpt><trkpt lat="45.31139395219579" lon="9.261825331036253"><ele>88.75</ele><time>2026-04-10T10:45:43.998Z</time></trkpt><trkpt lat="45.311288130441106" lon="9.261914469181965"><ele>89.0</ele><time>2026-04-10T10:45:44.998Z</time></trkpt><trkpt lat="45.31119536773181" lon="9.261986513325226"><ele>89.0</ele><time>2026-04-10T10:45:45.998Z</time></trkpt><trkpt lat="45.3111143753728" lon="9.262056187435174"><ele>89.0</ele><time>2026-04-10T10:45:46.998Z</time></trkpt><trkpt lat="45.31103694888109" lon="9.262122025860712"><ele>89.0</ele><time>2026-04-10T10:45:47.998Z</time></trkpt><trkpt lat="45.31095956877754" lon="9.26217605532503"><ele>89.0</ele><time>2026-04-10T10:45:48.998Z</time></trkpt><trkpt lat="45.31087281273546" lon="9.262243614264428"><ele>89.0</ele><time>2026-04-10T10:45:49.998Z</time></trkpt><trkpt lat="45.31078173600459" lon="9.262327936729383"><ele>88.5</ele><time>2026-04-10T10:45:50.998Z</time></trkpt><trkpt lat="45.31066705457744" lon="9.262442188212049"><ele>88.0</ele><time>2026-04-10T10:45:51.998Z</time></trkpt><trkpt lat="45.31054880759895" lon="9.262555080852115"><ele>87.5</ele><time>2026-04-10T10:45:52.998Z</time></trkpt><trkpt lat="45.31045158559199" lon="9.262652425617981"><ele>87.0</ele><time>2026-04-10T10:45:53.998Z</time></trkpt><trkpt lat="45.31035781095181" lon="9.262721857216032"><ele>87.0</ele><time>2026-04-10T10:45:54.998Z</time></trkpt><trkpt lat="45.31027924960442" lon="9.26278015734006"><ele>87.0</ele><time>2026-04-10T10:45:55.998Z</time></trkpt><trkpt lat="45.31024992623294" lon="9.262870800604933"><ele>87.0</ele><time>2026-04-10T10:45:56.998Z</time></trkpt><trkpt lat="45.310269838457984" lon="9.263047320935794"><ele>87.0</ele><time>2026-04-10T10:45:57.998Z</time></trkpt><trkpt lat="45.3102801080688" lon="9.263213203867412"><ele>87.0</ele><time>2026-04-10T10:45:58.998Z</time></trkpt><trkpt lat="45.310272282207904" lon="9.263393411842461"><ele>87.19999999999999</ele><time>2026-04-10T10:45:59.998Z</time></trkpt><trkpt lat="45.31025115284689" lon="9.263549608129564"><ele>87.4</ele><time>2026-04-10T10:46:00.998Z</time></trkpt><trkpt lat="45.310224137617915" lon="9.26368584217908"><ele>87.6</ele><time>2026-04-10T10:46:01.998Z</time></trkpt><trkpt lat="45.31019275290265" lon="9.26383207095989"><ele>87.80000000000001</ele><time>2026-04-10T10:46:02.998Z</time></trkpt><trkpt lat="45.310160963079596" lon="9.26400172735485"><ele>88.0</ele><time>2026-04-10T10:46:03.998Z</time></trkpt><trkpt lat="45.31011929465488" lon="9.2641816816799"><ele>88.0</ele><time>2026-04-10T10:46:04.998Z</time></trkpt><trkpt lat="45.310079544286424" lon="9.2643473539644"><ele>88.0</ele><time>2026-04-10T10:46:05.998Z</time></trkpt><trkpt lat="45.310028718726045" lon="9.264506907751437"><ele>88.0</ele><time>2026-04-10T10:46:06.998Z</time></trkpt><trkpt lat="45.309963261348464" lon="9.264666731348715"><ele>88.0</ele><time>2026-04-10T10:46:07.998Z</time></trkpt><trkpt lat="45.30988468488178" lon="9.264810268657472"><ele>88.0</ele><time>2026-04-10T10:46:08.998Z</time></trkpt><trkpt lat="45.30979368254632" lon="9.264937982761403"><ele>88.0</ele><time>2026-04-10T10:46:10Z</time></trkpt><trkpt lat="45.309689256462775" lon="9.265054456100575"><ele>88.0</ele><time>2026-04-10T10:46:11Z</time></trkpt><trkpt lat="45.30959017571741" lon="9.265154727156721"><ele>88.0</ele><time>2026-04-10T10:46:12Z</time></trkpt><trkpt lat="45.309502599510076" lon="9.265236370572394"><ele>88.0</ele><time>2026-04-10T10:46:13Z</time></trkpt><trkpt lat="45.30941742654805" lon="9.265314928566207"><ele>88.0</ele><time>2026-04-10T10:46:14Z</time></trkpt><trkpt lat="45.309332452891276" lon="9.265398681687426"><ele>88.0</ele><time>2026-04-10T10:46:15Z</time></trkpt><trkpt lat="45.309233821148204" lon="9.265488030575815"><ele>88.0</ele><time>2026-04-10T10:46:16Z</time></trkpt><trkpt lat="45.30914521201503" lon="9.265570545004222"><ele>88.0</ele><time>2026-04-10T10:46:17Z</time></trkpt><trkpt lat="45.30906783460666" lon="9.265649769085659"><ele>88.0</ele><time>2026-04-10T10:46:18Z</time></trkpt><trkpt lat="45.30898333905229" lon="9.265734239721791"><ele>88.0</ele><time>2026-04-10T10:46:19Z</time></trkpt><trkpt lat="45.30889677163645" lon="9.265822129164372"><ele>88.0</ele><time>2026-04-10T10:46:20Z</time></trkpt><trkpt lat="45.30880899142441" lon="9.265919834818824"><ele>88.0</ele><time>2026-04-10T10:46:21Z</time></trkpt><trkpt lat="45.30872688659576" lon="9.266021236494359"><ele>88.0</ele><time>2026-04-10T10:46:22Z</time></trkpt><trkpt lat="45.30865487901021" lon="9.26612108023256"><ele>88.0</ele><time>2026-04-10T10:46:23Z</time></trkpt><trkpt lat="45.30858752302803" lon="9.266224527836076"><ele>88.0</ele><time>2026-04-10T10:46:24Z</time></trkpt><trkpt lat="45.308531685883715" lon="9.266313999872601"><ele>88.0</ele><time>2026-04-10T10:46:25Z</time></trkpt><trkpt lat="45.30848225905539" lon="9.266394474870394"><ele>88.0</ele><time>2026-04-10T10:46:26Z</time></trkpt><trkpt lat="45.30840500172176" lon="9.266526599679601"><ele>88.0</ele><time>2026-04-10T10:46:28Z</time></trkpt><trkpt lat="45.30833939792054" lon="9.26664365371547"><ele>87.80000000000001</ele><time>2026-04-10T10:46:30Z</time></trkpt><trkpt lat="45.30828685397596" lon="9.266746545266132"><ele>87.6</ele><time>2026-04-10T10:46:31.999Z</time></trkpt><trkpt lat="45.308241540981314" lon="9.266853929719666"><ele>87.4</ele><time>2026-04-10T10:46:33.999Z</time></trkpt><trkpt lat="45.30819813515238" lon="9.26698012751074"><ele>87.19999999999999</ele><time>2026-04-10T10:46:35.999Z</time></trkpt><trkpt lat="45.308160248937206" lon="9.267094694923463"><ele>87.0</ele><time>2026-04-10T10:46:37.999Z</time></trkpt><trkpt lat="45.30812355736131" lon="9.267211526799471"><ele>87.0</ele><time>2026-04-10T10:46:39.999Z</time></trkpt><trkpt lat="45.308083208364984" lon="9.267323926459294"><ele>87.0</ele><time>2026-04-10T10:46:41.999Z</time></trkpt><trkpt lat="45.308042708627546" lon="9.267437801370088"><ele>87.0</ele><time>2026-04-10T10:46:43.999Z</time></trkpt><trkpt lat="45.30800509188824" lon="9.267550493683332"><ele>87.0</ele><time>2026-04-10T10:46:45.999Z</time></trkpt><trkpt lat="45.30796724495797" lon="9.26766725523887"><ele>87.0</ele><time>2026-04-10T10:46:47.999Z</time></trkpt><trkpt lat="45.307930874364345" lon="9.26777972545992"><ele>87.0</ele><time>2026-04-10T10:46:49.999Z</time></trkpt><trkpt lat="45.30788876573173" lon="9.267887030346644"><ele>87.0</ele><time>2026-04-10T10:46:51.999Z</time></trkpt><trkpt lat="45.30784201090821" lon="9.26798355934936"><ele>87.0</ele><time>2026-04-10T10:46:53.999Z</time></trkpt><trkpt lat="45.307799553322546" lon="9.268077516531612"><ele>87.0</ele><time>2026-04-10T10:46:55.999Z</time></trkpt><trkpt lat="45.307754334686244" lon="9.268149164172769"><ele>87.0</ele><time>2026-04-10T10:46:57.999Z</time></trkpt><trkpt lat="45.3076468186109" lon="9.268201395950294"><ele>87.0</ele><time>2026-04-10T10:47:18.999Z</time></trkpt><trkpt lat="45.30751795234135" lon="9.268180395744409"><ele>87.0</ele><time>2026-04-10T10:47:20.999Z</time></trkpt><trkpt lat="45.307448924330494" lon="9.268131390933055"><ele>87.0</ele><time>2026-04-10T10:47:21.999Z</time></trkpt><trkpt lat="45.307376192352244" lon="9.268094736824017"><ele>87.0</ele><time>2026-04-10T10:47:22.999Z</time></trkpt><trkpt lat="45.307327666461575" lon="9.267981468250852"><ele>87.0</ele><time>2026-04-10T10:47:23.999Z</time></trkpt><trkpt lat="45.307272380210534" lon="9.267893268780067"><ele>87.0</ele><time>2026-04-10T10:47:24.999Z</time></trkpt><trkpt lat="45.30721619451088" lon="9.267795519123704"><ele>87.0</ele><time>2026-04-10T10:47:25.999Z</time></trkpt><trkpt lat="45.307160759928806" lon="9.267701328086236"><ele>87.0</ele><time>2026-04-10T10:47:26.999Z</time></trkpt><trkpt lat="45.307102109444564" lon="9.267598501007981"><ele>87.0</ele><time>2026-04-10T10:47:27.999Z</time></trkpt><trkpt lat="45.30703469837342" lon="9.267484698658185"><ele>87.0</ele><time>2026-04-10T10:47:28.999Z</time></trkpt><trkpt lat="45.30696426628135" lon="9.267369087313492"><ele>87.0</ele><time>2026-04-10T10:47:29.999Z</time></trkpt><trkpt lat="45.30690057181353" lon="9.267257114676392"><ele>87.0</ele><time>2026-04-10T10:47:30.999Z</time></trkpt><trkpt lat="45.30683403018016" lon="9.267141342291794"><ele>87.0</ele><time>2026-04-10T10:47:31.998Z</time></trkpt><trkpt lat="45.30676286324325" lon="9.267021315259564"><ele>87.0</ele><time>2026-04-10T10:47:32.998Z</time></trkpt><trkpt lat="45.30668716055654" lon="9.266901960072493"><ele>87.0</ele><time>2026-04-10T10:47:33.998Z</time></trkpt><trkpt lat="45.30661697873848" lon="9.266782580176143"><ele>87.0</ele><time>2026-04-10T10:47:34.998Z</time></trkpt><trkpt lat="45.30654641876243" lon="9.266659599538416"><ele>87.0</ele><time>2026-04-10T10:47:35.998Z</time></trkpt><trkpt lat="45.30647128153549" lon="9.266532127440682"><ele>86.5</ele><time>2026-04-10T10:47:36.998Z</time></trkpt><trkpt lat="45.306390127420016" lon="9.266403238482267"><ele>86.0</ele><time>2026-04-10T10:47:37.998Z</time></trkpt><trkpt lat="45.30630989264745" lon="9.266269999065115"><ele>85.5</ele><time>2026-04-10T10:47:38.998Z</time></trkpt><trkpt lat="45.30623210341962" lon="9.266139606821088"><ele>85.0</ele><time>2026-04-10T10:47:39.998Z</time></trkpt><trkpt lat="45.30615267326718" lon="9.266023009531317"><ele>85.0</ele><time>2026-04-10T10:47:40.998Z</time></trkpt><trkpt lat="45.30608530686555" lon="9.26587451055534"><ele>85.0</ele><time>2026-04-10T10:47:41.998Z</time></trkpt><trkpt lat="45.306002352555254" lon="9.265733687978136"><ele>85.0</ele><time>2026-04-10T10:47:42.998Z</time></trkpt><trkpt lat="45.30591401631468" lon="9.265600773664284"><ele>85.0</ele><time>2026-04-10T10:47:43.998Z</time></trkpt><trkpt lat="45.30582688192232" lon="9.26545105761186"><ele>85.0</ele><time>2026-04-10T10:47:44.998Z</time></trkpt><trkpt lat="45.305737260066905" lon="9.265298018162238"><ele>85.0</ele><time>2026-04-10T10:47:45.998Z</time></trkpt><trkpt lat="45.305649765350594" lon="9.2651508139965"><ele>85.0</ele><time>2026-04-10T10:47:46.998Z</time></trkpt><trkpt lat="45.30556859914546" lon="9.265013105224034"><ele>85.0</ele><time>2026-04-10T10:47:47.998Z</time></trkpt><trkpt lat="45.305492905380035" lon="9.26488244240687"><ele>84.75</ele><time>2026-04-10T10:47:48.998Z</time></trkpt><trkpt lat="45.30542312259005" lon="9.26476296777742"><ele>84.5</ele><time>2026-04-10T10:47:49.998Z</time></trkpt><trkpt lat="45.30536844618905" lon="9.264670199593303"><ele>84.25</ele><time>2026-04-10T10:47:50.998Z</time></trkpt><trkpt lat="45.30531872362565" lon="9.264567561618065"><ele>84.0</ele><time>2026-04-10T10:47:52.998Z</time></trkpt><trkpt lat="45.30528637467998" lon="9.264819515889371"><ele>83.6</ele><time>2026-04-10T10:47:56.998Z</time></trkpt><trkpt lat="45.305306721066614" lon="9.264945224513067"><ele>83.2</ele><time>2026-04-10T10:47:57.998Z</time></trkpt><trkpt lat="45.30529836265657" lon="9.265099905007029"><ele>82.8</ele><time>2026-04-10T10:47:58.998Z</time></trkpt><trkpt lat="45.30526359334568" lon="9.265245031412906"><ele>82.39999999999999</ele><time>2026-04-10T10:47:59.998Z</time></trkpt><trkpt lat="45.30520439618872" lon="9.26538987131591"><ele>82.0</ele><time>2026-04-10T10:48:00.998Z</time></trkpt><trkpt lat="45.30511842480072" lon="9.265522298532947"><ele>82.5</ele><time>2026-04-10T10:48:01.998Z</time></trkpt><trkpt lat="45.3050091519912" lon="9.265624436739717"><ele>83.0</ele><time>2026-04-10T10:48:02.998Z</time></trkpt><trkpt lat="45.304883380943764" lon="9.265692954133018"><ele>83.5</ele><time>2026-04-10T10:48:03.998Z</time></trkpt><trkpt lat="45.30475442347863" lon="9.265746033380514"><ele>84.0</ele><time>2026-04-10T10:48:04.998Z</time></trkpt><trkpt lat="45.304630777794586" lon="9.265806148563366"><ele>84.25</ele><time>2026-04-10T10:48:05.998Z</time></trkpt><trkpt lat="45.304497261397906" lon="9.26587736757229"><ele>84.5</ele><time>2026-04-10T10:48:06.998Z</time></trkpt><trkpt lat="45.30435412551623" lon="9.265950478812995"><ele>84.75</ele><time>2026-04-10T10:48:07.998Z</time></trkpt><trkpt lat="45.30421747670223" lon="9.266015154143282"><ele>85.0</ele><time>2026-04-10T10:48:08.998Z</time></trkpt><trkpt lat="45.3041077478481" lon="9.266063721599682"><ele>85.0</ele><time>2026-04-10T10:48:09.998Z</time></trkpt><trkpt lat="45.304017741518315" lon="9.266104702643732"><ele>85.0</ele><time>2026-04-10T10:48:10.998Z</time></trkpt><trkpt lat="45.303943873495115" lon="9.266141227810737"><ele>85.0</ele><time>2026-04-10T10:48:11.998Z</time></trkpt><trkpt lat="45.30387389343396" lon="9.266146706451325"><ele>85.0</ele><time>2026-04-10T10:48:12.998Z</time></trkpt><trkpt lat="45.303797685741685" lon="9.266175054037637"><ele>85.0</ele><time>2026-04-10T10:48:13.998Z</time></trkpt><trkpt lat="45.303713064750546" lon="9.266206275594106"><ele>85.0</ele><time>2026-04-10T10:48:14.998Z</time></trkpt><trkpt lat="45.30361833025945" lon="9.26624116086607"><ele>84.8</ele><time>2026-04-10T10:48:16Z</time></trkpt><trkpt lat="45.3035238264975" lon="9.2662958715183"><ele>84.6</ele><time>2026-04-10T10:48:17Z</time></trkpt><trkpt lat="45.303424393088356" lon="9.266326970555474"><ele>84.4</ele><time>2026-04-10T10:48:18Z</time></trkpt><trkpt lat="45.303328962576025" lon="9.266361287690632"><ele>84.2</ele><time>2026-04-10T10:48:19Z</time></trkpt><trkpt lat="45.303226882838125" lon="9.266403023301459"><ele>84.0</ele><time>2026-04-10T10:48:20Z</time></trkpt><trkpt lat="45.303117255126395" lon="9.266434947548738"><ele>84.2</ele><time>2026-04-10T10:48:21Z</time></trkpt><trkpt lat="45.303004989178596" lon="9.266468171230793"><ele>84.4</ele><time>2026-04-10T10:48:22Z</time></trkpt><trkpt lat="45.302893069256044" lon="9.266511136862784"><ele>84.6</ele><time>2026-04-10T10:48:23Z</time></trkpt><trkpt lat="45.302786301430935" lon="9.266558628737243"><ele>84.8</ele><time>2026-04-10T10:48:24Z</time></trkpt><trkpt lat="45.30268552367217" lon="9.2666038445236"><ele>85.0</ele><time>2026-04-10T10:48:25Z</time></trkpt><trkpt lat="45.30258846873104" lon="9.266649368238456"><ele>85.0</ele><time>2026-04-10T10:48:26Z</time></trkpt><trkpt lat="45.30248351950907" lon="9.266702413531895"><ele>85.0</ele><time>2026-04-10T10:48:27Z</time></trkpt><trkpt lat="45.30238156168862" lon="9.266760103685938"><ele>85.0</ele><time>2026-04-10T10:48:28Z</time></trkpt><trkpt lat="45.30228108106288" lon="9.266813178082499"><ele>85.0</ele><time>2026-04-10T10:48:29Z</time></trkpt><trkpt lat="45.30217870699304" lon="9.266863275859777"><ele>85.0</ele><time>2026-04-10T10:48:30Z</time></trkpt><trkpt lat="45.3020728596219" lon="9.26691560963265"><ele>84.75</ele><time>2026-04-10T10:48:31Z</time></trkpt><trkpt lat="45.301963076761744" lon="9.266964493856383"><ele>84.5</ele><time>2026-04-10T10:48:32Z</time></trkpt><trkpt lat="45.30185017917415" lon="9.267008535073186"><ele>84.25</ele><time>2026-04-10T10:48:33Z</time></trkpt><trkpt lat="45.30173926893483" lon="9.267057498181945"><ele>84.0</ele><time>2026-04-10T10:48:34Z</time></trkpt><trkpt lat="45.30162675477654" lon="9.267117891356797"><ele>84.0</ele><time>2026-04-10T10:48:35Z</time></trkpt><trkpt lat="45.30150995446655" lon="9.267165258224164"><ele>84.0</ele><time>2026-04-10T10:48:36Z</time></trkpt><trkpt lat="45.30138713307835" lon="9.267208601563642"><ele>84.0</ele><time>2026-04-10T10:48:37Z</time></trkpt><trkpt lat="45.301267264918" lon="9.267251497621963"><ele>84.0</ele><time>2026-04-10T10:48:38Z</time></trkpt><trkpt lat="45.30115260883885" lon="9.267290009230347"><ele>84.25</ele><time>2026-04-10T10:48:38.999Z</time></trkpt><trkpt lat="45.30104034319998" lon="9.267319543798896"><ele>84.5</ele><time>2026-04-10T10:48:39.999Z</time></trkpt><trkpt lat="45.30092572785944" lon="9.267357539688321"><ele>84.75</ele><time>2026-04-10T10:48:40.999Z</time></trkpt><trkpt lat="45.300810605464655" lon="9.267392428528254"><ele>85.0</ele><time>2026-04-10T10:48:41.999Z</time></trkpt><trkpt lat="45.3006878006984" lon="9.267428045191414"><ele>84.5</ele><time>2026-04-10T10:48:42.999Z</time></trkpt><trkpt lat="45.30056001381497" lon="9.267467304871682"><ele>84.0</ele><time>2026-04-10T10:48:43.999Z</time></trkpt><trkpt lat="45.300438110044745" lon="9.267502435223077"><ele>83.5</ele><time>2026-04-10T10:48:44.999Z</time></trkpt><trkpt lat="45.30032488318676" lon="9.26753600836991"><ele>83.0</ele><time>2026-04-10T10:48:45.999Z</time></trkpt><trkpt lat="45.30023101547812" lon="9.267562296737847"><ele>83.0</ele><time>2026-04-10T10:48:46.999Z</time></trkpt><trkpt lat="45.30015739980841" lon="9.267585196686767"><ele>83.0</ele><time>2026-04-10T10:48:47.999Z</time></trkpt><trkpt lat="45.300053464383915" lon="9.267617074286271"><ele>83.0</ele><time>2026-04-10T10:48:49.999Z</time></trkpt><trkpt lat="45.29992316115889" lon="9.267659350629378"><ele>83.0</ele><time>2026-04-10T10:48:51.999Z</time></trkpt><trkpt lat="45.29983899618864" lon="9.267688503587449"><ele>83.0</ele><time>2026-04-10T10:48:52.999Z</time></trkpt><trkpt lat="45.29975561982018" lon="9.26769174832241"><ele>83.2</ele><time>2026-04-10T10:48:53.999Z</time></trkpt><trkpt lat="45.299670264495106" lon="9.267713023613657"><ele>83.4</ele><time>2026-04-10T10:48:54.999Z</time></trkpt><trkpt lat="45.29958526860598" lon="9.267732755916459"><ele>83.60000000000001</ele><time>2026-04-10T10:48:55.999Z</time></trkpt><trkpt lat="45.29949406390145" lon="9.267753937203485"><ele>83.80000000000001</ele><time>2026-04-10T10:48:56.999Z</time></trkpt><trkpt lat="45.29940331408009" lon="9.267775017288608"><ele>84.0</ele><time>2026-04-10T10:48:57.999Z</time></trkpt><trkpt lat="45.29930981729859" lon="9.267796735436914"><ele>84.0</ele><time>2026-04-10T10:48:58.999Z</time></trkpt><trkpt lat="45.29921657623854" lon="9.26781839420173"><ele>84.0</ele><time>2026-04-10T10:48:59.999Z</time></trkpt><trkpt lat="45.29911440791221" lon="9.267842176955114"><ele>84.0</ele><time>2026-04-10T10:49:00.999Z</time></trkpt><trkpt lat="45.29901548830664" lon="9.267865228468997"><ele>84.0</ele><time>2026-04-10T10:49:01.999Z</time></trkpt><trkpt lat="45.29892097237313" lon="9.267887253766236"><ele>84.0</ele><time>2026-04-10T10:49:02.999Z</time></trkpt><trkpt lat="45.29881816818035" lon="9.267911161688763"><ele>84.0</ele><time>2026-04-10T10:49:03.999Z</time></trkpt><trkpt lat="45.298714403873674" lon="9.267935263929644"><ele>84.0</ele><time>2026-04-10T10:49:04.999Z</time></trkpt><trkpt lat="45.29860939455299" lon="9.267959655402885"><ele>84.0</ele><time>2026-04-10T10:49:05.999Z</time></trkpt><trkpt lat="45.298505171304534" lon="9.267983864258468"><ele>84.0</ele><time>2026-04-10T10:49:06.999Z</time></trkpt><trkpt lat="45.298394071796" lon="9.268010000625013"><ele>84.0</ele><time>2026-04-10T10:49:07.999Z</time></trkpt><trkpt lat="45.29828779965678" lon="9.26803531559193"><ele>84.0</ele><time>2026-04-10T10:49:08.999Z</time></trkpt><trkpt lat="45.298176398424516" lon="9.26806185236797"><ele>84.0</ele><time>2026-04-10T10:49:09.999Z</time></trkpt><trkpt lat="45.298058752000465" lon="9.268090013021798"><ele>84.0</ele><time>2026-04-10T10:49:10.999Z</time></trkpt><trkpt lat="45.29793223929598" lon="9.268121423054838"><ele>84.0</ele><time>2026-04-10T10:49:11.999Z</time></trkpt><trkpt lat="45.29780667737901" lon="9.268152597049077"><ele>84.0</ele><time>2026-04-10T10:49:12.999Z</time></trkpt><trkpt lat="45.29768115834437" lon="9.268183155038686"><ele>84.0</ele><time>2026-04-10T10:49:13.999Z</time></trkpt><trkpt lat="45.29754754215676" lon="9.268213449850492"><ele>84.0</ele><time>2026-04-10T10:49:14.999Z</time></trkpt><trkpt lat="45.297413400231946" lon="9.268242062233659"><ele>84.0</ele><time>2026-04-10T10:49:15.999Z</time></trkpt><trkpt lat="45.297294827134515" lon="9.268266953116404"><ele>84.0</ele><time>2026-04-10T10:49:16.999Z</time></trkpt><trkpt lat="45.29717957501702" lon="9.268291146885133"><ele>84.0</ele><time>2026-04-10T10:49:17.999Z</time></trkpt><trkpt lat="45.297058523583416" lon="9.268320339734242"><ele>84.0</ele><time>2026-04-10T10:49:18.999Z</time></trkpt><trkpt lat="45.296936547166894" lon="9.268350612939336"><ele>84.0</ele><time>2026-04-10T10:49:19.999Z</time></trkpt><trkpt lat="45.29681640258088" lon="9.268380431483372"><ele>84.0</ele><time>2026-04-10T10:49:20.999Z</time></trkpt><trkpt lat="45.296698819505316" lon="9.26840684958874"><ele>84.0</ele><time>2026-04-10T10:49:21.999Z</time></trkpt><trkpt lat="45.29658616971887" lon="9.268429145362719"><ele>84.0</ele><time>2026-04-10T10:49:22.999Z</time></trkpt><trkpt lat="45.296469789199165" lon="9.268448711529489"><ele>84.0</ele><time>2026-04-10T10:49:23.999Z</time></trkpt><trkpt lat="45.29635623134163" lon="9.268466051196391"><ele>84.0</ele><time>2026-04-10T10:49:24.999Z</time></trkpt><trkpt lat="45.2962432581681" lon="9.268481222238574"><ele>84.0</ele><time>2026-04-10T10:49:25.999Z</time></trkpt><trkpt lat="45.29612768758199" lon="9.268496368186268"><ele>84.0</ele><time>2026-04-10T10:49:26.999Z</time></trkpt><trkpt lat="45.296016451966395" lon="9.268510945998152"><ele>84.0</ele><time>2026-04-10T10:49:27.999Z</time></trkpt><trkpt lat="45.29590818922301" lon="9.26852513500159"><ele>84.0</ele><time>2026-04-10T10:49:28.999Z</time></trkpt><trkpt lat="45.29580970614333" lon="9.268538955484917"><ele>84.0</ele><time>2026-04-10T10:49:29.999Z</time></trkpt><trkpt lat="45.295718739724045" lon="9.268552289133385"><ele>84.0</ele><time>2026-04-10T10:49:30.999Z</time></trkpt><trkpt lat="45.29562813983795" lon="9.268567632237406"><ele>84.0</ele><time>2026-04-10T10:49:31.999Z</time></trkpt><trkpt lat="45.29553268185534" lon="9.268585500131207"><ele>84.0</ele><time>2026-04-10T10:49:32.999Z</time></trkpt><trkpt lat="45.29543463828707" lon="9.268603867424531"><ele>84.0</ele><time>2026-04-10T10:49:33.999Z</time></trkpt><trkpt lat="45.29534041381724" lon="9.268621337705792"><ele>84.0</ele><time>2026-04-10T10:49:34.999Z</time></trkpt><trkpt lat="45.29524360652237" lon="9.268637760748307"><ele>84.0</ele><time>2026-04-10T10:49:35.998Z</time></trkpt><trkpt lat="45.295147722880984" lon="9.268651587023873"><ele>84.0</ele><time>2026-04-10T10:49:36.998Z</time></trkpt><trkpt lat="45.295049326179054" lon="9.268663414332218"><ele>84.0</ele><time>2026-04-10T10:49:37.998Z</time></trkpt><trkpt lat="45.29495805737447" lon="9.268670924409511"><ele>84.0</ele><time>2026-04-10T10:49:38.998Z</time></trkpt><trkpt lat="45.29485627019951" lon="9.268672776765383"><ele>84.0</ele><time>2026-04-10T10:49:39.998Z</time></trkpt><trkpt lat="45.294759119335495" lon="9.268659366395594"><ele>84.0</ele><time>2026-04-10T10:49:40.998Z</time></trkpt><trkpt lat="45.29465102955025" lon="9.2686311979612"><ele>84.0</ele><time>2026-04-10T10:49:41.998Z</time></trkpt><trkpt lat="45.29454408826456" lon="9.26860345588802"><ele>84.0</ele><time>2026-04-10T10:49:42.998Z</time></trkpt><trkpt lat="45.294450533737596" lon="9.268576891232446"><ele>84.0</ele><time>2026-04-10T10:49:43.998Z</time></trkpt><trkpt lat="45.29437197487443" lon="9.268545681589838"><ele>84.0</ele><time>2026-04-10T10:49:44.998Z</time></trkpt><trkpt lat="45.294307054224646" lon="9.26850908541035"><ele>84.0</ele><time>2026-04-10T10:49:45.998Z</time></trkpt><trkpt lat="45.29424846242812" lon="9.268457974149202"><ele>84.0</ele><time>2026-04-10T10:49:46.998Z</time></trkpt><trkpt lat="45.29419325971752" lon="9.268373433414675"><ele>84.0</ele><time>2026-04-10T10:49:47.998Z</time></trkpt><trkpt lat="45.29417662090973" lon="9.268248756231543"><ele>84.0</ele><time>2026-04-10T10:49:48.998Z</time></trkpt><trkpt lat="45.294140278241876" lon="9.268110842618151"><ele>83.75</ele><time>2026-04-10T10:49:49.998Z</time></trkpt><trkpt lat="45.29410472554822" lon="9.267961045429397"><ele>83.5</ele><time>2026-04-10T10:49:50.998Z</time></trkpt><trkpt lat="45.29406798254452" lon="9.267800993538575"><ele>83.25</ele><time>2026-04-10T10:49:51.998Z</time></trkpt><trkpt lat="45.29403045285532" lon="9.267637514813778"><ele>83.0</ele><time>2026-04-10T10:49:52.998Z</time></trkpt><trkpt lat="45.29399170775562" lon="9.267468741896854"><ele>83.0</ele><time>2026-04-10T10:49:53.998Z</time></trkpt><trkpt lat="45.29395400714259" lon="9.267304518657909"><ele>83.0</ele><time>2026-04-10T10:49:54.998Z</time></trkpt><trkpt lat="45.29392050798508" lon="9.267158597450827"><ele>83.0</ele><time>2026-04-10T10:49:55.998Z</time></trkpt><trkpt lat="45.2938915584146" lon="9.26703091489912"><ele>83.0</ele><time>2026-04-10T10:49:56.998Z</time></trkpt><trkpt lat="45.293855515074895" lon="9.266916066107397"><ele>83.0</ele><time>2026-04-10T10:49:57.998Z</time></trkpt><trkpt lat="45.29383439092667" lon="9.266819152280677"><ele>83.16666666666667</ele><time>2026-04-10T10:49:58.998Z</time></trkpt><trkpt lat="45.29380360674437" lon="9.266731959272436"><ele>83.33333333333334</ele><time>2026-04-10T10:49:59.998Z</time></trkpt><trkpt lat="45.29377559897884" lon="9.266644321997685"><ele>83.5</ele><time>2026-04-10T10:50:00.998Z</time></trkpt><trkpt lat="45.29371545293474" lon="9.266581947606786"><ele>83.66666666666667</ele><time>2026-04-10T10:50:01.998Z</time></trkpt><trkpt lat="45.293628185311455" lon="9.266578882110947"><ele>83.83333333333333</ele><time>2026-04-10T10:50:02.998Z</time></trkpt><trkpt lat="45.293542427461844" lon="9.26657589837912"><ele>84.0</ele><time>2026-04-10T10:50:03.998Z</time></trkpt><trkpt lat="45.29345259079592" lon="9.266599089982773"><ele>84.0</ele><time>2026-04-10T10:50:04.998Z</time></trkpt><trkpt lat="45.29336010222615" lon="9.266642911756481"><ele>84.0</ele><time>2026-04-10T10:50:05.998Z</time></trkpt><trkpt lat="45.29326412675497" lon="9.266671407389131"><ele>84.0</ele><time>2026-04-10T10:50:06.998Z</time></trkpt><trkpt lat="45.29316436400731" lon="9.2667146654486"><ele>84.0</ele><time>2026-04-10T10:50:07.998Z</time></trkpt><trkpt lat="45.293067824759234" lon="9.266754473837349"><ele>84.0</ele><time>2026-04-10T10:50:08.998Z</time></trkpt><trkpt lat="45.292960527174856" lon="9.26679754103801"><ele>84.25</ele><time>2026-04-10T10:50:09.998Z</time></trkpt><trkpt lat="45.29284401812392" lon="9.26684289649202"><ele>84.5</ele><time>2026-04-10T10:50:10.998Z</time></trkpt><trkpt lat="45.29272791359893" lon="9.266888094516746"><ele>84.75</ele><time>2026-04-10T10:50:11.998Z</time></trkpt><trkpt lat="45.29261314967273" lon="9.266929028821073"><ele>85.0</ele><time>2026-04-10T10:50:12.998Z</time></trkpt><trkpt lat="45.29251041857467" lon="9.266962573670344"><ele>85.0</ele><time>2026-04-10T10:50:13.998Z</time></trkpt><trkpt lat="45.292425551852446" lon="9.266997087330266"><ele>85.0</ele><time>2026-04-10T10:50:14.998Z</time></trkpt><trkpt lat="45.29235397387574" lon="9.267017062769046"><ele>85.0</ele><time>2026-04-10T10:50:15.998Z</time></trkpt><trkpt lat="45.29228923258849" lon="9.26700035240872"><ele>85.0</ele><time>2026-04-10T10:50:16.998Z</time></trkpt><trkpt lat="45.292214083817065" lon="9.267007010023379"><ele>85.0</ele><time>2026-04-10T10:50:17.998Z</time></trkpt><trkpt lat="45.292136706408805" lon="9.267027722485858"><ele>85.0</ele><time>2026-04-10T10:50:18.998Z</time></trkpt><trkpt lat="45.29205646937396" lon="9.267101325260654"><ele>84.6</ele><time>2026-04-10T10:50:19.998Z</time></trkpt><trkpt lat="45.291929769227195" lon="9.26716982680104"><ele>84.2</ele><time>2026-04-10T10:50:22Z</time></trkpt><trkpt lat="45.291863130064996" lon="9.267205855856798"><ele>83.80000000000001</ele><time>2026-04-10T10:50:23Z</time></trkpt><trkpt lat="45.2917520754892" lon="9.267265898478657"><ele>83.4</ele><time>2026-04-10T10:50:25Z</time></trkpt><trkpt lat="45.29164752938664" lon="9.267322377991746"><ele>83.0</ele><time>2026-04-10T10:50:27Z</time></trkpt><trkpt lat="45.29154114543269" lon="9.267379540034929"><ele>83.0</ele><time>2026-04-10T10:50:29Z</time></trkpt><trkpt lat="45.29143829021158" lon="9.267434806029458"><ele>83.0</ele><time>2026-04-10T10:50:31Z</time></trkpt><trkpt lat="45.29133720006921" lon="9.2674898566005"><ele>83.0</ele><time>2026-04-10T10:50:33Z</time></trkpt><trkpt lat="45.29121750883001" lon="9.267560505057288"><ele>83.0</ele><time>2026-04-10T10:50:35Z</time></trkpt><trkpt lat="45.29115375001499" lon="9.267598139076814"><ele>83.0</ele><time>2026-04-10T10:50:36Z</time></trkpt><trkpt lat="45.29108814152888" lon="9.267636864868347"><ele>83.0</ele><time>2026-04-10T10:50:37Z</time></trkpt><trkpt lat="45.29100741418677" lon="9.26768451469041"><ele>83.0</ele><time>2026-04-10T10:50:38Z</time></trkpt><trkpt lat="45.2909077933207" lon="9.267743316490057"><ele>83.0</ele><time>2026-04-10T10:50:39Z</time></trkpt><trkpt lat="45.290808123808745" lon="9.26780502852473"><ele>83.0</ele><time>2026-04-10T10:50:40Z</time></trkpt><trkpt lat="45.29070022498899" lon="9.267875500485765"><ele>83.0</ele><time>2026-04-10T10:50:41Z</time></trkpt><trkpt lat="45.29059614419983" lon="9.267948727681121"><ele>83.0</ele><time>2026-04-10T10:50:42Z</time></trkpt><trkpt lat="45.29048887941697" lon="9.268028574392757"><ele>83.0</ele><time>2026-04-10T10:50:42.999Z</time></trkpt><trkpt lat="45.290382283102375" lon="9.268106958163784"><ele>83.0</ele><time>2026-04-10T10:50:43.999Z</time></trkpt><trkpt lat="45.29027930550002" lon="9.268206506414213"><ele>83.0</ele><time>2026-04-10T10:50:44.999Z</time></trkpt><trkpt lat="45.290168228830645" lon="9.268280000695807"><ele>82.80000000000001</ele><time>2026-04-10T10:50:45.999Z</time></trkpt><trkpt lat="45.290067723153285" lon="9.268352816011973"><ele>82.6</ele><time>2026-04-10T10:50:46.999Z</time></trkpt><trkpt lat="45.289971590000356" lon="9.26842276825193"><ele>82.4</ele><time>2026-04-10T10:50:47.999Z</time></trkpt><trkpt lat="45.28987332194817" lon="9.268495658989902"><ele>82.19999999999999</ele><time>2026-04-10T10:50:48.999Z</time></trkpt><trkpt lat="45.289777990943556" lon="9.268584841792189"><ele>82.0</ele><time>2026-04-10T10:50:49.999Z</time></trkpt><trkpt lat="45.28968070148332" lon="9.268696327251382"><ele>82.0</ele><time>2026-04-10T10:50:50.999Z</time></trkpt><trkpt lat="45.28957949457774" lon="9.268808283823168"><ele>82.0</ele><time>2026-04-10T10:50:51.999Z</time></trkpt><trkpt lat="45.28947050647705" lon="9.268906582793523"><ele>82.0</ele><time>2026-04-10T10:50:52.999Z</time></trkpt><trkpt lat="45.28937322552878" lon="9.269022389846805"><ele>82.0</ele><time>2026-04-10T10:50:53.999Z</time></trkpt><trkpt lat="45.28927605357198" lon="9.2691413480687"><ele>82.0</ele><time>2026-04-10T10:50:54.999Z</time></trkpt><trkpt lat="45.28918449331349" lon="9.269283298911137"><ele>82.0</ele><time>2026-04-10T10:50:55.999Z</time></trkpt><trkpt lat="45.289080278535245" lon="9.269405736019033"><ele>82.0</ele><time>2026-04-10T10:50:56.999Z</time></trkpt><trkpt lat="45.28897814763666" lon="9.269528324264856"><ele>82.0</ele><time>2026-04-10T10:50:57.999Z</time></trkpt><trkpt lat="45.288869932270686" lon="9.269641484822387"><ele>81.75</ele><time>2026-04-10T10:50:58.999Z</time></trkpt><trkpt lat="45.288765870201765" lon="9.269765757779087"><ele>81.5</ele><time>2026-04-10T10:50:59.999Z</time></trkpt><trkpt lat="45.28866323787796" lon="9.269900588960908"><ele>81.25</ele><time>2026-04-10T10:51:00.999Z</time></trkpt><trkpt lat="45.28855302466349" lon="9.270033623877806"><ele>81.0</ele><time>2026-04-10T10:51:01.999Z</time></trkpt><trkpt lat="45.28843527585538" lon="9.270164839147174"><ele>81.0</ele><time>2026-04-10T10:51:02.999Z</time></trkpt><trkpt lat="45.28832892508232" lon="9.270302510061844"><ele>81.0</ele><time>2026-04-10T10:51:03.999Z</time></trkpt><trkpt lat="45.288218732547" lon="9.270433006278445"><ele>81.0</ele><time>2026-04-10T10:51:04.999Z</time></trkpt><trkpt lat="45.28811861444137" lon="9.270568748230406"><ele>81.0</ele><time>2026-04-10T10:51:05.999Z</time></trkpt><trkpt lat="45.28801919968554" lon="9.27068931743593"><ele>81.0</ele><time>2026-04-10T10:51:06.999Z</time></trkpt><trkpt lat="45.28792085876947" lon="9.270817442024843"><ele>81.0</ele><time>2026-04-10T10:51:07.999Z</time></trkpt><trkpt lat="45.28782697418337" lon="9.270947378290751"><ele>81.0</ele><time>2026-04-10T10:51:08.999Z</time></trkpt><trkpt lat="45.2877382036829" lon="9.27107285911627"><ele>81.0</ele><time>2026-04-10T10:51:09.999Z</time></trkpt><trkpt lat="45.287650375577854" lon="9.2712067373584"><ele>81.0</ele><time>2026-04-10T10:51:10.999Z</time></trkpt><trkpt lat="45.28757508971016" lon="9.271353379844399"><ele>81.0</ele><time>2026-04-10T10:51:11.999Z</time></trkpt><trkpt lat="45.2875111529093" lon="9.271508742202741"><ele>81.0</ele><time>2026-04-10T10:51:12.999Z</time></trkpt><trkpt lat="45.28744315205771" lon="9.271671836066165"><ele>81.0</ele><time>2026-04-10T10:51:13.999Z</time></trkpt><trkpt lat="45.287368281162266" lon="9.271845987324498"><ele>81.0</ele><time>2026-04-10T10:51:14.999Z</time></trkpt><trkpt lat="45.287292420610044" lon="9.272023263873393"><ele>81.0</ele><time>2026-04-10T10:51:15.999Z</time></trkpt><trkpt lat="45.287215207654135" lon="9.272203015981699"><ele>81.0</ele><time>2026-04-10T10:51:16.999Z</time></trkpt><trkpt lat="45.287149341455105" lon="9.272359596607973"><ele>81.0</ele><time>2026-04-10T10:51:17.999Z</time></trkpt><trkpt lat="45.287093127184576" lon="9.272500135508759"><ele>80.8</ele><time>2026-04-10T10:51:18.999Z</time></trkpt><trkpt lat="45.28704108939987" lon="9.272632916499882"><ele>80.6</ele><time>2026-04-10T10:51:19.999Z</time></trkpt><trkpt lat="45.286996651693414" lon="9.27275285679883"><ele>80.4</ele><time>2026-04-10T10:51:20.999Z</time></trkpt><trkpt lat="45.286942942126" lon="9.272857024437172"><ele>80.2</ele><time>2026-04-10T10:51:21.999Z</time></trkpt><trkpt lat="45.2868768692295" lon="9.27295082926261"><ele>80.0</ele><time>2026-04-10T10:51:22.999Z</time></trkpt><trkpt lat="45.286780821360665" lon="9.272993702105564"><ele>80.0</ele><time>2026-04-10T10:51:23.999Z</time></trkpt><trkpt lat="45.28668890260296" lon="9.273030928578594"><ele>80.0</ele><time>2026-04-10T10:51:24.999Z</time></trkpt><trkpt lat="45.28658901345942" lon="9.27307722437227"><ele>80.0</ele><time>2026-04-10T10:51:25.999Z</time></trkpt><trkpt lat="45.28647047307872" lon="9.273099967700057"><ele>80.0</ele><time>2026-04-10T10:51:26.999Z</time></trkpt><trkpt lat="45.28635323927137" lon="9.273139025768321"><ele>80.0</ele><time>2026-04-10T10:51:27.999Z</time></trkpt><trkpt lat="45.28623527694492" lon="9.273193774336228"><ele>79.6</ele><time>2026-04-10T10:51:28.999Z</time></trkpt><trkpt lat="45.28611988936218" lon="9.273252524853742"><ele>79.2</ele><time>2026-04-10T10:51:29.999Z</time></trkpt><trkpt lat="45.286008320835535" lon="9.273305313775248"><ele>78.8</ele><time>2026-04-10T10:51:30.999Z</time></trkpt><trkpt lat="45.2859054609106" lon="9.273360564499527"><ele>78.4</ele><time>2026-04-10T10:51:31.999Z</time></trkpt><trkpt lat="45.285817415793886" lon="9.273413743515636"><ele>78.0</ele><time>2026-04-10T10:51:32.999Z</time></trkpt><trkpt lat="45.28573458865753" lon="9.273476157316876"><ele>78.0</ele><time>2026-04-10T10:51:33.999Z</time></trkpt><trkpt lat="45.28565763952934" lon="9.273542583627135"><ele>78.0</ele><time>2026-04-10T10:51:34.999Z</time></trkpt><trkpt lat="45.285592864539744" lon="9.273618474287678"><ele>78.0</ele><time>2026-04-10T10:51:35.999Z</time></trkpt><trkpt lat="45.28554304308109" lon="9.27370539202281"><ele>78.0</ele><time>2026-04-10T10:51:36.999Z</time></trkpt><trkpt lat="45.285510076408556" lon="9.273799790934644"><ele>78.0</ele><time>2026-04-10T10:51:37.999Z</time></trkpt><trkpt lat="45.28548891949325" lon="9.273921326764965"><ele>78.0</ele><time>2026-04-10T10:51:38.998Z</time></trkpt><trkpt lat="45.285477884136604" lon="9.27405851826156"><ele>78.0</ele><time>2026-04-10T10:51:39.998Z</time></trkpt><trkpt lat="45.28547419676448" lon="9.274208118115274"><ele>78.0</ele><time>2026-04-10T10:51:40.998Z</time></trkpt><trkpt lat="45.28547631262633" lon="9.274377769175892"><ele>78.0</ele><time>2026-04-10T10:51:41.998Z</time></trkpt><trkpt lat="45.28548112691568" lon="9.274538678783362"><ele>78.0</ele><time>2026-04-10T10:51:42.998Z</time></trkpt><trkpt lat="45.285481594411095" lon="9.27468642395095"><ele>78.0</ele><time>2026-04-10T10:51:43.998Z</time></trkpt><trkpt lat="45.28547186957064" lon="9.27483178894643"><ele>78.2</ele><time>2026-04-10T10:51:44.998Z</time></trkpt><trkpt lat="45.28544877613547" lon="9.274958186670101"><ele>78.4</ele><time>2026-04-10T10:51:45.998Z</time></trkpt><trkpt lat="45.28540773192865" lon="9.275074362037772"><ele>78.60000000000001</ele><time>2026-04-10T10:51:46.998Z</time></trkpt><trkpt lat="45.285327040057" lon="9.275149468141326"><ele>78.8</ele><time>2026-04-10T10:51:47.998Z</time></trkpt><trkpt lat="45.28524916761017" lon="9.275245381179639"><ele>79.0</ele><time>2026-04-10T10:51:48.998Z</time></trkpt><trkpt lat="45.28516641766176" lon="9.275358930115495"><ele>79.0</ele><time>2026-04-10T10:51:49.998Z</time></trkpt><trkpt lat="45.28507167366422" lon="9.275463763421213"><ele>79.0</ele><time>2026-04-10T10:51:50.998Z</time></trkpt><trkpt lat="45.28497391345341" lon="9.2755689872455"><ele>79.0</ele><time>2026-04-10T10:51:51.998Z</time></trkpt><trkpt lat="45.284878615335614" lon="9.27567042649119"><ele>79.0</ele><time>2026-04-10T10:51:52.998Z</time></trkpt><trkpt lat="45.284778593847015" lon="9.275768682113553"><ele>78.25</ele><time>2026-04-10T10:51:53.998Z</time></trkpt><trkpt lat="45.28468144799033" lon="9.27587313060283"><ele>77.5</ele><time>2026-04-10T10:51:54.998Z</time></trkpt><trkpt lat="45.28458031200177" lon="9.27598850183839"><ele>76.75</ele><time>2026-04-10T10:51:55.998Z</time></trkpt><trkpt lat="45.284474648799275" lon="9.276102354940548"><ele>76.0</ele><time>2026-04-10T10:51:56.998Z</time></trkpt><trkpt lat="45.28436799275627" lon="9.276221372766631"><ele>76.0</ele><time>2026-04-10T10:51:57.998Z</time></trkpt><trkpt lat="45.28425957549716" lon="9.276344987575918"><ele>76.0</ele><time>2026-04-10T10:51:58.998Z</time></trkpt><trkpt lat="45.28414679996647" lon="9.276474419964192"><ele>76.0</ele><time>2026-04-10T10:51:59.998Z</time></trkpt><trkpt lat="45.284040979985626" lon="9.276597136276006"><ele>76.0</ele><time>2026-04-10T10:52:00.998Z</time></trkpt><trkpt lat="45.28393091956932" lon="9.276682815675795"><ele>75.8</ele><time>2026-04-10T10:52:01.998Z</time></trkpt><trkpt lat="45.28383364789382" lon="9.276773674443403"><ele>75.6</ele><time>2026-04-10T10:52:02.998Z</time></trkpt><trkpt lat="45.283744351474986" lon="9.276852846263896"><ele>75.4</ele><time>2026-04-10T10:52:03.998Z</time></trkpt><trkpt lat="45.28364602311864" lon="9.276908492325063"><ele>75.2</ele><time>2026-04-10T10:52:04.998Z</time></trkpt><trkpt lat="45.28353894026029" lon="9.27695365102401"><ele>75.0</ele><time>2026-04-10T10:52:05.998Z</time></trkpt><trkpt lat="45.28344944637961" lon="9.277014902913141"><ele>75.0</ele><time>2026-04-10T10:52:06.998Z</time></trkpt><trkpt lat="45.283373156559534" lon="9.277053146816048"><ele>75.0</ele><time>2026-04-10T10:52:07.998Z</time></trkpt><trkpt lat="45.28331343592926" lon="9.277100952406053"><ele>75.0</ele><time>2026-04-10T10:52:08.998Z</time></trkpt><trkpt lat="45.28325154347816" lon="9.277149719719949"><ele>75.0</ele><time>2026-04-10T10:52:09.998Z</time></trkpt><trkpt lat="45.28319610371816" lon="9.277199823358051"><ele>75.0</ele><time>2026-04-10T10:52:10.998Z</time></trkpt><trkpt lat="45.28309212734094" lon="9.277261325703273"><ele>75.0</ele><time>2026-04-10T10:52:12.998Z</time></trkpt><trkpt lat="45.28299776597117" lon="9.27735132512757"><ele>75.42857142857142</ele><time>2026-04-10T10:52:14.998Z</time></trkpt><trkpt lat="45.282941292504084" lon="9.27739810419013"><ele>75.85714285714286</ele><time>2026-04-10T10:52:15.998Z</time></trkpt><trkpt lat="45.28288342220176" lon="9.277453343575564"><ele>76.28571428571428</ele><time>2026-04-10T10:52:16.998Z</time></trkpt><trkpt lat="45.282816713837626" lon="9.277470400050687"><ele>76.71428571428571</ele><time>2026-04-10T10:52:17.998Z</time></trkpt><trkpt lat="45.282750170235396" lon="9.277504077576213"><ele>77.14285714285714</ele><time>2026-04-10T10:52:18.998Z</time></trkpt><trkpt lat="45.28268569093536" lon="9.277526059152297"><ele>77.57142857142857</ele><time>2026-04-10T10:52:19.998Z</time></trkpt><trkpt lat="45.28258663907268" lon="9.27752699249341"><ele>78.0</ele><time>2026-04-10T10:52:21.998Z</time></trkpt><trkpt lat="45.28252012268277" lon="9.277537272704045"><ele>78.0</ele><time>2026-04-10T10:52:23.998Z</time></trkpt><trkpt lat="45.28244686306309" lon="9.277536113797302"><ele>78.0</ele><time>2026-04-10T10:52:26.998Z</time></trkpt><trkpt lat="45.282376129668556" lon="9.277515780947773"><ele>78.0</ele><time>2026-04-10T10:52:38Z</time></trkpt><trkpt lat="45.282354408804466" lon="9.277352465362181"><ele>78.0</ele><time>2026-04-10T10:52:39Z</time></trkpt><trkpt lat="45.282322418496506" lon="9.277258178147148"><ele>78.0</ele><time>2026-04-10T10:52:40Z</time></trkpt><trkpt lat="45.28227365911049" lon="9.277159541534296"><ele>78.0</ele><time>2026-04-10T10:52:41Z</time></trkpt><trkpt lat="45.282230291425336" lon="9.277064477948642"><ele>78.66666666666667</ele><time>2026-04-10T10:52:42Z</time></trkpt><trkpt lat="45.28219043361895" lon="9.276973253348663"><ele>79.33333333333333</ele><time>2026-04-10T10:52:43Z</time></trkpt><trkpt lat="45.282156030193256" lon="9.276884371755663"><ele>80.0</ele><time>2026-04-10T10:52:44Z</time></trkpt><trkpt lat="45.28212450315743" lon="9.27678463297827"><ele>80.66666666666666</ele><time>2026-04-10T10:52:45Z</time></trkpt><trkpt lat="45.28208983590754" lon="9.27667794014572"><ele>81.33333333333333</ele><time>2026-04-10T10:52:46Z</time></trkpt><trkpt lat="45.28202362478257" lon="9.276581986061961"><ele>82.0</ele><time>2026-04-10T10:52:47Z</time></trkpt><trkpt lat="45.28193802153906" lon="9.276482449330953"><ele>82.25</ele><time>2026-04-10T10:52:47.999Z</time></trkpt><trkpt lat="45.28183988086669" lon="9.276384207213875"><ele>82.5</ele><time>2026-04-10T10:52:48.999Z</time></trkpt><trkpt lat="45.28173256425625" lon="9.276295930605109"><ele>82.75</ele><time>2026-04-10T10:52:49.999Z</time></trkpt><trkpt lat="45.28164204376626" lon="9.276185339625728"><ele>83.0</ele><time>2026-04-10T10:52:50.999Z</time></trkpt><trkpt lat="45.281551782803575" lon="9.276087688117478"><ele>83.0</ele><time>2026-04-10T10:52:51.999Z</time></trkpt><trkpt lat="45.281469339885206" lon="9.275997259987669"><ele>83.0</ele><time>2026-04-10T10:52:52.999Z</time></trkpt><trkpt lat="45.28139017272523" lon="9.275912341049953"><ele>83.0</ele><time>2026-04-10T10:52:53.999Z</time></trkpt><trkpt lat="45.28130527610604" lon="9.275870868821205"><ele>83.0</ele><time>2026-04-10T10:52:54.999Z</time></trkpt><trkpt lat="45.28121990479785" lon="9.275883080303366"><ele>83.0</ele><time>2026-04-10T10:52:55.999Z</time></trkpt><trkpt lat="45.28113450846208" lon="9.27594333182525"><ele>83.16666666666667</ele><time>2026-04-10T10:52:56.999Z</time></trkpt><trkpt lat="45.28104949214558" lon="9.276020175651345"><ele>83.33333333333334</ele><time>2026-04-10T10:52:57.999Z</time></trkpt><trkpt lat="45.280951052312325" lon="9.276074890966372"><ele>83.5</ele><time>2026-04-10T10:52:58.999Z</time></trkpt><trkpt lat="45.280863354411586" lon="9.27610947312065"><ele>83.66666666666667</ele><time>2026-04-10T10:52:59.999Z</time></trkpt><trkpt lat="45.28079148248082" lon="9.276143413852033"><ele>83.83333333333333</ele><time>2026-04-10T10:53:00.999Z</time></trkpt><trkpt lat="45.280732979835015" lon="9.276182550978719"><ele>84.0</ele><time>2026-04-10T10:53:01.999Z</time></trkpt><trkpt lat="45.28064131258226" lon="9.276151911400724"><ele>83.75</ele><time>2026-04-10T10:53:03.999Z</time></trkpt><trkpt lat="45.280584001073436" lon="9.27596333204996"><ele>83.5</ele><time>2026-04-10T10:53:05.999Z</time></trkpt><trkpt lat="45.28054804441723" lon="9.275835531983393"><ele>83.25</ele><time>2026-04-10T10:53:06.999Z</time></trkpt><trkpt lat="45.2805101201178" lon="9.275696009035016"><ele>83.0</ele><time>2026-04-10T10:53:07.999Z</time></trkpt><trkpt lat="45.280466118066755" lon="9.275532033199136"><ele>82.80000000000001</ele><time>2026-04-10T10:53:08.999Z</time></trkpt><trkpt lat="45.28041986295591" lon="9.275380316201135"><ele>82.6</ele><time>2026-04-10T10:53:09.999Z</time></trkpt><trkpt lat="45.280375953853834" lon="9.275247003454405"><ele>82.4</ele><time>2026-04-10T10:53:10.999Z</time></trkpt><trkpt lat="45.280331363361086" lon="9.275127934369657"><ele>82.19999999999999</ele><time>2026-04-10T10:53:11.999Z</time></trkpt><trkpt lat="45.28028928093217" lon="9.275016204904512"><ele>82.0</ele><time>2026-04-10T10:53:12.999Z</time></trkpt><trkpt lat="45.28023608312086" lon="9.274899974479759"><ele>82.0</ele><time>2026-04-10T10:53:13.999Z</time></trkpt><trkpt lat="45.280167836859306" lon="9.27478641832018"><ele>82.0</ele><time>2026-04-10T10:53:14.999Z</time></trkpt><trkpt lat="45.280092470382954" lon="9.274678575133423"><ele>82.0</ele><time>2026-04-10T10:53:15.999Z</time></trkpt><trkpt lat="45.28002052834094" lon="9.274567956227319"><ele>82.0</ele><time>2026-04-10T10:53:16.999Z</time></trkpt><trkpt lat="45.27996186271059" lon="9.274437035541606"><ele>82.0</ele><time>2026-04-10T10:53:17.999Z</time></trkpt><trkpt lat="45.279908757265524" lon="9.27430006962428"><ele>82.19999999999999</ele><time>2026-04-10T10:53:18.999Z</time></trkpt><trkpt lat="45.27986309242813" lon="9.274163359948556"><ele>82.4</ele><time>2026-04-10T10:53:19.999Z</time></trkpt><trkpt lat="45.27980841611956" lon="9.27403039862519"><ele>82.6</ele><time>2026-04-10T10:53:20.999Z</time></trkpt><trkpt lat="45.27973414588675" lon="9.27390564554122"><ele>82.80000000000001</ele><time>2026-04-10T10:53:21.999Z</time></trkpt><trkpt lat="45.27964419952216" lon="9.2737945637542"><ele>83.0</ele><time>2026-04-10T10:53:22.999Z</time></trkpt><trkpt lat="45.279558582354476" lon="9.273702201878253"><ele>83.0</ele><time>2026-04-10T10:53:23.999Z</time></trkpt><trkpt lat="45.27948422808922" lon="9.27359690068879"><ele>83.0</ele><time>2026-04-10T10:53:24.999Z</time></trkpt><trkpt lat="45.279408952711606" lon="9.273485263231327"><ele>83.0</ele><time>2026-04-10T10:53:25.999Z</time></trkpt><trkpt lat="45.279330314801555" lon="9.273377251023035"><ele>83.0</ele><time>2026-04-10T10:53:26.999Z</time></trkpt><trkpt lat="45.279251526198756" lon="9.27327652886836"><ele>83.0</ele><time>2026-04-10T10:53:27.999Z</time></trkpt><trkpt lat="45.27916825939015" lon="9.273183718203924"><ele>83.0</ele><time>2026-04-10T10:53:28.999Z</time></trkpt><trkpt lat="45.27907639948328" lon="9.273098877644665"><ele>83.0</ele><time>2026-04-10T10:53:29.999Z</time></trkpt><trkpt lat="45.27897921698615" lon="9.273020281427955"><ele>83.0</ele><time>2026-04-10T10:53:30.999Z</time></trkpt><trkpt lat="45.27887309025784" lon="9.27295606816444"><ele>83.0</ele><time>2026-04-10T10:53:31.999Z</time></trkpt><trkpt lat="45.27875561150909" lon="9.27291623268015"><ele>83.25</ele><time>2026-04-10T10:53:32.999Z</time></trkpt><trkpt lat="45.27863640945184" lon="9.272898652752323"><ele>83.5</ele><time>2026-04-10T10:53:33.999Z</time></trkpt><trkpt lat="45.278507810688" lon="9.2728943017463"><ele>83.75</ele><time>2026-04-10T10:53:34.999Z</time></trkpt><trkpt lat="45.2783651596982" lon="9.272881982268453"><ele>84.0</ele><time>2026-04-10T10:53:35.999Z</time></trkpt><trkpt lat="45.27823456932401" lon="9.272874160996917"><ele>84.0</ele><time>2026-04-10T10:53:36.999Z</time></trkpt><trkpt lat="45.27811288528665" lon="9.272865501459762"><ele>84.0</ele><time>2026-04-10T10:53:37.999Z</time></trkpt><trkpt lat="45.27799051698796" lon="9.27285493277753"><ele>84.0</ele><time>2026-04-10T10:53:38.999Z</time></trkpt><trkpt lat="45.2778641858669" lon="9.272836471218021"><ele>84.0</ele><time>2026-04-10T10:53:39.999Z</time></trkpt><trkpt lat="45.27773637603268" lon="9.272797302625623"><ele>84.0</ele><time>2026-04-10T10:53:40.999Z</time></trkpt><trkpt lat="45.277614158215584" lon="9.272726678533749"><ele>84.0</ele><time>2026-04-10T10:53:41.999Z</time></trkpt><trkpt lat="45.277502591233095" lon="9.272639379511427"><ele>84.0</ele><time>2026-04-10T10:53:42.999Z</time></trkpt><trkpt lat="45.277391575648444" lon="9.272574689166483"><ele>84.0</ele><time>2026-04-10T10:53:43.999Z</time></trkpt><trkpt lat="45.27726712652258" lon="9.272544493958945"><ele>84.0</ele><time>2026-04-10T10:53:44.999Z</time></trkpt><trkpt lat="45.277133609425746" lon="9.272547862765931"><ele>84.0</ele><time>2026-04-10T10:53:45.998Z</time></trkpt><trkpt lat="45.27699837996031" lon="9.272569806298586"><ele>84.0</ele><time>2026-04-10T10:53:46.998Z</time></trkpt><trkpt lat="45.27686007110096" lon="9.272559878976523"><ele>84.0</ele><time>2026-04-10T10:53:47.998Z</time></trkpt><trkpt lat="45.27672705936731" lon="9.272568559227128"><ele>84.0</ele><time>2026-04-10T10:53:48.998Z</time></trkpt><trkpt lat="45.276599273854586" lon="9.272567436610043"><ele>84.0</ele><time>2026-04-10T10:53:49.998Z</time></trkpt><trkpt lat="45.276477443695875" lon="9.27255493839244"><ele>84.0</ele><time>2026-04-10T10:53:50.998Z</time></trkpt><trkpt lat="45.276368711713864" lon="9.272537891777302"><ele>84.0</ele><time>2026-04-10T10:53:51.998Z</time></trkpt><trkpt lat="45.27626826189529" lon="9.272518153042373"><ele>83.6</ele><time>2026-04-10T10:53:52.998Z</time></trkpt><trkpt lat="45.27618101447169" lon="9.272490267751834"><ele>83.2</ele><time>2026-04-10T10:53:53.998Z</time></trkpt><trkpt lat="45.276101152169566" lon="9.272442938653038"><ele>82.8</ele><time>2026-04-10T10:53:54.998Z</time></trkpt><trkpt lat="45.27601753219569" lon="9.272366599031425"><ele>82.39999999999999</ele><time>2026-04-10T10:53:55.998Z</time></trkpt><trkpt lat="45.27595310128533" lon="9.272251586677076"><ele>82.0</ele><time>2026-04-10T10:53:56.998Z</time></trkpt><trkpt lat="45.275919600912516" lon="9.272125829952335"><ele>82.0</ele><time>2026-04-10T10:53:57.998Z</time></trkpt><trkpt lat="45.275875793250336" lon="9.272019454829444"><ele>82.0</ele><time>2026-04-10T10:53:58.998Z</time></trkpt><trkpt lat="45.275818043972194" lon="9.27192917235767"><ele>82.0</ele><time>2026-04-10T10:53:59.998Z</time></trkpt><trkpt lat="45.275773896845166" lon="9.271821091182805"><ele>82.0</ele><time>2026-04-10T10:54:00.998Z</time></trkpt><trkpt lat="45.27572619747138" lon="9.271709276067671"><ele>82.0</ele><time>2026-04-10T10:54:01.998Z</time></trkpt><trkpt lat="45.27566971705055" lon="9.271594359282258"><ele>82.0</ele><time>2026-04-10T10:54:02.998Z</time></trkpt><trkpt lat="45.275628673274475" lon="9.27146706733153"><ele>82.0</ele><time>2026-04-10T10:54:03.998Z</time></trkpt><trkpt lat="45.27557598804133" lon="9.271347026462667"><ele>82.0</ele><time>2026-04-10T10:54:04.998Z</time></trkpt><trkpt lat="45.27552091360622" lon="9.271218947563199"><ele>82.0</ele><time>2026-04-10T10:54:05.998Z</time></trkpt><trkpt lat="45.27546473202586" lon="9.271078828334701"><ele>82.0</ele><time>2026-04-10T10:54:06.998Z</time></trkpt><trkpt lat="45.275409423536765" lon="9.270929792942216"><ele>81.8</ele><time>2026-04-10T10:54:07.998Z</time></trkpt><trkpt lat="45.275344944659984" lon="9.270790409318515"><ele>81.6</ele><time>2026-04-10T10:54:08.998Z</time></trkpt><trkpt lat="45.27530334726992" lon="9.270647699509475"><ele>81.39999999999999</ele><time>2026-04-10T10:54:09.998Z</time></trkpt><trkpt lat="45.275260575911126" lon="9.270507237483484"><ele>81.19999999999999</ele><time>2026-04-10T10:54:10.998Z</time></trkpt><trkpt lat="45.27521719370547" lon="9.270372327041631"><ele>81.0</ele><time>2026-04-10T10:54:11.998Z</time></trkpt><trkpt lat="45.27515863246079" lon="9.270239537604066"><ele>81.0</ele><time>2026-04-10T10:54:12.998Z</time></trkpt><trkpt lat="45.275078917946665" lon="9.270131653873813"><ele>81.0</ele><time>2026-04-10T10:54:13.998Z</time></trkpt><trkpt lat="45.27498056017449" lon="9.270045554500982"><ele>81.0</ele><time>2026-04-10T10:54:14.998Z</time></trkpt><trkpt lat="45.274875421233254" lon="9.269966155722956"><ele>81.0</ele><time>2026-04-10T10:54:15.998Z</time></trkpt><trkpt lat="45.27476694751428" lon="9.269884608846933"><ele>81.0</ele><time>2026-04-10T10:54:16.998Z</time></trkpt><trkpt lat="45.27465609104049" lon="9.269802094116546"><ele>81.0</ele><time>2026-04-10T10:54:17.998Z</time></trkpt><trkpt lat="45.2745564362712" lon="9.26969790532698"><ele>81.0</ele><time>2026-04-10T10:54:18.998Z</time></trkpt><trkpt lat="45.2744462953462" lon="9.26960636006043"><ele>81.0</ele><time>2026-04-10T10:54:19.998Z</time></trkpt><trkpt lat="45.274333719270345" lon="9.269512790756137"><ele>81.0</ele><time>2026-04-10T10:54:20.998Z</time></trkpt><trkpt lat="45.274231299951644" lon="9.269413534603594"><ele>81.0</ele><time>2026-04-10T10:54:21.998Z</time></trkpt><trkpt lat="45.27415138252705" lon="9.269272766054394"><ele>81.0</ele><time>2026-04-10T10:54:22.998Z</time></trkpt><trkpt lat="45.274085782134975" lon="9.269107809168796"><ele>81.0</ele><time>2026-04-10T10:54:23.998Z</time></trkpt><trkpt lat="45.274013572450215" lon="9.268939502662775"><ele>81.25</ele><time>2026-04-10T10:54:24.998Z</time></trkpt><trkpt lat="45.273958821136695" lon="9.268752612772966"><ele>81.5</ele><time>2026-04-10T10:54:25.998Z</time></trkpt><trkpt lat="45.27390447643071" lon="9.268578560311925"><ele>81.75</ele><time>2026-04-10T10:54:26.998Z</time></trkpt><trkpt lat="45.27385354071274" lon="9.268412457262116"><ele>82.0</ele><time>2026-04-10T10:54:27.998Z</time></trkpt><trkpt lat="45.273809853101845" lon="9.26825615062885"><ele>82.0</ele><time>2026-04-10T10:54:28.998Z</time></trkpt><trkpt lat="45.27377024477612" lon="9.268107578296263"><ele>82.0</ele><time>2026-04-10T10:54:29.998Z</time></trkpt><trkpt lat="45.27373588794387" lon="9.26796618728435"><ele>82.0</ele><time>2026-04-10T10:54:30.998Z</time></trkpt><trkpt lat="45.27370799295265" lon="9.267837126952042"><ele>82.0</ele><time>2026-04-10T10:54:31.998Z</time></trkpt><trkpt lat="45.27368261023122" lon="9.26771515020972"><ele>82.0</ele><time>2026-04-10T10:54:32.998Z</time></trkpt><trkpt lat="45.27364592643202" lon="9.26761541909755"><ele>82.0</ele><time>2026-04-10T10:54:34Z</time></trkpt><trkpt lat="45.2735884717933" lon="9.267546374808463"><ele>82.0</ele><time>2026-04-10T10:54:35Z</time></trkpt><trkpt lat="45.27351496319784" lon="9.267492980102917"><ele>82.0</ele><time>2026-04-10T10:54:36Z</time></trkpt><trkpt lat="45.2734182984711" lon="9.267545978072414"><ele>82.0</ele><time>2026-04-10T10:54:37Z</time></trkpt><trkpt lat="45.27332083613953" lon="9.26760500695332"><ele>82.0</ele><time>2026-04-10T10:54:38Z</time></trkpt><trkpt lat="45.27321383004487" lon="9.267664709212129"><ele>81.5</ele><time>2026-04-10T10:54:39Z</time></trkpt><trkpt lat="45.27310397554512" lon="9.26772192924789"><ele>81.0</ele><time>2026-04-10T10:54:40Z</time></trkpt><trkpt lat="45.27299295254491" lon="9.267779989622355"><ele>80.5</ele><time>2026-04-10T10:54:41Z</time></trkpt><trkpt lat="45.27288304381161" lon="9.267835775357943"><ele>80.0</ele><time>2026-04-10T10:54:42Z</time></trkpt><trkpt lat="45.27277615399169" lon="9.267892428757802"><ele>80.0</ele><time>2026-04-10T10:54:43Z</time></trkpt><trkpt lat="45.272669519685934" lon="9.26795546818691"><ele>80.0</ele><time>2026-04-10T10:54:44Z</time></trkpt><trkpt lat="45.272565249390496" lon="9.267993805905624"><ele>80.0</ele><time>2026-04-10T10:54:45Z</time></trkpt><trkpt lat="45.272477226077925" lon="9.268053397811485"><ele>80.0</ele><time>2026-04-10T10:54:46Z</time></trkpt><trkpt lat="45.272395708520655" lon="9.268110175944654"><ele>80.0</ele><time>2026-04-10T10:54:47Z</time></trkpt><trkpt lat="45.272320782151475" lon="9.2681719892928"><ele>79.83333333333334</ele><time>2026-04-10T10:54:48Z</time></trkpt><trkpt lat="45.27226495820393" lon="9.268236726402394"><ele>79.66666666666667</ele><time>2026-04-10T10:54:49Z</time></trkpt><trkpt lat="45.27216432217055" lon="9.268284112772642"><ele>79.5</ele><time>2026-04-10T10:54:51Z</time></trkpt><trkpt lat="45.27209839929651" lon="9.268350863725594"><ele>79.33333333333333</ele><time>2026-04-10T10:54:52.999Z</time></trkpt><trkpt lat="45.272037461816765" lon="9.268393559456893"><ele>79.16666666666666</ele><time>2026-04-10T10:54:57.999Z</time></trkpt><trkpt lat="45.27196122709122" lon="9.268442946806436"><ele>79.0</ele><time>2026-04-10T10:55:11.999Z</time></trkpt><trkpt lat="45.27188492546676" lon="9.26850925784781"><ele>79.0</ele><time>2026-04-10T10:55:12.999Z</time></trkpt><trkpt lat="45.27180450223454" lon="9.268554066663254"><ele>79.0</ele><time>2026-04-10T10:55:13.999Z</time></trkpt><trkpt lat="45.27171919429974" lon="9.268593009412065"><ele>79.0</ele><time>2026-04-10T10:55:14.999Z</time></trkpt><trkpt lat="45.27162622351665" lon="9.268658272855951"><ele>79.0</ele><time>2026-04-10T10:55:16.999Z</time></trkpt><trkpt lat="45.27156850182048" lon="9.26869879229598"><ele>79.0</ele><time>2026-04-10T10:55:17.999Z</time></trkpt><trkpt lat="45.27150644155658" lon="9.268742357218052"><ele>79.0</ele><time>2026-04-10T10:55:18.999Z</time></trkpt><trkpt lat="45.271441999858475" lon="9.26878760740228"><ele>79.4</ele><time>2026-04-10T10:55:19.999Z</time></trkpt><trkpt lat="45.27137749441025" lon="9.268832930196448"><ele>79.80000000000001</ele><time>2026-04-10T10:55:20.999Z</time></trkpt><trkpt lat="45.27130123852253" lon="9.268886509108327"><ele>80.19999999999999</ele><time>2026-04-10T10:55:21.999Z</time></trkpt><trkpt lat="45.27121779948942" lon="9.268945134895151"><ele>80.6</ele><time>2026-04-10T10:55:22.999Z</time></trkpt><trkpt lat="45.27113045144132" lon="9.269007462349293"><ele>81.0</ele><time>2026-04-10T10:55:23.999Z</time></trkpt><trkpt lat="45.27103569371442" lon="9.269076238495428"><ele>81.0</ele><time>2026-04-10T10:55:24.999Z</time></trkpt><trkpt lat="45.27094318800495" lon="9.269167553752819"><ele>81.0</ele><time>2026-04-10T10:55:25.999Z</time></trkpt><trkpt lat="45.27083784178477" lon="9.269232316167708"><ele>81.0</ele><time>2026-04-10T10:55:26.999Z</time></trkpt><trkpt lat="45.270740713414185" lon="9.269303590583156"><ele>81.0</ele><time>2026-04-10T10:55:27.999Z</time></trkpt><trkpt lat="45.2706518511266" lon="9.269371048084295"><ele>81.0</ele><time>2026-04-10T10:55:28.999Z</time></trkpt><trkpt lat="45.27056844194791" lon="9.269447217428487"><ele>81.0</ele><time>2026-04-10T10:55:29.999Z</time></trkpt><trkpt lat="45.2704859784621" lon="9.269544654067436"><ele>81.0</ele><time>2026-04-10T10:55:30.999Z</time></trkpt><trkpt lat="45.27040604314818" lon="9.269665696797155"><ele>81.0</ele><time>2026-04-10T10:55:31.999Z</time></trkpt><trkpt lat="45.27032725930754" lon="9.26979968880548"><ele>81.0</ele><time>2026-04-10T10:55:32.999Z</time></trkpt><trkpt lat="45.2702462779059" lon="9.26994055876153"><ele>80.75</ele><time>2026-04-10T10:55:33.999Z</time></trkpt><trkpt lat="45.27016420093146" lon="9.270085647528376"><ele>80.5</ele><time>2026-04-10T10:55:34.999Z</time></trkpt><trkpt lat="45.270083751384874" lon="9.270229656848457"><ele>80.25</ele><time>2026-04-10T10:55:35.999Z</time></trkpt><trkpt lat="45.27000276519653" lon="9.27038268776187"><ele>80.0</ele><time>2026-04-10T10:55:36.999Z</time></trkpt><trkpt lat="45.26993045202184" lon="9.270532377221029"><ele>80.0</ele><time>2026-04-10T10:55:37.999Z</time></trkpt><trkpt lat="45.269857820737066" lon="9.270686912781406"><ele>80.0</ele><time>2026-04-10T10:55:38.999Z</time></trkpt><trkpt lat="45.269782487088605" lon="9.270822310863869"><ele>80.0</ele><time>2026-04-10T10:55:39.999Z</time></trkpt><trkpt lat="45.2697040841814" lon="9.270936301270465"><ele>80.0</ele><time>2026-04-10T10:55:40.999Z</time></trkpt><trkpt lat="45.269642339033695" lon="9.271058604235844"><ele>80.25</ele><time>2026-04-10T10:55:41.999Z</time></trkpt><trkpt lat="45.26961760433075" lon="9.271197598664356"><ele>80.5</ele><time>2026-04-10T10:55:42.999Z</time></trkpt><trkpt lat="45.26962784494062" lon="9.271367647324185"><ele>80.75</ele><time>2026-04-10T10:55:43.999Z</time></trkpt><trkpt lat="45.26966212832756" lon="9.271566948538306"><ele>81.0</ele><time>2026-04-10T10:55:44.999Z</time></trkpt><trkpt lat="45.2696772822957" lon="9.271786066576885"><ele>81.0</ele><time>2026-04-10T10:55:45.999Z</time></trkpt><trkpt lat="45.26967440709839" lon="9.272004659284235"><ele>81.0</ele><time>2026-04-10T10:55:46.999Z</time></trkpt><trkpt lat="45.26967651403573" lon="9.272198200369667"><ele>81.0</ele><time>2026-04-10T10:55:47.999Z</time></trkpt><trkpt lat="45.26965862737143" lon="9.272359486374409"><ele>81.0</ele><time>2026-04-10T10:55:48.998Z</time></trkpt><trkpt lat="45.26963417753622" lon="9.272490198410765"><ele>81.0</ele><time>2026-04-10T10:55:49.998Z</time></trkpt><trkpt lat="45.269585379822004" lon="9.272606542422904"><ele>81.0</ele><time>2026-04-10T10:55:50.998Z</time></trkpt><trkpt lat="45.26947324223274" lon="9.272647532308527"><ele>81.0</ele><time>2026-04-10T10:55:51.998Z</time></trkpt><trkpt lat="45.2693614505745" lon="9.27271375805783"><ele>81.0</ele><time>2026-04-10T10:55:52.998Z</time></trkpt><trkpt lat="45.26924362634061" lon="9.272799149538484"><ele>81.0</ele><time>2026-04-10T10:55:53.998Z</time></trkpt><trkpt lat="45.26911792803929" lon="9.272891905089363"><ele>81.0</ele><time>2026-04-10T10:55:54.998Z</time></trkpt><trkpt lat="45.26899932430149" lon="9.272989725632561"><ele>81.0</ele><time>2026-04-10T10:55:55.998Z</time></trkpt><trkpt lat="45.26888573562034" lon="9.273086425641726"><ele>81.0</ele><time>2026-04-10T10:55:56.998Z</time></trkpt><trkpt lat="45.26878198940435" lon="9.273174948305567"><ele>81.19999999999999</ele><time>2026-04-10T10:55:57.998Z</time></trkpt><trkpt lat="45.268683598490696" lon="9.27325652671087"><ele>81.39999999999999</ele><time>2026-04-10T10:55:58.998Z</time></trkpt><trkpt lat="45.268596496675954" lon="9.273329165176888"><ele>81.6</ele><time>2026-04-10T10:55:59.998Z</time></trkpt><trkpt lat="45.26851706290244" lon="9.273399210638011"><ele>81.8</ele><time>2026-04-10T10:56:00.998Z</time></trkpt><trkpt lat="45.26844561589641" lon="9.273465828664214"><ele>82.0</ele><time>2026-04-10T10:56:01.998Z</time></trkpt><trkpt lat="45.26837738570493" lon="9.273530913999933"><ele>82.0</ele><time>2026-04-10T10:56:02.998Z</time></trkpt><trkpt lat="45.268319571932864" lon="9.273581764410801"><ele>82.0</ele><time>2026-04-10T10:56:03.998Z</time></trkpt><trkpt lat="45.268219760082985" lon="9.273618550906008"><ele>82.0</ele><time>2026-04-10T10:56:05.998Z</time></trkpt><trkpt lat="45.26814705391368" lon="9.273583955001438"><ele>82.0</ele><time>2026-04-10T10:56:07.998Z</time></trkpt><trkpt lat="45.26806191485055" lon="9.273644987249487"><ele>82.0</ele><time>2026-04-10T10:56:09.998Z</time></trkpt><trkpt lat="45.26800934783532" lon="9.273710155459538"><ele>82.0</ele><time>2026-04-10T10:56:10.998Z</time></trkpt><trkpt lat="45.26794729786818" lon="9.273785528937339"><ele>82.19999999999999</ele><time>2026-04-10T10:56:11.998Z</time></trkpt><trkpt lat="45.267876196530146" lon="9.273869277701174"><ele>82.4</ele><time>2026-04-10T10:56:12.998Z</time></trkpt><trkpt lat="45.26779676251093" lon="9.27394522760579"><ele>82.6</ele><time>2026-04-10T10:56:13.998Z</time></trkpt><trkpt lat="45.26771522957145" lon="9.27401698371563"><ele>82.80000000000001</ele><time>2026-04-10T10:56:14.998Z</time></trkpt><trkpt lat="45.26764405582337" lon="9.274077559434131"><ele>83.0</ele><time>2026-04-10T10:56:15.998Z</time></trkpt><trkpt lat="45.26756754112059" lon="9.274137199032626"><ele>83.0</ele><time>2026-04-10T10:56:16.998Z</time></trkpt><trkpt lat="45.26749455091739" lon="9.274189009343017"><ele>83.0</ele><time>2026-04-10T10:56:17.998Z</time></trkpt><trkpt lat="45.26741892442722" lon="9.274227227811856"><ele>83.0</ele><time>2026-04-10T10:56:18.998Z</time></trkpt><trkpt lat="45.267338416893026" lon="9.274273056579153"><ele>83.0</ele><time>2026-04-10T10:56:19.998Z</time></trkpt><trkpt lat="45.267254761239116" lon="9.274310323760334"><ele>83.0</ele><time>2026-04-10T10:56:20.998Z</time></trkpt><trkpt lat="45.26716186334572" lon="9.274346111563652"><ele>83.0</ele><time>2026-04-10T10:56:21.998Z</time></trkpt><trkpt lat="45.267077812303945" lon="9.2743927788041"><ele>83.0</ele><time>2026-04-10T10:56:22.998Z</time></trkpt><trkpt lat="45.266994816604665" lon="9.274432635638062"><ele>83.0</ele><time>2026-04-10T10:56:23.998Z</time></trkpt><trkpt lat="45.26691414829363" lon="9.274462536845549"><ele>83.0</ele><time>2026-04-10T10:56:24.998Z</time></trkpt><trkpt lat="45.2668356348509" lon="9.274494718747395"><ele>83.0</ele><time>2026-04-10T10:56:25.998Z</time></trkpt><trkpt lat="45.266752413982616" lon="9.274534150608284"><ele>83.0</ele><time>2026-04-10T10:56:26.998Z</time></trkpt><trkpt lat="45.26666927585936" lon="9.274577169942868"><ele>83.0</ele><time>2026-04-10T10:56:27.998Z</time></trkpt><trkpt lat="45.26658507779636" lon="9.27462654762433"><ele>83.0</ele><time>2026-04-10T10:56:28.998Z</time></trkpt><trkpt lat="45.2665010806358" lon="9.274685477203413"><ele>83.0</ele><time>2026-04-10T10:56:29.998Z</time></trkpt><trkpt lat="45.26642621403918" lon="9.27474587222886"><ele>83.0</ele><time>2026-04-10T10:56:30.998Z</time></trkpt><trkpt lat="45.26635788251661" lon="9.274806175675579"><ele>83.0</ele><time>2026-04-10T10:56:31.998Z</time></trkpt><trkpt lat="45.26629442869443" lon="9.274866963667266"><ele>83.0</ele><time>2026-04-10T10:56:32.998Z</time></trkpt><trkpt lat="45.2662275567072" lon="9.274905597047448"><ele>83.0</ele><time>2026-04-10T10:56:33.998Z</time></trkpt><trkpt lat="45.266189582429384" lon="9.274977807122355"><ele>83.16666666666667</ele><time>2026-04-10T10:56:34.998Z</time></trkpt><trkpt lat="45.26609997343102" lon="9.275084976237363"><ele>83.33333333333334</ele><time>2026-04-10T10:56:36.998Z</time></trkpt><trkpt lat="45.26604727156165" lon="9.275135271858739"><ele>83.5</ele><time>2026-04-10T10:56:37.998Z</time></trkpt><trkpt lat="45.26598922255642" lon="9.275182539899284"><ele>83.66666666666667</ele><time>2026-04-10T10:56:38.998Z</time></trkpt><trkpt lat="45.26593104973564" lon="9.275230493928918"><ele>83.83333333333333</ele><time>2026-04-10T10:56:40Z</time></trkpt><trkpt lat="45.265875762311325" lon="9.27527755473893"><ele>84.0</ele><time>2026-04-10T10:56:41Z</time></trkpt><trkpt lat="45.26576382065018" lon="9.275269914838265"><ele>84.0</ele><time>2026-04-10T10:56:43Z</time></trkpt><trkpt lat="45.26570745802089" lon="9.275214629692389"><ele>84.0</ele><time>2026-04-10T10:56:44Z</time></trkpt><trkpt lat="45.26564446497043" lon="9.275139539354953"><ele>84.0</ele><time>2026-04-10T10:56:45Z</time></trkpt><trkpt lat="45.26556458281268" lon="9.27507203979996"><ele>84.0</ele><time>2026-04-10T10:56:46Z</time></trkpt><trkpt lat="45.26548929698363" lon="9.275001079013304"><ele>84.0</ele><time>2026-04-10T10:56:47Z</time></trkpt><trkpt lat="45.26541460278654" lon="9.274925086808944"><ele>84.0</ele><time>2026-04-10T10:56:48Z</time></trkpt><trkpt lat="45.265346493542964" lon="9.274849206468447"><ele>84.0</ele><time>2026-04-10T10:56:49Z</time></trkpt><trkpt lat="45.26528101193727" lon="9.274767083499057"><ele>84.0</ele><time>2026-04-10T10:56:50Z</time></trkpt><trkpt lat="45.2652033168071" lon="9.274710351373876"><ele>84.0</ele><time>2026-04-10T10:56:51Z</time></trkpt><trkpt lat="45.26513804204489" lon="9.274649743773082"><ele>84.0</ele><time>2026-04-10T10:56:51.999Z</time></trkpt><trkpt lat="45.265072495031596" lon="9.274604502227552"><ele>84.0</ele><time>2026-04-10T10:56:52.999Z</time></trkpt><trkpt lat="45.264942980708135" lon="9.274627504693918"><ele>84.0</ele><time>2026-04-10T10:56:54.999Z</time></trkpt><trkpt lat="45.264876831421624" lon="9.274634671055566"><ele>84.0</ele><time>2026-04-10T10:56:55.999Z</time></trkpt><trkpt lat="45.26480651546358" lon="9.274715736415423"><ele>84.0</ele><time>2026-04-10T10:56:56.999Z</time></trkpt><trkpt lat="45.26472187737267" lon="9.274726321614413"><ele>84.0</ele><time>2026-04-10T10:56:57.999Z</time></trkpt><trkpt lat="45.26463871045103" lon="9.27473349050971"><ele>84.0</ele><time>2026-04-10T10:56:58.999Z</time></trkpt><trkpt lat="45.26455999130904" lon="9.274748236839027"><ele>84.0</ele><time>2026-04-10T10:56:59.999Z</time></trkpt><trkpt lat="45.26447151063509" lon="9.274779986986267"><ele>83.80000000000001</ele><time>2026-04-10T10:57:00.999Z</time></trkpt><trkpt lat="45.264386187064886" lon="9.27481827349383"><ele>83.60000000000001</ele><time>2026-04-10T10:57:01.999Z</time></trkpt><trkpt lat="45.26429336222287" lon="9.274854982127106"><ele>83.4</ele><time>2026-04-10T10:57:02.999Z</time></trkpt><trkpt lat="45.26419988977979" lon="9.274886596458165"><ele>83.2</ele><time>2026-04-10T10:57:03.999Z</time></trkpt><trkpt lat="45.264104795630175" lon="9.27492425727056"><ele>83.0</ele><time>2026-04-10T10:57:04.999Z</time></trkpt><trkpt lat="45.26401186056712" lon="9.274967418236502"><ele>83.0</ele><time>2026-04-10T10:57:05.999Z</time></trkpt><trkpt lat="45.2639190677152" lon="9.275023659703546"><ele>83.0</ele><time>2026-04-10T10:57:06.999Z</time></trkpt><trkpt lat="45.26383418576317" lon="9.275093882603878"><ele>83.0</ele><time>2026-04-10T10:57:07.999Z</time></trkpt><trkpt lat="45.263756801368494" lon="9.275178975282895"><ele>83.0</ele><time>2026-04-10T10:57:08.999Z</time></trkpt><trkpt lat="45.263683366629" lon="9.275273277956751"><ele>83.0</ele><time>2026-04-10T10:57:09.999Z</time></trkpt><trkpt lat="45.263603533082495" lon="9.275366144197912"><ele>83.0</ele><time>2026-04-10T10:57:10.999Z</time></trkpt><trkpt lat="45.26351843785093" lon="9.275461471215678"><ele>83.0</ele><time>2026-04-10T10:57:11.999Z</time></trkpt><trkpt lat="45.26343246457191" lon="9.275563866259617"><ele>83.0</ele><time>2026-04-10T10:57:12.999Z</time></trkpt><trkpt lat="45.263346173684226" lon="9.275671823108793"><ele>83.0</ele><time>2026-04-10T10:57:13.999Z</time></trkpt><trkpt lat="45.26325445070398" lon="9.275777271768833"><ele>83.0</ele><time>2026-04-10T10:57:14.999Z</time></trkpt><trkpt lat="45.26316317761705" lon="9.275884981930874"><ele>83.0</ele><time>2026-04-10T10:57:15.999Z</time></trkpt><trkpt lat="45.263071421513196" lon="9.275993663190143"><ele>83.0</ele><time>2026-04-10T10:57:16.999Z</time></trkpt><trkpt lat="45.26297647274795" lon="9.276097900813173"><ele>83.0</ele><time>2026-04-10T10:57:17.999Z</time></trkpt><trkpt lat="45.262879592297345" lon="9.276201770362313"><ele>82.80000000000001</ele><time>2026-04-10T10:57:18.999Z</time></trkpt><trkpt lat="45.262787834984174" lon="9.276300404065509"><ele>82.6</ele><time>2026-04-10T10:57:19.999Z</time></trkpt><trkpt lat="45.26270438828414" lon="9.276397129564115"><ele>82.4</ele><time>2026-04-10T10:57:20.999Z</time></trkpt><trkpt lat="45.26262597037229" lon="9.276452989717717"><ele>82.19999999999999</ele><time>2026-04-10T10:57:21.999Z</time></trkpt><trkpt lat="45.26256829997972" lon="9.276505361796078"><ele>82.0</ele><time>2026-04-10T10:57:22.999Z</time></trkpt><trkpt lat="45.26246781421877" lon="9.27653729778899"><ele>82.0</ele><time>2026-04-10T10:57:24.999Z</time></trkpt><trkpt lat="45.262414669097026" lon="9.276445376525013"><ele>82.0</ele><time>2026-04-10T10:57:25.999Z</time></trkpt><trkpt lat="45.26234101409821" lon="9.276377407527374"><ele>82.0</ele><time>2026-04-10T10:57:26.999Z</time></trkpt><trkpt lat="45.26227286453932" lon="9.276304760962045"><ele>82.0</ele><time>2026-04-10T10:57:27.999Z</time></trkpt><trkpt lat="45.26220369279045" lon="9.276228563631504"><ele>82.0</ele><time>2026-04-10T10:57:28.999Z</time></trkpt><trkpt lat="45.26213175800545" lon="9.276149322748674"><ele>82.0</ele><time>2026-04-10T10:57:29.999Z</time></trkpt><trkpt lat="45.26205623285017" lon="9.27606956597661"><ele>81.8</ele><time>2026-04-10T10:57:30.999Z</time></trkpt><trkpt lat="45.26197754145189" lon="9.275989584089238"><ele>81.6</ele><time>2026-04-10T10:57:31.999Z</time></trkpt><trkpt lat="45.26190078445123" lon="9.275914520772595"><ele>81.39999999999999</ele><time>2026-04-10T10:57:32.999Z</time></trkpt><trkpt lat="45.26182626647049" lon="9.275846242553849"><ele>81.19999999999999</ele><time>2026-04-10T10:57:33.999Z</time></trkpt><trkpt lat="45.26174518714103" lon="9.27577650866735"><ele>81.0</ele><time>2026-04-10T10:57:34.999Z</time></trkpt><trkpt lat="45.26165956053987" lon="9.275703909020706"><ele>81.0</ele><time>2026-04-10T10:57:35.999Z</time></trkpt><trkpt lat="45.261579711900815" lon="9.275636148539334"><ele>81.0</ele><time>2026-04-10T10:57:36.999Z</time></trkpt><trkpt lat="45.26149777214424" lon="9.275564737518575"><ele>81.0</ele><time>2026-04-10T10:57:37.999Z</time></trkpt><trkpt lat="45.261412170616246" lon="9.275490135320043"><ele>81.0</ele><time>2026-04-10T10:57:38.999Z</time></trkpt><trkpt lat="45.26132279001752" lon="9.27541223960707"><ele>81.0</ele><time>2026-04-10T10:57:39.999Z</time></trkpt><trkpt lat="45.261231555374785" lon="9.2753327281276"><ele>81.19999999999999</ele><time>2026-04-10T10:57:40.999Z</time></trkpt><trkpt lat="45.261096402952376" lon="9.275215077612703"><ele>81.39999999999999</ele><time>2026-04-10T10:57:42.999Z</time></trkpt><trkpt lat="45.26100416231883" lon="9.27513620373315"><ele>81.6</ele><time>2026-04-10T10:57:44Z</time></trkpt><trkpt lat="45.26092335685073" lon="9.275067883668886"><ele>81.8</ele><time>2026-04-10T10:57:45Z</time></trkpt><trkpt lat="45.260850723758786" lon="9.275007207154829"><ele>82.0</ele><time>2026-04-10T10:57:46Z</time></trkpt><trkpt lat="45.26077659220793" lon="9.274972577914667"><ele>82.0</ele><time>2026-04-10T10:57:47Z</time></trkpt><trkpt lat="45.26071803559754" lon="9.27492325278698"><ele>82.0</ele><time>2026-04-10T10:57:48Z</time></trkpt><trkpt lat="45.26065729155907" lon="9.274864281054828"><ele>82.0</ele><time>2026-04-10T10:57:49Z</time></trkpt><trkpt lat="45.2605876113527" lon="9.274808258905923"><ele>82.0</ele><time>2026-04-10T10:57:50Z</time></trkpt><trkpt lat="45.26052014163062" lon="9.274734028064962"><ele>82.0</ele><time>2026-04-10T10:57:51Z</time></trkpt><trkpt lat="45.260448928597214" lon="9.274675705473578"><ele>82.0</ele><time>2026-04-10T10:57:51.999Z</time></trkpt><trkpt lat="45.26037546078632" lon="9.274615536325157"><ele>82.16666666666666</ele><time>2026-04-10T10:57:52.999Z</time></trkpt><trkpt lat="45.26030622968049" lon="9.274554751682537"><ele>82.33333333333333</ele><time>2026-04-10T10:57:53.999Z</time></trkpt><trkpt lat="45.26023608441131" lon="9.274491028020956"><ele>82.5</ele><time>2026-04-10T10:57:54.999Z</time></trkpt><trkpt lat="45.26016411397721" lon="9.274424623151877"><ele>82.66666666666667</ele><time>2026-04-10T10:57:55.999Z</time></trkpt><trkpt lat="45.26008364594134" lon="9.274350376315"><ele>82.83333333333334</ele><time>2026-04-10T10:57:56.999Z</time></trkpt><trkpt lat="45.26000062656987" lon="9.274278579878672"><ele>83.0</ele><time>2026-04-10T10:57:57.999Z</time></trkpt><trkpt lat="45.25992298594543" lon="9.274213245842535"><ele>83.0</ele><time>2026-04-10T10:57:58.999Z</time></trkpt><trkpt lat="45.259848674508305" lon="9.274151349413396"><ele>83.0</ele><time>2026-04-10T10:57:59.999Z</time></trkpt><trkpt lat="45.25977471202565" lon="9.274089743694628"><ele>83.0</ele><time>2026-04-10T10:58:00.999Z</time></trkpt><trkpt lat="45.25968921202108" lon="9.274023155643437"><ele>83.0</ele><time>2026-04-10T10:58:01.999Z</time></trkpt><trkpt lat="45.25959623319751" lon="9.27397226791227"><ele>83.0</ele><time>2026-04-10T10:58:02.999Z</time></trkpt><trkpt lat="45.25949922037932" lon="9.273892422714509"><ele>82.5</ele><time>2026-04-10T10:58:03.999Z</time></trkpt><trkpt lat="45.25940481013091" lon="9.273808479252123"><ele>82.0</ele><time>2026-04-10T10:58:04.999Z</time></trkpt><trkpt lat="45.25930559512555" lon="9.273708356280482"><ele>81.5</ele><time>2026-04-10T10:58:05.999Z</time></trkpt><trkpt lat="45.25919256491497" lon="9.273594565283323"><ele>81.0</ele><time>2026-04-10T10:58:06.999Z</time></trkpt><trkpt lat="45.25906863252731" lon="9.273483719166565"><ele>81.5</ele><time>2026-04-10T10:58:07.999Z</time></trkpt><trkpt lat="45.258944971814955" lon="9.273379142131612"><ele>82.0</ele><time>2026-04-10T10:58:08.999Z</time></trkpt><trkpt lat="45.258831469047564" lon="9.273284580521539"><ele>82.5</ele><time>2026-04-10T10:58:09.999Z</time></trkpt><trkpt lat="45.25873581004908" lon="9.273210810621125"><ele>83.0</ele><time>2026-04-10T10:58:10.999Z</time></trkpt><trkpt lat="45.258650021486005" lon="9.273154689859814"><ele>83.0</ele><time>2026-04-10T10:58:11.999Z</time></trkpt><trkpt lat="45.25856640671161" lon="9.273109476328026"><ele>83.0</ele><time>2026-04-10T10:58:12.999Z</time></trkpt><trkpt lat="45.258491014453455" lon="9.273065896095757"><ele>83.0</ele><time>2026-04-10T10:58:13.999Z</time></trkpt><trkpt lat="45.2584045765319" lon="9.273013741798255"><ele>83.0</ele><time>2026-04-10T10:58:14.999Z</time></trkpt><trkpt lat="45.2583266860813" lon="9.272926558259849"><ele>83.0</ele><time>2026-04-10T10:58:15.999Z</time></trkpt><trkpt lat="45.25824775882075" lon="9.27284643040378"><ele>83.2</ele><time>2026-04-10T10:58:16.999Z</time></trkpt><trkpt lat="45.25816087687828" lon="9.272755838710584"><ele>83.4</ele><time>2026-04-10T10:58:17.999Z</time></trkpt><trkpt lat="45.25807391551489" lon="9.272660998752272"><ele>83.60000000000001</ele><time>2026-04-10T10:58:18.999Z</time></trkpt><trkpt lat="45.2579814108583" lon="9.272562865593228"><ele>83.80000000000001</ele><time>2026-04-10T10:58:19.999Z</time></trkpt><trkpt lat="45.25788364006858" lon="9.272473018610128"><ele>84.0</ele><time>2026-04-10T10:58:20.999Z</time></trkpt><trkpt lat="45.25777459578185" lon="9.272401740275631"><ele>83.5</ele><time>2026-04-10T10:58:21.999Z</time></trkpt><trkpt lat="45.257671507201515" lon="9.272307581398316"><ele>83.0</ele><time>2026-04-10T10:58:22.999Z</time></trkpt><trkpt lat="45.25756318487146" lon="9.27221323687231"><ele>82.5</ele><time>2026-04-10T10:58:23.999Z</time></trkpt><trkpt lat="45.25745295058642" lon="9.27211924853491"><ele>82.0</ele><time>2026-04-10T10:58:24.999Z</time></trkpt><trkpt lat="45.2573585267268" lon="9.272001874983944"><ele>81.5</ele><time>2026-04-10T10:58:25.999Z</time></trkpt><trkpt lat="45.25725195675096" lon="9.271900961277053"><ele>81.0</ele><time>2026-04-10T10:58:26.999Z</time></trkpt><trkpt lat="45.257151306801596" lon="9.27180568204404"><ele>80.5</ele><time>2026-04-10T10:58:27.999Z</time></trkpt><trkpt lat="45.257053751884854" lon="9.27171571196878"><ele>80.0</ele><time>2026-04-10T10:58:28.999Z</time></trkpt><trkpt lat="45.256960417901425" lon="9.271632473868177"><ele>80.0</ele><time>2026-04-10T10:58:29.999Z</time></trkpt><trkpt lat="45.25686065971856" lon="9.271545127966194"><ele>80.0</ele><time>2026-04-10T10:58:30.999Z</time></trkpt><trkpt lat="45.25676635632031" lon="9.271463629482396"><ele>80.0</ele><time>2026-04-10T10:58:31.999Z</time></trkpt><trkpt lat="45.256670330269806" lon="9.27138064241542"><ele>80.0</ele><time>2026-04-10T10:58:32.999Z</time></trkpt><trkpt lat="45.25657631725509" lon="9.271299394954484"><ele>79.8</ele><time>2026-04-10T10:58:33.999Z</time></trkpt><trkpt lat="45.25647682447211" lon="9.271211457372146"><ele>79.6</ele><time>2026-04-10T10:58:34.999Z</time></trkpt><trkpt lat="45.256392399765765" lon="9.271138754707389"><ele>79.4</ele><time>2026-04-10T10:58:35.999Z</time></trkpt><trkpt lat="45.25630667019934" lon="9.27106826822296"><ele>79.2</ele><time>2026-04-10T10:58:36.999Z</time></trkpt><trkpt lat="45.256221849637136" lon="9.27100481845327"><ele>79.0</ele><time>2026-04-10T10:58:37.999Z</time></trkpt><trkpt lat="45.25614777324647" lon="9.270956342546457"><ele>79.2</ele><time>2026-04-10T10:58:38.999Z</time></trkpt><trkpt lat="45.25606149865247" lon="9.270916761815968"><ele>79.4</ele><time>2026-04-10T10:58:39.999Z</time></trkpt><trkpt lat="45.25599760149394" lon="9.270833604537584"><ele>79.6</ele><time>2026-04-10T10:58:40.999Z</time></trkpt><trkpt lat="45.255924692003994" lon="9.270732877103173"><ele>79.8</ele><time>2026-04-10T10:58:41.999Z</time></trkpt><trkpt lat="45.255842335191524" lon="9.270656522161048"><ele>80.0</ele><time>2026-04-10T10:58:42.999Z</time></trkpt><trkpt lat="45.25574987280899" lon="9.270570410526332"><ele>80.0</ele><time>2026-04-10T10:58:43.999Z</time></trkpt><trkpt lat="45.25565382856451" lon="9.270481383135238"><ele>80.0</ele><time>2026-04-10T10:58:44.999Z</time></trkpt><trkpt lat="45.2555563377307" lon="9.27039499959046"><ele>80.0</ele><time>2026-04-10T10:58:46.001Z</time></trkpt><trkpt lat="45.25546394902393" lon="9.27031659327057"><ele>80.0</ele><time>2026-04-10T10:58:47.001Z</time></trkpt><trkpt lat="45.25538135785341" lon="9.27024567963056"><ele>80.0</ele><time>2026-04-10T10:58:48.001Z</time></trkpt><trkpt lat="45.25531183811511" lon="9.27018590329835"><ele>80.25</ele><time>2026-04-10T10:58:49.001Z</time></trkpt><trkpt lat="45.255227972819924" lon="9.270113023698189"><ele>80.5</ele><time>2026-04-10T10:58:50.001Z</time></trkpt><trkpt lat="45.255136577811825" lon="9.270032473327655"><ele>80.75</ele><time>2026-04-10T10:58:51.001Z</time></trkpt><trkpt lat="45.255037010892146" lon="9.269945159670156"><ele>81.0</ele><time>2026-04-10T10:58:52.001Z</time></trkpt><trkpt lat="45.25492852914571" lon="9.269851102352318"><ele>81.0</ele><time>2026-04-10T10:58:53.001Z</time></trkpt><trkpt lat="45.2548235200532" lon="9.269760481288722"><ele>81.0</ele><time>2026-04-10T10:58:54.001Z</time></trkpt><trkpt lat="45.25471697357707" lon="9.269669974078333"><ele>81.0</ele><time>2026-04-10T10:58:55.001Z</time></trkpt><trkpt lat="45.25461334097115" lon="9.269581942074197"><ele>81.0</ele><time>2026-04-10T10:58:56.001Z</time></trkpt><trkpt lat="45.25450654748172" lon="9.269491422145322"><ele>81.5</ele><time>2026-04-10T10:58:57.001Z</time></trkpt><trkpt lat="45.25439336836898" lon="9.269395528600551"><ele>82.0</ele><time>2026-04-10T10:58:58.001Z</time></trkpt><trkpt lat="45.254277884257625" lon="9.26929548573449"><ele>82.5</ele><time>2026-04-10T10:58:59.001Z</time></trkpt><trkpt lat="45.25416316229944" lon="9.269194564443454"><ele>83.0</ele><time>2026-04-10T10:59:00.001Z</time></trkpt><trkpt lat="45.25405130386085" lon="9.269098389691779"><ele>83.0</ele><time>2026-04-10T10:59:01.001Z</time></trkpt><trkpt lat="45.25394510707994" lon="9.269008381400818"><ele>83.0</ele><time>2026-04-10T10:59:02Z</time></trkpt><trkpt lat="45.2538519996271" lon="9.2689293463455"><ele>83.0</ele><time>2026-04-10T10:59:03Z</time></trkpt><trkpt lat="45.2537627773425" lon="9.268853545158871"><ele>83.0</ele><time>2026-04-10T10:59:04Z</time></trkpt><trkpt lat="45.25367477035219" lon="9.268778776461406"><ele>83.0</ele><time>2026-04-10T10:59:05Z</time></trkpt><trkpt lat="45.25358745446656" lon="9.268704594884092"><ele>82.60000000000001</ele><time>2026-04-10T10:59:06Z</time></trkpt><trkpt lat="45.25350184528844" lon="9.268630783981068"><ele>82.2</ele><time>2026-04-10T10:59:07Z</time></trkpt><trkpt lat="45.253409349709536" lon="9.268549928262042"><ele>81.8</ele><time>2026-04-10T10:59:08Z</time></trkpt><trkpt lat="45.25332284835474" lon="9.26847431249775"><ele>81.4</ele><time>2026-04-10T10:59:09Z</time></trkpt><trkpt lat="45.25322468426207" lon="9.26838850167239"><ele>81.0</ele><time>2026-04-10T10:59:10Z</time></trkpt><trkpt lat="45.253128765371635" lon="9.268306490141219"><ele>80.83333333333333</ele><time>2026-04-10T10:59:11Z</time></trkpt><trkpt lat="45.25305193670452" lon="9.268241644117307"><ele>80.66666666666667</ele><time>2026-04-10T10:59:12Z</time></trkpt><trkpt lat="45.25297804099799" lon="9.268179273675237"><ele>80.5</ele><time>2026-04-10T10:59:13Z</time></trkpt><trkpt lat="45.252916635203476" lon="9.268127445169306"><ele>80.33333333333334</ele><time>2026-04-10T10:59:14Z</time></trkpt><trkpt lat="45.252814842033985" lon="9.268041528377019"><ele>80.16666666666667</ele><time>2026-04-10T10:59:16Z</time></trkpt><trkpt lat="45.25275139460128" lon="9.267987976510335"><ele>80.0</ele><time>2026-04-10T10:59:17Z</time></trkpt><trkpt lat="45.25268895703274" lon="9.267935277229906"><ele>80.0</ele><time>2026-04-10T10:59:18Z</time></trkpt><trkpt lat="45.252587278517424" lon="9.267848770794329"><ele>80.0</ele><time>2026-04-10T10:59:20Z</time></trkpt><trkpt lat="45.252491248027574" lon="9.267766425614493"><ele>80.0</ele><time>2026-04-10T10:59:22Z</time></trkpt><trkpt lat="45.252435731037174" lon="9.267718820151938"><ele>80.0</ele><time>2026-04-10T10:59:23Z</time></trkpt><trkpt lat="45.25238204162907" lon="9.267671987570523"><ele>80.0</ele><time>2026-04-10T10:59:24Z</time></trkpt><trkpt lat="45.25232784519159" lon="9.267624677702486"><ele>80.0</ele><time>2026-04-10T10:59:25Z</time></trkpt><trkpt lat="45.25222465192817" lon="9.267534040009568"><ele>80.16666666666667</ele><time>2026-04-10T10:59:27Z</time></trkpt><trkpt lat="45.252169894926816" lon="9.267484262471159"><ele>80.33333333333334</ele><time>2026-04-10T10:59:28Z</time></trkpt><trkpt lat="45.25211465657854" lon="9.26743404768641"><ele>80.5</ele><time>2026-04-10T10:59:29Z</time></trkpt><trkpt lat="45.252054593136045" lon="9.26737944659216"><ele>80.66666666666667</ele><time>2026-04-10T10:59:30Z</time></trkpt><trkpt lat="45.25198534357469" lon="9.267316494701872"><ele>80.83333333333333</ele><time>2026-04-10T10:59:31Z</time></trkpt><trkpt lat="45.25190596449089" lon="9.267245559251702"><ele>81.0</ele><time>2026-04-10T10:59:32Z</time></trkpt><trkpt lat="45.25182434830768" lon="9.2671732246437"><ele>81.19999999999999</ele><time>2026-04-10T10:59:33Z</time></trkpt><trkpt lat="45.25173043833812" lon="9.267090385087053"><ele>81.39999999999999</ele><time>2026-04-10T10:59:34Z</time></trkpt><trkpt lat="45.25164611750924" lon="9.267015665872389"><ele>81.6</ele><time>2026-04-10T10:59:35Z</time></trkpt><trkpt lat="45.25155358256031" lon="9.266933211659289"><ele>81.8</ele><time>2026-04-10T10:59:36Z</time></trkpt><trkpt lat="45.25146099243939" lon="9.266850707980826"><ele>82.0</ele><time>2026-04-10T10:59:37Z</time></trkpt><trkpt lat="45.25136762099458" lon="9.266768343510307"><ele>82.0</ele><time>2026-04-10T10:59:38Z</time></trkpt><trkpt lat="45.25127131201104" lon="9.266684966751006"><ele>82.0</ele><time>2026-04-10T10:59:39Z</time></trkpt><trkpt lat="45.251180756868756" lon="9.266606348532264"><ele>82.0</ele><time>2026-04-10T10:59:40Z</time></trkpt><trkpt lat="45.25109101226953" lon="9.266528346188169"><ele>82.0</ele><time>2026-04-10T10:59:41Z</time></trkpt><trkpt lat="45.25100608025225" lon="9.266455622009765"><ele>82.0</ele><time>2026-04-10T10:59:42Z</time></trkpt><trkpt lat="45.250925202764634" lon="9.266387454389752"><ele>82.0</ele><time>2026-04-10T10:59:43Z</time></trkpt><trkpt lat="45.25083831424947" lon="9.266319718616142"><ele>82.0</ele><time>2026-04-10T10:59:44Z</time></trkpt><trkpt lat="45.25074963376174" lon="9.266260554040214"><ele>82.0</ele><time>2026-04-10T10:59:45Z</time></trkpt><trkpt lat="45.25065862850912" lon="9.266210373266814"><ele>82.0</ele><time>2026-04-10T10:59:46Z</time></trkpt><trkpt lat="45.25056596481688" lon="9.266154579346601"><ele>82.0</ele><time>2026-04-10T10:59:47Z</time></trkpt><trkpt lat="45.25047790863679" lon="9.266092355741664"><ele>81.6</ele><time>2026-04-10T10:59:48Z</time></trkpt><trkpt lat="45.250402512240086" lon="9.266020722721274"><ele>81.19999999999999</ele><time>2026-04-10T10:59:49Z</time></trkpt><trkpt lat="45.2503097423586" lon="9.265929481653616"><ele>80.8</ele><time>2026-04-10T10:59:50Z</time></trkpt><trkpt lat="45.250219713572704" lon="9.265837298137201"><ele>80.4</ele><time>2026-04-10T10:59:51Z</time></trkpt><trkpt lat="45.25012552666268" lon="9.265750437521632"><ele>80.0</ele><time>2026-04-10T10:59:52Z</time></trkpt><trkpt lat="45.25004112160674" lon="9.265628841226762"><ele>80.25</ele><time>2026-04-10T10:59:53Z</time></trkpt><trkpt lat="45.24993249405715" lon="9.265549282522297"><ele>80.5</ele><time>2026-04-10T10:59:54Z</time></trkpt><trkpt lat="45.249833482983284" lon="9.265454553357346"><ele>80.75</ele><time>2026-04-10T10:59:55Z</time></trkpt><trkpt lat="45.249728921688884" lon="9.265375591477724"><ele>81.0</ele><time>2026-04-10T10:59:56Z</time></trkpt><trkpt lat="45.24962108609257" lon="9.265285645099592"><ele>81.0</ele><time>2026-04-10T10:59:56.999Z</time></trkpt><trkpt lat="45.2495183012204" lon="9.265201571284726"><ele>81.0</ele><time>2026-04-10T10:59:57.999Z</time></trkpt><trkpt lat="45.249437542576445" lon="9.265108094763784"><ele>81.0</ele><time>2026-04-10T10:59:58.999Z</time></trkpt><trkpt lat="45.24935196589237" lon="9.265061427780237"><ele>81.0</ele><time>2026-04-10T10:59:59.999Z</time></trkpt><trkpt lat="45.24928684166042" lon="9.264997437256593"><ele>81.0</ele><time>2026-04-10T11:00:00.999Z</time></trkpt><trkpt lat="45.24922863744481" lon="9.264938821040115"><ele>81.0</ele><time>2026-04-10T11:00:01.999Z</time></trkpt><trkpt lat="45.249175946261815" lon="9.264873158401556"><ele>81.0</ele><time>2026-04-10T11:00:02.999Z</time></trkpt><trkpt lat="45.249112525184664" lon="9.26484096187977"><ele>81.0</ele><time>2026-04-10T11:00:03.999Z</time></trkpt><trkpt lat="45.2490386897026" lon="9.26489644356928"><ele>81.0</ele><time>2026-04-10T11:00:04.999Z</time></trkpt><trkpt lat="45.24896556080184" lon="9.264927498564141"><ele>81.0</ele><time>2026-04-10T11:00:05.999Z</time></trkpt><trkpt lat="45.248880054059654" lon="9.264952063815002"><ele>81.0</ele><time>2026-04-10T11:00:06.999Z</time></trkpt><trkpt lat="45.24880454691026" lon="9.26499423341499"><ele>81.16666666666667</ele><time>2026-04-10T11:00:07.999Z</time></trkpt><trkpt lat="45.24872825264768" lon="9.265015199113618"><ele>81.33333333333333</ele><time>2026-04-10T11:00:08.999Z</time></trkpt><trkpt lat="45.24864245950431" lon="9.265004268831742"><ele>81.5</ele><time>2026-04-10T11:00:09.999Z</time></trkpt><trkpt lat="45.248549231313255" lon="9.26496730180566"><ele>81.66666666666666</ele><time>2026-04-10T11:00:10.999Z</time></trkpt><trkpt lat="45.24845488139648" lon="9.264941868561637"><ele>81.83333333333333</ele><time>2026-04-10T11:00:11.999Z</time></trkpt><trkpt lat="45.24836973115508" lon="9.264953341539975"><ele>82.0</ele><time>2026-04-10T11:00:12.999Z</time></trkpt><trkpt lat="45.2482898236381" lon="9.264968874776143"><ele>82.0</ele><time>2026-04-10T11:00:13.999Z</time></trkpt><trkpt lat="45.24820928398878" lon="9.26501030388119"><ele>82.0</ele><time>2026-04-10T11:00:14.999Z</time></trkpt><trkpt lat="45.24813092531682" lon="9.265079061460384"><ele>82.0</ele><time>2026-04-10T11:00:15.999Z</time></trkpt><trkpt lat="45.24805111517571" lon="9.265167581961105"><ele>82.0</ele><time>2026-04-10T11:00:16.999Z</time></trkpt><trkpt lat="45.247971625199504" lon="9.265264081130425"><ele>82.0</ele><time>2026-04-10T11:00:17.999Z</time></trkpt><trkpt lat="45.24787476645941" lon="9.26532404289569"><ele>81.5</ele><time>2026-04-10T11:00:18.999Z</time></trkpt><trkpt lat="45.2477756804667" lon="9.265394545752626"><ele>81.0</ele><time>2026-04-10T11:00:19.999Z</time></trkpt><trkpt lat="45.24767161184033" lon="9.265444617196076"><ele>80.5</ele><time>2026-04-10T11:00:20.999Z</time></trkpt><trkpt lat="45.24755759362264" lon="9.265497661584961"><ele>80.0</ele><time>2026-04-10T11:00:21.999Z</time></trkpt><trkpt lat="45.24744403380506" lon="9.265574011971523"><ele>79.75</ele><time>2026-04-10T11:00:22.999Z</time></trkpt><trkpt lat="45.24732363785703" lon="9.265623171029189"><ele>79.5</ele><time>2026-04-10T11:00:23.999Z</time></trkpt><trkpt lat="45.24719693380223" lon="9.265667062210136"><ele>79.25</ele><time>2026-04-10T11:00:24.999Z</time></trkpt><trkpt lat="45.24706765332916" lon="9.265729690228614"><ele>79.0</ele><time>2026-04-10T11:00:25.999Z</time></trkpt><trkpt lat="45.24692818538948" lon="9.265813485057954"><ele>79.0</ele><time>2026-04-10T11:00:26.999Z</time></trkpt><trkpt lat="45.24680109014676" lon="9.265877150746928"><ele>79.0</ele><time>2026-04-10T11:00:27.999Z</time></trkpt><trkpt lat="45.24668670858794" lon="9.265931997722317"><ele>79.0</ele><time>2026-04-10T11:00:28.999Z</time></trkpt><trkpt lat="45.24658074756521" lon="9.265994444480226"><ele>79.0</ele><time>2026-04-10T11:00:29.999Z</time></trkpt><trkpt lat="45.24646015805367" lon="9.266032044531501"><ele>79.0</ele><time>2026-04-10T11:00:30.999Z</time></trkpt><trkpt lat="45.246332593841245" lon="9.266084459590143"><ele>79.0</ele><time>2026-04-10T11:00:31.999Z</time></trkpt><trkpt lat="45.24620275211476" lon="9.266163439761522"><ele>79.0</ele><time>2026-04-10T11:00:32.999Z</time></trkpt><trkpt lat="45.246059863546456" lon="9.266229159046743"><ele>79.0</ele><time>2026-04-10T11:00:33.999Z</time></trkpt><trkpt lat="45.24592328577909" lon="9.266296673248785"><ele>79.0</ele><time>2026-04-10T11:00:34.999Z</time></trkpt><trkpt lat="45.24579975484924" lon="9.266380291415764"><ele>79.0</ele><time>2026-04-10T11:00:35.999Z</time></trkpt><trkpt lat="45.245688091232886" lon="9.26643655522098"><ele>79.0</ele><time>2026-04-10T11:00:36.999Z</time></trkpt><trkpt lat="45.245600130834134" lon="9.266483027781469"><ele>79.0</ele><time>2026-04-10T11:00:37.999Z</time></trkpt><trkpt lat="45.24552752976684" lon="9.266523165255618"><ele>79.0</ele><time>2026-04-10T11:00:38.999Z</time></trkpt><trkpt lat="45.24545543415843" lon="9.266534393126383"><ele>79.16666666666666</ele><time>2026-04-10T11:00:39.999Z</time></trkpt><trkpt lat="45.245393236724546" lon="9.26657313269659"><ele>79.33333333333333</ele><time>2026-04-10T11:00:40.999Z</time></trkpt><trkpt lat="45.24531898359101" lon="9.266573645355722"><ele>79.5</ele><time>2026-04-10T11:00:41.999Z</time></trkpt><trkpt lat="45.24524288552634" lon="9.266599653741283"><ele>79.66666666666667</ele><time>2026-04-10T11:00:42.999Z</time></trkpt><trkpt lat="45.24516942253675" lon="9.266664198831847"><ele>79.83333333333334</ele><time>2026-04-10T11:00:43.999Z</time></trkpt><trkpt lat="45.24510384474407" lon="9.266752465780513"><ele>80.0</ele><time>2026-04-10T11:00:44.999Z</time></trkpt><trkpt lat="45.245015498001955" lon="9.26678397025768"><ele>80.0</ele><time>2026-04-10T11:00:45.999Z</time></trkpt><trkpt lat="45.24492623707916" lon="9.266831144781765"><ele>80.0</ele><time>2026-04-10T11:00:46.999Z</time></trkpt><trkpt lat="45.24483637394267" lon="9.266879184104777"><ele>80.0</ele><time>2026-04-10T11:00:47.999Z</time></trkpt><trkpt lat="45.244753203014696" lon="9.266942606944282"><ele>80.0</ele><time>2026-04-10T11:00:48.999Z</time></trkpt><trkpt lat="45.244661861305545" lon="9.266993012051488"><ele>80.0</ele><time>2026-04-10T11:00:49.999Z</time></trkpt><trkpt lat="45.24457399896161" lon="9.267041337484283"><ele>80.0</ele><time>2026-04-10T11:00:51.001Z</time></trkpt><trkpt lat="45.24447807290722" lon="9.267070725826372"><ele>80.0</ele><time>2026-04-10T11:00:52.001Z</time></trkpt><trkpt lat="45.24439863924277" lon="9.267137751048091"><ele>80.0</ele><time>2026-04-10T11:00:53.001Z</time></trkpt><trkpt lat="45.24430245621596" lon="9.267166248044953"><ele>80.0</ele><time>2026-04-10T11:00:54.001Z</time></trkpt><trkpt lat="45.24421793408571" lon="9.267234446899252"><ele>80.0</ele><time>2026-04-10T11:00:55.001Z</time></trkpt><trkpt lat="45.24412642031098" lon="9.267263410499664"><ele>80.0</ele><time>2026-04-10T11:00:56.001Z</time></trkpt><trkpt lat="45.244044711663264" lon="9.267325123482085"><ele>80.0</ele><time>2026-04-10T11:00:57.001Z</time></trkpt><trkpt lat="45.243955021115354" lon="9.267370364212113"><ele>80.0</ele><time>2026-04-10T11:00:58.001Z</time></trkpt><trkpt lat="45.24386935207317" lon="9.26741819875458"><ele>80.0</ele><time>2026-04-10T11:00:59.001Z</time></trkpt><trkpt lat="45.24378493733411" lon="9.267469818867776"><ele>80.0</ele><time>2026-04-10T11:01:00.001Z</time></trkpt><trkpt lat="45.24369746409677" lon="9.267517042625204"><ele>80.0</ele><time>2026-04-10T11:01:01.001Z</time></trkpt><trkpt lat="45.2436040103429" lon="9.267542768239629"><ele>80.0</ele><time>2026-04-10T11:01:02.001Z</time></trkpt><trkpt lat="45.24351422407571" lon="9.267590687702114"><ele>80.0</ele><time>2026-04-10T11:01:03.001Z</time></trkpt><trkpt lat="45.243435050492536" lon="9.267657380401056"><ele>80.0</ele><time>2026-04-10T11:01:04.001Z</time></trkpt><trkpt lat="45.24333970313413" lon="9.267696116301606"><ele>80.0</ele><time>2026-04-10T11:01:05.001Z</time></trkpt><trkpt lat="45.243253678533506" lon="9.267750786444603"><ele>80.0</ele><time>2026-04-10T11:01:06Z</time></trkpt><trkpt lat="45.24316056343851" lon="9.267798086960608"><ele>80.0</ele><time>2026-04-10T11:01:07Z</time></trkpt><trkpt lat="45.2430687194559" lon="9.26785158083273"><ele>80.0</ele><time>2026-04-10T11:01:08Z</time></trkpt><trkpt lat="45.242970730759225" lon="9.267883639909984"><ele>80.0</ele><time>2026-04-10T11:01:09Z</time></trkpt><trkpt lat="45.24287710928547" lon="9.267935207498628"><ele>80.0</ele><time>2026-04-10T11:01:10Z</time></trkpt><trkpt lat="45.24278485066644" lon="9.267986700690514"><ele>80.0</ele><time>2026-04-10T11:01:11Z</time></trkpt><trkpt lat="45.242703698757026" lon="9.268056087876348"><ele>80.0</ele><time>2026-04-10T11:01:12Z</time></trkpt><trkpt lat="45.242616516234925" lon="9.268105464836404"><ele>80.0</ele><time>2026-04-10T11:01:13Z</time></trkpt><trkpt lat="45.2425271593349" lon="9.268158328262036"><ele>80.0</ele><time>2026-04-10T11:01:14Z</time></trkpt><trkpt lat="45.24244583633031" lon="9.268180399717881"><ele>80.0</ele><time>2026-04-10T11:01:15Z</time></trkpt><trkpt lat="45.24238381656244" lon="9.268207870481602"><ele>80.0</ele><time>2026-04-10T11:01:16Z</time></trkpt><trkpt lat="45.24231575627939" lon="9.268220776268974"><ele>80.0</ele><time>2026-04-10T11:01:18Z</time></trkpt><trkpt lat="45.24231452284555" lon="9.2683197403563"><ele>80.0</ele><time>2026-04-10T11:01:19Z</time></trkpt><trkpt lat="45.242310526547335" lon="9.268427947221026"><ele>80.0</ele><time>2026-04-10T11:01:21Z</time></trkpt><trkpt lat="45.242230093272006" lon="9.268495112176364"><ele>80.0</ele><time>2026-04-10T11:01:23Z</time></trkpt><trkpt lat="45.24212353269938" lon="9.268610099488871"><ele>80.0</ele><time>2026-04-10T11:01:25Z</time></trkpt><trkpt lat="45.24208602575547" lon="9.268710483677037"><ele>80.2</ele><time>2026-04-10T11:01:26Z</time></trkpt><trkpt lat="45.24204089056103" lon="9.268775692392447"><ele>80.4</ele><time>2026-04-10T11:01:27Z</time></trkpt><trkpt lat="45.24200474171649" lon="9.268916548698352"><ele>80.6</ele><time>2026-04-10T11:01:29Z</time></trkpt><trkpt lat="45.24197590975351" lon="9.2690234354225"><ele>80.8</ele><time>2026-04-10T11:01:31Z</time></trkpt><trkpt lat="45.24180612453037" lon="9.269072106648839"><ele>81.0</ele><time>2026-04-10T11:01:33Z</time></trkpt><trkpt lat="45.24171268455748" lon="9.26911357081243"><ele>81.0</ele><time>2026-04-10T11:01:34Z</time></trkpt><trkpt lat="45.2416199049318" lon="9.269154047067834"><ele>81.0</ele><time>2026-04-10T11:01:35Z</time></trkpt><trkpt lat="45.2415331206912" lon="9.269197420232848"><ele>81.0</ele><time>2026-04-10T11:01:36Z</time></trkpt><trkpt lat="45.24144139364448" lon="9.269239484109598"><ele>81.0</ele><time>2026-04-10T11:01:37Z</time></trkpt><trkpt lat="45.24136003786231" lon="9.26928264115699"><ele>81.0</ele><time>2026-04-10T11:01:38Z</time></trkpt><trkpt lat="45.241282864024086" lon="9.269324622742218"><ele>80.8</ele><time>2026-04-10T11:01:39Z</time></trkpt><trkpt lat="45.24119643187037" lon="9.269371256358529"><ele>80.6</ele><time>2026-04-10T11:01:40Z</time></trkpt><trkpt lat="45.24110825987258" lon="9.269423992567651"><ele>80.4</ele><time>2026-04-10T11:01:41Z</time></trkpt><trkpt lat="45.24101872656241" lon="9.26947867812048"><ele>80.2</ele><time>2026-04-10T11:01:42Z</time></trkpt><trkpt lat="45.24092206442967" lon="9.269534603756385"><ele>80.0</ele><time>2026-04-10T11:01:43Z</time></trkpt><trkpt lat="45.240827352729795" lon="9.269586786431967"><ele>80.0</ele><time>2026-04-10T11:01:44Z</time></trkpt><trkpt lat="45.24072494701085" lon="9.269631815523331"><ele>80.0</ele><time>2026-04-10T11:01:45Z</time></trkpt><trkpt lat="45.24062039720167" lon="9.269684064443373"><ele>80.0</ele><time>2026-04-10T11:01:46Z</time></trkpt><trkpt lat="45.240511593846506" lon="9.269742137651395"><ele>80.0</ele><time>2026-04-10T11:01:47Z</time></trkpt><trkpt lat="45.24040191710071" lon="9.269801392430857"><ele>79.8</ele><time>2026-04-10T11:01:48Z</time></trkpt><trkpt lat="45.24029732215249" lon="9.269858340186666"><ele>79.6</ele><time>2026-04-10T11:01:49Z</time></trkpt><trkpt lat="45.24020297885229" lon="9.269906391622857"><ele>79.4</ele><time>2026-04-10T11:01:50Z</time></trkpt><trkpt lat="45.24012103600754" lon="9.26995007706364"><ele>79.2</ele><time>2026-04-10T11:01:51Z</time></trkpt><trkpt lat="45.24004544305779" lon="9.269983356039264"><ele>79.0</ele><time>2026-04-10T11:01:52Z</time></trkpt><trkpt lat="45.239971494801296" lon="9.270013990135517"><ele>79.0</ele><time>2026-04-10T11:01:53Z</time></trkpt><trkpt lat="45.23988352525393" lon="9.270040149952944"><ele>79.0</ele><time>2026-04-10T11:01:54Z</time></trkpt><trkpt lat="45.239802709653894" lon="9.27006162071795"><ele>79.0</ele><time>2026-04-10T11:01:55Z</time></trkpt><trkpt lat="45.23971483391076" lon="9.270083914624353"><ele>79.0</ele><time>2026-04-10T11:01:56Z</time></trkpt><trkpt lat="45.2396327404375" lon="9.270107699018324"><ele>79.0</ele><time>2026-04-10T11:01:57Z</time></trkpt><trkpt lat="45.23955682078469" lon="9.270125299394172"><ele>79.0</ele><time>2026-04-10T11:01:58Z</time></trkpt><trkpt lat="45.239483814499984" lon="9.27013585426695"><ele>78.83333333333333</ele><time>2026-04-10T11:01:59Z</time></trkpt><trkpt lat="45.239421340620716" lon="9.270147189988544"><ele>78.66666666666666</ele><time>2026-04-10T11:02:00Z</time></trkpt><trkpt lat="45.23930922624761" lon="9.27015687208921"><ele>78.5</ele><time>2026-04-10T11:02:01.999Z</time></trkpt><trkpt lat="45.239209724587646" lon="9.270162579606835"><ele>78.33333333333333</ele><time>2026-04-10T11:02:03.999Z</time></trkpt><trkpt lat="45.239117695867925" lon="9.270174093891503"><ele>78.16666666666667</ele><time>2026-04-10T11:02:05.999Z</time></trkpt><trkpt lat="45.23905046818331" lon="9.27020754011059"><ele>78.0</ele><time>2026-04-10T11:02:07.999Z</time></trkpt><trkpt lat="45.23896982946288" lon="9.270243346459813"><ele>78.0</ele><time>2026-04-10T11:02:10.999Z</time></trkpt><trkpt lat="45.23889808372697" lon="9.270245727989167"><ele>78.0</ele><time>2026-04-10T11:02:31.999Z</time></trkpt><trkpt lat="45.238837375728785" lon="9.270292571748104"><ele>78.0</ele><time>2026-04-10T11:02:33.999Z</time></trkpt><trkpt lat="45.23890063501485" lon="9.27025949523373"><ele>78.0</ele><time>2026-04-10T11:03:06.001Z</time></trkpt><trkpt lat="45.23897393728122" lon="9.27024009704961"><ele>78.0</ele><time>2026-04-10T11:03:08Z</time></trkpt><trkpt lat="45.23913523909249" lon="9.270164663125598"><ele>78.0</ele><time>2026-04-10T11:03:13Z</time></trkpt><trkpt lat="45.23922823892023" lon="9.270146415758061"><ele>78.0</ele><time>2026-04-10T11:03:15Z</time></trkpt><trkpt lat="45.23932621285705" lon="9.270140325777973"><ele>78.0</ele><time>2026-04-10T11:03:17Z</time></trkpt><trkpt lat="45.23944206294354" lon="9.270130037564435"><ele>78.0</ele><time>2026-04-10T11:03:19Z</time></trkpt><trkpt lat="45.2395662017088" lon="9.270101541251998"><ele>78.0</ele><time>2026-04-10T11:03:21Z</time></trkpt><trkpt lat="45.23967865503423" lon="9.270075969823527"><ele>78.0</ele><time>2026-04-10T11:03:23Z</time></trkpt><trkpt lat="45.2397928872583" lon="9.270042079657664"><ele>78.0</ele><time>2026-04-10T11:03:25Z</time></trkpt><trkpt lat="45.23991155073693" lon="9.270010625175019"><ele>78.0</ele><time>2026-04-10T11:03:27Z</time></trkpt><trkpt lat="45.24003144938584" lon="9.269969492626755"><ele>78.0</ele><time>2026-04-10T11:03:29Z</time></trkpt><trkpt lat="45.24010248356999" lon="9.26994189562251"><ele>78.0</ele><time>2026-04-10T11:03:30Z</time></trkpt><trkpt lat="45.24016841835291" lon="9.269910729889983"><ele>78.16666666666667</ele><time>2026-04-10T11:03:31Z</time></trkpt><trkpt lat="45.24023699984034" lon="9.26987305126149"><ele>78.33333333333333</ele><time>2026-04-10T11:03:32Z</time></trkpt><trkpt lat="45.24030832495046" lon="9.269830681414193"><ele>78.5</ele><time>2026-04-10T11:03:33Z</time></trkpt><trkpt lat="45.24038153432216" lon="9.269791039920879"><ele>78.66666666666666</ele><time>2026-04-10T11:03:34Z</time></trkpt><trkpt lat="45.240453726863514" lon="9.269757400494063"><ele>78.83333333333333</ele><time>2026-04-10T11:03:35Z</time></trkpt><trkpt lat="45.24052145027703" lon="9.269720187764484"><ele>79.0</ele><time>2026-04-10T11:03:36Z</time></trkpt><trkpt lat="45.24059449647871" lon="9.269679778910502"><ele>79.14285714285715</ele><time>2026-04-10T11:03:37Z</time></trkpt><trkpt lat="45.240662798576466" lon="9.269645668683042"><ele>79.28571428571429</ele><time>2026-04-10T11:03:38Z</time></trkpt><trkpt lat="45.240726097984265" lon="9.269619906109778"><ele>79.42857142857143</ele><time>2026-04-10T11:03:39Z</time></trkpt><trkpt lat="45.240794784369974" lon="9.269585382133279"><ele>79.57142857142858</ele><time>2026-04-10T11:03:40Z</time></trkpt><trkpt lat="45.24086068567537" lon="9.269549381623602"><ele>79.71428571428572</ele><time>2026-04-10T11:03:41Z</time></trkpt><trkpt lat="45.240926367436614" lon="9.269514682983736"><ele>79.85714285714286</ele><time>2026-04-10T11:03:42Z</time></trkpt><trkpt lat="45.24099194516033" lon="9.269478936523809"><ele>80.0</ele><time>2026-04-10T11:03:43Z</time></trkpt><trkpt lat="45.241059992189534" lon="9.26944249750562"><ele>80.0</ele><time>2026-04-10T11:03:44Z</time></trkpt><trkpt lat="45.24112896137829" lon="9.269397833538536"><ele>80.0</ele><time>2026-04-10T11:03:45Z</time></trkpt><trkpt lat="45.24120646603569" lon="9.269351436849346"><ele>80.0</ele><time>2026-04-10T11:03:46Z</time></trkpt><trkpt lat="45.2412904812866" lon="9.269308316551477"><ele>80.0</ele><time>2026-04-10T11:03:47Z</time></trkpt><trkpt lat="45.24137625001122" lon="9.269263149467971"><ele>80.0</ele><time>2026-04-10T11:03:48Z</time></trkpt><trkpt lat="45.24145927426242" lon="9.269219829596272"><ele>80.0</ele><time>2026-04-10T11:03:49Z</time></trkpt><trkpt lat="45.24153679322174" lon="9.269180944647504"><ele>80.16666666666667</ele><time>2026-04-10T11:03:50Z</time></trkpt><trkpt lat="45.241602932618534" lon="9.269148419823011"><ele>80.33333333333334</ele><time>2026-04-10T11:03:51Z</time></trkpt><trkpt lat="45.24166481896984" lon="9.269119706200138"><ele>80.5</ele><time>2026-04-10T11:03:52Z</time></trkpt><trkpt lat="45.241737427240274" lon="9.269086952256918"><ele>80.66666666666667</ele><time>2026-04-10T11:03:53Z</time></trkpt><trkpt lat="45.24181611069281" lon="9.26905385422455"><ele>80.83333333333333</ele><time>2026-04-10T11:03:54Z</time></trkpt><trkpt lat="45.241884655889464" lon="9.26902560890307"><ele>81.0</ele><time>2026-04-10T11:03:55Z</time></trkpt><trkpt lat="45.241969865744686" lon="9.269003837410624"><ele>81.0</ele><time>2026-04-10T11:03:57Z</time></trkpt><trkpt lat="45.242048107685235" lon="9.26904657105127"><ele>81.0</ele><time>2026-04-10T11:03:59Z</time></trkpt><trkpt lat="45.24209118587701" lon="9.26914613614948"><ele>81.0</ele><time>2026-04-10T11:04:01Z</time></trkpt><trkpt lat="45.242144779454236" lon="9.26930833401287"><ele>81.0</ele><time>2026-04-10T11:04:03Z</time></trkpt><trkpt lat="45.24217847794727" lon="9.269409947608793"><ele>81.0</ele><time>2026-04-10T11:04:03.999Z</time></trkpt><trkpt lat="45.242206513033146" lon="9.269517950866893"><ele>81.0</ele><time>2026-04-10T11:04:04.999Z</time></trkpt><trkpt lat="45.24223658997389" lon="9.269614196083717"><ele>81.0</ele><time>2026-04-10T11:04:05.999Z</time></trkpt><trkpt lat="45.24227104583333" lon="9.269703539164064"><ele>81.0</ele><time>2026-04-10T11:04:06.999Z</time></trkpt><trkpt lat="45.24230218855105" lon="9.269791133265413"><ele>81.0</ele><time>2026-04-10T11:04:07.999Z</time></trkpt><trkpt lat="45.242340453159045" lon="9.26989691426489"><ele>81.0</ele><time>2026-04-10T11:04:08.999Z</time></trkpt><trkpt lat="45.2423765712197" lon="9.269987882607841"><ele>81.0</ele><time>2026-04-10T11:04:09.999Z</time></trkpt><trkpt lat="45.24241391570831" lon="9.270088733760254"><ele>80.66666666666667</ele><time>2026-04-10T11:04:10.999Z</time></trkpt><trkpt lat="45.24245294389536" lon="9.27018210913086"><ele>80.33333333333333</ele><time>2026-04-10T11:04:11.999Z</time></trkpt><trkpt lat="45.242491198747985" lon="9.270288687064062"><ele>80.0</ele><time>2026-04-10T11:04:12.999Z</time></trkpt><trkpt lat="45.242529323511945" lon="9.27039088629357"><ele>79.66666666666666</ele><time>2026-04-10T11:04:13.999Z</time></trkpt><trkpt lat="45.2425627501268" lon="9.270490551884524"><ele>79.33333333333333</ele><time>2026-04-10T11:04:14.999Z</time></trkpt><trkpt lat="45.2425886021107" lon="9.270595272632708"><ele>79.0</ele><time>2026-04-10T11:04:15.999Z</time></trkpt><trkpt lat="45.242623331323884" lon="9.270680547948638"><ele>79.0</ele><time>2026-04-10T11:04:16.999Z</time></trkpt><trkpt lat="45.24264044992648" lon="9.27077480943554"><ele>79.0</ele><time>2026-04-10T11:04:17.999Z</time></trkpt><trkpt lat="45.24269916892067" lon="9.270901043452868"><ele>79.0</ele><time>2026-04-10T11:04:19.999Z</time></trkpt><trkpt lat="45.24274274332708" lon="9.27100464797779"><ele>79.0</ele><time>2026-04-10T11:04:21.999Z</time></trkpt><trkpt lat="45.242822678132875" lon="9.271051928355723"><ele>79.0</ele><time>2026-04-10T11:04:23.999Z</time></trkpt><trkpt lat="45.242900485540595" lon="9.271021033780661"><ele>79.0</ele><time>2026-04-10T11:04:25.999Z</time></trkpt><trkpt lat="45.24296437263171" lon="9.27096339148455"><ele>79.0</ele><time>2026-04-10T11:04:27.999Z</time></trkpt><trkpt lat="45.24301569854711" lon="9.270890917809162"><ele>79.0</ele><time>2026-04-10T11:04:29.999Z</time></trkpt><trkpt lat="45.24308436049126" lon="9.2708208952863"><ele>79.0</ele><time>2026-04-10T11:04:32.999Z</time></trkpt><trkpt lat="45.242998483284964" lon="9.270908694551247"><ele>79.0</ele><time>2026-04-10T11:04:38.999Z</time></trkpt><trkpt lat="45.24291194720972" lon="9.270970185557102"><ele>79.0</ele><time>2026-04-10T11:04:40.999Z</time></trkpt><trkpt lat="45.24283963984543" lon="9.271026752566094"><ele>79.0</ele><time>2026-04-10T11:04:42.999Z</time></trkpt><trkpt lat="45.24276134872188" lon="9.271052877784285"><ele>79.0</ele><time>2026-04-10T11:04:44.999Z</time></trkpt><trkpt lat="45.24263463279518" lon="9.271263312333442"><ele>79.0</ele><time>2026-04-10T11:04:47.999Z</time></trkpt><trkpt lat="45.24257792798246" lon="9.271328625719777"><ele>79.0</ele><time>2026-04-10T11:04:48.999Z</time></trkpt><trkpt lat="45.24251327700598" lon="9.271389058154108"><ele>79.0</ele><time>2026-04-10T11:04:49.999Z</time></trkpt><trkpt lat="45.24245384367216" lon="9.271434512724037"><ele>79.0</ele><time>2026-04-10T11:04:50.999Z</time></trkpt><trkpt lat="45.242353484707806" lon="9.271511185789276"><ele>79.0</ele><time>2026-04-10T11:04:52.999Z</time></trkpt><trkpt lat="45.24229981866621" lon="9.271560322874487"><ele>79.0</ele><time>2026-04-10T11:04:53.999Z</time></trkpt><trkpt lat="45.24224824352679" lon="9.271613801275604"><ele>79.0</ele><time>2026-04-10T11:04:54.999Z</time></trkpt><trkpt lat="45.242158104281806" lon="9.27170541235672"><ele>79.0</ele><time>2026-04-10T11:04:56.999Z</time></trkpt><trkpt lat="45.24209498517023" lon="9.27176558266764"><ele>79.0</ele><time>2026-04-10T11:04:58.999Z</time></trkpt><trkpt lat="45.242029929667495" lon="9.271822762086721"><ele>79.0</ele><time>2026-04-10T11:05:00.998Z</time></trkpt><trkpt lat="45.241962321105376" lon="9.271876695501113"><ele>79.0</ele><time>2026-04-10T11:05:03Z</time></trkpt><trkpt lat="45.24188366270848" lon="9.27190919696834"><ele>79.0</ele><time>2026-04-10T11:05:06Z</time></trkpt><trkpt lat="45.24182425828396" lon="9.27183455996999"><ele>79.0</ele><time>2026-04-10T11:05:09Z</time></trkpt><trkpt lat="45.24178040135248" lon="9.271738778394793"><ele>79.0</ele><time>2026-04-10T11:05:11Z</time></trkpt><trkpt lat="45.241732640296114" lon="9.271591232857137"><ele>79.0</ele><time>2026-04-10T11:05:13Z</time></trkpt><trkpt lat="45.24172096862568" lon="9.271492483803682"><ele>79.0</ele><time>2026-04-10T11:05:16Z</time></trkpt><trkpt lat="45.241702726495355" lon="9.271585973706948"><ele>79.0</ele><time>2026-04-10T11:05:54Z</time></trkpt><trkpt lat="45.241747747615506" lon="9.271671542272767"><ele>79.0</ele><time>2026-04-10T11:05:55Z</time></trkpt><trkpt lat="45.241803743909045" lon="9.271818699732394"><ele>79.0</ele><time>2026-04-10T11:05:57Z</time></trkpt><trkpt lat="45.24184231831802" lon="9.271907475759388"><ele>79.0</ele><time>2026-04-10T11:05:59Z</time></trkpt><trkpt lat="45.24193819352783" lon="9.271917625215412"><ele>79.0</ele><time>2026-04-10T11:06:02Z</time></trkpt><trkpt lat="45.24202859004469" lon="9.271832518092857"><ele>79.00000000000001</ele><time>2026-04-10T11:06:04Z</time></trkpt><trkpt lat="45.24208616609322" lon="9.271774608362154"><ele>79.0</ele><time>2026-04-10T11:06:05Z</time></trkpt><trkpt lat="45.24214383082973" lon="9.271717179678467"><ele>79.0</ele><time>2026-04-10T11:06:06Z</time></trkpt><trkpt lat="45.24219676801069" lon="9.271664051853875"><ele>79.0</ele><time>2026-04-10T11:06:06.999Z</time></trkpt><trkpt lat="45.24225736270363" lon="9.271610432305433"><ele>79.0</ele><time>2026-04-10T11:06:07.999Z</time></trkpt><trkpt lat="45.2423245591874" lon="9.271547049126461"><ele>79.00000000000001</ele><time>2026-04-10T11:06:08.999Z</time></trkpt><trkpt lat="45.24238716562518" lon="9.27148859076087"><ele>79.0</ele><time>2026-04-10T11:06:09.999Z</time></trkpt><trkpt lat="45.24244722327631" lon="9.27143564258564"><ele>79.0</ele><time>2026-04-10T11:06:10.999Z</time></trkpt><trkpt lat="45.242504709734845" lon="9.271383899148717"><ele>79.0</ele><time>2026-04-10T11:06:11.999Z</time></trkpt><trkpt lat="45.24255877401106" lon="9.271333949972037"><ele>79.0</ele><time>2026-04-10T11:06:12.999Z</time></trkpt><trkpt lat="45.242657426024074" lon="9.27125895404159"><ele>79.0</ele><time>2026-04-10T11:06:14.999Z</time></trkpt><trkpt lat="45.2427240612832" lon="9.271188872191125"><ele>79.0</ele><time>2026-04-10T11:06:16.999Z</time></trkpt><trkpt lat="45.24277750668039" lon="9.271107216933663"><ele>79.0</ele><time>2026-04-10T11:06:18.999Z</time></trkpt><trkpt lat="45.242775643805096" lon="9.271016546223294"><ele>79.0</ele><time>2026-04-10T11:06:20.999Z</time></trkpt><trkpt lat="45.24273200679051" lon="9.270920690736155"><ele>79.0</ele><time>2026-04-10T11:06:22.999Z</time></trkpt><trkpt lat="45.24266393313424" lon="9.270762086619069"><ele>79.0</ele><time>2026-04-10T11:06:24.999Z</time></trkpt><trkpt lat="45.24263173610137" lon="9.270659341515156"><ele>79.0</ele><time>2026-04-10T11:06:25.999Z</time></trkpt><trkpt lat="45.242599350188655" lon="9.270552437172825"><ele>79.0</ele><time>2026-04-10T11:06:26.999Z</time></trkpt><trkpt lat="45.2425675813118" lon="9.270457111280594"><ele>79.0</ele><time>2026-04-10T11:06:27.999Z</time></trkpt><trkpt lat="45.242536249671446" lon="9.270365763643765"><ele>79.0</ele><time>2026-04-10T11:06:28.999Z</time></trkpt><trkpt lat="45.24250579659089" lon="9.270275143131505"><ele>79.0</ele><time>2026-04-10T11:06:29.999Z</time></trkpt><trkpt lat="45.24247254502495" lon="9.27018126282147"><ele>79.0</ele><time>2026-04-10T11:06:30.999Z</time></trkpt><trkpt lat="45.242431163435086" lon="9.270085531164304"><ele>79.0</ele><time>2026-04-10T11:06:31.999Z</time></trkpt><trkpt lat="45.24239450601887" lon="9.269980407633243"><ele>79.0</ele><time>2026-04-10T11:06:32.999Z</time></trkpt><trkpt lat="45.24235892396099" lon="9.269883352013156"><ele>79.0</ele><time>2026-04-10T11:06:33.999Z</time></trkpt><trkpt lat="45.24232556274183" lon="9.269790849963508"><ele>79.33333333333333</ele><time>2026-04-10T11:06:34.999Z</time></trkpt><trkpt lat="45.242291564322414" lon="9.26969368150493"><ele>79.66666666666666</ele><time>2026-04-10T11:06:35.999Z</time></trkpt><trkpt lat="45.24225311752102" lon="9.269591118565636"><ele>80.0</ele><time>2026-04-10T11:06:36.999Z</time></trkpt><trkpt lat="45.2422133380217" lon="9.269481955123853"><ele>80.33333333333333</ele><time>2026-04-10T11:06:37.999Z</time></trkpt><trkpt lat="45.24217583369728" lon="9.26938271004949"><ele>80.66666666666667</ele><time>2026-04-10T11:06:38.999Z</time></trkpt><trkpt lat="45.24213833906574" lon="9.269283316735578"><ele>81.0</ele><time>2026-04-10T11:06:39.999Z</time></trkpt><trkpt lat="45.24207041820057" lon="9.269078526284257"><ele>81.0</ele><time>2026-04-10T11:06:42.999Z</time></trkpt><trkpt lat="45.2420451510409" lon="9.268973654742839"><ele>81.0</ele><time>2026-04-10T11:06:44.999Z</time></trkpt><trkpt lat="45.241902419935656" lon="9.269026018455673"><ele>81.0</ele><time>2026-04-10T11:06:47.999Z</time></trkpt><trkpt lat="45.24177003924765" lon="9.269100472928208"><ele>81.0</ele><time>2026-04-10T11:06:49.999Z</time></trkpt><trkpt lat="45.2416748351693" lon="9.269151367925797"><ele>81.0</ele><time>2026-04-10T11:06:50.999Z</time></trkpt><trkpt lat="45.24156983003375" lon="9.269201935563117"><ele>81.0</ele><time>2026-04-10T11:06:51.999Z</time></trkpt><trkpt lat="45.241460170353" lon="9.26924957626067"><ele>81.0</ele><time>2026-04-10T11:06:52.999Z</time></trkpt><trkpt lat="45.241354758789974" lon="9.269301916540822"><ele>81.0</ele><time>2026-04-10T11:06:53.999Z</time></trkpt><trkpt lat="45.24125896671703" lon="9.26935007340285"><ele>81.0</ele><time>2026-04-10T11:06:54.999Z</time></trkpt><trkpt lat="45.2411499608801" lon="9.269407038824898"><ele>80.75</ele><time>2026-04-10T11:06:55.999Z</time></trkpt><trkpt lat="45.24103163146611" lon="9.269485306801252"><ele>80.5</ele><time>2026-04-10T11:06:56.999Z</time></trkpt><trkpt lat="45.24091010990141" lon="9.269556696509675"><ele>80.25</ele><time>2026-04-10T11:06:57.999Z</time></trkpt><trkpt lat="45.24078753054494" lon="9.269617378018392"><ele>80.0</ele><time>2026-04-10T11:06:58.999Z</time></trkpt><trkpt lat="45.240675919468906" lon="9.269669833027042"><ele>79.75</ele><time>2026-04-10T11:06:59.999Z</time></trkpt><trkpt lat="45.24056345188933" lon="9.269727283326837"><ele>79.5</ele><time>2026-04-10T11:07:00.999Z</time></trkpt><trkpt lat="45.24044002188261" lon="9.269788588167822"><ele>79.25</ele><time>2026-04-10T11:07:01.999Z</time></trkpt><trkpt lat="45.24031039461595" lon="9.26985448883545"><ele>79.0</ele><time>2026-04-10T11:07:02.998Z</time></trkpt><trkpt lat="45.240195673204255" lon="9.26991583577094"><ele>79.0</ele><time>2026-04-10T11:07:03.998Z</time></trkpt><trkpt lat="45.240093186573866" lon="9.269968827415875"><ele>79.0</ele><time>2026-04-10T11:07:04.998Z</time></trkpt><trkpt lat="45.239997054886906" lon="9.270009961107812"><ele>79.0</ele><time>2026-04-10T11:07:05.998Z</time></trkpt><trkpt lat="45.239888901842285" lon="9.270046288109352"><ele>79.0</ele><time>2026-04-10T11:07:06.998Z</time></trkpt><trkpt lat="45.239771897333966" lon="9.270074318150922"><ele>79.0</ele><time>2026-04-10T11:07:08Z</time></trkpt><trkpt lat="45.23965080993297" lon="9.270106095162912"><ele>78.8</ele><time>2026-04-10T11:07:09Z</time></trkpt><trkpt lat="45.239543003395355" lon="9.27013300137081"><ele>78.60000000000001</ele><time>2026-04-10T11:07:10Z</time></trkpt><trkpt lat="45.2394342489477" lon="9.270149940904554"><ele>78.4</ele><time>2026-04-10T11:07:11Z</time></trkpt><trkpt lat="45.23932828436574" lon="9.270154720561663"><ele>78.2</ele><time>2026-04-10T11:07:12Z</time></trkpt><trkpt lat="45.23922700151481" lon="9.27016255015635"><ele>78.0</ele><time>2026-04-10T11:07:13Z</time></trkpt><trkpt lat="45.23914171385909" lon="9.270178088834989"><ele>78.0</ele><time>2026-04-10T11:07:14Z</time></trkpt><trkpt lat="45.23907872422411" lon="9.270199877676804"><ele>78.0</ele><time>2026-04-10T11:07:15Z</time></trkpt><trkpt lat="45.238967489984" lon="9.270223143289103"><ele>78.0</ele><time>2026-04-10T11:07:17Z</time></trkpt><trkpt lat="45.238895999519606" lon="9.270262015816074"><ele>78.0</ele><time>2026-04-10T11:07:19Z</time></trkpt><trkpt lat="45.23889877319585" lon="9.270529441280164"><ele>78.0</ele><time>2026-04-10T11:07:22Z</time></trkpt><trkpt lat="45.238933401225815" lon="9.270641466164335"><ele>78.2</ele><time>2026-04-10T11:07:23Z</time></trkpt><trkpt lat="45.238963600134724" lon="9.27077350522368"><ele>78.4</ele><time>2026-04-10T11:07:24Z</time></trkpt><trkpt lat="45.23899320546622" lon="9.270916157699219"><ele>78.60000000000001</ele><time>2026-04-10T11:07:25Z</time></trkpt><trkpt lat="45.23901980627532" lon="9.271060120269464"><ele>78.8</ele><time>2026-04-10T11:07:26Z</time></trkpt><trkpt lat="45.239041204229224" lon="9.271202384500256"><ele>79.0</ele><time>2026-04-10T11:07:27Z</time></trkpt><trkpt lat="45.23906423417209" lon="9.271332755034916"><ele>78.8</ele><time>2026-04-10T11:07:28Z</time></trkpt><trkpt lat="45.23908505616432" lon="9.271468178893317"><ele>78.60000000000001</ele><time>2026-04-10T11:07:29Z</time></trkpt><trkpt lat="45.239111402238024" lon="9.271617123839325"><ele>78.4</ele><time>2026-04-10T11:07:30Z</time></trkpt><trkpt lat="45.23913873322555" lon="9.271767346874894"><ele>78.2</ele><time>2026-04-10T11:07:31Z</time></trkpt><trkpt lat="45.239164262304264" lon="9.271906788324447"><ele>78.0</ele><time>2026-04-10T11:07:32Z</time></trkpt><trkpt lat="45.239190288889105" lon="9.272050760698242"><ele>78.0</ele><time>2026-04-10T11:07:33Z</time></trkpt><trkpt lat="45.23921605695125" lon="9.272202120838466"><ele>78.0</ele><time>2026-04-10T11:07:34Z</time></trkpt><trkpt lat="45.23924312095012" lon="9.272364835633441"><ele>78.0</ele><time>2026-04-10T11:07:35Z</time></trkpt><trkpt lat="45.239271856252095" lon="9.272520717967721"><ele>78.0</ele><time>2026-04-10T11:07:36Z</time></trkpt><trkpt lat="45.23930000434021" lon="9.272672355715523"><ele>78.0</ele><time>2026-04-10T11:07:37Z</time></trkpt><trkpt lat="45.23933809341532" lon="9.272827172173418"><ele>78.0</ele><time>2026-04-10T11:07:38Z</time></trkpt><trkpt lat="45.2393927324233" lon="9.272980008619234"><ele>78.0</ele><time>2026-04-10T11:07:39Z</time></trkpt><trkpt lat="45.2394635248578" lon="9.273128488588029"><ele>78.0</ele><time>2026-04-10T11:07:40Z</time></trkpt><trkpt lat="45.23953851874846" lon="9.273284524815837"><ele>78.0</ele><time>2026-04-10T11:07:41Z</time></trkpt><trkpt lat="45.2396177463304" lon="9.273445367138047"><ele>78.0</ele><time>2026-04-10T11:07:42Z</time></trkpt><trkpt lat="45.23970189506809" lon="9.273609236305843"><ele>78.0</ele><time>2026-04-10T11:07:43Z</time></trkpt><trkpt lat="45.23978655703832" lon="9.273781922269903"><ele>78.0</ele><time>2026-04-10T11:07:44Z</time></trkpt><trkpt lat="45.23986542873258" lon="9.273962270642187"><ele>78.0</ele><time>2026-04-10T11:07:45Z</time></trkpt><trkpt lat="45.23993776981011" lon="9.274155449400427"><ele>78.0</ele><time>2026-04-10T11:07:46Z</time></trkpt><trkpt lat="45.24000518543236" lon="9.274360122205017"><ele>78.0</ele><time>2026-04-10T11:07:47Z</time></trkpt><trkpt lat="45.240064849691905" lon="9.274577741161655"><ele>78.0</ele><time>2026-04-10T11:07:48Z</time></trkpt><trkpt lat="45.2401137446242" lon="9.274799813244993"><ele>78.0</ele><time>2026-04-10T11:07:49Z</time></trkpt><trkpt lat="45.240154539292135" lon="9.275030916189236"><ele>78.0</ele><time>2026-04-10T11:07:50Z</time></trkpt><trkpt lat="45.24019258897914" lon="9.275263480710233"><ele>78.0</ele><time>2026-04-10T11:07:51Z</time></trkpt><trkpt lat="45.24023254024004" lon="9.275494862062219"><ele>78.0</ele><time>2026-04-10T11:07:52Z</time></trkpt><trkpt lat="45.240269789431615" lon="9.275731284047493"><ele>78.0</ele><time>2026-04-10T11:07:53Z</time></trkpt><trkpt lat="45.24030454245236" lon="9.275963141650243"><ele>78.0</ele><time>2026-04-10T11:07:54Z</time></trkpt><trkpt lat="45.240337828585695" lon="9.276198317771168"><ele>78.0</ele><time>2026-04-10T11:07:55Z</time></trkpt><trkpt lat="45.24036503098013" lon="9.276423279997625"><ele>78.0</ele><time>2026-04-10T11:07:56Z</time></trkpt><trkpt lat="45.2403839084222" lon="9.276651748889645"><ele>78.0</ele><time>2026-04-10T11:07:57Z</time></trkpt><trkpt lat="45.24039772936471" lon="9.276881409540392"><ele>78.0</ele><time>2026-04-10T11:07:58Z</time></trkpt><trkpt lat="45.24041395576774" lon="9.277103658751916"><ele>78.0</ele><time>2026-04-10T11:07:59Z</time></trkpt><trkpt lat="45.24043232058634" lon="9.277318973038822"><ele>78.0</ele><time>2026-04-10T11:08:00Z</time></trkpt><trkpt lat="45.24044967575446" lon="9.27753782277063"><ele>78.0</ele><time>2026-04-10T11:08:00.999Z</time></trkpt><trkpt lat="45.24046335392787" lon="9.27776257580868"><ele>78.0</ele><time>2026-04-10T11:08:01.999Z</time></trkpt><trkpt lat="45.24048092390628" lon="9.277985829820445"><ele>78.0</ele><time>2026-04-10T11:08:02.999Z</time></trkpt><trkpt lat="45.240500109497184" lon="9.278208305723417"><ele>78.0</ele><time>2026-04-10T11:08:03.999Z</time></trkpt><trkpt lat="45.240518610641374" lon="9.278434430592984"><ele>78.0</ele><time>2026-04-10T11:08:04.999Z</time></trkpt><trkpt lat="45.240536651832834" lon="9.278660581658482"><ele>78.0</ele><time>2026-04-10T11:08:05.999Z</time></trkpt><trkpt lat="45.24055130485363" lon="9.278881246285263"><ele>78.0</ele><time>2026-04-10T11:08:06.999Z</time></trkpt><trkpt lat="45.24056420340098" lon="9.279107468562811"><ele>78.0</ele><time>2026-04-10T11:08:07.999Z</time></trkpt><trkpt lat="45.24058239043152" lon="9.27933537433643"><ele>78.0</ele><time>2026-04-10T11:08:08.999Z</time></trkpt><trkpt lat="45.240610305150874" lon="9.279558276407082"><ele>78.0</ele><time>2026-04-10T11:08:09.999Z</time></trkpt><trkpt lat="45.24065348510318" lon="9.27979264867417"><ele>78.0</ele><time>2026-04-10T11:08:10.999Z</time></trkpt><trkpt lat="45.24070616063389" lon="9.280025084154968"><ele>78.0</ele><time>2026-04-10T11:08:11.999Z</time></trkpt><trkpt lat="45.240762931486145" lon="9.280264487992655"><ele>78.0</ele><time>2026-04-10T11:08:12.999Z</time></trkpt><trkpt lat="45.240819568269664" lon="9.280511732317576"><ele>78.0</ele><time>2026-04-10T11:08:13.999Z</time></trkpt><trkpt lat="45.24087616870341" lon="9.280753888799335"><ele>78.0</ele><time>2026-04-10T11:08:14.999Z</time></trkpt><trkpt lat="45.24094449072167" lon="9.281000218583472"><ele>78.0</ele><time>2026-04-10T11:08:15.999Z</time></trkpt><trkpt lat="45.24103583708065" lon="9.281242190834034"><ele>78.0</ele><time>2026-04-10T11:08:16.999Z</time></trkpt><trkpt lat="45.241148896627784" lon="9.281482257401992"><ele>78.33333333333333</ele><time>2026-04-10T11:08:17.999Z</time></trkpt><trkpt lat="45.24123450976499" lon="9.281717718299685"><ele>78.66666666666666</ele><time>2026-04-10T11:08:18.999Z</time></trkpt><trkpt lat="45.241326224406514" lon="9.28194648138596"><ele>79.0</ele><time>2026-04-10T11:08:19.999Z</time></trkpt><trkpt lat="45.24141902568403" lon="9.282163468344425"><ele>78.33333333333333</ele><time>2026-04-10T11:08:20.999Z</time></trkpt><trkpt lat="45.24150877545617" lon="9.282361569823681"><ele>77.66666666666667</ele><time>2026-04-10T11:08:21.999Z</time></trkpt><trkpt lat="45.24159693916156" lon="9.282531710171927"><ele>77.0</ele><time>2026-04-10T11:08:22.999Z</time></trkpt><trkpt lat="45.24168426327582" lon="9.282683531953897"><ele>77.0</ele><time>2026-04-10T11:08:23.999Z</time></trkpt><trkpt lat="45.24177280476771" lon="9.282817237600986"><ele>77.0</ele><time>2026-04-10T11:08:24.999Z</time></trkpt><trkpt lat="45.24186530720698" lon="9.282933582786823"><ele>77.0</ele><time>2026-04-10T11:08:25.999Z</time></trkpt><trkpt lat="45.24195718620648" lon="9.283035971028987"><ele>77.0</ele><time>2026-04-10T11:08:26.999Z</time></trkpt><trkpt lat="45.24204251365712" lon="9.2831292743975"><ele>77.2</ele><time>2026-04-10T11:08:27.999Z</time></trkpt><trkpt lat="45.242119754589595" lon="9.28321188576473"><ele>77.4</ele><time>2026-04-10T11:08:28.999Z</time></trkpt><trkpt lat="45.242195268257866" lon="9.283288630627773"><ele>77.6</ele><time>2026-04-10T11:08:29.999Z</time></trkpt><trkpt lat="45.24226817507633" lon="9.283366301250348"><ele>77.8</ele><time>2026-04-10T11:08:30.999Z</time></trkpt><trkpt lat="45.24234276753041" lon="9.283449195956349"><ele>78.0</ele><time>2026-04-10T11:08:31.999Z</time></trkpt><trkpt lat="45.24241950232711" lon="9.283537273980208"><ele>78.33333333333333</ele><time>2026-04-10T11:08:32.999Z</time></trkpt><trkpt lat="45.24249899346929" lon="9.283627563737868"><ele>78.66666666666667</ele><time>2026-04-10T11:08:33.999Z</time></trkpt><trkpt lat="45.24257073929393" lon="9.283706503791969"><ele>79.0</ele><time>2026-04-10T11:08:34.999Z</time></trkpt><trkpt lat="45.24263893246555" lon="9.28377818175884"><ele>79.33333333333334</ele><time>2026-04-10T11:08:35.999Z</time></trkpt><trkpt lat="45.24269593946229" lon="9.283841190393442"><ele>79.66666666666667</ele><time>2026-04-10T11:08:36.999Z</time></trkpt><trkpt lat="45.24275471358658" lon="9.28388602875698"><ele>80.0</ele><time>2026-04-10T11:08:38.999Z</time></trkpt><trkpt lat="45.242746547139305" lon="9.283687701707334"><ele>80.0</ele><time>2026-04-10T11:08:43.999Z</time></trkpt><trkpt lat="45.24266358524348" lon="9.283681657213032"><ele>80.0</ele><time>2026-04-10T11:08:47.999Z</time></trkpt><trkpt lat="45.24273720824359" lon="9.283471960950932"><ele>80.0</ele><time>2026-04-10T11:08:48.999Z</time></trkpt><trkpt lat="45.24263562484658" lon="9.283349650937199"><ele>80.0</ele><time>2026-04-10T11:08:50.999Z</time></trkpt><trkpt lat="45.242569126127435" lon="9.283269298607882"><ele>80.0</ele><time>2026-04-10T11:08:51.999Z</time></trkpt><trkpt lat="45.24249786261948" lon="9.283182934036425"><ele>80.0</ele><time>2026-04-10T11:08:52.999Z</time></trkpt><trkpt lat="45.242423649914564" lon="9.283092539546354"><ele>80.0</ele><time>2026-04-10T11:08:53.999Z</time></trkpt><trkpt lat="45.24235538785218" lon="9.28300939295919"><ele>80.0</ele><time>2026-04-10T11:08:54.999Z</time></trkpt><trkpt lat="45.24229787169083" lon="9.28293933571688"><ele>80.0</ele><time>2026-04-10T11:08:55.999Z</time></trkpt><trkpt lat="45.24224593928709" lon="9.282876079517294"><ele>80.0</ele><time>2026-04-10T11:08:56.999Z</time></trkpt><trkpt lat="45.24219621371024" lon="9.282815511494192"><ele>79.25</ele><time>2026-04-10T11:09:00.999Z</time></trkpt><trkpt lat="45.24211195642251" lon="9.282712886104406"><ele>78.5</ele><time>2026-04-10T11:09:02.999Z</time></trkpt><trkpt lat="45.24205428725218" lon="9.282642646109856"><ele>77.75</ele><time>2026-04-10T11:09:03.999Z</time></trkpt><trkpt lat="45.24199697050076" lon="9.282572835355722"><ele>77.0</ele><time>2026-04-10T11:09:04.999Z</time></trkpt><trkpt lat="45.24176820535794" lon="9.28276848309005"><ele>77.0</ele><time>2026-04-10T11:09:05.998Z</time></trkpt><trkpt lat="45.24171274307982" lon="9.282670384719676"><ele>77.0</ele><time>2026-04-10T11:09:06.998Z</time></trkpt><trkpt lat="45.241658982341576" lon="9.282575112943228"><ele>77.0</ele><time>2026-04-10T11:09:07.998Z</time></trkpt><trkpt lat="45.24160402720762" lon="9.282477394116837"><ele>77.0</ele><time>2026-04-10T11:09:08.998Z</time></trkpt><trkpt lat="45.241556236348416" lon="9.28239416458413"><ele>77.0</ele><time>2026-04-10T11:09:09.998Z</time></trkpt><trkpt lat="45.24147814741377" lon="9.282253744701139"><ele>77.4</ele><time>2026-04-10T11:09:13Z</time></trkpt><trkpt lat="45.24134090359024" lon="9.282395718868967"><ele>77.80000000000001</ele><time>2026-04-10T11:09:18Z</time></trkpt><trkpt lat="45.24129151250577" lon="9.282463141106783"><ele>78.2</ele><time>2026-04-10T11:09:19Z</time></trkpt><trkpt lat="45.24123086966536" lon="9.282538971857031"><ele>78.60000000000001</ele><time>2026-04-10T11:09:20Z</time></trkpt><trkpt lat="45.24116598983122" lon="9.282622549796224"><ele>79.0</ele><time>2026-04-10T11:09:21Z</time></trkpt><trkpt lat="45.241106013112535" lon="9.282701954953346"><ele>79.0</ele><time>2026-04-10T11:09:22Z</time></trkpt><trkpt lat="45.24104757126008" lon="9.282779592977938"><ele>79.0</ele><time>2026-04-10T11:09:23Z</time></trkpt><trkpt lat="45.24097779126048" lon="9.282863763087581"><ele>79.0</ele><time>2026-04-10T11:09:24Z</time></trkpt><trkpt lat="45.24090454317241" lon="9.28296101682629"><ele>79.0</ele><time>2026-04-10T11:09:25Z</time></trkpt><trkpt lat="45.24083908768757" lon="9.283054347787568"><ele>79.0</ele><time>2026-04-10T11:09:26Z</time></trkpt><trkpt lat="45.24077337425955" lon="9.283138774791146"><ele>79.0</ele><time>2026-04-10T11:09:27Z</time></trkpt><trkpt lat="45.24070201962356" lon="9.28322972161834"><ele>79.0</ele><time>2026-04-10T11:09:28Z</time></trkpt><trkpt lat="45.240633786200384" lon="9.283315772528862"><ele>79.0</ele><time>2026-04-10T11:09:29Z</time></trkpt><trkpt lat="45.24056427634551" lon="9.283406341490595"><ele>79.0</ele><time>2026-04-10T11:09:30Z</time></trkpt><trkpt lat="45.24048873168486" lon="9.283508168920697"><ele>79.0</ele><time>2026-04-10T11:09:31Z</time></trkpt><trkpt lat="45.240411068770015" lon="9.283608392073313"><ele>78.8</ele><time>2026-04-10T11:09:32Z</time></trkpt><trkpt lat="45.24033876053555" lon="9.283703834214066"><ele>78.60000000000001</ele><time>2026-04-10T11:09:33Z</time></trkpt><trkpt lat="45.240266961384506" lon="9.283800450011492"><ele>78.4</ele><time>2026-04-10T11:09:34Z</time></trkpt><trkpt lat="45.24019660502399" lon="9.283894613680385"><ele>78.2</ele><time>2026-04-10T11:09:35Z</time></trkpt><trkpt lat="45.240125324934844" lon="9.283987928970463"><ele>78.0</ele><time>2026-04-10T11:09:36Z</time></trkpt><trkpt lat="45.24005774169857" lon="9.284078107637537"><ele>78.0</ele><time>2026-04-10T11:09:37Z</time></trkpt><trkpt lat="45.23999126709834" lon="9.28416212236085"><ele>78.0</ele><time>2026-04-10T11:09:38Z</time></trkpt><trkpt lat="45.23991709053063" lon="9.284255550802198"><ele>78.0</ele><time>2026-04-10T11:09:39Z</time></trkpt><trkpt lat="45.23984515146685" lon="9.28434821965661"><ele>78.0</ele><time>2026-04-10T11:09:40Z</time></trkpt><trkpt lat="45.23977920219756" lon="9.284427260997864"><ele>78.0</ele><time>2026-04-10T11:09:41Z</time></trkpt><trkpt lat="45.23970649278888" lon="9.284517163328296"><ele>78.2</ele><time>2026-04-10T11:09:42Z</time></trkpt><trkpt lat="45.23964714999487" lon="9.28460978460299"><ele>78.4</ele><time>2026-04-10T11:09:43Z</time></trkpt><trkpt lat="45.23959892894091" lon="9.284714333020263"><ele>78.60000000000001</ele><time>2026-04-10T11:09:44Z</time></trkpt><trkpt lat="45.239564051249886" lon="9.284837530736565"><ele>78.8</ele><time>2026-04-10T11:09:45Z</time></trkpt><trkpt lat="45.239529668780015" lon="9.284967791070233"><ele>79.0</ele><time>2026-04-10T11:09:46Z</time></trkpt><trkpt lat="45.23948727292043" lon="9.28510377608394"><ele>79.2</ele><time>2026-04-10T11:09:47Z</time></trkpt><trkpt lat="45.239439135454084" lon="9.285239300671796"><ele>79.4</ele><time>2026-04-10T11:09:48Z</time></trkpt><trkpt lat="45.23938712102599" lon="9.285376163708468"><ele>79.6</ele><time>2026-04-10T11:09:49Z</time></trkpt><trkpt lat="45.23934053992202" lon="9.285505425967141"><ele>79.8</ele><time>2026-04-10T11:09:50Z</time></trkpt><trkpt lat="45.239294801831825" lon="9.285625627621531"><ele>80.0</ele><time>2026-04-10T11:09:51Z</time></trkpt><trkpt lat="45.23925123604757" lon="9.28574321551973"><ele>80.0</ele><time>2026-04-10T11:09:52Z</time></trkpt><trkpt lat="45.239210389951765" lon="9.285842796260713"><ele>80.0</ele><time>2026-04-10T11:09:53Z</time></trkpt><trkpt lat="45.239166284577" lon="9.285941319841733"><ele>80.0</ele><time>2026-04-10T11:09:54Z</time></trkpt><trkpt lat="45.23911333003426" lon="9.28600875690853"><ele>80.0</ele><time>2026-04-10T11:09:55Z</time></trkpt><trkpt lat="45.2390440090129" lon="9.286076511957038"><ele>80.0</ele><time>2026-04-10T11:09:56Z</time></trkpt><trkpt lat="45.23896316404368" lon="9.286143025826822"><ele>80.0</ele><time>2026-04-10T11:09:57Z</time></trkpt><trkpt lat="45.238890725905875" lon="9.286213309528717"><ele>80.0</ele><time>2026-04-10T11:09:58Z</time></trkpt><trkpt lat="45.23883022003976" lon="9.286293015531719"><ele>80.0</ele><time>2026-04-10T11:09:59Z</time></trkpt><trkpt lat="45.23877699265903" lon="9.286396282227042"><ele>80.0</ele><time>2026-04-10T11:10:00Z</time></trkpt><trkpt lat="45.238735527186606" lon="9.286511436094955"><ele>80.0</ele><time>2026-04-10T11:10:01Z</time></trkpt><trkpt lat="45.238686350033525" lon="9.2866303593077"><ele>80.0</ele><time>2026-04-10T11:10:02Z</time></trkpt><trkpt lat="45.23862614338735" lon="9.286742760482934"><ele>79.8</ele><time>2026-04-10T11:10:03Z</time></trkpt><trkpt lat="45.23856730333465" lon="9.286846090630837"><ele>79.6</ele><time>2026-04-10T11:10:04Z</time></trkpt><trkpt lat="45.2385097393578" lon="9.286952129090832"><ele>79.4</ele><time>2026-04-10T11:10:05Z</time></trkpt><trkpt lat="45.238452581427964" lon="9.287063566407815"><ele>79.2</ele><time>2026-04-10T11:10:06Z</time></trkpt><trkpt lat="45.2384046986748" lon="9.28716871660588"><ele>79.0</ele><time>2026-04-10T11:10:07Z</time></trkpt><trkpt lat="45.23837822134427" lon="9.287284131797769"><ele>79.0</ele><time>2026-04-10T11:10:08Z</time></trkpt><trkpt lat="45.238362333640005" lon="9.287411901022978"><ele>79.0</ele><time>2026-04-10T11:10:09Z</time></trkpt><trkpt lat="45.23834552603516" lon="9.287544464021062"><ele>79.0</ele><time>2026-04-10T11:10:10Z</time></trkpt><trkpt lat="45.23831989858414" lon="9.28767216853343"><ele>79.0</ele><time>2026-04-10T11:10:11Z</time></trkpt><trkpt lat="45.23829365645177" lon="9.287797416442523"><ele>79.0</ele><time>2026-04-10T11:10:12Z</time></trkpt><trkpt lat="45.23826514431222" lon="9.287915517800746"><ele>79.00000000000001</ele><time>2026-04-10T11:10:12.999Z</time></trkpt><trkpt lat="45.23823879691905" lon="9.28802229922207"><ele>79.0</ele><time>2026-04-10T11:10:13.999Z</time></trkpt><trkpt lat="45.23821544891555" lon="9.288126165884792"><ele>79.0</ele><time>2026-04-10T11:10:14.999Z</time></trkpt><trkpt lat="45.23819563271221" lon="9.2882178158069"><ele>79.0</ele><time>2026-04-10T11:10:15.999Z</time></trkpt><trkpt lat="45.23817351761951" lon="9.288308433696841"><ele>79.0</ele><time>2026-04-10T11:10:16.999Z</time></trkpt><trkpt lat="45.238151425036264" lon="9.288405818616784"><ele>79.00000000000001</ele><time>2026-04-10T11:10:17.999Z</time></trkpt><trkpt lat="45.238130999214675" lon="9.288509166614798"><ele>79.0</ele><time>2026-04-10T11:10:18.999Z</time></trkpt><trkpt lat="45.23811050325776" lon="9.288604996608992"><ele>78.66666666666666</ele><time>2026-04-10T11:10:19.999Z</time></trkpt><trkpt lat="45.238087247686344" lon="9.288699104978864"><ele>78.33333333333333</ele><time>2026-04-10T11:10:20.999Z</time></trkpt><trkpt lat="45.238063314408" lon="9.288798894029334"><ele>78.0</ele><time>2026-04-10T11:10:21.999Z</time></trkpt><trkpt lat="45.23804512108767" lon="9.288895151033463"><ele>77.66666666666667</ele><time>2026-04-10T11:10:22.999Z</time></trkpt><trkpt lat="45.2380063166576" lon="9.289045486384904"><ele>77.33333333333334</ele><time>2026-04-10T11:10:24.999Z</time></trkpt><trkpt lat="45.237967484539936" lon="9.289163549933262"><ele>77.0</ele><time>2026-04-10T11:10:26.999Z</time></trkpt><trkpt lat="45.23794653031476" lon="9.289271633248855"><ele>77.0</ele><time>2026-04-10T11:10:28.999Z</time></trkpt><trkpt lat="45.23792230679967" lon="9.289379999106725"><ele>77.0</ele><time>2026-04-10T11:10:31.999Z</time></trkpt><trkpt lat="45.237902709019586" lon="9.28950765132641"><ele>77.0</ele><time>2026-04-10T11:11:39Z</time></trkpt><trkpt lat="45.23786553623764" lon="9.289689330042169"><ele>77.0</ele><time>2026-04-10T11:11:41Z</time></trkpt><trkpt lat="45.23784626314098" lon="9.289783702655328"><ele>77.0</ele><time>2026-04-10T11:11:42Z</time></trkpt><trkpt lat="45.237824084800366" lon="9.289876109962435"><ele>77.0</ele><time>2026-04-10T11:11:43Z</time></trkpt><trkpt lat="45.23779764319787" lon="9.289984870679593"><ele>77.0</ele><time>2026-04-10T11:11:44Z</time></trkpt><trkpt lat="45.237765442951115" lon="9.29010025264434"><ele>77.0</ele><time>2026-04-10T11:11:45Z</time></trkpt><trkpt lat="45.23773286221696" lon="9.290223590825581"><ele>77.0</ele><time>2026-04-10T11:11:46Z</time></trkpt><trkpt lat="45.23769103586103" lon="9.29037050817675"><ele>77.0</ele><time>2026-04-10T11:11:47Z</time></trkpt><trkpt lat="45.2376465936944" lon="9.290538811908142"><ele>77.0</ele><time>2026-04-10T11:11:48Z</time></trkpt><trkpt lat="45.23760137087632" lon="9.290688430534496"><ele>77.0</ele><time>2026-04-10T11:11:49Z</time></trkpt><trkpt lat="45.23757165581578" lon="9.290822840905243"><ele>77.0</ele><time>2026-04-10T11:11:50Z</time></trkpt><trkpt lat="45.2375445953196" lon="9.290956480979473"><ele>77.0</ele><time>2026-04-10T11:11:51Z</time></trkpt><trkpt lat="45.23751510066902" lon="9.291090921169314"><ele>77.0</ele><time>2026-04-10T11:11:52Z</time></trkpt><trkpt lat="45.23748068552165" lon="9.291205370112408"><ele>77.0</ele><time>2026-04-10T11:11:53Z</time></trkpt><trkpt lat="45.2374306095144" lon="9.291313647271219"><ele>77.0</ele><time>2026-04-10T11:11:54Z</time></trkpt><trkpt lat="45.23736864564183" lon="9.291418651062113"><ele>77.0</ele><time>2026-04-10T11:11:55Z</time></trkpt><trkpt lat="45.237291826540975" lon="9.29152286973274"><ele>77.0</ele><time>2026-04-10T11:11:56Z</time></trkpt><trkpt lat="45.23720744379344" lon="9.291636885352519"><ele>77.0</ele><time>2026-04-10T11:11:57Z</time></trkpt><trkpt lat="45.23712286722295" lon="9.291757054783501"><ele>77.0</ele><time>2026-04-10T11:11:58Z</time></trkpt><trkpt lat="45.237037890587196" lon="9.29187541411428"><ele>77.0</ele><time>2026-04-10T11:11:59Z</time></trkpt><trkpt lat="45.23696381850705" lon="9.291986069625931"><ele>77.0</ele><time>2026-04-10T11:12:00Z</time></trkpt><trkpt lat="45.23688916442004" lon="9.292094693996939"><ele>77.0</ele><time>2026-04-10T11:12:01Z</time></trkpt><trkpt lat="45.23682547294193" lon="9.292197806988469"><ele>77.0</ele><time>2026-04-10T11:12:02Z</time></trkpt><trkpt lat="45.23673164036799" lon="9.292273343388617"><ele>77.0</ele><time>2026-04-10T11:12:03Z</time></trkpt><trkpt lat="45.23666270292541" lon="9.292383814974134"><ele>77.0</ele><time>2026-04-10T11:12:04Z</time></trkpt><trkpt lat="45.23660230130039" lon="9.29250350111453"><ele>77.0</ele><time>2026-04-10T11:12:05Z</time></trkpt><trkpt lat="45.236527412591755" lon="9.292582355733547"><ele>77.0</ele><time>2026-04-10T11:12:06Z</time></trkpt><trkpt lat="45.236469732475015" lon="9.292665425873539"><ele>77.0</ele><time>2026-04-10T11:12:07Z</time></trkpt><trkpt lat="45.23641574344997" lon="9.292744502787091"><ele>77.0</ele><time>2026-04-10T11:12:08Z</time></trkpt><trkpt lat="45.236357545125095" lon="9.292830911573036"><ele>77.0</ele><time>2026-04-10T11:12:09Z</time></trkpt><trkpt lat="45.236302736701624" lon="9.29291318573791"><ele>77.0</ele><time>2026-04-10T11:12:10Z</time></trkpt><trkpt lat="45.23626861344455" lon="9.29299892672006"><ele>77.0</ele><time>2026-04-10T11:12:11Z</time></trkpt><trkpt lat="45.23619785241082" lon="9.293096097240397"><ele>77.0</ele><time>2026-04-10T11:12:13Z</time></trkpt><trkpt lat="45.236146975755695" lon="9.293171764593964"><ele>77.0</ele><time>2026-04-10T11:12:15Z</time></trkpt><trkpt lat="45.23608397896387" lon="9.293258287507607"><ele>77.0</ele><time>2026-04-10T11:12:18Z</time></trkpt><trkpt lat="45.23616905180622" lon="9.293403285736398"><ele>76.8</ele><time>2026-04-10T11:12:19Z</time></trkpt><trkpt lat="45.2362352314815" lon="9.293543464148954"><ele>76.6</ele><time>2026-04-10T11:12:21Z</time></trkpt><trkpt lat="45.23628650919996" lon="9.293676346615799"><ele>76.39999999999999</ele><time>2026-04-10T11:12:22.999Z</time></trkpt><trkpt lat="45.23634089137028" lon="9.293788704240852"><ele>76.2</ele><time>2026-04-10T11:12:24.999Z</time></trkpt><trkpt lat="45.23637051956377" lon="9.293932212401163"><ele>76.0</ele><time>2026-04-10T11:12:26.999Z</time></trkpt><trkpt lat="45.23641357985693" lon="9.294018995770495"><ele>75.85714285714285</ele><time>2026-04-10T11:12:28.999Z</time></trkpt><trkpt lat="45.23633827804452" lon="9.294115994319668"><ele>75.71428571428572</ele><time>2026-04-10T11:12:30.999Z</time></trkpt><trkpt lat="45.2363112680508" lon="9.294197787420622"><ele>75.57142857142857</ele><time>2026-04-10T11:12:31.999Z</time></trkpt><trkpt lat="45.23628728189877" lon="9.294281803504"><ele>75.42857142857142</ele><time>2026-04-10T11:12:32.999Z</time></trkpt><trkpt lat="45.236254508201604" lon="9.294372315683002"><ele>75.28571428571428</ele><time>2026-04-10T11:12:33.999Z</time></trkpt><trkpt lat="45.23621765993528" lon="9.294451627189563"><ele>75.14285714285714</ele><time>2026-04-10T11:12:34.999Z</time></trkpt><trkpt lat="45.236170244539416" lon="9.294528237608224"><ele>75.0</ele><time>2026-04-10T11:12:35.999Z</time></trkpt><trkpt lat="45.23610982547272" lon="9.294624626877416"><ele>75.0</ele><time>2026-04-10T11:12:36.999Z</time></trkpt><trkpt lat="45.236034077671114" lon="9.294735621104548"><ele>75.0</ele><time>2026-04-10T11:12:37.999Z</time></trkpt><trkpt lat="45.23596003521028" lon="9.294842149931188"><ele>75.0</ele><time>2026-04-10T11:12:38.999Z</time></trkpt><trkpt lat="45.23588071317877" lon="9.294960447448759"><ele>75.0</ele><time>2026-04-10T11:12:39.999Z</time></trkpt><trkpt lat="45.23580111337974" lon="9.2950869010372"><ele>75.0</ele><time>2026-04-10T11:12:40.999Z</time></trkpt><trkpt lat="45.235740664083735" lon="9.295216537780064"><ele>75.2</ele><time>2026-04-10T11:12:41.999Z</time></trkpt><trkpt lat="45.23566075104373" lon="9.295309177487855"><ele>75.4</ele><time>2026-04-10T11:12:42.999Z</time></trkpt><trkpt lat="45.23559833460988" lon="9.29540663936719"><ele>75.6</ele><time>2026-04-10T11:12:43.999Z</time></trkpt><trkpt lat="45.23553362580023" lon="9.295505119623328"><ele>75.8</ele><time>2026-04-10T11:12:44.999Z</time></trkpt><trkpt lat="45.23547071148739" lon="9.295599830140137"><ele>76.0</ele><time>2026-04-10T11:12:45.999Z</time></trkpt><trkpt lat="45.2354005303201" lon="9.295705557367913"><ele>76.2</ele><time>2026-04-10T11:12:46.999Z</time></trkpt><trkpt lat="45.23532839135262" lon="9.29581973387294"><ele>76.39999999999999</ele><time>2026-04-10T11:12:47.999Z</time></trkpt><trkpt lat="45.23525180569328" lon="9.295951979796058"><ele>76.6</ele><time>2026-04-10T11:12:48.999Z</time></trkpt><trkpt lat="45.23518284023036" lon="9.296076737582965"><ele>76.8</ele><time>2026-04-10T11:12:49.999Z</time></trkpt><trkpt lat="45.23512282793556" lon="9.296188125507218"><ele>77.0</ele><time>2026-04-10T11:12:50.999Z</time></trkpt><trkpt lat="45.235070465414495" lon="9.296287279401758"><ele>77.0</ele><time>2026-04-10T11:12:51.999Z</time></trkpt><trkpt lat="45.235025769950525" lon="9.296373182876907"><ele>77.0</ele><time>2026-04-10T11:12:52.999Z</time></trkpt><trkpt lat="45.23498695776219" lon="9.296447778963199"><ele>77.0</ele><time>2026-04-10T11:12:53.999Z</time></trkpt><trkpt lat="45.234944333596296" lon="9.296529297674953"><ele>77.0</ele><time>2026-04-10T11:12:54.999Z</time></trkpt><trkpt lat="45.23490652921805" lon="9.296629415327892"><ele>77.0</ele><time>2026-04-10T11:12:55.999Z</time></trkpt><trkpt lat="45.23485498433334" lon="9.296734012454124"><ele>77.0</ele><time>2026-04-10T11:12:56.999Z</time></trkpt><trkpt lat="45.23479358590653" lon="9.296853101502158"><ele>76.83333333333334</ele><time>2026-04-10T11:12:57.999Z</time></trkpt><trkpt lat="45.2347262079945" lon="9.296955795402532"><ele>76.66666666666667</ele><time>2026-04-10T11:12:58.999Z</time></trkpt><trkpt lat="45.23467538997981" lon="9.29706033403979"><ele>76.5</ele><time>2026-04-10T11:12:59.999Z</time></trkpt><trkpt lat="45.23462543111812" lon="9.297151815399607"><ele>76.33333333333333</ele><time>2026-04-10T11:13:00.999Z</time></trkpt><trkpt lat="45.23457159130756" lon="9.297226308883191"><ele>76.16666666666666</ele><time>2026-04-10T11:13:01.999Z</time></trkpt><trkpt lat="45.23451312069718" lon="9.297293381105773"><ele>76.0</ele><time>2026-04-10T11:13:02.999Z</time></trkpt><trkpt lat="45.23444984857401" lon="9.297351077467237"><ele>76.0</ele><time>2026-04-10T11:13:03.999Z</time></trkpt><trkpt lat="45.23438078830328" lon="9.297407000764156"><ele>76.0</ele><time>2026-04-10T11:13:04.999Z</time></trkpt><trkpt lat="45.23430356720923" lon="9.297456445131544"><ele>76.0</ele><time>2026-04-10T11:13:05.999Z</time></trkpt><trkpt lat="45.234215442281815" lon="9.29750855038365"><ele>76.0</ele><time>2026-04-10T11:13:06.999Z</time></trkpt><trkpt lat="45.23412827300859" lon="9.297556079008656"><ele>76.0</ele><time>2026-04-10T11:13:07.999Z</time></trkpt><trkpt lat="45.23403769659551" lon="9.29760157435242"><ele>76.0</ele><time>2026-04-10T11:13:08.999Z</time></trkpt><trkpt lat="45.23394639114848" lon="9.297640282550107"><ele>76.0</ele><time>2026-04-10T11:13:09.999Z</time></trkpt><trkpt lat="45.23385856904967" lon="9.297668350126862"><ele>76.0</ele><time>2026-04-10T11:13:10.999Z</time></trkpt><trkpt lat="45.2337827422863" lon="9.297690533479626"><ele>76.0</ele><time>2026-04-10T11:13:11.999Z</time></trkpt><trkpt lat="45.23370403184428" lon="9.29771119955585"><ele>76.0</ele><time>2026-04-10T11:13:12.999Z</time></trkpt><trkpt lat="45.23361587499027" lon="9.297732779370007"><ele>76.0</ele><time>2026-04-10T11:13:13.999Z</time></trkpt><trkpt lat="45.23351716147008" lon="9.297755352944133"><ele>76.0</ele><time>2026-04-10T11:13:14.999Z</time></trkpt><trkpt lat="45.233422251865626" lon="9.297777383338477"><ele>76.0</ele><time>2026-04-10T11:13:15.999Z</time></trkpt><trkpt lat="45.2333224756657" lon="9.297798645045662"><ele>76.0</ele><time>2026-04-10T11:13:16.999Z</time></trkpt><trkpt lat="45.23322741032727" lon="9.297818058853467"><ele>76.0</ele><time>2026-04-10T11:13:17.999Z</time></trkpt><trkpt lat="45.23312805346061" lon="9.29783834906311"><ele>76.0</ele><time>2026-04-10T11:13:18.998Z</time></trkpt><trkpt lat="45.23303647421665" lon="9.297857050958745"><ele>76.0</ele><time>2026-04-10T11:13:19.998Z</time></trkpt><trkpt lat="45.23293856536506" lon="9.297877045462204"><ele>75.6</ele><time>2026-04-10T11:13:20.998Z</time></trkpt><trkpt lat="45.23283610695961" lon="9.297897674258973"><ele>75.19999999999999</ele><time>2026-04-10T11:13:21.998Z</time></trkpt><trkpt lat="45.23273497191038" lon="9.297917886191037"><ele>74.80000000000001</ele><time>2026-04-10T11:13:22.998Z</time></trkpt><trkpt lat="45.232627397996154" lon="9.2979393370909"><ele>74.4</ele><time>2026-04-10T11:13:23.998Z</time></trkpt><trkpt lat="45.2325113496956" lon="9.29796184679278"><ele>74.0</ele><time>2026-04-10T11:13:25Z</time></trkpt><trkpt lat="45.23239938961434" lon="9.297982560407082"><ele>74.4</ele><time>2026-04-10T11:13:26Z</time></trkpt><trkpt lat="45.23227967568884" lon="9.29800218242615"><ele>74.80000000000001</ele><time>2026-04-10T11:13:27Z</time></trkpt><trkpt lat="45.23217270821469" lon="9.298016150709245"><ele>75.19999999999999</ele><time>2026-04-10T11:13:28Z</time></trkpt><trkpt lat="45.232072058955026" lon="9.298024370757469"><ele>75.6</ele><time>2026-04-10T11:13:29Z</time></trkpt><trkpt lat="45.231981497169755" lon="9.298027854463994"><ele>76.0</ele><time>2026-04-10T11:13:30Z</time></trkpt><trkpt lat="45.231896401199016" lon="9.298030037806702"><ele>76.0</ele><time>2026-04-10T11:13:31Z</time></trkpt><trkpt lat="45.23181485328254" lon="9.298033417872237"><ele>76.0</ele><time>2026-04-10T11:13:32Z</time></trkpt><trkpt lat="45.23173317627404" lon="9.298040471793819"><ele>76.0</ele><time>2026-04-10T11:13:33Z</time></trkpt><trkpt lat="45.23164523281241" lon="9.298050745420449"><ele>76.0</ele><time>2026-04-10T11:13:34Z</time></trkpt><trkpt lat="45.23154858503678" lon="9.298061178067618"><ele>76.0</ele><time>2026-04-10T11:13:35Z</time></trkpt><trkpt lat="45.231448712685136" lon="9.298064531790013"><ele>76.0</ele><time>2026-04-10T11:13:36Z</time></trkpt><trkpt lat="45.231356250602005" lon="9.298055505531055"><ele>76.0</ele><time>2026-04-10T11:13:37Z</time></trkpt><trkpt lat="45.231265786965935" lon="9.298036441709112"><ele>76.0</ele><time>2026-04-10T11:13:38Z</time></trkpt><trkpt lat="45.23117188936383" lon="9.298005919185018"><ele>76.0</ele><time>2026-04-10T11:13:39Z</time></trkpt><trkpt lat="45.231088533483614" lon="9.297974294515868"><ele>76.0</ele><time>2026-04-10T11:13:40Z</time></trkpt><trkpt lat="45.231010974932985" lon="9.297938776298007"><ele>76.0</ele><time>2026-04-10T11:13:41Z</time></trkpt><trkpt lat="45.230925045323254" lon="9.297901822603814"><ele>76.0</ele><time>2026-04-10T11:13:42Z</time></trkpt><trkpt lat="45.230833741716744" lon="9.297884977567056"><ele>76.0</ele><time>2026-04-10T11:13:43Z</time></trkpt><trkpt lat="45.23072997380516" lon="9.297883878012696"><ele>76.0</ele><time>2026-04-10T11:13:44Z</time></trkpt><trkpt lat="45.23061775526687" lon="9.297890961126873"><ele>76.0</ele><time>2026-04-10T11:13:45Z</time></trkpt><trkpt lat="45.23050499981216" lon="9.297909485737929"><ele>76.0</ele><time>2026-04-10T11:13:46Z</time></trkpt><trkpt lat="45.23039230041189" lon="9.297926638437966"><ele>76.0</ele><time>2026-04-10T11:13:47Z</time></trkpt><trkpt lat="45.230288391294" lon="9.297939500155115"><ele>76.0</ele><time>2026-04-10T11:13:48Z</time></trkpt><trkpt lat="45.23017933419122" lon="9.297952696349059"><ele>76.0</ele><time>2026-04-10T11:13:49Z</time></trkpt><trkpt lat="45.230060595023815" lon="9.297966781815676"><ele>76.0</ele><time>2026-04-10T11:13:50Z</time></trkpt><trkpt lat="45.22995070148855" lon="9.297981706498103"><ele>76.0</ele><time>2026-04-10T11:13:51Z</time></trkpt><trkpt lat="45.22984844025743" lon="9.297996402993904"><ele>76.0</ele><time>2026-04-10T11:13:52Z</time></trkpt><trkpt lat="45.22974859853408" lon="9.298013493734372"><ele>76.0</ele><time>2026-04-10T11:13:53Z</time></trkpt><trkpt lat="45.229658792401985" lon="9.298056714469942"><ele>76.0</ele><time>2026-04-10T11:13:54Z</time></trkpt><trkpt lat="45.22956455508882" lon="9.298055703923454"><ele>76.0</ele><time>2026-04-10T11:13:55Z</time></trkpt><trkpt lat="45.22948546011568" lon="9.298080530133719"><ele>76.0</ele><time>2026-04-10T11:13:56Z</time></trkpt><trkpt lat="45.229417481329826" lon="9.298104951537892"><ele>76.0</ele><time>2026-04-10T11:13:57Z</time></trkpt><trkpt lat="45.22935561892686" lon="9.298145965934179"><ele>76.0</ele><time>2026-04-10T11:13:58Z</time></trkpt><trkpt lat="45.229304642044525" lon="9.298202979781893"><ele>76.0</ele><time>2026-04-10T11:13:59Z</time></trkpt><trkpt lat="45.22921052590362" lon="9.298316375897475"><ele>76.0</ele><time>2026-04-10T11:14:01Z</time></trkpt><trkpt lat="45.229154769185975" lon="9.298383135627033"><ele>76.0</ele><time>2026-04-10T11:14:02Z</time></trkpt><trkpt lat="45.22910297017793" lon="9.298447234994317"><ele>76.0</ele><time>2026-04-10T11:14:03Z</time></trkpt><trkpt lat="45.22902507134995" lon="9.298543651844472"><ele>76.0</ele><time>2026-04-10T11:14:05Z</time></trkpt><trkpt lat="45.22895530830648" lon="9.298602332753166"><ele>76.0</ele><time>2026-04-10T11:14:07Z</time></trkpt><trkpt lat="45.22886840192285" lon="9.2985947452281"><ele>76.0</ele><time>2026-04-10T11:14:09Z</time></trkpt><trkpt lat="45.22880166568632" lon="9.298467800214395"><ele>76.0</ele><time>2026-04-10T11:14:11Z</time></trkpt><trkpt lat="45.228744408345065" lon="9.298370014716507"><ele>76.0</ele><time>2026-04-10T11:14:13Z</time></trkpt><trkpt lat="45.22867011850914" lon="9.298262756810304"><ele>76.0</ele><time>2026-04-10T11:14:15Z</time></trkpt><trkpt lat="45.2286061345426" lon="9.298153469883415"><ele>76.0</ele><time>2026-04-10T11:14:16Z</time></trkpt><trkpt lat="45.22854417999136" lon="9.298035762345366"><ele>76.0</ele><time>2026-04-10T11:14:17Z</time></trkpt><trkpt lat="45.22848443612139" lon="9.297922170701588"><ele>76.0</ele><time>2026-04-10T11:14:18Z</time></trkpt><trkpt lat="45.228421659984186" lon="9.297805398125407"><ele>76.0</ele><time>2026-04-10T11:14:19Z</time></trkpt><trkpt lat="45.228368754207935" lon="9.297709002017314"><ele>76.0</ele><time>2026-04-10T11:14:20Z</time></trkpt><trkpt lat="45.22832793039889" lon="9.29763398985253"><ele>76.0</ele><time>2026-04-10T11:14:21Z</time></trkpt><trkpt lat="45.22827070027106" lon="9.297532482991537"><ele>76.0</ele><time>2026-04-10T11:14:22Z</time></trkpt><trkpt lat="45.228207876586396" lon="9.297415536617894"><ele>76.0</ele><time>2026-04-10T11:14:23Z</time></trkpt><trkpt lat="45.22816014024244" lon="9.297317637832391"><ele>76.0</ele><time>2026-04-10T11:14:24Z</time></trkpt><trkpt lat="45.228122045460005" lon="9.297231131226448"><ele>76.0</ele><time>2026-04-10T11:14:25Z</time></trkpt><trkpt lat="45.22808460803189" lon="9.297140166455488"><ele>76.0</ele><time>2026-04-10T11:14:26Z</time></trkpt><trkpt lat="45.22804288868065" lon="9.297047232856423"><ele>76.0</ele><time>2026-04-10T11:14:27Z</time></trkpt><trkpt lat="45.227955597827496" lon="9.296974666804747"><ele>76.0</ele><time>2026-04-10T11:14:28.999Z</time></trkpt><trkpt lat="45.22783312539391" lon="9.29698901138852"><ele>75.83333333333333</ele><time>2026-04-10T11:14:30.999Z</time></trkpt><trkpt lat="45.22775791794458" lon="9.297054182377508"><ele>75.66666666666666</ele><time>2026-04-10T11:14:31.999Z</time></trkpt><trkpt lat="45.22768424587161" lon="9.297109034785077"><ele>75.5</ele><time>2026-04-10T11:14:32.999Z</time></trkpt><trkpt lat="45.22761676752165" lon="9.297159043819512"><ele>75.33333333333333</ele><time>2026-04-10T11:14:33.999Z</time></trkpt><trkpt lat="45.22755378913674" lon="9.297205719879212"><ele>75.16666666666667</ele><time>2026-04-10T11:14:34.999Z</time></trkpt><trkpt lat="45.227490103038335" lon="9.297252918337033"><ele>75.0</ele><time>2026-04-10T11:14:35.999Z</time></trkpt><trkpt lat="45.2274201586276" lon="9.29730558417459"><ele>75.0</ele><time>2026-04-10T11:14:36.999Z</time></trkpt><trkpt lat="45.227344636879" lon="9.297362537548146"><ele>75.0</ele><time>2026-04-10T11:14:37.999Z</time></trkpt><trkpt lat="45.22726275724709" lon="9.297425123448505"><ele>75.0</ele><time>2026-04-10T11:14:38.999Z</time></trkpt><trkpt lat="45.22717794391548" lon="9.297490881144016"><ele>75.0</ele><time>2026-04-10T11:14:39.999Z</time></trkpt><trkpt lat="45.22709047106656" lon="9.297561349441528"><ele>75.0</ele><time>2026-04-10T11:14:40.999Z</time></trkpt><trkpt lat="45.22700444962467" lon="9.297631942084621"><ele>74.8</ele><time>2026-04-10T11:14:41.999Z</time></trkpt><trkpt lat="45.22691315326761" lon="9.29770478526626"><ele>74.6</ele><time>2026-04-10T11:14:42.999Z</time></trkpt><trkpt lat="45.22682389846096" lon="9.29777550906846"><ele>74.4</ele><time>2026-04-10T11:14:43.999Z</time></trkpt><trkpt lat="45.22672758193356" lon="9.297845560394551"><ele>74.2</ele><time>2026-04-10T11:14:44.999Z</time></trkpt><trkpt lat="45.22662817412217" lon="9.297904914963844"><ele>74.0</ele><time>2026-04-10T11:14:45.999Z</time></trkpt><trkpt lat="45.22652058112307" lon="9.297967521023034"><ele>74.2</ele><time>2026-04-10T11:14:46.999Z</time></trkpt><trkpt lat="45.22641438425308" lon="9.298053456737877"><ele>74.4</ele><time>2026-04-10T11:14:47.999Z</time></trkpt><trkpt lat="45.22632897216906" lon="9.298134602086577"><ele>74.6</ele><time>2026-04-10T11:14:48.999Z</time></trkpt><trkpt lat="45.22625188692018" lon="9.298208575601741"><ele>74.8</ele><time>2026-04-10T11:14:49.999Z</time></trkpt><trkpt lat="45.226186619844476" lon="9.29826915205951"><ele>75.0</ele><time>2026-04-10T11:14:50.999Z</time></trkpt><trkpt lat="45.22613236484457" lon="9.298318628848651"><ele>75.16666666666667</ele><time>2026-04-10T11:14:51.999Z</time></trkpt><trkpt lat="45.226056331318034" lon="9.298384621559745"><ele>75.33333333333333</ele><time>2026-04-10T11:14:53.999Z</time></trkpt><trkpt lat="45.22598622567812" lon="9.298445761491513"><ele>75.5</ele><time>2026-04-10T11:14:55.999Z</time></trkpt><trkpt lat="45.22589937459931" lon="9.298520227435164"><ele>75.66666666666666</ele><time>2026-04-10T11:14:57.999Z</time></trkpt><trkpt lat="45.225829504432326" lon="9.298579540862203"><ele>75.83333333333333</ele><time>2026-04-10T11:14:59.999Z</time></trkpt><trkpt lat="45.22575616903862" lon="9.298641795951141"><ele>76.0</ele><time>2026-04-10T11:15:02.999Z</time></trkpt><trkpt lat="45.22570045445841" lon="9.298689092586192"><ele>76.0</ele><time>2026-04-10T11:15:04.999Z</time></trkpt><trkpt lat="45.22556620761361" lon="9.298803386676692"><ele>76.0</ele><time>2026-04-10T11:15:06.999Z</time></trkpt><trkpt lat="45.225462094877706" lon="9.298893799176849"><ele>76.0</ele><time>2026-04-10T11:15:07.999Z</time></trkpt><trkpt lat="45.225352620341816" lon="9.298988867974318"><ele>76.0</ele><time>2026-04-10T11:15:08.999Z</time></trkpt><trkpt lat="45.22523659707187" lon="9.299087304101372"><ele>76.0</ele><time>2026-04-10T11:15:09.999Z</time></trkpt><trkpt lat="45.22511137212584" lon="9.299193301919587"><ele>76.0</ele><time>2026-04-10T11:15:10.999Z</time></trkpt><trkpt lat="45.22499070258129" lon="9.299295443823945"><ele>76.0</ele><time>2026-04-10T11:15:11.999Z</time></trkpt><trkpt lat="45.22487481631284" lon="9.299394393637147"><ele>76.0</ele><time>2026-04-10T11:15:12.999Z</time></trkpt><trkpt lat="45.22477069730928" lon="9.299484781293444"><ele>75.83333333333333</ele><time>2026-04-10T11:15:13.999Z</time></trkpt><trkpt lat="45.224685548615966" lon="9.29956161610989"><ele>75.66666666666666</ele><time>2026-04-10T11:15:14.999Z</time></trkpt><trkpt lat="45.22461154442031" lon="9.299628146091743"><ele>75.5</ele><time>2026-04-10T11:15:15.999Z</time></trkpt><trkpt lat="45.22454551358191" lon="9.299675781595278"><ele>75.33333333333333</ele><time>2026-04-10T11:15:16.999Z</time></trkpt><trkpt lat="45.2244860198757" lon="9.299709862409461"><ele>75.16666666666667</ele><time>2026-04-10T11:15:17.999Z</time></trkpt><trkpt lat="45.224402770313084" lon="9.299627343604978"><ele>75.0</ele><time>2026-04-10T11:15:19.999Z</time></trkpt><trkpt lat="45.22433422837434" lon="9.299568558983967"><ele>75.0</ele><time>2026-04-10T11:15:20.999Z</time></trkpt><trkpt lat="45.22426476148142" lon="9.299503265806337"><ele>75.0</ele><time>2026-04-10T11:15:21.999Z</time></trkpt><trkpt lat="45.22419032566447" lon="9.299478566043366"><ele>75.0</ele><time>2026-04-10T11:15:22.999Z</time></trkpt><trkpt lat="45.224111516636505" lon="9.299510242864871"><ele>75.0</ele><time>2026-04-10T11:15:23.999Z</time></trkpt><trkpt lat="45.224035342162956" lon="9.299580631404448"><ele>75.0</ele><time>2026-04-10T11:15:24.998Z</time></trkpt><trkpt lat="45.22396018423326" lon="9.299635177591806"><ele>75.0</ele><time>2026-04-10T11:15:25.998Z</time></trkpt><trkpt lat="45.22388874354131" lon="9.299688933414915"><ele>74.66666666666667</ele><time>2026-04-10T11:15:26.998Z</time></trkpt><trkpt lat="45.223816355614176" lon="9.299744248319264"><ele>74.33333333333333</ele><time>2026-04-10T11:15:27.998Z</time></trkpt><trkpt lat="45.22374303975201" lon="9.299802264711056"><ele>74.0</ele><time>2026-04-10T11:15:28.998Z</time></trkpt><trkpt lat="45.223674049007094" lon="9.29985685857932"><ele>73.66666666666666</ele><time>2026-04-10T11:15:29.998Z</time></trkpt><trkpt lat="45.223593426657395" lon="9.299919816273642"><ele>73.33333333333333</ele><time>2026-04-10T11:15:31Z</time></trkpt><trkpt lat="45.223495186385534" lon="9.299995467406896"><ele>73.0</ele><time>2026-04-10T11:15:32Z</time></trkpt><trkpt lat="45.22338619411897" lon="9.300079398146062"><ele>73.0</ele><time>2026-04-10T11:15:33Z</time></trkpt><trkpt lat="45.22326587198983" lon="9.300171546911528"><ele>73.0</ele><time>2026-04-10T11:15:34Z</time></trkpt><trkpt lat="45.22314948533317" lon="9.300259807258952"><ele>73.0</ele><time>2026-04-10T11:15:35Z</time></trkpt><trkpt lat="45.223022594918646" lon="9.300354786689404"><ele>73.0</ele><time>2026-04-10T11:15:36Z</time></trkpt><trkpt lat="45.22290686177018" lon="9.300440154789992"><ele>73.25</ele><time>2026-04-10T11:15:37Z</time></trkpt><trkpt lat="45.222792611877345" lon="9.300522857545488"><ele>73.5</ele><time>2026-04-10T11:15:38Z</time></trkpt><trkpt lat="45.22267640378581" lon="9.300596974768276"><ele>73.75</ele><time>2026-04-10T11:15:39Z</time></trkpt><trkpt lat="45.22255774092095" lon="9.300658409985264"><ele>74.0</ele><time>2026-04-10T11:15:40Z</time></trkpt><trkpt lat="45.22243499625698" lon="9.300702231377812"><ele>74.25</ele><time>2026-04-10T11:15:41Z</time></trkpt><trkpt lat="45.222304731890546" lon="9.30073539366683"><ele>74.5</ele><time>2026-04-10T11:15:42Z</time></trkpt><trkpt lat="45.22217613112386" lon="9.300770798735506"><ele>74.75</ele><time>2026-04-10T11:15:43Z</time></trkpt><trkpt lat="45.22204410775092" lon="9.300802810011945"><ele>75.0</ele><time>2026-04-10T11:15:44Z</time></trkpt><trkpt lat="45.22191095576228" lon="9.300845828554774"><ele>75.0</ele><time>2026-04-10T11:15:45Z</time></trkpt><trkpt lat="45.22178035851202" lon="9.300913678462553"><ele>75.0</ele><time>2026-04-10T11:15:46Z</time></trkpt><trkpt lat="45.22165903307901" lon="9.300995545923545"><ele>75.0</ele><time>2026-04-10T11:15:47Z</time></trkpt><trkpt lat="45.22153652283454" lon="9.301086739932481"><ele>75.0</ele><time>2026-04-10T11:15:48Z</time></trkpt><trkpt lat="45.22141048377493" lon="9.301184885055799"><ele>75.0</ele><time>2026-04-10T11:15:49Z</time></trkpt><trkpt lat="45.22128177287245" lon="9.301289662126399"><ele>75.0</ele><time>2026-04-10T11:15:50Z</time></trkpt><trkpt lat="45.22115761452095" lon="9.301391206225968"><ele>75.0</ele><time>2026-04-10T11:15:51Z</time></trkpt><trkpt lat="45.2210415851583" lon="9.301488026628364"><ele>75.0</ele><time>2026-04-10T11:15:52Z</time></trkpt><trkpt lat="45.22093628212065" lon="9.301575298527604"><ele>74.75</ele><time>2026-04-10T11:15:53Z</time></trkpt><trkpt lat="45.22083114310996" lon="9.301664198718429"><ele>74.5</ele><time>2026-04-10T11:15:54Z</time></trkpt><trkpt lat="45.220723157577815" lon="9.301755322512632"><ele>74.25</ele><time>2026-04-10T11:15:55Z</time></trkpt><trkpt lat="45.22061087597065" lon="9.301850992112488"><ele>74.0</ele><time>2026-04-10T11:15:56Z</time></trkpt><trkpt lat="45.220502731112084" lon="9.301938668602343"><ele>74.0</ele><time>2026-04-10T11:15:57Z</time></trkpt><trkpt lat="45.22040268558539" lon="9.30201764316336"><ele>74.0</ele><time>2026-04-10T11:15:58Z</time></trkpt><trkpt lat="45.22029730767913" lon="9.302097373515418"><ele>74.0</ele><time>2026-04-10T11:15:59Z</time></trkpt><trkpt lat="45.22018778254187" lon="9.302179328754372"><ele>74.0</ele><time>2026-04-10T11:16:00Z</time></trkpt><trkpt lat="45.220076072355674" lon="9.302262213921841"><ele>74.0</ele><time>2026-04-10T11:16:01Z</time></trkpt><trkpt lat="45.21997906772909" lon="9.302330532486955"><ele>74.0</ele><time>2026-04-10T11:16:02Z</time></trkpt><trkpt lat="45.21988926001324" lon="9.302385182295462"><ele>74.0</ele><time>2026-04-10T11:16:03Z</time></trkpt><trkpt lat="45.21980443987792" lon="9.302439686681733"><ele>74.0</ele><time>2026-04-10T11:16:04Z</time></trkpt><trkpt lat="45.219735695381836" lon="9.302490251303588"><ele>74.0</ele><time>2026-04-10T11:16:05Z</time></trkpt><trkpt lat="45.21967864139549" lon="9.302533739960895"><ele>74.0</ele><time>2026-04-10T11:16:06Z</time></trkpt><trkpt lat="45.21961754658591" lon="9.30258581132288"><ele>74.0</ele><time>2026-04-10T11:16:08Z</time></trkpt><trkpt lat="45.21956659851626" lon="9.302452437616328"><ele>74.0</ele><time>2026-04-10T11:16:10Z</time></trkpt><trkpt lat="45.219524472420815" lon="9.30234784567944"><ele>74.0</ele><time>2026-04-10T11:16:11Z</time></trkpt><trkpt lat="45.21946425955712" lon="9.302222145735222"><ele>74.0</ele><time>2026-04-10T11:16:12Z</time></trkpt><trkpt lat="45.21938386590819" lon="9.302084566739296"><ele>74.0</ele><time>2026-04-10T11:16:13Z</time></trkpt><trkpt lat="45.219311902082154" lon="9.301949307936983"><ele>74.0</ele><time>2026-04-10T11:16:14Z</time></trkpt><trkpt lat="45.219248270246574" lon="9.301807734336993"><ele>74.0</ele><time>2026-04-10T11:16:15Z</time></trkpt><trkpt lat="45.219166803494815" lon="9.30167931675734"><ele>74.0</ele><time>2026-04-10T11:16:16Z</time></trkpt><trkpt lat="45.21907902542361" lon="9.301564260416413"><ele>74.0</ele><time>2026-04-10T11:16:17Z</time></trkpt><trkpt lat="45.218987190670504" lon="9.301454638354805"><ele>74.25</ele><time>2026-04-10T11:16:18Z</time></trkpt><trkpt lat="45.218892804933695" lon="9.301342214302782"><ele>74.5</ele><time>2026-04-10T11:16:19Z</time></trkpt><trkpt lat="45.21880590786341" lon="9.30123624501984"><ele>74.75</ele><time>2026-04-10T11:16:20Z</time></trkpt><trkpt lat="45.218725354212346" lon="9.30114179510099"><ele>75.0</ele><time>2026-04-10T11:16:21Z</time></trkpt><trkpt lat="45.21863918700037" lon="9.301045995764442"><ele>75.0</ele><time>2026-04-10T11:16:22Z</time></trkpt><trkpt lat="45.21855304312447" lon="9.30096537935762"><ele>75.0</ele><time>2026-04-10T11:16:23Z</time></trkpt><trkpt lat="45.21845037170362" lon="9.300908944005966"><ele>75.0</ele><time>2026-04-10T11:16:24Z</time></trkpt><trkpt lat="45.218353787130475" lon="9.30086262430499"><ele>75.0</ele><time>2026-04-10T11:16:25Z</time></trkpt><trkpt lat="45.218275133018246" lon="9.30081718351854"><ele>75.0</ele><time>2026-04-10T11:16:26Z</time></trkpt><trkpt lat="45.218180266182564" lon="9.30073284278687"><ele>75.16666666666667</ele><time>2026-04-10T11:16:28Z</time></trkpt><trkpt lat="45.21812412123995" lon="9.30062809246775"><ele>75.33333333333333</ele><time>2026-04-10T11:16:30Z</time></trkpt><trkpt lat="45.21807827453936" lon="9.300535589532945"><ele>75.5</ele><time>2026-04-10T11:16:32Z</time></trkpt><trkpt lat="45.21806204956908" lon="9.300448529024354"><ele>75.66666666666666</ele><time>2026-04-10T11:16:34.999Z</time></trkpt><trkpt lat="45.21803776916115" lon="9.300330856937151"><ele>75.83333333333333</ele><time>2026-04-10T11:18:00Z</time></trkpt><trkpt lat="45.21798800987758" lon="9.300175263594875"><ele>76.0</ele><time>2026-04-10T11:18:02Z</time></trkpt><trkpt lat="45.217944957974844" lon="9.300045189503768"><ele>76.0</ele><time>2026-04-10T11:18:04Z</time></trkpt><trkpt lat="45.21789436060042" lon="9.299914337429104"><ele>76.0</ele><time>2026-04-10T11:18:06Z</time></trkpt><trkpt lat="45.21784771920385" lon="9.29980853457807"><ele>76.0</ele><time>2026-04-10T11:18:08Z</time></trkpt><trkpt lat="45.21780265588404" lon="9.299706239668842"><ele>76.0</ele><time>2026-04-10T11:18:10Z</time></trkpt><trkpt lat="45.217642907441494" lon="9.299766978167497"><ele>76.0</ele><time>2026-04-10T11:18:13Z</time></trkpt><trkpt lat="45.21753867752956" lon="9.299792582848584"><ele>76.0</ele><time>2026-04-10T11:18:15Z</time></trkpt><trkpt lat="45.21744102614278" lon="9.299839340401538"><ele>76.0</ele><time>2026-04-10T11:18:17Z</time></trkpt><trkpt lat="45.217362439144964" lon="9.299880521891465"><ele>76.0</ele><time>2026-04-10T11:18:19Z</time></trkpt><trkpt lat="45.217274316575974" lon="9.29992123872606"><ele>76.0</ele><time>2026-04-10T11:18:21Z</time></trkpt><trkpt lat="45.217182156283855" lon="9.299955625894565"><ele>76.0</ele><time>2026-04-10T11:18:23Z</time></trkpt><trkpt lat="45.2171000577802" lon="9.299998963209566"><ele>76.0</ele><time>2026-04-10T11:18:25Z</time></trkpt><trkpt lat="45.21701993039848" lon="9.299997268815392"><ele>76.0</ele><time>2026-04-10T11:18:28Z</time></trkpt></trkseg></trk></gpx>